<?xml version="1.0" encoding="UTF-8" standalone="no" ?>
<gpx xmlns="http://www.topografix.com/GPX/1/1" xmlns:xsi="http://www.w3.org/2001/XMLSchema-instance" xsi:schemaLocation="http://www.topografix.com/GPX/1/1 http://www.topografix.com/GPX/1/1/gpx.xsd" version="1.1" creator="VisuGPX - https://www.visugpx.com">
  <metadata>
    <name>Gillonay</name>
    <desc><![CDATA[Départ le Grand Lemps, tour autour de Gillonay]]></desc>
  </metadata>
  <trk>
    <name><![CDATA[13-FEV-11 11:15:57]]></name>
    <trkseg>
      <trkpt lat="45.38902" lon="5.41499">
        <ele>467.34</ele>
        <time>2011-02-13T06:58:54Z</time>
      </trkpt>
      <trkpt lat="45.38911" lon="5.41503">
        <ele>470.22</ele>
        <time>2011-02-13T06:58:57Z</time>
      </trkpt>
      <trkpt lat="45.3892" lon="5.41507">
        <ele>467.82</ele>
        <time>2011-02-13T06:59:00Z</time>
      </trkpt>
      <trkpt lat="45.38929" lon="5.41511">
        <ele>470.22</ele>
        <time>2011-02-13T06:59:04Z</time>
      </trkpt>
      <trkpt lat="45.38943" lon="5.41518">
        <ele>469.26</ele>
        <time>2011-02-13T06:59:08Z</time>
      </trkpt>
      <trkpt lat="45.38952" lon="5.41522">
        <ele>469.74</ele>
        <time>2011-02-13T06:59:11Z</time>
      </trkpt>
      <trkpt lat="45.38961" lon="5.41526">
        <ele>469.74</ele>
        <time>2011-02-13T06:59:14Z</time>
      </trkpt>
      <trkpt lat="45.38971" lon="5.41527">
        <ele>470.22</ele>
        <time>2011-02-13T06:59:17Z</time>
      </trkpt>
      <trkpt lat="45.38982" lon="5.41531">
        <ele>470.22</ele>
        <time>2011-02-13T06:59:20Z</time>
      </trkpt>
      <trkpt lat="45.38995" lon="5.41534">
        <ele>470.22</ele>
        <time>2011-02-13T06:59:23Z</time>
      </trkpt>
      <trkpt lat="45.39008" lon="5.41537">
        <ele>469.74</ele>
        <time>2011-02-13T06:59:26Z</time>
      </trkpt>
      <trkpt lat="45.39016" lon="5.41539">
        <ele>469.74</ele>
        <time>2011-02-13T06:59:28Z</time>
      </trkpt>
      <trkpt lat="45.39025" lon="5.41541">
        <ele>470.7</ele>
        <time>2011-02-13T06:59:30Z</time>
      </trkpt>
      <trkpt lat="45.39034" lon="5.41544">
        <ele>471.18</ele>
        <time>2011-02-13T06:59:32Z</time>
      </trkpt>
      <trkpt lat="45.39044" lon="5.41547">
        <ele>470.7</ele>
        <time>2011-02-13T06:59:34Z</time>
      </trkpt>
      <trkpt lat="45.39053" lon="5.4155">
        <ele>471.18</ele>
        <time>2011-02-13T06:59:36Z</time>
      </trkpt>
      <trkpt lat="45.39063" lon="5.41554">
        <ele>471.18</ele>
        <time>2011-02-13T06:59:38Z</time>
      </trkpt>
      <trkpt lat="45.39072" lon="5.4156">
        <ele>471.18</ele>
        <time>2011-02-13T06:59:40Z</time>
      </trkpt>
      <trkpt lat="45.39081" lon="5.41566">
        <ele>471.18</ele>
        <time>2011-02-13T06:59:42Z</time>
      </trkpt>
      <trkpt lat="45.3909" lon="5.41573">
        <ele>471.18</ele>
        <time>2011-02-13T06:59:44Z</time>
      </trkpt>
      <trkpt lat="45.39098" lon="5.4158">
        <ele>472.14</ele>
        <time>2011-02-13T06:59:46Z</time>
      </trkpt>
      <trkpt lat="45.39107" lon="5.41587">
        <ele>471.66</ele>
        <time>2011-02-13T06:59:48Z</time>
      </trkpt>
      <trkpt lat="45.39115" lon="5.41594">
        <ele>471.66</ele>
        <time>2011-02-13T06:59:50Z</time>
      </trkpt>
      <trkpt lat="45.39123" lon="5.41601">
        <ele>472.14</ele>
        <time>2011-02-13T06:59:52Z</time>
      </trkpt>
      <trkpt lat="45.39132" lon="5.41607">
        <ele>472.14</ele>
        <time>2011-02-13T06:59:54Z</time>
      </trkpt>
      <trkpt lat="45.39141" lon="5.41613">
        <ele>472.14</ele>
        <time>2011-02-13T06:59:56Z</time>
      </trkpt>
      <trkpt lat="45.39149" lon="5.4162">
        <ele>472.14</ele>
        <time>2011-02-13T06:59:58Z</time>
      </trkpt>
      <trkpt lat="45.39157" lon="5.41627">
        <ele>472.14</ele>
        <time>2011-02-13T07:00:00Z</time>
      </trkpt>
      <trkpt lat="45.39165" lon="5.41634">
        <ele>471.66</ele>
        <time>2011-02-13T07:00:02Z</time>
      </trkpt>
      <trkpt lat="45.39174" lon="5.41641">
        <ele>468.78</ele>
        <time>2011-02-13T07:00:04Z</time>
      </trkpt>
      <trkpt lat="45.39181" lon="5.41648">
        <ele>472.14</ele>
        <time>2011-02-13T07:00:06Z</time>
      </trkpt>
      <trkpt lat="45.39189" lon="5.41656">
        <ele>472.14</ele>
        <time>2011-02-13T07:00:08Z</time>
      </trkpt>
      <trkpt lat="45.39198" lon="5.41663">
        <ele>472.14</ele>
        <time>2011-02-13T07:00:10Z</time>
      </trkpt>
      <trkpt lat="45.39206" lon="5.4167">
        <ele>472.14</ele>
        <time>2011-02-13T07:00:12Z</time>
      </trkpt>
      <trkpt lat="45.39217" lon="5.41679">
        <ele>472.63</ele>
        <time>2011-02-13T07:00:15Z</time>
      </trkpt>
      <trkpt lat="45.39226" lon="5.41676">
        <ele>472.14</ele>
        <time>2011-02-13T07:00:18Z</time>
      </trkpt>
      <trkpt lat="45.39225" lon="5.41662">
        <ele>472.14</ele>
        <time>2011-02-13T07:00:21Z</time>
      </trkpt>
      <trkpt lat="45.39224" lon="5.41648">
        <ele>472.14</ele>
        <time>2011-02-13T07:00:23Z</time>
      </trkpt>
      <trkpt lat="45.39221" lon="5.41634">
        <ele>472.14</ele>
        <time>2011-02-13T07:00:25Z</time>
      </trkpt>
      <trkpt lat="45.39218" lon="5.41618">
        <ele>472.14</ele>
        <time>2011-02-13T07:00:27Z</time>
      </trkpt>
      <trkpt lat="45.39215" lon="5.41602">
        <ele>472.14</ele>
        <time>2011-02-13T07:00:29Z</time>
      </trkpt>
      <trkpt lat="45.39212" lon="5.41586">
        <ele>472.14</ele>
        <time>2011-02-13T07:00:31Z</time>
      </trkpt>
      <trkpt lat="45.39209" lon="5.41569">
        <ele>472.14</ele>
        <time>2011-02-13T07:00:33Z</time>
      </trkpt>
      <trkpt lat="45.39206" lon="5.41553">
        <ele>472.63</ele>
        <time>2011-02-13T07:00:35Z</time>
      </trkpt>
      <trkpt lat="45.39203" lon="5.41536">
        <ele>473.11</ele>
        <time>2011-02-13T07:00:37Z</time>
      </trkpt>
      <trkpt lat="45.392" lon="5.4152">
        <ele>472.14</ele>
        <time>2011-02-13T07:00:39Z</time>
      </trkpt>
      <trkpt lat="45.39197" lon="5.41504">
        <ele>472.14</ele>
        <time>2011-02-13T07:00:41Z</time>
      </trkpt>
      <trkpt lat="45.39195" lon="5.41487">
        <ele>471.66</ele>
        <time>2011-02-13T07:00:43Z</time>
      </trkpt>
      <trkpt lat="45.39194" lon="5.41469">
        <ele>471.18</ele>
        <time>2011-02-13T07:00:45Z</time>
      </trkpt>
      <trkpt lat="45.39192" lon="5.41451">
        <ele>471.66</ele>
        <time>2011-02-13T07:00:47Z</time>
      </trkpt>
      <trkpt lat="45.3919" lon="5.41434">
        <ele>471.18</ele>
        <time>2011-02-13T07:00:49Z</time>
      </trkpt>
      <trkpt lat="45.39188" lon="5.41415">
        <ele>470.7</ele>
        <time>2011-02-13T07:00:51Z</time>
      </trkpt>
      <trkpt lat="45.39187" lon="5.41397">
        <ele>470.7</ele>
        <time>2011-02-13T07:00:53Z</time>
      </trkpt>
      <trkpt lat="45.39186" lon="5.41379">
        <ele>470.7</ele>
        <time>2011-02-13T07:00:55Z</time>
      </trkpt>
      <trkpt lat="45.39186" lon="5.4136">
        <ele>470.7</ele>
        <time>2011-02-13T07:00:57Z</time>
      </trkpt>
      <trkpt lat="45.39185" lon="5.41343">
        <ele>471.18</ele>
        <time>2011-02-13T07:00:59Z</time>
      </trkpt>
      <trkpt lat="45.39184" lon="5.41325">
        <ele>470.7</ele>
        <time>2011-02-13T07:01:01Z</time>
      </trkpt>
      <trkpt lat="45.39183" lon="5.41307">
        <ele>470.7</ele>
        <time>2011-02-13T07:01:03Z</time>
      </trkpt>
      <trkpt lat="45.39183" lon="5.41289">
        <ele>470.22</ele>
        <time>2011-02-13T07:01:05Z</time>
      </trkpt>
      <trkpt lat="45.39182" lon="5.4127">
        <ele>470.22</ele>
        <time>2011-02-13T07:01:07Z</time>
      </trkpt>
      <trkpt lat="45.39181" lon="5.41252">
        <ele>470.22</ele>
        <time>2011-02-13T07:01:09Z</time>
      </trkpt>
      <trkpt lat="45.3918" lon="5.41234">
        <ele>470.22</ele>
        <time>2011-02-13T07:01:11Z</time>
      </trkpt>
      <trkpt lat="45.39179" lon="5.41215">
        <ele>470.22</ele>
        <time>2011-02-13T07:01:13Z</time>
      </trkpt>
      <trkpt lat="45.39178" lon="5.41197">
        <ele>470.22</ele>
        <time>2011-02-13T07:01:15Z</time>
      </trkpt>
      <trkpt lat="45.39177" lon="5.41179">
        <ele>470.22</ele>
        <time>2011-02-13T07:01:17Z</time>
      </trkpt>
      <trkpt lat="45.39176" lon="5.41162">
        <ele>470.22</ele>
        <time>2011-02-13T07:01:19Z</time>
      </trkpt>
      <trkpt lat="45.39174" lon="5.41144">
        <ele>469.74</ele>
        <time>2011-02-13T07:01:21Z</time>
      </trkpt>
      <trkpt lat="45.39172" lon="5.41127">
        <ele>469.74</ele>
        <time>2011-02-13T07:01:23Z</time>
      </trkpt>
      <trkpt lat="45.39169" lon="5.41109">
        <ele>468.78</ele>
        <time>2011-02-13T07:01:25Z</time>
      </trkpt>
      <trkpt lat="45.39168" lon="5.41091">
        <ele>469.26</ele>
        <time>2011-02-13T07:01:27Z</time>
      </trkpt>
      <trkpt lat="45.39167" lon="5.41072">
        <ele>468.78</ele>
        <time>2011-02-13T07:01:29Z</time>
      </trkpt>
      <trkpt lat="45.39165" lon="5.41054">
        <ele>469.26</ele>
        <time>2011-02-13T07:01:31Z</time>
      </trkpt>
      <trkpt lat="45.39163" lon="5.41035">
        <ele>468.78</ele>
        <time>2011-02-13T07:01:33Z</time>
      </trkpt>
      <trkpt lat="45.39162" lon="5.41018">
        <ele>468.3</ele>
        <time>2011-02-13T07:01:35Z</time>
      </trkpt>
      <trkpt lat="45.3916" lon="5.41">
        <ele>468.78</ele>
        <time>2011-02-13T07:01:37Z</time>
      </trkpt>
      <trkpt lat="45.39159" lon="5.40982">
        <ele>468.78</ele>
        <time>2011-02-13T07:01:39Z</time>
      </trkpt>
      <trkpt lat="45.39157" lon="5.40964">
        <ele>468.3</ele>
        <time>2011-02-13T07:01:41Z</time>
      </trkpt>
      <trkpt lat="45.39156" lon="5.40945">
        <ele>468.3</ele>
        <time>2011-02-13T07:01:43Z</time>
      </trkpt>
      <trkpt lat="45.39154" lon="5.40928">
        <ele>468.3</ele>
        <time>2011-02-13T07:01:45Z</time>
      </trkpt>
      <trkpt lat="45.39152" lon="5.4091">
        <ele>467.82</ele>
        <time>2011-02-13T07:01:47Z</time>
      </trkpt>
      <trkpt lat="45.39151" lon="5.40892">
        <ele>468.3</ele>
        <time>2011-02-13T07:01:49Z</time>
      </trkpt>
      <trkpt lat="45.39149" lon="5.40874">
        <ele>468.3</ele>
        <time>2011-02-13T07:01:51Z</time>
      </trkpt>
      <trkpt lat="45.39148" lon="5.40857">
        <ele>467.34</ele>
        <time>2011-02-13T07:01:53Z</time>
      </trkpt>
      <trkpt lat="45.39146" lon="5.40839">
        <ele>468.3</ele>
        <time>2011-02-13T07:01:55Z</time>
      </trkpt>
      <trkpt lat="45.39144" lon="5.40822">
        <ele>467.82</ele>
        <time>2011-02-13T07:01:57Z</time>
      </trkpt>
      <trkpt lat="45.39141" lon="5.40805">
        <ele>467.82</ele>
        <time>2011-02-13T07:01:59Z</time>
      </trkpt>
      <trkpt lat="45.39138" lon="5.40788">
        <ele>467.82</ele>
        <time>2011-02-13T07:02:01Z</time>
      </trkpt>
      <trkpt lat="45.39136" lon="5.40771">
        <ele>466.86</ele>
        <time>2011-02-13T07:02:03Z</time>
      </trkpt>
      <trkpt lat="45.39134" lon="5.40753">
        <ele>466.86</ele>
        <time>2011-02-13T07:02:05Z</time>
      </trkpt>
      <trkpt lat="45.39132" lon="5.40736">
        <ele>467.34</ele>
        <time>2011-02-13T07:02:07Z</time>
      </trkpt>
      <trkpt lat="45.3913" lon="5.40719">
        <ele>467.34</ele>
        <time>2011-02-13T07:02:09Z</time>
      </trkpt>
      <trkpt lat="45.3913" lon="5.40703">
        <ele>466.38</ele>
        <time>2011-02-13T07:02:11Z</time>
      </trkpt>
      <trkpt lat="45.39138" lon="5.40691">
        <ele>466.38</ele>
        <time>2011-02-13T07:02:13Z</time>
      </trkpt>
      <trkpt lat="45.39151" lon="5.40685">
        <ele>465.9</ele>
        <time>2011-02-13T07:02:15Z</time>
      </trkpt>
      <trkpt lat="45.39163" lon="5.40682">
        <ele>465.9</ele>
        <time>2011-02-13T07:02:17Z</time>
      </trkpt>
      <trkpt lat="45.39175" lon="5.40679">
        <ele>465.9</ele>
        <time>2011-02-13T07:02:19Z</time>
      </trkpt>
      <trkpt lat="45.39188" lon="5.40675">
        <ele>465.9</ele>
        <time>2011-02-13T07:02:21Z</time>
      </trkpt>
      <trkpt lat="45.39201" lon="5.4067">
        <ele>464.93</ele>
        <time>2011-02-13T07:02:23Z</time>
      </trkpt>
      <trkpt lat="45.39214" lon="5.40663">
        <ele>464.45</ele>
        <time>2011-02-13T07:02:25Z</time>
      </trkpt>
      <trkpt lat="45.39227" lon="5.40656">
        <ele>464.45</ele>
        <time>2011-02-13T07:02:27Z</time>
      </trkpt>
      <trkpt lat="45.39241" lon="5.40651">
        <ele>463.97</ele>
        <time>2011-02-13T07:02:29Z</time>
      </trkpt>
      <trkpt lat="45.39254" lon="5.40647">
        <ele>463.97</ele>
        <time>2011-02-13T07:02:31Z</time>
      </trkpt>
      <trkpt lat="45.39267" lon="5.40643">
        <ele>463.97</ele>
        <time>2011-02-13T07:02:33Z</time>
      </trkpt>
      <trkpt lat="45.3928" lon="5.40639">
        <ele>463.49</ele>
        <time>2011-02-13T07:02:35Z</time>
      </trkpt>
      <trkpt lat="45.39293" lon="5.40634">
        <ele>463.01</ele>
        <time>2011-02-13T07:02:37Z</time>
      </trkpt>
      <trkpt lat="45.39304" lon="5.40628">
        <ele>463.49</ele>
        <time>2011-02-13T07:02:39Z</time>
      </trkpt>
      <trkpt lat="45.39316" lon="5.40623">
        <ele>463.97</ele>
        <time>2011-02-13T07:02:41Z</time>
      </trkpt>
      <trkpt lat="45.39327" lon="5.40617">
        <ele>463.01</ele>
        <time>2011-02-13T07:02:43Z</time>
      </trkpt>
      <trkpt lat="45.39338" lon="5.40611">
        <ele>463.97</ele>
        <time>2011-02-13T07:02:45Z</time>
      </trkpt>
      <trkpt lat="45.39349" lon="5.40605">
        <ele>463.97</ele>
        <time>2011-02-13T07:02:47Z</time>
      </trkpt>
      <trkpt lat="45.3936" lon="5.40598">
        <ele>463.49</ele>
        <time>2011-02-13T07:02:49Z</time>
      </trkpt>
      <trkpt lat="45.39372" lon="5.40591">
        <ele>463.01</ele>
        <time>2011-02-13T07:02:51Z</time>
      </trkpt>
      <trkpt lat="45.39383" lon="5.40585">
        <ele>463.49</ele>
        <time>2011-02-13T07:02:53Z</time>
      </trkpt>
      <trkpt lat="45.39393" lon="5.40579">
        <ele>463.01</ele>
        <time>2011-02-13T07:02:55Z</time>
      </trkpt>
      <trkpt lat="45.39404" lon="5.40573">
        <ele>463.49</ele>
        <time>2011-02-13T07:02:57Z</time>
      </trkpt>
      <trkpt lat="45.39415" lon="5.40567">
        <ele>463.01</ele>
        <time>2011-02-13T07:02:59Z</time>
      </trkpt>
      <trkpt lat="45.39426" lon="5.40561">
        <ele>463.01</ele>
        <time>2011-02-13T07:03:01Z</time>
      </trkpt>
      <trkpt lat="45.39436" lon="5.40555">
        <ele>463.49</ele>
        <time>2011-02-13T07:03:03Z</time>
      </trkpt>
      <trkpt lat="45.39446" lon="5.40551">
        <ele>462.53</ele>
        <time>2011-02-13T07:03:05Z</time>
      </trkpt>
      <trkpt lat="45.39457" lon="5.40546">
        <ele>463.49</ele>
        <time>2011-02-13T07:03:07Z</time>
      </trkpt>
      <trkpt lat="45.39467" lon="5.40542">
        <ele>463.01</ele>
        <time>2011-02-13T07:03:09Z</time>
      </trkpt>
      <trkpt lat="45.39477" lon="5.40541">
        <ele>462.53</ele>
        <time>2011-02-13T07:03:11Z</time>
      </trkpt>
      <trkpt lat="45.39488" lon="5.40546">
        <ele>462.53</ele>
        <time>2011-02-13T07:03:13Z</time>
      </trkpt>
      <trkpt lat="45.39496" lon="5.40554">
        <ele>462.53</ele>
        <time>2011-02-13T07:03:15Z</time>
      </trkpt>
      <trkpt lat="45.39506" lon="5.40562">
        <ele>461.09</ele>
        <time>2011-02-13T07:03:18Z</time>
      </trkpt>
      <trkpt lat="45.39512" lon="5.40551">
        <ele>460.13</ele>
        <time>2011-02-13T07:03:21Z</time>
      </trkpt>
      <trkpt lat="45.39509" lon="5.40531">
        <ele>460.13</ele>
        <time>2011-02-13T07:03:24Z</time>
      </trkpt>
      <trkpt lat="45.39506" lon="5.40516">
        <ele>459.17</ele>
        <time>2011-02-13T07:03:26Z</time>
      </trkpt>
      <trkpt lat="45.39504" lon="5.40498">
        <ele>458.69</ele>
        <time>2011-02-13T07:03:28Z</time>
      </trkpt>
      <trkpt lat="45.39503" lon="5.4048">
        <ele>458.21</ele>
        <time>2011-02-13T07:03:30Z</time>
      </trkpt>
      <trkpt lat="45.39503" lon="5.4046">
        <ele>457.24</ele>
        <time>2011-02-13T07:03:32Z</time>
      </trkpt>
      <trkpt lat="45.39505" lon="5.40439">
        <ele>456.76</ele>
        <time>2011-02-13T07:03:34Z</time>
      </trkpt>
      <trkpt lat="45.3951" lon="5.40418">
        <ele>456.28</ele>
        <time>2011-02-13T07:03:36Z</time>
      </trkpt>
      <trkpt lat="45.39514" lon="5.40397">
        <ele>455.8</ele>
        <time>2011-02-13T07:03:38Z</time>
      </trkpt>
      <trkpt lat="45.3952" lon="5.40377">
        <ele>455.32</ele>
        <time>2011-02-13T07:03:40Z</time>
      </trkpt>
      <trkpt lat="45.39526" lon="5.40356">
        <ele>454.84</ele>
        <time>2011-02-13T07:03:42Z</time>
      </trkpt>
      <trkpt lat="45.39531" lon="5.40335">
        <ele>454.36</ele>
        <time>2011-02-13T07:03:44Z</time>
      </trkpt>
      <trkpt lat="45.39537" lon="5.40312">
        <ele>453.88</ele>
        <time>2011-02-13T07:03:46Z</time>
      </trkpt>
      <trkpt lat="45.39544" lon="5.4029">
        <ele>453.88</ele>
        <time>2011-02-13T07:03:48Z</time>
      </trkpt>
      <trkpt lat="45.3955" lon="5.40268">
        <ele>452.92</ele>
        <time>2011-02-13T07:03:50Z</time>
      </trkpt>
      <trkpt lat="45.39555" lon="5.40246">
        <ele>452.44</ele>
        <time>2011-02-13T07:03:52Z</time>
      </trkpt>
      <trkpt lat="45.39561" lon="5.40225">
        <ele>451.96</ele>
        <time>2011-02-13T07:03:54Z</time>
      </trkpt>
      <trkpt lat="45.39567" lon="5.40204">
        <ele>451.96</ele>
        <time>2011-02-13T07:03:56Z</time>
      </trkpt>
      <trkpt lat="45.39572" lon="5.40183">
        <ele>451.48</ele>
        <time>2011-02-13T07:03:58Z</time>
      </trkpt>
      <trkpt lat="45.39578" lon="5.40163">
        <ele>451.48</ele>
        <time>2011-02-13T07:04:00Z</time>
      </trkpt>
      <trkpt lat="45.39584" lon="5.40144">
        <ele>450.52</ele>
        <time>2011-02-13T07:04:02Z</time>
      </trkpt>
      <trkpt lat="45.39588" lon="5.40124">
        <ele>450.52</ele>
        <time>2011-02-13T07:04:04Z</time>
      </trkpt>
      <trkpt lat="45.39594" lon="5.40105">
        <ele>450.52</ele>
        <time>2011-02-13T07:04:06Z</time>
      </trkpt>
      <trkpt lat="45.39598" lon="5.40086">
        <ele>450.52</ele>
        <time>2011-02-13T07:04:08Z</time>
      </trkpt>
      <trkpt lat="45.39603" lon="5.40067">
        <ele>451.48</ele>
        <time>2011-02-13T07:04:10Z</time>
      </trkpt>
      <trkpt lat="45.39608" lon="5.40048">
        <ele>451.48</ele>
        <time>2011-02-13T07:04:12Z</time>
      </trkpt>
      <trkpt lat="45.39613" lon="5.4003">
        <ele>451</ele>
        <time>2011-02-13T07:04:14Z</time>
      </trkpt>
      <trkpt lat="45.39618" lon="5.40012">
        <ele>451.48</ele>
        <time>2011-02-13T07:04:16Z</time>
      </trkpt>
      <trkpt lat="45.39622" lon="5.39994">
        <ele>451</ele>
        <time>2011-02-13T07:04:18Z</time>
      </trkpt>
      <trkpt lat="45.39627" lon="5.39977">
        <ele>451.48</ele>
        <time>2011-02-13T07:04:20Z</time>
      </trkpt>
      <trkpt lat="45.39632" lon="5.3996">
        <ele>451.48</ele>
        <time>2011-02-13T07:04:22Z</time>
      </trkpt>
      <trkpt lat="45.39636" lon="5.39944">
        <ele>451.48</ele>
        <time>2011-02-13T07:04:24Z</time>
      </trkpt>
      <trkpt lat="45.3964" lon="5.39929">
        <ele>451.96</ele>
        <time>2011-02-13T07:04:26Z</time>
      </trkpt>
      <trkpt lat="45.39644" lon="5.39914">
        <ele>452.92</ele>
        <time>2011-02-13T07:04:28Z</time>
      </trkpt>
      <trkpt lat="45.39648" lon="5.399">
        <ele>452.92</ele>
        <time>2011-02-13T07:04:30Z</time>
      </trkpt>
      <trkpt lat="45.39651" lon="5.39888">
        <ele>453.88</ele>
        <time>2011-02-13T07:04:32Z</time>
      </trkpt>
      <trkpt lat="45.39655" lon="5.3987">
        <ele>453.88</ele>
        <time>2011-02-13T07:04:35Z</time>
      </trkpt>
      <trkpt lat="45.39658" lon="5.39854">
        <ele>454.84</ele>
        <time>2011-02-13T07:04:38Z</time>
      </trkpt>
      <trkpt lat="45.3966" lon="5.39839">
        <ele>454.84</ele>
        <time>2011-02-13T07:04:41Z</time>
      </trkpt>
      <trkpt lat="45.39661" lon="5.39823">
        <ele>455.32</ele>
        <time>2011-02-13T07:04:44Z</time>
      </trkpt>
      <trkpt lat="45.39663" lon="5.39807">
        <ele>455.8</ele>
        <time>2011-02-13T07:04:47Z</time>
      </trkpt>
      <trkpt lat="45.39663" lon="5.39792">
        <ele>456.28</ele>
        <time>2011-02-13T07:04:50Z</time>
      </trkpt>
      <trkpt lat="45.39663" lon="5.39776">
        <ele>456.28</ele>
        <time>2011-02-13T07:04:53Z</time>
      </trkpt>
      <trkpt lat="45.39662" lon="5.39757">
        <ele>456.76</ele>
        <time>2011-02-13T07:04:56Z</time>
      </trkpt>
      <trkpt lat="45.39661" lon="5.39739">
        <ele>456.28</ele>
        <time>2011-02-13T07:04:59Z</time>
      </trkpt>
      <trkpt lat="45.3966" lon="5.39721">
        <ele>456.76</ele>
        <time>2011-02-13T07:05:02Z</time>
      </trkpt>
      <trkpt lat="45.39658" lon="5.39703">
        <ele>456.28</ele>
        <time>2011-02-13T07:05:05Z</time>
      </trkpt>
      <trkpt lat="45.39656" lon="5.39684">
        <ele>456.28</ele>
        <time>2011-02-13T07:05:08Z</time>
      </trkpt>
      <trkpt lat="45.39655" lon="5.3967">
        <ele>456.28</ele>
        <time>2011-02-13T07:05:10Z</time>
      </trkpt>
      <trkpt lat="45.39655" lon="5.39657">
        <ele>455.8</ele>
        <time>2011-02-13T07:05:12Z</time>
      </trkpt>
      <trkpt lat="45.39654" lon="5.39643">
        <ele>456.28</ele>
        <time>2011-02-13T07:05:14Z</time>
      </trkpt>
      <trkpt lat="45.39653" lon="5.39629">
        <ele>456.28</ele>
        <time>2011-02-13T07:05:16Z</time>
      </trkpt>
      <trkpt lat="45.39652" lon="5.39616">
        <ele>455.8</ele>
        <time>2011-02-13T07:05:18Z</time>
      </trkpt>
      <trkpt lat="45.39652" lon="5.39602">
        <ele>456.76</ele>
        <time>2011-02-13T07:05:20Z</time>
      </trkpt>
      <trkpt lat="45.39651" lon="5.39589">
        <ele>456.28</ele>
        <time>2011-02-13T07:05:22Z</time>
      </trkpt>
      <trkpt lat="45.39651" lon="5.39576">
        <ele>456.28</ele>
        <time>2011-02-13T07:05:24Z</time>
      </trkpt>
      <trkpt lat="45.3965" lon="5.39562">
        <ele>456.76</ele>
        <time>2011-02-13T07:05:26Z</time>
      </trkpt>
      <trkpt lat="45.3965" lon="5.39548">
        <ele>456.76</ele>
        <time>2011-02-13T07:05:28Z</time>
      </trkpt>
      <trkpt lat="45.39649" lon="5.39534">
        <ele>456.28</ele>
        <time>2011-02-13T07:05:30Z</time>
      </trkpt>
      <trkpt lat="45.39649" lon="5.3952">
        <ele>456.28</ele>
        <time>2011-02-13T07:05:32Z</time>
      </trkpt>
      <trkpt lat="45.39648" lon="5.39506">
        <ele>455.32</ele>
        <time>2011-02-13T07:05:34Z</time>
      </trkpt>
      <trkpt lat="45.39648" lon="5.39492">
        <ele>455.8</ele>
        <time>2011-02-13T07:05:36Z</time>
      </trkpt>
      <trkpt lat="45.39647" lon="5.39477">
        <ele>455.32</ele>
        <time>2011-02-13T07:05:38Z</time>
      </trkpt>
      <trkpt lat="45.39647" lon="5.39462">
        <ele>455.32</ele>
        <time>2011-02-13T07:05:40Z</time>
      </trkpt>
      <trkpt lat="45.39647" lon="5.39448">
        <ele>455.32</ele>
        <time>2011-02-13T07:05:42Z</time>
      </trkpt>
      <trkpt lat="45.39647" lon="5.39433">
        <ele>455.32</ele>
        <time>2011-02-13T07:05:44Z</time>
      </trkpt>
      <trkpt lat="45.39647" lon="5.3942">
        <ele>454.84</ele>
        <time>2011-02-13T07:05:46Z</time>
      </trkpt>
      <trkpt lat="45.39647" lon="5.39405">
        <ele>454.36</ele>
        <time>2011-02-13T07:05:48Z</time>
      </trkpt>
      <trkpt lat="45.39647" lon="5.39391">
        <ele>454.84</ele>
        <time>2011-02-13T07:05:50Z</time>
      </trkpt>
      <trkpt lat="45.39647" lon="5.39376">
        <ele>453.88</ele>
        <time>2011-02-13T07:05:52Z</time>
      </trkpt>
      <trkpt lat="45.39647" lon="5.39361">
        <ele>454.36</ele>
        <time>2011-02-13T07:05:54Z</time>
      </trkpt>
      <trkpt lat="45.39647" lon="5.39347">
        <ele>453.88</ele>
        <time>2011-02-13T07:05:56Z</time>
      </trkpt>
      <trkpt lat="45.39648" lon="5.39331">
        <ele>453.88</ele>
        <time>2011-02-13T07:05:58Z</time>
      </trkpt>
      <trkpt lat="45.3965" lon="5.39317">
        <ele>454.36</ele>
        <time>2011-02-13T07:06:00Z</time>
      </trkpt>
      <trkpt lat="45.39651" lon="5.39302">
        <ele>453.88</ele>
        <time>2011-02-13T07:06:02Z</time>
      </trkpt>
      <trkpt lat="45.39654" lon="5.39288">
        <ele>453.4</ele>
        <time>2011-02-13T07:06:04Z</time>
      </trkpt>
      <trkpt lat="45.39657" lon="5.39275">
        <ele>453.4</ele>
        <time>2011-02-13T07:06:06Z</time>
      </trkpt>
      <trkpt lat="45.39661" lon="5.39262">
        <ele>453.88</ele>
        <time>2011-02-13T07:06:08Z</time>
      </trkpt>
      <trkpt lat="45.39664" lon="5.39249">
        <ele>453.4</ele>
        <time>2011-02-13T07:06:10Z</time>
      </trkpt>
      <trkpt lat="45.39665" lon="5.39235">
        <ele>452.92</ele>
        <time>2011-02-13T07:06:12Z</time>
      </trkpt>
      <trkpt lat="45.39666" lon="5.3922">
        <ele>452.92</ele>
        <time>2011-02-13T07:06:14Z</time>
      </trkpt>
      <trkpt lat="45.39666" lon="5.39206">
        <ele>453.4</ele>
        <time>2011-02-13T07:06:16Z</time>
      </trkpt>
      <trkpt lat="45.39667" lon="5.39193">
        <ele>452.92</ele>
        <time>2011-02-13T07:06:18Z</time>
      </trkpt>
      <trkpt lat="45.39668" lon="5.39179">
        <ele>453.88</ele>
        <time>2011-02-13T07:06:20Z</time>
      </trkpt>
      <trkpt lat="45.39668" lon="5.39165">
        <ele>452.92</ele>
        <time>2011-02-13T07:06:22Z</time>
      </trkpt>
      <trkpt lat="45.39667" lon="5.39153">
        <ele>453.4</ele>
        <time>2011-02-13T07:06:24Z</time>
      </trkpt>
      <trkpt lat="45.39666" lon="5.39134">
        <ele>453.88</ele>
        <time>2011-02-13T07:06:27Z</time>
      </trkpt>
      <trkpt lat="45.39665" lon="5.39121">
        <ele>453.4</ele>
        <time>2011-02-13T07:06:29Z</time>
      </trkpt>
      <trkpt lat="45.39664" lon="5.39108">
        <ele>454.36</ele>
        <time>2011-02-13T07:06:31Z</time>
      </trkpt>
      <trkpt lat="45.39662" lon="5.39094">
        <ele>454.36</ele>
        <time>2011-02-13T07:06:33Z</time>
      </trkpt>
      <trkpt lat="45.3966" lon="5.3908">
        <ele>454.36</ele>
        <time>2011-02-13T07:06:35Z</time>
      </trkpt>
      <trkpt lat="45.39659" lon="5.39067">
        <ele>454.36</ele>
        <time>2011-02-13T07:06:37Z</time>
      </trkpt>
      <trkpt lat="45.39658" lon="5.39054">
        <ele>454.36</ele>
        <time>2011-02-13T07:06:39Z</time>
      </trkpt>
      <trkpt lat="45.39659" lon="5.39036">
        <ele>454.84</ele>
        <time>2011-02-13T07:06:42Z</time>
      </trkpt>
      <trkpt lat="45.39661" lon="5.39019">
        <ele>455.8</ele>
        <time>2011-02-13T07:06:45Z</time>
      </trkpt>
      <trkpt lat="45.39662" lon="5.39002">
        <ele>456.76</ele>
        <time>2011-02-13T07:06:48Z</time>
      </trkpt>
      <trkpt lat="45.39661" lon="5.38985">
        <ele>456.28</ele>
        <time>2011-02-13T07:06:51Z</time>
      </trkpt>
      <trkpt lat="45.39658" lon="5.38968">
        <ele>456.76</ele>
        <time>2011-02-13T07:06:54Z</time>
      </trkpt>
      <trkpt lat="45.39655" lon="5.38955">
        <ele>456.76</ele>
        <time>2011-02-13T07:06:56Z</time>
      </trkpt>
      <trkpt lat="45.39653" lon="5.38942">
        <ele>456.76</ele>
        <time>2011-02-13T07:06:58Z</time>
      </trkpt>
      <trkpt lat="45.39652" lon="5.38928">
        <ele>457.24</ele>
        <time>2011-02-13T07:07:00Z</time>
      </trkpt>
      <trkpt lat="45.3965" lon="5.38915">
        <ele>457.72</ele>
        <time>2011-02-13T07:07:02Z</time>
      </trkpt>
      <trkpt lat="45.39649" lon="5.38901">
        <ele>456.76</ele>
        <time>2011-02-13T07:07:04Z</time>
      </trkpt>
      <trkpt lat="45.39648" lon="5.38888">
        <ele>457.24</ele>
        <time>2011-02-13T07:07:06Z</time>
      </trkpt>
      <trkpt lat="45.39646" lon="5.38874">
        <ele>457.72</ele>
        <time>2011-02-13T07:07:08Z</time>
      </trkpt>
      <trkpt lat="45.39644" lon="5.38861">
        <ele>457.72</ele>
        <time>2011-02-13T07:07:10Z</time>
      </trkpt>
      <trkpt lat="45.39643" lon="5.38847">
        <ele>457.72</ele>
        <time>2011-02-13T07:07:12Z</time>
      </trkpt>
      <trkpt lat="45.3964" lon="5.38834">
        <ele>457.72</ele>
        <time>2011-02-13T07:07:14Z</time>
      </trkpt>
      <trkpt lat="45.39638" lon="5.38819">
        <ele>457.24</ele>
        <time>2011-02-13T07:07:16Z</time>
      </trkpt>
      <trkpt lat="45.39635" lon="5.38805">
        <ele>457.24</ele>
        <time>2011-02-13T07:07:18Z</time>
      </trkpt>
      <trkpt lat="45.39633" lon="5.3879">
        <ele>456.76</ele>
        <time>2011-02-13T07:07:20Z</time>
      </trkpt>
      <trkpt lat="45.39631" lon="5.38775">
        <ele>457.24</ele>
        <time>2011-02-13T07:07:22Z</time>
      </trkpt>
      <trkpt lat="45.39629" lon="5.3876">
        <ele>456.76</ele>
        <time>2011-02-13T07:07:24Z</time>
      </trkpt>
      <trkpt lat="45.39625" lon="5.38744">
        <ele>456.76</ele>
        <time>2011-02-13T07:07:26Z</time>
      </trkpt>
      <trkpt lat="45.39623" lon="5.38728">
        <ele>456.76</ele>
        <time>2011-02-13T07:07:28Z</time>
      </trkpt>
      <trkpt lat="45.39621" lon="5.38713">
        <ele>456.76</ele>
        <time>2011-02-13T07:07:30Z</time>
      </trkpt>
      <trkpt lat="45.39619" lon="5.38698">
        <ele>456.28</ele>
        <time>2011-02-13T07:07:32Z</time>
      </trkpt>
      <trkpt lat="45.39617" lon="5.38681">
        <ele>456.28</ele>
        <time>2011-02-13T07:07:34Z</time>
      </trkpt>
      <trkpt lat="45.39616" lon="5.38665">
        <ele>455.8</ele>
        <time>2011-02-13T07:07:36Z</time>
      </trkpt>
      <trkpt lat="45.39616" lon="5.38648">
        <ele>455.8</ele>
        <time>2011-02-13T07:07:38Z</time>
      </trkpt>
      <trkpt lat="45.39616" lon="5.38631">
        <ele>455.32</ele>
        <time>2011-02-13T07:07:40Z</time>
      </trkpt>
      <trkpt lat="45.39616" lon="5.38614">
        <ele>454.84</ele>
        <time>2011-02-13T07:07:42Z</time>
      </trkpt>
      <trkpt lat="45.39617" lon="5.38597">
        <ele>454.36</ele>
        <time>2011-02-13T07:07:44Z</time>
      </trkpt>
      <trkpt lat="45.39618" lon="5.3858">
        <ele>453.88</ele>
        <time>2011-02-13T07:07:46Z</time>
      </trkpt>
      <trkpt lat="45.39617" lon="5.38562">
        <ele>453.88</ele>
        <time>2011-02-13T07:07:48Z</time>
      </trkpt>
      <trkpt lat="45.39615" lon="5.38546">
        <ele>453.4</ele>
        <time>2011-02-13T07:07:50Z</time>
      </trkpt>
      <trkpt lat="45.39612" lon="5.3853">
        <ele>453.4</ele>
        <time>2011-02-13T07:07:52Z</time>
      </trkpt>
      <trkpt lat="45.39608" lon="5.38513">
        <ele>452.92</ele>
        <time>2011-02-13T07:07:54Z</time>
      </trkpt>
      <trkpt lat="45.39604" lon="5.38495">
        <ele>452.92</ele>
        <time>2011-02-13T07:07:56Z</time>
      </trkpt>
      <trkpt lat="45.39601" lon="5.38477">
        <ele>452.44</ele>
        <time>2011-02-13T07:07:58Z</time>
      </trkpt>
      <trkpt lat="45.39599" lon="5.38459">
        <ele>451.96</ele>
        <time>2011-02-13T07:08:00Z</time>
      </trkpt>
      <trkpt lat="45.39597" lon="5.38442">
        <ele>451.96</ele>
        <time>2011-02-13T07:08:02Z</time>
      </trkpt>
      <trkpt lat="45.39594" lon="5.38425">
        <ele>451.96</ele>
        <time>2011-02-13T07:08:04Z</time>
      </trkpt>
      <trkpt lat="45.39591" lon="5.38409">
        <ele>452.44</ele>
        <time>2011-02-13T07:08:06Z</time>
      </trkpt>
      <trkpt lat="45.39586" lon="5.38394">
        <ele>451.96</ele>
        <time>2011-02-13T07:08:08Z</time>
      </trkpt>
      <trkpt lat="45.39582" lon="5.38379">
        <ele>451.48</ele>
        <time>2011-02-13T07:08:10Z</time>
      </trkpt>
      <trkpt lat="45.39578" lon="5.38364">
        <ele>451.96</ele>
        <time>2011-02-13T07:08:12Z</time>
      </trkpt>
      <trkpt lat="45.39574" lon="5.38349">
        <ele>451.48</ele>
        <time>2011-02-13T07:08:14Z</time>
      </trkpt>
      <trkpt lat="45.39569" lon="5.38334">
        <ele>451.48</ele>
        <time>2011-02-13T07:08:16Z</time>
      </trkpt>
      <trkpt lat="45.39566" lon="5.38319">
        <ele>451.48</ele>
        <time>2011-02-13T07:08:18Z</time>
      </trkpt>
      <trkpt lat="45.39563" lon="5.38304">
        <ele>451.96</ele>
        <time>2011-02-13T07:08:20Z</time>
      </trkpt>
      <trkpt lat="45.39561" lon="5.3829">
        <ele>451.96</ele>
        <time>2011-02-13T07:08:22Z</time>
      </trkpt>
      <trkpt lat="45.39559" lon="5.38275">
        <ele>452.44</ele>
        <time>2011-02-13T07:08:24Z</time>
      </trkpt>
      <trkpt lat="45.39557" lon="5.3826">
        <ele>452.44</ele>
        <time>2011-02-13T07:08:26Z</time>
      </trkpt>
      <trkpt lat="45.39556" lon="5.38246">
        <ele>451.96</ele>
        <time>2011-02-13T07:08:28Z</time>
      </trkpt>
      <trkpt lat="45.39553" lon="5.38232">
        <ele>452.44</ele>
        <time>2011-02-13T07:08:30Z</time>
      </trkpt>
      <trkpt lat="45.39551" lon="5.38217">
        <ele>452.44</ele>
        <time>2011-02-13T07:08:32Z</time>
      </trkpt>
      <trkpt lat="45.39548" lon="5.38203">
        <ele>452.92</ele>
        <time>2011-02-13T07:08:34Z</time>
      </trkpt>
      <trkpt lat="45.39544" lon="5.38189">
        <ele>452.44</ele>
        <time>2011-02-13T07:08:36Z</time>
      </trkpt>
      <trkpt lat="45.39541" lon="5.38175">
        <ele>452.92</ele>
        <time>2011-02-13T07:08:38Z</time>
      </trkpt>
      <trkpt lat="45.39537" lon="5.38162">
        <ele>452.44</ele>
        <time>2011-02-13T07:08:40Z</time>
      </trkpt>
      <trkpt lat="45.39534" lon="5.38148">
        <ele>452.92</ele>
        <time>2011-02-13T07:08:42Z</time>
      </trkpt>
      <trkpt lat="45.39531" lon="5.38134">
        <ele>452.44</ele>
        <time>2011-02-13T07:08:44Z</time>
      </trkpt>
      <trkpt lat="45.39527" lon="5.3812">
        <ele>453.4</ele>
        <time>2011-02-13T07:08:46Z</time>
      </trkpt>
      <trkpt lat="45.39523" lon="5.38106">
        <ele>452.92</ele>
        <time>2011-02-13T07:08:48Z</time>
      </trkpt>
      <trkpt lat="45.39519" lon="5.38093">
        <ele>452.92</ele>
        <time>2011-02-13T07:08:50Z</time>
      </trkpt>
      <trkpt lat="45.39514" lon="5.38079">
        <ele>453.4</ele>
        <time>2011-02-13T07:08:52Z</time>
      </trkpt>
      <trkpt lat="45.39509" lon="5.38065">
        <ele>451.96</ele>
        <time>2011-02-13T07:08:54Z</time>
      </trkpt>
      <trkpt lat="45.39503" lon="5.38052">
        <ele>452.44</ele>
        <time>2011-02-13T07:08:56Z</time>
      </trkpt>
      <trkpt lat="45.39497" lon="5.38038">
        <ele>452.44</ele>
        <time>2011-02-13T07:08:58Z</time>
      </trkpt>
      <trkpt lat="45.39492" lon="5.38026">
        <ele>451.96</ele>
        <time>2011-02-13T07:09:00Z</time>
      </trkpt>
      <trkpt lat="45.39485" lon="5.38013">
        <ele>452.44</ele>
        <time>2011-02-13T07:09:02Z</time>
      </trkpt>
      <trkpt lat="45.3948" lon="5.37998">
        <ele>451.96</ele>
        <time>2011-02-13T07:09:04Z</time>
      </trkpt>
      <trkpt lat="45.39477" lon="5.37983">
        <ele>451.48</ele>
        <time>2011-02-13T07:09:06Z</time>
      </trkpt>
      <trkpt lat="45.39476" lon="5.37966">
        <ele>451.96</ele>
        <time>2011-02-13T07:09:08Z</time>
      </trkpt>
      <trkpt lat="45.39474" lon="5.37952">
        <ele>451.96</ele>
        <time>2011-02-13T07:09:10Z</time>
      </trkpt>
      <trkpt lat="45.39472" lon="5.37938">
        <ele>451.96</ele>
        <time>2011-02-13T07:09:12Z</time>
      </trkpt>
      <trkpt lat="45.39469" lon="5.37924">
        <ele>451.48</ele>
        <time>2011-02-13T07:09:14Z</time>
      </trkpt>
      <trkpt lat="45.39465" lon="5.37909">
        <ele>452.44</ele>
        <time>2011-02-13T07:09:16Z</time>
      </trkpt>
      <trkpt lat="45.39463" lon="5.37895">
        <ele>451.48</ele>
        <time>2011-02-13T07:09:18Z</time>
      </trkpt>
      <trkpt lat="45.3946" lon="5.37882">
        <ele>451.96</ele>
        <time>2011-02-13T07:09:20Z</time>
      </trkpt>
      <trkpt lat="45.39454" lon="5.37865">
        <ele>451</ele>
        <time>2011-02-13T07:09:23Z</time>
      </trkpt>
      <trkpt lat="45.39446" lon="5.3785">
        <ele>450.52</ele>
        <time>2011-02-13T07:09:26Z</time>
      </trkpt>
      <trkpt lat="45.39441" lon="5.37838">
        <ele>450.03</ele>
        <time>2011-02-13T07:09:28Z</time>
      </trkpt>
      <trkpt lat="45.39436" lon="5.37826">
        <ele>450.03</ele>
        <time>2011-02-13T07:09:30Z</time>
      </trkpt>
      <trkpt lat="45.39431" lon="5.37814">
        <ele>449.55</ele>
        <time>2011-02-13T07:09:32Z</time>
      </trkpt>
      <trkpt lat="45.39425" lon="5.37803">
        <ele>450.03</ele>
        <time>2011-02-13T07:09:34Z</time>
      </trkpt>
      <trkpt lat="45.3942" lon="5.3779">
        <ele>449.55</ele>
        <time>2011-02-13T07:09:36Z</time>
      </trkpt>
      <trkpt lat="45.39414" lon="5.37778">
        <ele>450.52</ele>
        <time>2011-02-13T07:09:38Z</time>
      </trkpt>
      <trkpt lat="45.39411" lon="5.37764">
        <ele>450.03</ele>
        <time>2011-02-13T07:09:40Z</time>
      </trkpt>
      <trkpt lat="45.3941" lon="5.37749">
        <ele>449.55</ele>
        <time>2011-02-13T07:09:42Z</time>
      </trkpt>
      <trkpt lat="45.3941" lon="5.37734">
        <ele>450.03</ele>
        <time>2011-02-13T07:09:44Z</time>
      </trkpt>
      <trkpt lat="45.3941" lon="5.37719">
        <ele>449.55</ele>
        <time>2011-02-13T07:09:46Z</time>
      </trkpt>
      <trkpt lat="45.3941" lon="5.37703">
        <ele>449.55</ele>
        <time>2011-02-13T07:09:48Z</time>
      </trkpt>
      <trkpt lat="45.3941" lon="5.37687">
        <ele>449.55</ele>
        <time>2011-02-13T07:09:50Z</time>
      </trkpt>
      <trkpt lat="45.39411" lon="5.37671">
        <ele>449.55</ele>
        <time>2011-02-13T07:09:52Z</time>
      </trkpt>
      <trkpt lat="45.39411" lon="5.37654">
        <ele>449.55</ele>
        <time>2011-02-13T07:09:54Z</time>
      </trkpt>
      <trkpt lat="45.39411" lon="5.37638">
        <ele>449.55</ele>
        <time>2011-02-13T07:09:56Z</time>
      </trkpt>
      <trkpt lat="45.3941" lon="5.37622">
        <ele>449.55</ele>
        <time>2011-02-13T07:09:58Z</time>
      </trkpt>
      <trkpt lat="45.3941" lon="5.37604">
        <ele>449.07</ele>
        <time>2011-02-13T07:10:00Z</time>
      </trkpt>
      <trkpt lat="45.39409" lon="5.37586">
        <ele>448.59</ele>
        <time>2011-02-13T07:10:02Z</time>
      </trkpt>
      <trkpt lat="45.39408" lon="5.37568">
        <ele>448.11</ele>
        <time>2011-02-13T07:10:04Z</time>
      </trkpt>
      <trkpt lat="45.39407" lon="5.37549">
        <ele>447.15</ele>
        <time>2011-02-13T07:10:06Z</time>
      </trkpt>
      <trkpt lat="45.39406" lon="5.3753">
        <ele>447.15</ele>
        <time>2011-02-13T07:10:08Z</time>
      </trkpt>
      <trkpt lat="45.39405" lon="5.3751">
        <ele>446.19</ele>
        <time>2011-02-13T07:10:10Z</time>
      </trkpt>
      <trkpt lat="45.39404" lon="5.37489">
        <ele>444.75</ele>
        <time>2011-02-13T07:10:12Z</time>
      </trkpt>
      <trkpt lat="45.39402" lon="5.37466">
        <ele>443.79</ele>
        <time>2011-02-13T07:10:14Z</time>
      </trkpt>
      <trkpt lat="45.39402" lon="5.37443">
        <ele>442.34</ele>
        <time>2011-02-13T07:10:16Z</time>
      </trkpt>
      <trkpt lat="45.39402" lon="5.37419">
        <ele>440.9</ele>
        <time>2011-02-13T07:10:18Z</time>
      </trkpt>
      <trkpt lat="45.39401" lon="5.37395">
        <ele>440.42</ele>
        <time>2011-02-13T07:10:20Z</time>
      </trkpt>
      <trkpt lat="45.394" lon="5.37371">
        <ele>440.42</ele>
        <time>2011-02-13T07:10:22Z</time>
      </trkpt>
      <trkpt lat="45.39399" lon="5.3735">
        <ele>439.46</ele>
        <time>2011-02-13T07:10:24Z</time>
      </trkpt>
      <trkpt lat="45.39397" lon="5.37329">
        <ele>439.46</ele>
        <time>2011-02-13T07:10:26Z</time>
      </trkpt>
      <trkpt lat="45.39395" lon="5.37309">
        <ele>439.46</ele>
        <time>2011-02-13T07:10:28Z</time>
      </trkpt>
      <trkpt lat="45.39394" lon="5.37289">
        <ele>439.46</ele>
        <time>2011-02-13T07:10:30Z</time>
      </trkpt>
      <trkpt lat="45.39393" lon="5.3727">
        <ele>439.46</ele>
        <time>2011-02-13T07:10:32Z</time>
      </trkpt>
      <trkpt lat="45.39393" lon="5.37251">
        <ele>438.5</ele>
        <time>2011-02-13T07:10:34Z</time>
      </trkpt>
      <trkpt lat="45.39393" lon="5.37234">
        <ele>438.5</ele>
        <time>2011-02-13T07:10:36Z</time>
      </trkpt>
      <trkpt lat="45.39393" lon="5.37218">
        <ele>438.98</ele>
        <time>2011-02-13T07:10:38Z</time>
      </trkpt>
      <trkpt lat="45.39393" lon="5.37203">
        <ele>438.5</ele>
        <time>2011-02-13T07:10:40Z</time>
      </trkpt>
      <trkpt lat="45.39393" lon="5.37189">
        <ele>438.5</ele>
        <time>2011-02-13T07:10:42Z</time>
      </trkpt>
      <trkpt lat="45.39396" lon="5.37173">
        <ele>438.02</ele>
        <time>2011-02-13T07:10:45Z</time>
      </trkpt>
      <trkpt lat="45.39401" lon="5.37159">
        <ele>438.98</ele>
        <time>2011-02-13T07:10:48Z</time>
      </trkpt>
      <trkpt lat="45.39405" lon="5.37144">
        <ele>439.94</ele>
        <time>2011-02-13T07:10:52Z</time>
      </trkpt>
      <trkpt lat="45.39408" lon="5.37128">
        <ele>440.9</ele>
        <time>2011-02-13T07:10:56Z</time>
      </trkpt>
      <trkpt lat="45.39412" lon="5.37117">
        <ele>441.38</ele>
        <time>2011-02-13T07:10:59Z</time>
      </trkpt>
      <trkpt lat="45.39417" lon="5.37103">
        <ele>442.34</ele>
        <time>2011-02-13T07:11:02Z</time>
      </trkpt>
      <trkpt lat="45.39421" lon="5.37089">
        <ele>442.34</ele>
        <time>2011-02-13T07:11:05Z</time>
      </trkpt>
      <trkpt lat="45.39426" lon="5.37074">
        <ele>442.82</ele>
        <time>2011-02-13T07:11:08Z</time>
      </trkpt>
      <trkpt lat="45.3943" lon="5.37059">
        <ele>443.79</ele>
        <time>2011-02-13T07:11:11Z</time>
      </trkpt>
      <trkpt lat="45.39435" lon="5.37043">
        <ele>443.31</ele>
        <time>2011-02-13T07:11:14Z</time>
      </trkpt>
      <trkpt lat="45.39441" lon="5.37027">
        <ele>443.31</ele>
        <time>2011-02-13T07:11:17Z</time>
      </trkpt>
      <trkpt lat="45.39447" lon="5.37011">
        <ele>442.34</ele>
        <time>2011-02-13T07:11:20Z</time>
      </trkpt>
      <trkpt lat="45.39452" lon="5.37">
        <ele>441.86</ele>
        <time>2011-02-13T07:11:22Z</time>
      </trkpt>
      <trkpt lat="45.39457" lon="5.36988">
        <ele>442.34</ele>
        <time>2011-02-13T07:11:24Z</time>
      </trkpt>
      <trkpt lat="45.39461" lon="5.36976">
        <ele>441.86</ele>
        <time>2011-02-13T07:11:26Z</time>
      </trkpt>
      <trkpt lat="45.39465" lon="5.36964">
        <ele>441.38</ele>
        <time>2011-02-13T07:11:28Z</time>
      </trkpt>
      <trkpt lat="45.39468" lon="5.3695">
        <ele>440.42</ele>
        <time>2011-02-13T07:11:30Z</time>
      </trkpt>
      <trkpt lat="45.3947" lon="5.36935">
        <ele>440.9</ele>
        <time>2011-02-13T07:11:32Z</time>
      </trkpt>
      <trkpt lat="45.39474" lon="5.36919">
        <ele>440.42</ele>
        <time>2011-02-13T07:11:34Z</time>
      </trkpt>
      <trkpt lat="45.39476" lon="5.36903">
        <ele>440.42</ele>
        <time>2011-02-13T07:11:36Z</time>
      </trkpt>
      <trkpt lat="45.39478" lon="5.36887">
        <ele>440.42</ele>
        <time>2011-02-13T07:11:38Z</time>
      </trkpt>
      <trkpt lat="45.39481" lon="5.36871">
        <ele>439.46</ele>
        <time>2011-02-13T07:11:40Z</time>
      </trkpt>
      <trkpt lat="45.39483" lon="5.36855">
        <ele>439.46</ele>
        <time>2011-02-13T07:11:42Z</time>
      </trkpt>
      <trkpt lat="45.39485" lon="5.36839">
        <ele>439.94</ele>
        <time>2011-02-13T07:11:44Z</time>
      </trkpt>
      <trkpt lat="45.39487" lon="5.36823">
        <ele>438.5</ele>
        <time>2011-02-13T07:11:46Z</time>
      </trkpt>
      <trkpt lat="45.39489" lon="5.36807">
        <ele>438.98</ele>
        <time>2011-02-13T07:11:48Z</time>
      </trkpt>
      <trkpt lat="45.3949" lon="5.3679">
        <ele>438.02</ele>
        <time>2011-02-13T07:11:50Z</time>
      </trkpt>
      <trkpt lat="45.39492" lon="5.36773">
        <ele>438.5</ele>
        <time>2011-02-13T07:11:52Z</time>
      </trkpt>
      <trkpt lat="45.39494" lon="5.36756">
        <ele>438.5</ele>
        <time>2011-02-13T07:11:54Z</time>
      </trkpt>
      <trkpt lat="45.39496" lon="5.36739">
        <ele>437.06</ele>
        <time>2011-02-13T07:11:56Z</time>
      </trkpt>
      <trkpt lat="45.39497" lon="5.36721">
        <ele>437.54</ele>
        <time>2011-02-13T07:11:58Z</time>
      </trkpt>
      <trkpt lat="45.39496" lon="5.36703">
        <ele>436.58</ele>
        <time>2011-02-13T07:12:00Z</time>
      </trkpt>
      <trkpt lat="45.39496" lon="5.36684">
        <ele>436.58</ele>
        <time>2011-02-13T07:12:02Z</time>
      </trkpt>
      <trkpt lat="45.39494" lon="5.36666">
        <ele>435.61</ele>
        <time>2011-02-13T07:12:04Z</time>
      </trkpt>
      <trkpt lat="45.39492" lon="5.36648">
        <ele>436.58</ele>
        <time>2011-02-13T07:12:06Z</time>
      </trkpt>
      <trkpt lat="45.39489" lon="5.36629">
        <ele>435.13</ele>
        <time>2011-02-13T07:12:08Z</time>
      </trkpt>
      <trkpt lat="45.39486" lon="5.3661">
        <ele>435.13</ele>
        <time>2011-02-13T07:12:10Z</time>
      </trkpt>
      <trkpt lat="45.39482" lon="5.36592">
        <ele>434.17</ele>
        <time>2011-02-13T07:12:12Z</time>
      </trkpt>
      <trkpt lat="45.39477" lon="5.36574">
        <ele>433.21</ele>
        <time>2011-02-13T07:12:14Z</time>
      </trkpt>
      <trkpt lat="45.39473" lon="5.36556">
        <ele>433.69</ele>
        <time>2011-02-13T07:12:16Z</time>
      </trkpt>
      <trkpt lat="45.3947" lon="5.36537">
        <ele>433.69</ele>
        <time>2011-02-13T07:12:18Z</time>
      </trkpt>
      <trkpt lat="45.39468" lon="5.36519">
        <ele>433.21</ele>
        <time>2011-02-13T07:12:20Z</time>
      </trkpt>
      <trkpt lat="45.39464" lon="5.36501">
        <ele>432.73</ele>
        <time>2011-02-13T07:12:22Z</time>
      </trkpt>
      <trkpt lat="45.39459" lon="5.36484">
        <ele>432.73</ele>
        <time>2011-02-13T07:12:24Z</time>
      </trkpt>
      <trkpt lat="45.39453" lon="5.36467">
        <ele>432.25</ele>
        <time>2011-02-13T07:12:26Z</time>
      </trkpt>
      <trkpt lat="45.39446" lon="5.36451">
        <ele>432.25</ele>
        <time>2011-02-13T07:12:28Z</time>
      </trkpt>
      <trkpt lat="45.39439" lon="5.36433">
        <ele>430.81</ele>
        <time>2011-02-13T07:12:30Z</time>
      </trkpt>
      <trkpt lat="45.39433" lon="5.36416">
        <ele>431.29</ele>
        <time>2011-02-13T07:12:32Z</time>
      </trkpt>
      <trkpt lat="45.39427" lon="5.36399">
        <ele>430.33</ele>
        <time>2011-02-13T07:12:34Z</time>
      </trkpt>
      <trkpt lat="45.39425" lon="5.36379">
        <ele>429.37</ele>
        <time>2011-02-13T07:12:36Z</time>
      </trkpt>
      <trkpt lat="45.39424" lon="5.3636">
        <ele>429.37</ele>
        <time>2011-02-13T07:12:38Z</time>
      </trkpt>
      <trkpt lat="45.39424" lon="5.3634">
        <ele>428.4</ele>
        <time>2011-02-13T07:12:40Z</time>
      </trkpt>
      <trkpt lat="45.39422" lon="5.36321">
        <ele>427.44</ele>
        <time>2011-02-13T07:12:42Z</time>
      </trkpt>
      <trkpt lat="45.39418" lon="5.36303">
        <ele>427.92</ele>
        <time>2011-02-13T07:12:44Z</time>
      </trkpt>
      <trkpt lat="45.39413" lon="5.36285">
        <ele>427.44</ele>
        <time>2011-02-13T07:12:46Z</time>
      </trkpt>
      <trkpt lat="45.39408" lon="5.36268">
        <ele>426.96</ele>
        <time>2011-02-13T07:12:48Z</time>
      </trkpt>
      <trkpt lat="45.39403" lon="5.36252">
        <ele>427.44</ele>
        <time>2011-02-13T07:12:50Z</time>
      </trkpt>
      <trkpt lat="45.39397" lon="5.36235">
        <ele>426.96</ele>
        <time>2011-02-13T07:12:52Z</time>
      </trkpt>
      <trkpt lat="45.39392" lon="5.36219">
        <ele>426.96</ele>
        <time>2011-02-13T07:12:54Z</time>
      </trkpt>
      <trkpt lat="45.39386" lon="5.36203">
        <ele>426.96</ele>
        <time>2011-02-13T07:12:56Z</time>
      </trkpt>
      <trkpt lat="45.39379" lon="5.36188">
        <ele>426.96</ele>
        <time>2011-02-13T07:12:58Z</time>
      </trkpt>
      <trkpt lat="45.39373" lon="5.36174">
        <ele>427.44</ele>
        <time>2011-02-13T07:13:00Z</time>
      </trkpt>
      <trkpt lat="45.39366" lon="5.3616">
        <ele>426.96</ele>
        <time>2011-02-13T07:13:02Z</time>
      </trkpt>
      <trkpt lat="45.3936" lon="5.36147">
        <ele>426.96</ele>
        <time>2011-02-13T07:13:04Z</time>
      </trkpt>
      <trkpt lat="45.39355" lon="5.36133">
        <ele>426.96</ele>
        <time>2011-02-13T07:13:06Z</time>
      </trkpt>
      <trkpt lat="45.39349" lon="5.3612">
        <ele>427.92</ele>
        <time>2011-02-13T07:13:08Z</time>
      </trkpt>
      <trkpt lat="45.39343" lon="5.36107">
        <ele>427.92</ele>
        <time>2011-02-13T07:13:10Z</time>
      </trkpt>
      <trkpt lat="45.39335" lon="5.36094">
        <ele>428.4</ele>
        <time>2011-02-13T07:13:13Z</time>
      </trkpt>
      <trkpt lat="45.39326" lon="5.36091">
        <ele>428.4</ele>
        <time>2011-02-13T07:13:17Z</time>
      </trkpt>
      <trkpt lat="45.39317" lon="5.36094">
        <ele>428.4</ele>
        <time>2011-02-13T07:13:20Z</time>
      </trkpt>
      <trkpt lat="45.39308" lon="5.36099">
        <ele>428.4</ele>
        <time>2011-02-13T07:13:22Z</time>
      </trkpt>
      <trkpt lat="45.39297" lon="5.36104">
        <ele>427.92</ele>
        <time>2011-02-13T07:13:24Z</time>
      </trkpt>
      <trkpt lat="45.39286" lon="5.36109">
        <ele>426.96</ele>
        <time>2011-02-13T07:13:26Z</time>
      </trkpt>
      <trkpt lat="45.39275" lon="5.36116">
        <ele>426.48</ele>
        <time>2011-02-13T07:13:28Z</time>
      </trkpt>
      <trkpt lat="45.39263" lon="5.36122">
        <ele>426</ele>
        <time>2011-02-13T07:13:30Z</time>
      </trkpt>
      <trkpt lat="45.39251" lon="5.36129">
        <ele>426</ele>
        <time>2011-02-13T07:13:32Z</time>
      </trkpt>
      <trkpt lat="45.3924" lon="5.36135">
        <ele>425.52</ele>
        <time>2011-02-13T07:13:34Z</time>
      </trkpt>
      <trkpt lat="45.39228" lon="5.3614">
        <ele>425.52</ele>
        <time>2011-02-13T07:13:36Z</time>
      </trkpt>
      <trkpt lat="45.39217" lon="5.36146">
        <ele>425.52</ele>
        <time>2011-02-13T07:13:38Z</time>
      </trkpt>
      <trkpt lat="45.39206" lon="5.36152">
        <ele>425.52</ele>
        <time>2011-02-13T07:13:40Z</time>
      </trkpt>
      <trkpt lat="45.39196" lon="5.36157">
        <ele>425.04</ele>
        <time>2011-02-13T07:13:42Z</time>
      </trkpt>
      <trkpt lat="45.39186" lon="5.36161">
        <ele>425.52</ele>
        <time>2011-02-13T07:13:44Z</time>
      </trkpt>
      <trkpt lat="45.39177" lon="5.36166">
        <ele>425.52</ele>
        <time>2011-02-13T07:13:46Z</time>
      </trkpt>
      <trkpt lat="45.39167" lon="5.36171">
        <ele>426</ele>
        <time>2011-02-13T07:13:48Z</time>
      </trkpt>
      <trkpt lat="45.39157" lon="5.36176">
        <ele>425.52</ele>
        <time>2011-02-13T07:13:50Z</time>
      </trkpt>
      <trkpt lat="45.39147" lon="5.3618">
        <ele>425.04</ele>
        <time>2011-02-13T07:13:52Z</time>
      </trkpt>
      <trkpt lat="45.39138" lon="5.36185">
        <ele>425.04</ele>
        <time>2011-02-13T07:13:54Z</time>
      </trkpt>
      <trkpt lat="45.39129" lon="5.3619">
        <ele>424.56</ele>
        <time>2011-02-13T07:13:57Z</time>
      </trkpt>
      <trkpt lat="45.39119" lon="5.36196">
        <ele>425.04</ele>
        <time>2011-02-13T07:14:02Z</time>
      </trkpt>
      <trkpt lat="45.39107" lon="5.36202">
        <ele>424.56</ele>
        <time>2011-02-13T07:14:05Z</time>
      </trkpt>
      <trkpt lat="45.39098" lon="5.36205">
        <ele>424.56</ele>
        <time>2011-02-13T07:14:07Z</time>
      </trkpt>
      <trkpt lat="45.39089" lon="5.36209">
        <ele>424.08</ele>
        <time>2011-02-13T07:14:09Z</time>
      </trkpt>
      <trkpt lat="45.3908" lon="5.36214">
        <ele>424.56</ele>
        <time>2011-02-13T07:14:11Z</time>
      </trkpt>
      <trkpt lat="45.39067" lon="5.3622">
        <ele>424.56</ele>
        <time>2011-02-13T07:14:14Z</time>
      </trkpt>
      <trkpt lat="45.39057" lon="5.36226">
        <ele>424.08</ele>
        <time>2011-02-13T07:14:17Z</time>
      </trkpt>
      <trkpt lat="45.39052" lon="5.36223">
        <ele>423.6</ele>
        <time>2011-02-13T07:14:23Z</time>
      </trkpt>
      <trkpt lat="45.39063" lon="5.36231">
        <ele>424.56</ele>
        <time>2011-02-13T07:14:27Z</time>
      </trkpt>
      <trkpt lat="45.39072" lon="5.3624">
        <ele>424.08</ele>
        <time>2011-02-13T07:14:30Z</time>
      </trkpt>
      <trkpt lat="45.39069" lon="5.36257">
        <ele>424.08</ele>
        <time>2011-02-13T07:14:33Z</time>
      </trkpt>
      <trkpt lat="45.3907" lon="5.36268">
        <ele>424.56</ele>
        <time>2011-02-13T07:14:36Z</time>
      </trkpt>
      <trkpt lat="45.39063" lon="5.36268">
        <ele>425.52</ele>
        <time>2011-02-13T07:14:39Z</time>
      </trkpt>
      <trkpt lat="45.39054" lon="5.36268">
        <ele>425.04</ele>
        <time>2011-02-13T07:14:42Z</time>
      </trkpt>
      <trkpt lat="45.39046" lon="5.36277">
        <ele>424.56</ele>
        <time>2011-02-13T07:14:45Z</time>
      </trkpt>
      <trkpt lat="45.39043" lon="5.36291">
        <ele>424.56</ele>
        <time>2011-02-13T07:14:48Z</time>
      </trkpt>
      <trkpt lat="45.3904" lon="5.36306">
        <ele>425.04</ele>
        <time>2011-02-13T07:14:52Z</time>
      </trkpt>
      <trkpt lat="45.39038" lon="5.36299">
        <ele>424.08</ele>
        <time>2011-02-13T07:15:38Z</time>
      </trkpt>
      <trkpt lat="45.39044" lon="5.36286">
        <ele>424.56</ele>
        <time>2011-02-13T07:15:43Z</time>
      </trkpt>
      <trkpt lat="45.39048" lon="5.36274">
        <ele>425.04</ele>
        <time>2011-02-13T07:15:47Z</time>
      </trkpt>
      <trkpt lat="45.39056" lon="5.36267">
        <ele>424.56</ele>
        <time>2011-02-13T07:15:52Z</time>
      </trkpt>
      <trkpt lat="45.39069" lon="5.3627">
        <ele>424.56</ele>
        <time>2011-02-13T07:15:56Z</time>
      </trkpt>
      <trkpt lat="45.39079" lon="5.36269">
        <ele>424.56</ele>
        <time>2011-02-13T07:16:00Z</time>
      </trkpt>
      <trkpt lat="45.39087" lon="5.36262">
        <ele>424.56</ele>
        <time>2011-02-13T07:16:04Z</time>
      </trkpt>
      <trkpt lat="45.39089" lon="5.36248">
        <ele>424.56</ele>
        <time>2011-02-13T07:16:08Z</time>
      </trkpt>
      <trkpt lat="45.39087" lon="5.36235">
        <ele>424.56</ele>
        <time>2011-02-13T07:16:15Z</time>
      </trkpt>
      <trkpt lat="45.39077" lon="5.36234">
        <ele>424.56</ele>
        <time>2011-02-13T07:16:30Z</time>
      </trkpt>
      <trkpt lat="45.39067" lon="5.36232">
        <ele>424.08</ele>
        <time>2011-02-13T07:16:37Z</time>
      </trkpt>
      <trkpt lat="45.39066" lon="5.3622">
        <ele>424.56</ele>
        <time>2011-02-13T07:16:42Z</time>
      </trkpt>
      <trkpt lat="45.39079" lon="5.36211">
        <ele>424.56</ele>
        <time>2011-02-13T07:16:47Z</time>
      </trkpt>
      <trkpt lat="45.3909" lon="5.36208">
        <ele>424.56</ele>
        <time>2011-02-13T07:16:50Z</time>
      </trkpt>
      <trkpt lat="45.39099" lon="5.36204">
        <ele>424.56</ele>
        <time>2011-02-13T07:16:53Z</time>
      </trkpt>
      <trkpt lat="45.39111" lon="5.36198">
        <ele>424.56</ele>
        <time>2011-02-13T07:16:56Z</time>
      </trkpt>
      <trkpt lat="45.39122" lon="5.3619">
        <ele>425.04</ele>
        <time>2011-02-13T07:16:59Z</time>
      </trkpt>
      <trkpt lat="45.39133" lon="5.36185">
        <ele>425.04</ele>
        <time>2011-02-13T07:17:02Z</time>
      </trkpt>
      <trkpt lat="45.39144" lon="5.3618">
        <ele>425.04</ele>
        <time>2011-02-13T07:17:05Z</time>
      </trkpt>
      <trkpt lat="45.39154" lon="5.36175">
        <ele>425.52</ele>
        <time>2011-02-13T07:17:08Z</time>
      </trkpt>
      <trkpt lat="45.39166" lon="5.3617">
        <ele>425.04</ele>
        <time>2011-02-13T07:17:11Z</time>
      </trkpt>
      <trkpt lat="45.39177" lon="5.36165">
        <ele>425.52</ele>
        <time>2011-02-13T07:17:14Z</time>
      </trkpt>
      <trkpt lat="45.39189" lon="5.36159">
        <ele>425.52</ele>
        <time>2011-02-13T07:17:17Z</time>
      </trkpt>
      <trkpt lat="45.39201" lon="5.36153">
        <ele>425.52</ele>
        <time>2011-02-13T07:17:20Z</time>
      </trkpt>
      <trkpt lat="45.39212" lon="5.36145">
        <ele>425.52</ele>
        <time>2011-02-13T07:17:23Z</time>
      </trkpt>
      <trkpt lat="45.39223" lon="5.36136">
        <ele>426.48</ele>
        <time>2011-02-13T07:17:26Z</time>
      </trkpt>
      <trkpt lat="45.39235" lon="5.36128">
        <ele>426</ele>
        <time>2011-02-13T07:17:29Z</time>
      </trkpt>
      <trkpt lat="45.39248" lon="5.36122">
        <ele>426.48</ele>
        <time>2011-02-13T07:17:32Z</time>
      </trkpt>
      <trkpt lat="45.3926" lon="5.36116">
        <ele>426</ele>
        <time>2011-02-13T07:17:35Z</time>
      </trkpt>
      <trkpt lat="45.39269" lon="5.36111">
        <ele>426.48</ele>
        <time>2011-02-13T07:17:37Z</time>
      </trkpt>
      <trkpt lat="45.39281" lon="5.36105">
        <ele>426.96</ele>
        <time>2011-02-13T07:17:40Z</time>
      </trkpt>
      <trkpt lat="45.39293" lon="5.36098">
        <ele>426.96</ele>
        <time>2011-02-13T07:17:43Z</time>
      </trkpt>
      <trkpt lat="45.39305" lon="5.36092">
        <ele>427.92</ele>
        <time>2011-02-13T07:17:46Z</time>
      </trkpt>
      <trkpt lat="45.39316" lon="5.36086">
        <ele>428.89</ele>
        <time>2011-02-13T07:17:49Z</time>
      </trkpt>
      <trkpt lat="45.39324" lon="5.36077">
        <ele>428.89</ele>
        <time>2011-02-13T07:17:52Z</time>
      </trkpt>
      <trkpt lat="45.39321" lon="5.36061">
        <ele>427.44</ele>
        <time>2011-02-13T07:17:56Z</time>
      </trkpt>
      <trkpt lat="45.39311" lon="5.36041">
        <ele>426.48</ele>
        <time>2011-02-13T07:18:00Z</time>
      </trkpt>
      <trkpt lat="45.39299" lon="5.3602">
        <ele>426</ele>
        <time>2011-02-13T07:18:03Z</time>
      </trkpt>
      <trkpt lat="45.3929" lon="5.36002">
        <ele>425.04</ele>
        <time>2011-02-13T07:18:05Z</time>
      </trkpt>
      <trkpt lat="45.39282" lon="5.35986">
        <ele>425.04</ele>
        <time>2011-02-13T07:18:07Z</time>
      </trkpt>
      <trkpt lat="45.39276" lon="5.3597">
        <ele>425.04</ele>
        <time>2011-02-13T07:18:09Z</time>
      </trkpt>
      <trkpt lat="45.3927" lon="5.35956">
        <ele>425.04</ele>
        <time>2011-02-13T07:18:11Z</time>
      </trkpt>
      <trkpt lat="45.39266" lon="5.35942">
        <ele>424.56</ele>
        <time>2011-02-13T07:18:13Z</time>
      </trkpt>
      <trkpt lat="45.3927" lon="5.35931">
        <ele>425.04</ele>
        <time>2011-02-13T07:18:15Z</time>
      </trkpt>
      <trkpt lat="45.3928" lon="5.35923">
        <ele>426</ele>
        <time>2011-02-13T07:18:18Z</time>
      </trkpt>
      <trkpt lat="45.39287" lon="5.35913">
        <ele>426.96</ele>
        <time>2011-02-13T07:18:22Z</time>
      </trkpt>
      <trkpt lat="45.39292" lon="5.359">
        <ele>428.4</ele>
        <time>2011-02-13T07:18:27Z</time>
      </trkpt>
      <trkpt lat="45.39295" lon="5.35887">
        <ele>429.85</ele>
        <time>2011-02-13T07:18:33Z</time>
      </trkpt>
      <trkpt lat="45.39302" lon="5.35877">
        <ele>431.29</ele>
        <time>2011-02-13T07:18:39Z</time>
      </trkpt>
      <trkpt lat="45.39312" lon="5.35878">
        <ele>432.73</ele>
        <time>2011-02-13T07:18:44Z</time>
      </trkpt>
      <trkpt lat="45.39321" lon="5.35885">
        <ele>433.69</ele>
        <time>2011-02-13T07:18:49Z</time>
      </trkpt>
      <trkpt lat="45.39329" lon="5.35893">
        <ele>435.13</ele>
        <time>2011-02-13T07:18:54Z</time>
      </trkpt>
      <trkpt lat="45.3934" lon="5.35901">
        <ele>436.1</ele>
        <time>2011-02-13T07:19:00Z</time>
      </trkpt>
      <trkpt lat="45.39348" lon="5.35908">
        <ele>438.5</ele>
        <time>2011-02-13T07:19:06Z</time>
      </trkpt>
      <trkpt lat="45.3936" lon="5.35916">
        <ele>439.94</ele>
        <time>2011-02-13T07:19:13Z</time>
      </trkpt>
      <trkpt lat="45.39369" lon="5.35917">
        <ele>441.38</ele>
        <time>2011-02-13T07:19:19Z</time>
      </trkpt>
      <trkpt lat="45.39365" lon="5.35902">
        <ele>441.38</ele>
        <time>2011-02-13T07:19:26Z</time>
      </trkpt>
      <trkpt lat="45.39358" lon="5.35885">
        <ele>442.34</ele>
        <time>2011-02-13T07:19:31Z</time>
      </trkpt>
      <trkpt lat="45.39354" lon="5.35871">
        <ele>442.34</ele>
        <time>2011-02-13T07:19:36Z</time>
      </trkpt>
      <trkpt lat="45.39349" lon="5.35856">
        <ele>442.82</ele>
        <time>2011-02-13T07:19:42Z</time>
      </trkpt>
      <trkpt lat="45.39346" lon="5.35843">
        <ele>443.31</ele>
        <time>2011-02-13T07:19:47Z</time>
      </trkpt>
      <trkpt lat="45.39344" lon="5.35829">
        <ele>443.31</ele>
        <time>2011-02-13T07:19:52Z</time>
      </trkpt>
      <trkpt lat="45.39342" lon="5.35813">
        <ele>443.79</ele>
        <time>2011-02-13T07:19:57Z</time>
      </trkpt>
      <trkpt lat="45.39339" lon="5.35797">
        <ele>444.75</ele>
        <time>2011-02-13T07:20:02Z</time>
      </trkpt>
      <trkpt lat="45.39336" lon="5.35779">
        <ele>444.27</ele>
        <time>2011-02-13T07:20:07Z</time>
      </trkpt>
      <trkpt lat="45.39333" lon="5.35765">
        <ele>444.27</ele>
        <time>2011-02-13T07:20:11Z</time>
      </trkpt>
      <trkpt lat="45.39331" lon="5.35751">
        <ele>444.75</ele>
        <time>2011-02-13T07:20:15Z</time>
      </trkpt>
      <trkpt lat="45.39328" lon="5.35736">
        <ele>445.23</ele>
        <time>2011-02-13T07:20:19Z</time>
      </trkpt>
      <trkpt lat="45.39326" lon="5.35723">
        <ele>445.71</ele>
        <time>2011-02-13T07:20:23Z</time>
      </trkpt>
      <trkpt lat="45.39324" lon="5.3571">
        <ele>447.15</ele>
        <time>2011-02-13T07:20:27Z</time>
      </trkpt>
      <trkpt lat="45.39322" lon="5.35697">
        <ele>448.11</ele>
        <time>2011-02-13T07:20:31Z</time>
      </trkpt>
      <trkpt lat="45.3932" lon="5.35683">
        <ele>448.59</ele>
        <time>2011-02-13T07:20:35Z</time>
      </trkpt>
      <trkpt lat="45.39317" lon="5.35669">
        <ele>448.11</ele>
        <time>2011-02-13T07:20:39Z</time>
      </trkpt>
      <trkpt lat="45.39315" lon="5.35655">
        <ele>449.07</ele>
        <time>2011-02-13T07:20:43Z</time>
      </trkpt>
      <trkpt lat="45.39312" lon="5.35638">
        <ele>449.07</ele>
        <time>2011-02-13T07:20:47Z</time>
      </trkpt>
      <trkpt lat="45.3931" lon="5.35621">
        <ele>448.59</ele>
        <time>2011-02-13T07:20:51Z</time>
      </trkpt>
      <trkpt lat="45.39309" lon="5.35608">
        <ele>449.07</ele>
        <time>2011-02-13T07:20:54Z</time>
      </trkpt>
      <trkpt lat="45.39307" lon="5.35595">
        <ele>449.07</ele>
        <time>2011-02-13T07:20:57Z</time>
      </trkpt>
      <trkpt lat="45.39306" lon="5.35578">
        <ele>449.07</ele>
        <time>2011-02-13T07:21:01Z</time>
      </trkpt>
      <trkpt lat="45.39306" lon="5.35563">
        <ele>448.59</ele>
        <time>2011-02-13T07:21:05Z</time>
      </trkpt>
      <trkpt lat="45.39307" lon="5.3555">
        <ele>448.11</ele>
        <time>2011-02-13T07:21:08Z</time>
      </trkpt>
      <trkpt lat="45.39307" lon="5.35536">
        <ele>448.11</ele>
        <time>2011-02-13T07:21:11Z</time>
      </trkpt>
      <trkpt lat="45.39309" lon="5.35523">
        <ele>448.11</ele>
        <time>2011-02-13T07:21:14Z</time>
      </trkpt>
      <trkpt lat="45.3931" lon="5.35509">
        <ele>447.63</ele>
        <time>2011-02-13T07:21:17Z</time>
      </trkpt>
      <trkpt lat="45.3931" lon="5.35496">
        <ele>446.67</ele>
        <time>2011-02-13T07:21:20Z</time>
      </trkpt>
      <trkpt lat="45.39312" lon="5.3548">
        <ele>447.63</ele>
        <time>2011-02-13T07:21:24Z</time>
      </trkpt>
      <trkpt lat="45.39312" lon="5.35465">
        <ele>448.59</ele>
        <time>2011-02-13T07:21:28Z</time>
      </trkpt>
      <trkpt lat="45.39312" lon="5.35448">
        <ele>448.11</ele>
        <time>2011-02-13T07:21:32Z</time>
      </trkpt>
      <trkpt lat="45.39312" lon="5.35431">
        <ele>448.11</ele>
        <time>2011-02-13T07:21:36Z</time>
      </trkpt>
      <trkpt lat="45.39313" lon="5.35417">
        <ele>448.59</ele>
        <time>2011-02-13T07:21:39Z</time>
      </trkpt>
      <trkpt lat="45.39313" lon="5.35404">
        <ele>448.11</ele>
        <time>2011-02-13T07:21:42Z</time>
      </trkpt>
      <trkpt lat="45.39314" lon="5.35387">
        <ele>448.11</ele>
        <time>2011-02-13T07:21:46Z</time>
      </trkpt>
      <trkpt lat="45.39315" lon="5.35374">
        <ele>447.15</ele>
        <time>2011-02-13T07:21:49Z</time>
      </trkpt>
      <trkpt lat="45.39316" lon="5.35361">
        <ele>447.63</ele>
        <time>2011-02-13T07:21:52Z</time>
      </trkpt>
      <trkpt lat="45.39316" lon="5.35347">
        <ele>447.63</ele>
        <time>2011-02-13T07:21:55Z</time>
      </trkpt>
      <trkpt lat="45.39317" lon="5.35329">
        <ele>447.15</ele>
        <time>2011-02-13T07:21:59Z</time>
      </trkpt>
      <trkpt lat="45.39317" lon="5.35313">
        <ele>447.63</ele>
        <time>2011-02-13T07:22:03Z</time>
      </trkpt>
      <trkpt lat="45.39318" lon="5.35296">
        <ele>447.63</ele>
        <time>2011-02-13T07:22:07Z</time>
      </trkpt>
      <trkpt lat="45.39319" lon="5.3528">
        <ele>448.11</ele>
        <time>2011-02-13T07:22:11Z</time>
      </trkpt>
      <trkpt lat="45.3932" lon="5.35264">
        <ele>448.59</ele>
        <time>2011-02-13T07:22:15Z</time>
      </trkpt>
      <trkpt lat="45.3932" lon="5.35248">
        <ele>448.59</ele>
        <time>2011-02-13T07:22:19Z</time>
      </trkpt>
      <trkpt lat="45.39321" lon="5.35232">
        <ele>448.59</ele>
        <time>2011-02-13T07:22:23Z</time>
      </trkpt>
      <trkpt lat="45.39321" lon="5.35218">
        <ele>449.55</ele>
        <time>2011-02-13T07:22:27Z</time>
      </trkpt>
      <trkpt lat="45.39321" lon="5.35202">
        <ele>449.07</ele>
        <time>2011-02-13T07:22:31Z</time>
      </trkpt>
      <trkpt lat="45.39322" lon="5.35187">
        <ele>450.03</ele>
        <time>2011-02-13T07:22:35Z</time>
      </trkpt>
      <trkpt lat="45.39323" lon="5.35171">
        <ele>451</ele>
        <time>2011-02-13T07:22:39Z</time>
      </trkpt>
      <trkpt lat="45.39324" lon="5.35156">
        <ele>451</ele>
        <time>2011-02-13T07:22:43Z</time>
      </trkpt>
      <trkpt lat="45.39324" lon="5.35139">
        <ele>451.48</ele>
        <time>2011-02-13T07:22:47Z</time>
      </trkpt>
      <trkpt lat="45.39325" lon="5.35124">
        <ele>452.44</ele>
        <time>2011-02-13T07:22:51Z</time>
      </trkpt>
      <trkpt lat="45.39325" lon="5.35107">
        <ele>452.92</ele>
        <time>2011-02-13T07:22:55Z</time>
      </trkpt>
      <trkpt lat="45.39325" lon="5.35094">
        <ele>452.44</ele>
        <time>2011-02-13T07:22:58Z</time>
      </trkpt>
      <trkpt lat="45.39325" lon="5.35079">
        <ele>452.92</ele>
        <time>2011-02-13T07:23:01Z</time>
      </trkpt>
      <trkpt lat="45.39325" lon="5.35064">
        <ele>452.92</ele>
        <time>2011-02-13T07:23:04Z</time>
      </trkpt>
      <trkpt lat="45.39325" lon="5.35048">
        <ele>452.44</ele>
        <time>2011-02-13T07:23:07Z</time>
      </trkpt>
      <trkpt lat="45.39324" lon="5.35031">
        <ele>451.96</ele>
        <time>2011-02-13T07:23:10Z</time>
      </trkpt>
      <trkpt lat="45.39324" lon="5.35013">
        <ele>451.96</ele>
        <time>2011-02-13T07:23:13Z</time>
      </trkpt>
      <trkpt lat="45.39323" lon="5.34995">
        <ele>451.48</ele>
        <time>2011-02-13T07:23:16Z</time>
      </trkpt>
      <trkpt lat="45.39322" lon="5.34978">
        <ele>451.48</ele>
        <time>2011-02-13T07:23:19Z</time>
      </trkpt>
      <trkpt lat="45.3932" lon="5.34962">
        <ele>451.48</ele>
        <time>2011-02-13T07:23:22Z</time>
      </trkpt>
      <trkpt lat="45.39318" lon="5.34946">
        <ele>451.96</ele>
        <time>2011-02-13T07:23:25Z</time>
      </trkpt>
      <trkpt lat="45.39316" lon="5.34931">
        <ele>451.48</ele>
        <time>2011-02-13T07:23:28Z</time>
      </trkpt>
      <trkpt lat="45.39313" lon="5.34913">
        <ele>451.96</ele>
        <time>2011-02-13T07:23:31Z</time>
      </trkpt>
      <trkpt lat="45.39312" lon="5.34896">
        <ele>451.96</ele>
        <time>2011-02-13T07:23:34Z</time>
      </trkpt>
      <trkpt lat="45.3931" lon="5.34878">
        <ele>451.48</ele>
        <time>2011-02-13T07:23:37Z</time>
      </trkpt>
      <trkpt lat="45.39308" lon="5.34861">
        <ele>451.48</ele>
        <time>2011-02-13T07:23:40Z</time>
      </trkpt>
      <trkpt lat="45.39307" lon="5.34846">
        <ele>451.48</ele>
        <time>2011-02-13T07:23:43Z</time>
      </trkpt>
      <trkpt lat="45.39306" lon="5.34828">
        <ele>451</ele>
        <time>2011-02-13T07:23:46Z</time>
      </trkpt>
      <trkpt lat="45.39304" lon="5.34811">
        <ele>451</ele>
        <time>2011-02-13T07:23:49Z</time>
      </trkpt>
      <trkpt lat="45.393" lon="5.34794">
        <ele>450.52</ele>
        <time>2011-02-13T07:23:52Z</time>
      </trkpt>
      <trkpt lat="45.39298" lon="5.34777">
        <ele>451</ele>
        <time>2011-02-13T07:23:55Z</time>
      </trkpt>
      <trkpt lat="45.39296" lon="5.34759">
        <ele>450.52</ele>
        <time>2011-02-13T07:23:58Z</time>
      </trkpt>
      <trkpt lat="45.39295" lon="5.34743">
        <ele>450.03</ele>
        <time>2011-02-13T07:24:01Z</time>
      </trkpt>
      <trkpt lat="45.393" lon="5.34737">
        <ele>449.55</ele>
        <time>2011-02-13T07:24:04Z</time>
      </trkpt>
      <trkpt lat="45.3932" lon="5.3474">
        <ele>449.07</ele>
        <time>2011-02-13T07:24:08Z</time>
      </trkpt>
      <trkpt lat="45.39334" lon="5.34741">
        <ele>449.07</ele>
        <time>2011-02-13T07:24:11Z</time>
      </trkpt>
      <trkpt lat="45.39347" lon="5.34741">
        <ele>448.11</ele>
        <time>2011-02-13T07:24:14Z</time>
      </trkpt>
      <trkpt lat="45.39358" lon="5.34741">
        <ele>448.11</ele>
        <time>2011-02-13T07:24:17Z</time>
      </trkpt>
      <trkpt lat="45.3937" lon="5.3474">
        <ele>447.63</ele>
        <time>2011-02-13T07:24:20Z</time>
      </trkpt>
      <trkpt lat="45.39381" lon="5.34739">
        <ele>447.63</ele>
        <time>2011-02-13T07:24:23Z</time>
      </trkpt>
      <trkpt lat="45.39393" lon="5.34739">
        <ele>447.15</ele>
        <time>2011-02-13T07:24:26Z</time>
      </trkpt>
      <trkpt lat="45.39405" lon="5.34738">
        <ele>446.67</ele>
        <time>2011-02-13T07:24:29Z</time>
      </trkpt>
      <trkpt lat="45.39417" lon="5.34732">
        <ele>445.71</ele>
        <time>2011-02-13T07:24:32Z</time>
      </trkpt>
      <trkpt lat="45.39419" lon="5.34716">
        <ele>446.19</ele>
        <time>2011-02-13T07:24:35Z</time>
      </trkpt>
      <trkpt lat="45.39413" lon="5.34696">
        <ele>445.71</ele>
        <time>2011-02-13T07:24:38Z</time>
      </trkpt>
      <trkpt lat="45.39409" lon="5.34675">
        <ele>445.71</ele>
        <time>2011-02-13T07:24:41Z</time>
      </trkpt>
      <trkpt lat="45.39409" lon="5.3466">
        <ele>445.23</ele>
        <time>2011-02-13T07:24:43Z</time>
      </trkpt>
      <trkpt lat="45.3941" lon="5.34646">
        <ele>444.75</ele>
        <time>2011-02-13T07:24:45Z</time>
      </trkpt>
      <trkpt lat="45.3941" lon="5.34633">
        <ele>444.75</ele>
        <time>2011-02-13T07:24:47Z</time>
      </trkpt>
      <trkpt lat="45.39411" lon="5.34618">
        <ele>443.79</ele>
        <time>2011-02-13T07:24:49Z</time>
      </trkpt>
      <trkpt lat="45.39411" lon="5.34603">
        <ele>443.31</ele>
        <time>2011-02-13T07:24:51Z</time>
      </trkpt>
      <trkpt lat="45.39412" lon="5.34587">
        <ele>442.82</ele>
        <time>2011-02-13T07:24:53Z</time>
      </trkpt>
      <trkpt lat="45.39413" lon="5.34571">
        <ele>442.82</ele>
        <time>2011-02-13T07:24:55Z</time>
      </trkpt>
      <trkpt lat="45.39414" lon="5.34555">
        <ele>442.34</ele>
        <time>2011-02-13T07:24:57Z</time>
      </trkpt>
      <trkpt lat="45.39415" lon="5.34537">
        <ele>441.86</ele>
        <time>2011-02-13T07:24:59Z</time>
      </trkpt>
      <trkpt lat="45.39415" lon="5.3452">
        <ele>441.86</ele>
        <time>2011-02-13T07:25:01Z</time>
      </trkpt>
      <trkpt lat="45.39417" lon="5.34504">
        <ele>440.9</ele>
        <time>2011-02-13T07:25:03Z</time>
      </trkpt>
      <trkpt lat="45.39418" lon="5.34487">
        <ele>441.38</ele>
        <time>2011-02-13T07:25:05Z</time>
      </trkpt>
      <trkpt lat="45.3942" lon="5.34471">
        <ele>439.94</ele>
        <time>2011-02-13T07:25:07Z</time>
      </trkpt>
      <trkpt lat="45.39419" lon="5.34454">
        <ele>439.94</ele>
        <time>2011-02-13T07:25:09Z</time>
      </trkpt>
      <trkpt lat="45.39415" lon="5.34438">
        <ele>439.46</ele>
        <time>2011-02-13T07:25:11Z</time>
      </trkpt>
      <trkpt lat="45.3941" lon="5.34423">
        <ele>439.94</ele>
        <time>2011-02-13T07:25:13Z</time>
      </trkpt>
      <trkpt lat="45.39406" lon="5.34408">
        <ele>438.98</ele>
        <time>2011-02-13T07:25:15Z</time>
      </trkpt>
      <trkpt lat="45.39404" lon="5.34394">
        <ele>439.94</ele>
        <time>2011-02-13T07:25:17Z</time>
      </trkpt>
      <trkpt lat="45.39402" lon="5.34377">
        <ele>439.94</ele>
        <time>2011-02-13T07:25:20Z</time>
      </trkpt>
      <trkpt lat="45.394" lon="5.3436">
        <ele>439.94</ele>
        <time>2011-02-13T07:25:23Z</time>
      </trkpt>
      <trkpt lat="45.39398" lon="5.34343">
        <ele>440.42</ele>
        <time>2011-02-13T07:25:26Z</time>
      </trkpt>
      <trkpt lat="45.39396" lon="5.34328">
        <ele>440.42</ele>
        <time>2011-02-13T07:25:29Z</time>
      </trkpt>
      <trkpt lat="45.39395" lon="5.34312">
        <ele>440.9</ele>
        <time>2011-02-13T07:25:32Z</time>
      </trkpt>
      <trkpt lat="45.39398" lon="5.34296">
        <ele>440.42</ele>
        <time>2011-02-13T07:25:35Z</time>
      </trkpt>
      <trkpt lat="45.39402" lon="5.34282">
        <ele>441.38</ele>
        <time>2011-02-13T07:25:38Z</time>
      </trkpt>
      <trkpt lat="45.39405" lon="5.34269">
        <ele>442.34</ele>
        <time>2011-02-13T07:25:41Z</time>
      </trkpt>
      <trkpt lat="45.39407" lon="5.34253">
        <ele>442.82</ele>
        <time>2011-02-13T07:25:45Z</time>
      </trkpt>
      <trkpt lat="45.3941" lon="5.34238">
        <ele>443.31</ele>
        <time>2011-02-13T07:25:49Z</time>
      </trkpt>
      <trkpt lat="45.39413" lon="5.34223">
        <ele>444.75</ele>
        <time>2011-02-13T07:25:53Z</time>
      </trkpt>
      <trkpt lat="45.39415" lon="5.34209">
        <ele>444.75</ele>
        <time>2011-02-13T07:25:57Z</time>
      </trkpt>
      <trkpt lat="45.39417" lon="5.34194">
        <ele>446.19</ele>
        <time>2011-02-13T07:26:01Z</time>
      </trkpt>
      <trkpt lat="45.39419" lon="5.34178">
        <ele>447.63</ele>
        <time>2011-02-13T07:26:05Z</time>
      </trkpt>
      <trkpt lat="45.39421" lon="5.34163">
        <ele>448.59</ele>
        <time>2011-02-13T07:26:09Z</time>
      </trkpt>
      <trkpt lat="45.39423" lon="5.34148">
        <ele>449.55</ele>
        <time>2011-02-13T07:26:13Z</time>
      </trkpt>
      <trkpt lat="45.39424" lon="5.34134">
        <ele>450.03</ele>
        <time>2011-02-13T07:26:17Z</time>
      </trkpt>
      <trkpt lat="45.39428" lon="5.34121">
        <ele>450.52</ele>
        <time>2011-02-13T07:26:21Z</time>
      </trkpt>
      <trkpt lat="45.39437" lon="5.34117">
        <ele>451.48</ele>
        <time>2011-02-13T07:26:25Z</time>
      </trkpt>
      <trkpt lat="45.39449" lon="5.34119">
        <ele>452.44</ele>
        <time>2011-02-13T07:26:29Z</time>
      </trkpt>
      <trkpt lat="45.39461" lon="5.34119">
        <ele>451.48</ele>
        <time>2011-02-13T07:26:33Z</time>
      </trkpt>
      <trkpt lat="45.39473" lon="5.34116">
        <ele>451</ele>
        <time>2011-02-13T07:26:37Z</time>
      </trkpt>
      <trkpt lat="45.39485" lon="5.34113">
        <ele>451</ele>
        <time>2011-02-13T07:26:40Z</time>
      </trkpt>
      <trkpt lat="45.39498" lon="5.34113">
        <ele>450.52</ele>
        <time>2011-02-13T07:26:43Z</time>
      </trkpt>
      <trkpt lat="45.39507" lon="5.34112">
        <ele>450.52</ele>
        <time>2011-02-13T07:26:45Z</time>
      </trkpt>
      <trkpt lat="45.39517" lon="5.3411">
        <ele>449.55</ele>
        <time>2011-02-13T07:26:47Z</time>
      </trkpt>
      <trkpt lat="45.39527" lon="5.34109">
        <ele>449.07</ele>
        <time>2011-02-13T07:26:49Z</time>
      </trkpt>
      <trkpt lat="45.39537" lon="5.34108">
        <ele>448.59</ele>
        <time>2011-02-13T07:26:51Z</time>
      </trkpt>
      <trkpt lat="45.39547" lon="5.34109">
        <ele>448.59</ele>
        <time>2011-02-13T07:26:53Z</time>
      </trkpt>
      <trkpt lat="45.39556" lon="5.34108">
        <ele>448.11</ele>
        <time>2011-02-13T07:26:55Z</time>
      </trkpt>
      <trkpt lat="45.39567" lon="5.34109">
        <ele>447.15</ele>
        <time>2011-02-13T07:26:57Z</time>
      </trkpt>
      <trkpt lat="45.39578" lon="5.34109">
        <ele>445.71</ele>
        <time>2011-02-13T07:26:59Z</time>
      </trkpt>
      <trkpt lat="45.3959" lon="5.34111">
        <ele>444.75</ele>
        <time>2011-02-13T07:27:01Z</time>
      </trkpt>
      <trkpt lat="45.39603" lon="5.34109">
        <ele>442.82</ele>
        <time>2011-02-13T07:27:04Z</time>
      </trkpt>
      <trkpt lat="45.39608" lon="5.34097">
        <ele>442.34</ele>
        <time>2011-02-13T07:27:06Z</time>
      </trkpt>
      <trkpt lat="45.3961" lon="5.34079">
        <ele>439.94</ele>
        <time>2011-02-13T07:27:08Z</time>
      </trkpt>
      <trkpt lat="45.39613" lon="5.34057">
        <ele>438.5</ele>
        <time>2011-02-13T07:27:10Z</time>
      </trkpt>
      <trkpt lat="45.39619" lon="5.34032">
        <ele>435.61</ele>
        <time>2011-02-13T07:27:12Z</time>
      </trkpt>
      <trkpt lat="45.39623" lon="5.3402">
        <ele>434.17</ele>
        <time>2011-02-13T07:27:13Z</time>
      </trkpt>
      <trkpt lat="45.39632" lon="5.33998">
        <ele>432.73</ele>
        <time>2011-02-13T07:27:15Z</time>
      </trkpt>
      <trkpt lat="45.39647" lon="5.33985">
        <ele>432.25</ele>
        <time>2011-02-13T07:27:17Z</time>
      </trkpt>
      <trkpt lat="45.39663" lon="5.33979">
        <ele>430.81</ele>
        <time>2011-02-13T07:27:19Z</time>
      </trkpt>
      <trkpt lat="45.39674" lon="5.33968">
        <ele>431.29</ele>
        <time>2011-02-13T07:27:21Z</time>
      </trkpt>
      <trkpt lat="45.39678" lon="5.3395">
        <ele>429.85</ele>
        <time>2011-02-13T07:27:23Z</time>
      </trkpt>
      <trkpt lat="45.39678" lon="5.33929">
        <ele>429.85</ele>
        <time>2011-02-13T07:27:25Z</time>
      </trkpt>
      <trkpt lat="45.39679" lon="5.33908">
        <ele>429.37</ele>
        <time>2011-02-13T07:27:27Z</time>
      </trkpt>
      <trkpt lat="45.3968" lon="5.33887">
        <ele>429.37</ele>
        <time>2011-02-13T07:27:29Z</time>
      </trkpt>
      <trkpt lat="45.39682" lon="5.33867">
        <ele>428.89</ele>
        <time>2011-02-13T07:27:31Z</time>
      </trkpt>
      <trkpt lat="45.39686" lon="5.33847">
        <ele>428.89</ele>
        <time>2011-02-13T07:27:33Z</time>
      </trkpt>
      <trkpt lat="45.39693" lon="5.33829">
        <ele>429.85</ele>
        <time>2011-02-13T07:27:35Z</time>
      </trkpt>
      <trkpt lat="45.39701" lon="5.33818">
        <ele>429.85</ele>
        <time>2011-02-13T07:27:37Z</time>
      </trkpt>
      <trkpt lat="45.39709" lon="5.33811">
        <ele>430.33</ele>
        <time>2011-02-13T07:27:39Z</time>
      </trkpt>
      <trkpt lat="45.39717" lon="5.33802">
        <ele>431.29</ele>
        <time>2011-02-13T07:27:42Z</time>
      </trkpt>
      <trkpt lat="45.39722" lon="5.3379">
        <ele>431.77</ele>
        <time>2011-02-13T07:27:45Z</time>
      </trkpt>
      <trkpt lat="45.39725" lon="5.33777">
        <ele>431.77</ele>
        <time>2011-02-13T07:27:48Z</time>
      </trkpt>
      <trkpt lat="45.39726" lon="5.33761">
        <ele>431.29</ele>
        <time>2011-02-13T07:27:51Z</time>
      </trkpt>
      <trkpt lat="45.39725" lon="5.33745">
        <ele>431.29</ele>
        <time>2011-02-13T07:27:54Z</time>
      </trkpt>
      <trkpt lat="45.39725" lon="5.33728">
        <ele>431.29</ele>
        <time>2011-02-13T07:27:57Z</time>
      </trkpt>
      <trkpt lat="45.39725" lon="5.33711">
        <ele>430.81</ele>
        <time>2011-02-13T07:28:00Z</time>
      </trkpt>
      <trkpt lat="45.39724" lon="5.33695">
        <ele>431.77</ele>
        <time>2011-02-13T07:28:03Z</time>
      </trkpt>
      <trkpt lat="45.39724" lon="5.33679">
        <ele>431.29</ele>
        <time>2011-02-13T07:28:06Z</time>
      </trkpt>
      <trkpt lat="45.39725" lon="5.33664">
        <ele>432.25</ele>
        <time>2011-02-13T07:28:09Z</time>
      </trkpt>
      <trkpt lat="45.39726" lon="5.33648">
        <ele>432.25</ele>
        <time>2011-02-13T07:28:12Z</time>
      </trkpt>
      <trkpt lat="45.39727" lon="5.33632">
        <ele>431.77</ele>
        <time>2011-02-13T07:28:15Z</time>
      </trkpt>
      <trkpt lat="45.39729" lon="5.33615">
        <ele>431.29</ele>
        <time>2011-02-13T07:28:18Z</time>
      </trkpt>
      <trkpt lat="45.39732" lon="5.33598">
        <ele>431.29</ele>
        <time>2011-02-13T07:28:21Z</time>
      </trkpt>
      <trkpt lat="45.39734" lon="5.33581">
        <ele>430.81</ele>
        <time>2011-02-13T07:28:24Z</time>
      </trkpt>
      <trkpt lat="45.39736" lon="5.33566">
        <ele>430.81</ele>
        <time>2011-02-13T07:28:27Z</time>
      </trkpt>
      <trkpt lat="45.39739" lon="5.33551">
        <ele>431.29</ele>
        <time>2011-02-13T07:28:30Z</time>
      </trkpt>
      <trkpt lat="45.39743" lon="5.33538">
        <ele>432.25</ele>
        <time>2011-02-13T07:28:33Z</time>
      </trkpt>
      <trkpt lat="45.39749" lon="5.33525">
        <ele>432.73</ele>
        <time>2011-02-13T07:28:37Z</time>
      </trkpt>
      <trkpt lat="45.39754" lon="5.3351">
        <ele>434.65</ele>
        <time>2011-02-13T07:28:42Z</time>
      </trkpt>
      <trkpt lat="45.39756" lon="5.33497">
        <ele>435.61</ele>
        <time>2011-02-13T07:28:46Z</time>
      </trkpt>
      <trkpt lat="45.39755" lon="5.33483">
        <ele>435.13</ele>
        <time>2011-02-13T07:28:49Z</time>
      </trkpt>
      <trkpt lat="45.39753" lon="5.33467">
        <ele>435.61</ele>
        <time>2011-02-13T07:28:52Z</time>
      </trkpt>
      <trkpt lat="45.39751" lon="5.33452">
        <ele>435.13</ele>
        <time>2011-02-13T07:28:55Z</time>
      </trkpt>
      <trkpt lat="45.3975" lon="5.33437">
        <ele>435.13</ele>
        <time>2011-02-13T07:28:58Z</time>
      </trkpt>
      <trkpt lat="45.39749" lon="5.33422">
        <ele>435.61</ele>
        <time>2011-02-13T07:29:01Z</time>
      </trkpt>
      <trkpt lat="45.39747" lon="5.33409">
        <ele>436.1</ele>
        <time>2011-02-13T07:29:04Z</time>
      </trkpt>
      <trkpt lat="45.39745" lon="5.33395">
        <ele>436.58</ele>
        <time>2011-02-13T07:29:07Z</time>
      </trkpt>
      <trkpt lat="45.39745" lon="5.33381">
        <ele>436.58</ele>
        <time>2011-02-13T07:29:10Z</time>
      </trkpt>
      <trkpt lat="45.39747" lon="5.33367">
        <ele>438.02</ele>
        <time>2011-02-13T07:29:13Z</time>
      </trkpt>
      <trkpt lat="45.39753" lon="5.33356">
        <ele>437.54</ele>
        <time>2011-02-13T07:29:16Z</time>
      </trkpt>
      <trkpt lat="45.3976" lon="5.33346">
        <ele>437.54</ele>
        <time>2011-02-13T07:29:19Z</time>
      </trkpt>
      <trkpt lat="45.39768" lon="5.33338">
        <ele>437.54</ele>
        <time>2011-02-13T07:29:22Z</time>
      </trkpt>
      <trkpt lat="45.39778" lon="5.33328">
        <ele>438.02</ele>
        <time>2011-02-13T07:29:26Z</time>
      </trkpt>
      <trkpt lat="45.39787" lon="5.33321">
        <ele>438.5</ele>
        <time>2011-02-13T07:29:30Z</time>
      </trkpt>
      <trkpt lat="45.39795" lon="5.33312">
        <ele>439.46</ele>
        <time>2011-02-13T07:29:34Z</time>
      </trkpt>
      <trkpt lat="45.398" lon="5.33298">
        <ele>439.94</ele>
        <time>2011-02-13T07:29:38Z</time>
      </trkpt>
      <trkpt lat="45.39796" lon="5.33284">
        <ele>439.94</ele>
        <time>2011-02-13T07:29:42Z</time>
      </trkpt>
      <trkpt lat="45.39787" lon="5.33272">
        <ele>439.94</ele>
        <time>2011-02-13T07:29:46Z</time>
      </trkpt>
      <trkpt lat="45.39779" lon="5.33263">
        <ele>440.42</ele>
        <time>2011-02-13T07:29:49Z</time>
      </trkpt>
      <trkpt lat="45.3977" lon="5.33253">
        <ele>439.94</ele>
        <time>2011-02-13T07:29:52Z</time>
      </trkpt>
      <trkpt lat="45.39761" lon="5.33242">
        <ele>439.46</ele>
        <time>2011-02-13T07:29:55Z</time>
      </trkpt>
      <trkpt lat="45.39752" lon="5.33229">
        <ele>438.98</ele>
        <time>2011-02-13T07:29:58Z</time>
      </trkpt>
      <trkpt lat="45.39746" lon="5.33217">
        <ele>438.02</ele>
        <time>2011-02-13T07:30:00Z</time>
      </trkpt>
      <trkpt lat="45.3974" lon="5.33204">
        <ele>438.02</ele>
        <time>2011-02-13T07:30:02Z</time>
      </trkpt>
      <trkpt lat="45.39735" lon="5.33189">
        <ele>436.58</ele>
        <time>2011-02-13T07:30:04Z</time>
      </trkpt>
      <trkpt lat="45.39729" lon="5.33175">
        <ele>436.58</ele>
        <time>2011-02-13T07:30:06Z</time>
      </trkpt>
      <trkpt lat="45.39724" lon="5.33161">
        <ele>436.58</ele>
        <time>2011-02-13T07:30:08Z</time>
      </trkpt>
      <trkpt lat="45.39719" lon="5.33147">
        <ele>436.58</ele>
        <time>2011-02-13T07:30:10Z</time>
      </trkpt>
      <trkpt lat="45.39713" lon="5.33134">
        <ele>436.58</ele>
        <time>2011-02-13T07:30:12Z</time>
      </trkpt>
      <trkpt lat="45.39708" lon="5.3312">
        <ele>436.1</ele>
        <time>2011-02-13T07:30:14Z</time>
      </trkpt>
      <trkpt lat="45.39702" lon="5.33106">
        <ele>436.1</ele>
        <time>2011-02-13T07:30:16Z</time>
      </trkpt>
      <trkpt lat="45.39696" lon="5.33092">
        <ele>435.61</ele>
        <time>2011-02-13T07:30:18Z</time>
      </trkpt>
      <trkpt lat="45.39689" lon="5.3308">
        <ele>435.61</ele>
        <time>2011-02-13T07:30:20Z</time>
      </trkpt>
      <trkpt lat="45.39682" lon="5.33069">
        <ele>435.61</ele>
        <time>2011-02-13T07:30:22Z</time>
      </trkpt>
      <trkpt lat="45.39676" lon="5.3306">
        <ele>435.61</ele>
        <time>2011-02-13T07:30:24Z</time>
      </trkpt>
      <trkpt lat="45.39666" lon="5.33046">
        <ele>435.61</ele>
        <time>2011-02-13T07:30:27Z</time>
      </trkpt>
      <trkpt lat="45.39657" lon="5.33033">
        <ele>437.06</ele>
        <time>2011-02-13T07:30:30Z</time>
      </trkpt>
      <trkpt lat="45.39651" lon="5.33019">
        <ele>438.02</ele>
        <time>2011-02-13T07:30:33Z</time>
      </trkpt>
      <trkpt lat="45.39647" lon="5.33007">
        <ele>438.5</ele>
        <time>2011-02-13T07:30:36Z</time>
      </trkpt>
      <trkpt lat="45.39642" lon="5.32994">
        <ele>439.46</ele>
        <time>2011-02-13T07:30:39Z</time>
      </trkpt>
      <trkpt lat="45.39639" lon="5.3298">
        <ele>438.98</ele>
        <time>2011-02-13T07:30:42Z</time>
      </trkpt>
      <trkpt lat="45.39637" lon="5.32965">
        <ele>438.98</ele>
        <time>2011-02-13T07:30:45Z</time>
      </trkpt>
      <trkpt lat="45.39635" lon="5.32949">
        <ele>439.94</ele>
        <time>2011-02-13T07:30:48Z</time>
      </trkpt>
      <trkpt lat="45.39633" lon="5.32934">
        <ele>439.94</ele>
        <time>2011-02-13T07:30:51Z</time>
      </trkpt>
      <trkpt lat="45.39632" lon="5.32917">
        <ele>439.46</ele>
        <time>2011-02-13T07:30:54Z</time>
      </trkpt>
      <trkpt lat="45.39631" lon="5.32901">
        <ele>440.42</ele>
        <time>2011-02-13T07:30:57Z</time>
      </trkpt>
      <trkpt lat="45.3963" lon="5.32885">
        <ele>440.42</ele>
        <time>2011-02-13T07:31:00Z</time>
      </trkpt>
      <trkpt lat="45.39629" lon="5.32869">
        <ele>440.9</ele>
        <time>2011-02-13T07:31:03Z</time>
      </trkpt>
      <trkpt lat="45.39628" lon="5.32854">
        <ele>441.38</ele>
        <time>2011-02-13T07:31:06Z</time>
      </trkpt>
      <trkpt lat="45.39629" lon="5.32837">
        <ele>441.38</ele>
        <time>2011-02-13T07:31:09Z</time>
      </trkpt>
      <trkpt lat="45.39628" lon="5.32821">
        <ele>441.38</ele>
        <time>2011-02-13T07:31:12Z</time>
      </trkpt>
      <trkpt lat="45.39628" lon="5.32804">
        <ele>441.38</ele>
        <time>2011-02-13T07:31:15Z</time>
      </trkpt>
      <trkpt lat="45.39625" lon="5.32787">
        <ele>441.38</ele>
        <time>2011-02-13T07:31:18Z</time>
      </trkpt>
      <trkpt lat="45.39624" lon="5.3277">
        <ele>441.86</ele>
        <time>2011-02-13T07:31:21Z</time>
      </trkpt>
      <trkpt lat="45.39621" lon="5.32754">
        <ele>442.34</ele>
        <time>2011-02-13T07:31:24Z</time>
      </trkpt>
      <trkpt lat="45.39619" lon="5.32737">
        <ele>442.82</ele>
        <time>2011-02-13T07:31:27Z</time>
      </trkpt>
      <trkpt lat="45.39618" lon="5.3272">
        <ele>442.34</ele>
        <time>2011-02-13T07:31:30Z</time>
      </trkpt>
      <trkpt lat="45.39617" lon="5.32701">
        <ele>442.34</ele>
        <time>2011-02-13T07:31:33Z</time>
      </trkpt>
      <trkpt lat="45.3962" lon="5.32684">
        <ele>442.82</ele>
        <time>2011-02-13T07:31:36Z</time>
      </trkpt>
      <trkpt lat="45.39624" lon="5.32668">
        <ele>442.82</ele>
        <time>2011-02-13T07:31:39Z</time>
      </trkpt>
      <trkpt lat="45.39629" lon="5.32655">
        <ele>443.79</ele>
        <time>2011-02-13T07:31:42Z</time>
      </trkpt>
      <trkpt lat="45.39632" lon="5.32641">
        <ele>444.27</ele>
        <time>2011-02-13T07:31:45Z</time>
      </trkpt>
      <trkpt lat="45.39634" lon="5.32626">
        <ele>444.27</ele>
        <time>2011-02-13T07:31:48Z</time>
      </trkpt>
      <trkpt lat="45.39632" lon="5.3261">
        <ele>444.27</ele>
        <time>2011-02-13T07:31:51Z</time>
      </trkpt>
      <trkpt lat="45.39625" lon="5.32594">
        <ele>444.27</ele>
        <time>2011-02-13T07:31:54Z</time>
      </trkpt>
      <trkpt lat="45.3962" lon="5.32582">
        <ele>443.31</ele>
        <time>2011-02-13T07:31:56Z</time>
      </trkpt>
      <trkpt lat="45.39616" lon="5.32568">
        <ele>442.82</ele>
        <time>2011-02-13T07:31:58Z</time>
      </trkpt>
      <trkpt lat="45.39614" lon="5.32555">
        <ele>443.31</ele>
        <time>2011-02-13T07:32:00Z</time>
      </trkpt>
      <trkpt lat="45.39611" lon="5.32542">
        <ele>442.34</ele>
        <time>2011-02-13T07:32:02Z</time>
      </trkpt>
      <trkpt lat="45.39609" lon="5.32528">
        <ele>442.34</ele>
        <time>2011-02-13T07:32:04Z</time>
      </trkpt>
      <trkpt lat="45.39609" lon="5.32515">
        <ele>442.34</ele>
        <time>2011-02-13T07:32:06Z</time>
      </trkpt>
      <trkpt lat="45.39609" lon="5.32502">
        <ele>442.34</ele>
        <time>2011-02-13T07:32:08Z</time>
      </trkpt>
      <trkpt lat="45.39613" lon="5.32484">
        <ele>442.82</ele>
        <time>2011-02-13T07:32:11Z</time>
      </trkpt>
      <trkpt lat="45.39614" lon="5.32471">
        <ele>442.82</ele>
        <time>2011-02-13T07:32:13Z</time>
      </trkpt>
      <trkpt lat="45.39615" lon="5.32453">
        <ele>441.86</ele>
        <time>2011-02-13T07:32:16Z</time>
      </trkpt>
      <trkpt lat="45.39615" lon="5.32434">
        <ele>442.34</ele>
        <time>2011-02-13T07:32:19Z</time>
      </trkpt>
      <trkpt lat="45.39612" lon="5.32415">
        <ele>442.34</ele>
        <time>2011-02-13T07:32:22Z</time>
      </trkpt>
      <trkpt lat="45.39609" lon="5.32402">
        <ele>442.34</ele>
        <time>2011-02-13T07:32:24Z</time>
      </trkpt>
      <trkpt lat="45.39607" lon="5.32389">
        <ele>442.34</ele>
        <time>2011-02-13T07:32:26Z</time>
      </trkpt>
      <trkpt lat="45.39605" lon="5.32376">
        <ele>442.34</ele>
        <time>2011-02-13T07:32:28Z</time>
      </trkpt>
      <trkpt lat="45.39605" lon="5.32362">
        <ele>442.34</ele>
        <time>2011-02-13T07:32:30Z</time>
      </trkpt>
      <trkpt lat="45.39605" lon="5.32349">
        <ele>442.34</ele>
        <time>2011-02-13T07:32:32Z</time>
      </trkpt>
      <trkpt lat="45.39604" lon="5.32336">
        <ele>442.34</ele>
        <time>2011-02-13T07:32:34Z</time>
      </trkpt>
      <trkpt lat="45.39604" lon="5.32323">
        <ele>442.34</ele>
        <time>2011-02-13T07:32:36Z</time>
      </trkpt>
      <trkpt lat="45.39604" lon="5.3231">
        <ele>442.34</ele>
        <time>2011-02-13T07:32:38Z</time>
      </trkpt>
      <trkpt lat="45.39604" lon="5.32296">
        <ele>441.86</ele>
        <time>2011-02-13T07:32:40Z</time>
      </trkpt>
      <trkpt lat="45.39604" lon="5.32283">
        <ele>442.34</ele>
        <time>2011-02-13T07:32:42Z</time>
      </trkpt>
      <trkpt lat="45.39604" lon="5.3227">
        <ele>442.34</ele>
        <time>2011-02-13T07:32:44Z</time>
      </trkpt>
      <trkpt lat="45.39604" lon="5.32256">
        <ele>442.34</ele>
        <time>2011-02-13T07:32:46Z</time>
      </trkpt>
      <trkpt lat="45.39603" lon="5.32242">
        <ele>441.86</ele>
        <time>2011-02-13T07:32:48Z</time>
      </trkpt>
      <trkpt lat="45.39603" lon="5.32227">
        <ele>442.34</ele>
        <time>2011-02-13T07:32:50Z</time>
      </trkpt>
      <trkpt lat="45.39603" lon="5.32213">
        <ele>440.9</ele>
        <time>2011-02-13T07:32:52Z</time>
      </trkpt>
      <trkpt lat="45.39609" lon="5.32203">
        <ele>440.9</ele>
        <time>2011-02-13T07:32:54Z</time>
      </trkpt>
      <trkpt lat="45.39619" lon="5.32201">
        <ele>440.42</ele>
        <time>2011-02-13T07:32:56Z</time>
      </trkpt>
      <trkpt lat="45.39632" lon="5.32199">
        <ele>439.46</ele>
        <time>2011-02-13T07:32:58Z</time>
      </trkpt>
      <trkpt lat="45.39644" lon="5.32197">
        <ele>438.98</ele>
        <time>2011-02-13T07:33:00Z</time>
      </trkpt>
      <trkpt lat="45.39656" lon="5.32192">
        <ele>438.5</ele>
        <time>2011-02-13T07:33:02Z</time>
      </trkpt>
      <trkpt lat="45.39667" lon="5.32184">
        <ele>438.5</ele>
        <time>2011-02-13T07:33:04Z</time>
      </trkpt>
      <trkpt lat="45.39678" lon="5.32174">
        <ele>438.5</ele>
        <time>2011-02-13T07:33:06Z</time>
      </trkpt>
      <trkpt lat="45.39688" lon="5.32165">
        <ele>438.98</ele>
        <time>2011-02-13T07:33:08Z</time>
      </trkpt>
      <trkpt lat="45.39697" lon="5.32155">
        <ele>438.98</ele>
        <time>2011-02-13T07:33:10Z</time>
      </trkpt>
      <trkpt lat="45.39703" lon="5.32144">
        <ele>439.46</ele>
        <time>2011-02-13T07:33:12Z</time>
      </trkpt>
      <trkpt lat="45.39709" lon="5.32132">
        <ele>439.46</ele>
        <time>2011-02-13T07:33:14Z</time>
      </trkpt>
      <trkpt lat="45.39715" lon="5.32119">
        <ele>440.42</ele>
        <time>2011-02-13T07:33:17Z</time>
      </trkpt>
      <trkpt lat="45.3972" lon="5.32108">
        <ele>441.38</ele>
        <time>2011-02-13T07:33:20Z</time>
      </trkpt>
      <trkpt lat="45.39726" lon="5.32097">
        <ele>441.86</ele>
        <time>2011-02-13T07:33:23Z</time>
      </trkpt>
      <trkpt lat="45.39733" lon="5.32089">
        <ele>442.82</ele>
        <time>2011-02-13T07:33:26Z</time>
      </trkpt>
      <trkpt lat="45.39741" lon="5.32083">
        <ele>443.79</ele>
        <time>2011-02-13T07:33:29Z</time>
      </trkpt>
      <trkpt lat="45.3975" lon="5.32076">
        <ele>444.75</ele>
        <time>2011-02-13T07:33:33Z</time>
      </trkpt>
      <trkpt lat="45.39759" lon="5.3207">
        <ele>446.19</ele>
        <time>2011-02-13T07:33:37Z</time>
      </trkpt>
      <trkpt lat="45.39768" lon="5.32064">
        <ele>447.15</ele>
        <time>2011-02-13T07:33:41Z</time>
      </trkpt>
      <trkpt lat="45.39776" lon="5.32057">
        <ele>448.11</ele>
        <time>2011-02-13T07:33:45Z</time>
      </trkpt>
      <trkpt lat="45.39783" lon="5.32049">
        <ele>450.03</ele>
        <time>2011-02-13T07:33:51Z</time>
      </trkpt>
      <trkpt lat="45.3979" lon="5.3204">
        <ele>451.48</ele>
        <time>2011-02-13T07:33:56Z</time>
      </trkpt>
      <trkpt lat="45.39795" lon="5.32028">
        <ele>452.44</ele>
        <time>2011-02-13T07:34:02Z</time>
      </trkpt>
      <trkpt lat="45.398" lon="5.32016">
        <ele>453.88</ele>
        <time>2011-02-13T07:34:09Z</time>
      </trkpt>
      <trkpt lat="45.39806" lon="5.32005">
        <ele>455.32</ele>
        <time>2011-02-13T07:34:15Z</time>
      </trkpt>
      <trkpt lat="45.39811" lon="5.31994">
        <ele>456.76</ele>
        <time>2011-02-13T07:34:21Z</time>
      </trkpt>
      <trkpt lat="45.39817" lon="5.31983">
        <ele>457.72</ele>
        <time>2011-02-13T07:34:27Z</time>
      </trkpt>
      <trkpt lat="45.39824" lon="5.31971">
        <ele>458.69</ele>
        <time>2011-02-13T07:34:33Z</time>
      </trkpt>
      <trkpt lat="45.39831" lon="5.31959">
        <ele>459.65</ele>
        <time>2011-02-13T07:34:39Z</time>
      </trkpt>
      <trkpt lat="45.39837" lon="5.31945">
        <ele>460.13</ele>
        <time>2011-02-13T07:34:45Z</time>
      </trkpt>
      <trkpt lat="45.39838" lon="5.3193">
        <ele>460.13</ele>
        <time>2011-02-13T07:34:49Z</time>
      </trkpt>
      <trkpt lat="45.39839" lon="5.31916">
        <ele>462.05</ele>
        <time>2011-02-13T07:34:53Z</time>
      </trkpt>
      <trkpt lat="45.3984" lon="5.31902">
        <ele>461.57</ele>
        <time>2011-02-13T07:34:57Z</time>
      </trkpt>
      <trkpt lat="45.39842" lon="5.31888">
        <ele>462.53</ele>
        <time>2011-02-13T07:35:01Z</time>
      </trkpt>
      <trkpt lat="45.39843" lon="5.31873">
        <ele>462.53</ele>
        <time>2011-02-13T07:35:05Z</time>
      </trkpt>
      <trkpt lat="45.39843" lon="5.31858">
        <ele>463.01</ele>
        <time>2011-02-13T07:35:09Z</time>
      </trkpt>
      <trkpt lat="45.39844" lon="5.31843">
        <ele>463.01</ele>
        <time>2011-02-13T07:35:13Z</time>
      </trkpt>
      <trkpt lat="45.39844" lon="5.31828">
        <ele>463.49</ele>
        <time>2011-02-13T07:35:17Z</time>
      </trkpt>
      <trkpt lat="45.39845" lon="5.31813">
        <ele>463.49</ele>
        <time>2011-02-13T07:35:21Z</time>
      </trkpt>
      <trkpt lat="45.39846" lon="5.31797">
        <ele>463.01</ele>
        <time>2011-02-13T07:35:25Z</time>
      </trkpt>
      <trkpt lat="45.39848" lon="5.3178">
        <ele>463.49</ele>
        <time>2011-02-13T07:35:29Z</time>
      </trkpt>
      <trkpt lat="45.39849" lon="5.31767">
        <ele>463.49</ele>
        <time>2011-02-13T07:35:32Z</time>
      </trkpt>
      <trkpt lat="45.3985" lon="5.31752">
        <ele>463.01</ele>
        <time>2011-02-13T07:35:35Z</time>
      </trkpt>
      <trkpt lat="45.3985" lon="5.31735">
        <ele>463.01</ele>
        <time>2011-02-13T07:35:38Z</time>
      </trkpt>
      <trkpt lat="45.39852" lon="5.31719">
        <ele>462.53</ele>
        <time>2011-02-13T07:35:41Z</time>
      </trkpt>
      <trkpt lat="45.39854" lon="5.31702">
        <ele>462.53</ele>
        <time>2011-02-13T07:35:44Z</time>
      </trkpt>
      <trkpt lat="45.39856" lon="5.31684">
        <ele>462.53</ele>
        <time>2011-02-13T07:35:47Z</time>
      </trkpt>
      <trkpt lat="45.39855" lon="5.31668">
        <ele>463.49</ele>
        <time>2011-02-13T07:35:50Z</time>
      </trkpt>
      <trkpt lat="45.39855" lon="5.31654">
        <ele>463.97</ele>
        <time>2011-02-13T07:35:54Z</time>
      </trkpt>
      <trkpt lat="45.39859" lon="5.3164">
        <ele>466.38</ele>
        <time>2011-02-13T07:35:59Z</time>
      </trkpt>
      <trkpt lat="45.39862" lon="5.31626">
        <ele>466.86</ele>
        <time>2011-02-13T07:36:04Z</time>
      </trkpt>
      <trkpt lat="45.39865" lon="5.31613">
        <ele>467.82</ele>
        <time>2011-02-13T07:36:09Z</time>
      </trkpt>
      <trkpt lat="45.39869" lon="5.31598">
        <ele>468.78</ele>
        <time>2011-02-13T07:36:14Z</time>
      </trkpt>
      <trkpt lat="45.39875" lon="5.31586">
        <ele>469.74</ele>
        <time>2011-02-13T07:36:19Z</time>
      </trkpt>
      <trkpt lat="45.39881" lon="5.31577">
        <ele>470.7</ele>
        <time>2011-02-13T07:36:23Z</time>
      </trkpt>
      <trkpt lat="45.3989" lon="5.31568">
        <ele>471.18</ele>
        <time>2011-02-13T07:36:28Z</time>
      </trkpt>
      <trkpt lat="45.39898" lon="5.31562">
        <ele>472.63</ele>
        <time>2011-02-13T07:36:33Z</time>
      </trkpt>
      <trkpt lat="45.39907" lon="5.31557">
        <ele>473.11</ele>
        <time>2011-02-13T07:36:38Z</time>
      </trkpt>
      <trkpt lat="45.39917" lon="5.31554">
        <ele>474.55</ele>
        <time>2011-02-13T07:36:43Z</time>
      </trkpt>
      <trkpt lat="45.39927" lon="5.31548">
        <ele>475.03</ele>
        <time>2011-02-13T07:36:48Z</time>
      </trkpt>
      <trkpt lat="45.39935" lon="5.3154">
        <ele>476.47</ele>
        <time>2011-02-13T07:36:53Z</time>
      </trkpt>
      <trkpt lat="45.39942" lon="5.3153">
        <ele>477.91</ele>
        <time>2011-02-13T07:36:58Z</time>
      </trkpt>
      <trkpt lat="45.39949" lon="5.31519">
        <ele>478.39</ele>
        <time>2011-02-13T07:37:03Z</time>
      </trkpt>
      <trkpt lat="45.39956" lon="5.31506">
        <ele>478.39</ele>
        <time>2011-02-13T07:37:08Z</time>
      </trkpt>
      <trkpt lat="45.39962" lon="5.31494">
        <ele>478.87</ele>
        <time>2011-02-13T07:37:12Z</time>
      </trkpt>
      <trkpt lat="45.39966" lon="5.31481">
        <ele>479.84</ele>
        <time>2011-02-13T07:37:16Z</time>
      </trkpt>
      <trkpt lat="45.3997" lon="5.31467">
        <ele>479.35</ele>
        <time>2011-02-13T07:37:20Z</time>
      </trkpt>
      <trkpt lat="45.39972" lon="5.31453">
        <ele>480.32</ele>
        <time>2011-02-13T07:37:24Z</time>
      </trkpt>
      <trkpt lat="45.39974" lon="5.31439">
        <ele>480.8</ele>
        <time>2011-02-13T07:37:28Z</time>
      </trkpt>
      <trkpt lat="45.39976" lon="5.31424">
        <ele>480.32</ele>
        <time>2011-02-13T07:37:32Z</time>
      </trkpt>
      <trkpt lat="45.39978" lon="5.31409">
        <ele>481.28</ele>
        <time>2011-02-13T07:37:36Z</time>
      </trkpt>
      <trkpt lat="45.39981" lon="5.31393">
        <ele>481.28</ele>
        <time>2011-02-13T07:37:40Z</time>
      </trkpt>
      <trkpt lat="45.39983" lon="5.31379">
        <ele>480.8</ele>
        <time>2011-02-13T07:37:44Z</time>
      </trkpt>
      <trkpt lat="45.39985" lon="5.31363">
        <ele>480.8</ele>
        <time>2011-02-13T07:37:48Z</time>
      </trkpt>
      <trkpt lat="45.39987" lon="5.31349">
        <ele>480.8</ele>
        <time>2011-02-13T07:37:51Z</time>
      </trkpt>
      <trkpt lat="45.39989" lon="5.31336">
        <ele>480.8</ele>
        <time>2011-02-13T07:37:54Z</time>
      </trkpt>
      <trkpt lat="45.39991" lon="5.3132">
        <ele>480.8</ele>
        <time>2011-02-13T07:37:58Z</time>
      </trkpt>
      <trkpt lat="45.39991" lon="5.31304">
        <ele>481.28</ele>
        <time>2011-02-13T07:38:02Z</time>
      </trkpt>
      <trkpt lat="45.39992" lon="5.31288">
        <ele>482.24</ele>
        <time>2011-02-13T07:38:06Z</time>
      </trkpt>
      <trkpt lat="45.39992" lon="5.31272">
        <ele>483.2</ele>
        <time>2011-02-13T07:38:10Z</time>
      </trkpt>
      <trkpt lat="45.39992" lon="5.31256">
        <ele>483.68</ele>
        <time>2011-02-13T07:38:14Z</time>
      </trkpt>
      <trkpt lat="45.39991" lon="5.31241">
        <ele>484.16</ele>
        <time>2011-02-13T07:38:18Z</time>
      </trkpt>
      <trkpt lat="45.39991" lon="5.31226">
        <ele>485.12</ele>
        <time>2011-02-13T07:38:22Z</time>
      </trkpt>
      <trkpt lat="45.39992" lon="5.31213">
        <ele>485.6</ele>
        <time>2011-02-13T07:38:26Z</time>
      </trkpt>
      <trkpt lat="45.39994" lon="5.31199">
        <ele>486.56</ele>
        <time>2011-02-13T07:38:30Z</time>
      </trkpt>
      <trkpt lat="45.39994" lon="5.31184">
        <ele>487.05</ele>
        <time>2011-02-13T07:38:34Z</time>
      </trkpt>
      <trkpt lat="45.39993" lon="5.31169">
        <ele>487.05</ele>
        <time>2011-02-13T07:38:38Z</time>
      </trkpt>
      <trkpt lat="45.39991" lon="5.31157">
        <ele>486.56</ele>
        <time>2011-02-13T07:38:41Z</time>
      </trkpt>
      <trkpt lat="45.39989" lon="5.31144">
        <ele>486.56</ele>
        <time>2011-02-13T07:38:44Z</time>
      </trkpt>
      <trkpt lat="45.39987" lon="5.31131">
        <ele>486.56</ele>
        <time>2011-02-13T07:38:47Z</time>
      </trkpt>
      <trkpt lat="45.39985" lon="5.31118">
        <ele>486.08</ele>
        <time>2011-02-13T07:38:50Z</time>
      </trkpt>
      <trkpt lat="45.39983" lon="5.31104">
        <ele>485.6</ele>
        <time>2011-02-13T07:38:53Z</time>
      </trkpt>
      <trkpt lat="45.39989" lon="5.31094">
        <ele>486.08</ele>
        <time>2011-02-13T07:38:57Z</time>
      </trkpt>
      <trkpt lat="45.40002" lon="5.31102">
        <ele>487.05</ele>
        <time>2011-02-13T07:39:02Z</time>
      </trkpt>
      <trkpt lat="45.40011" lon="5.31107">
        <ele>487.53</ele>
        <time>2011-02-13T07:39:06Z</time>
      </trkpt>
      <trkpt lat="45.4002" lon="5.31112">
        <ele>488.01</ele>
        <time>2011-02-13T07:39:10Z</time>
      </trkpt>
      <trkpt lat="45.40031" lon="5.31117">
        <ele>488.49</ele>
        <time>2011-02-13T07:39:15Z</time>
      </trkpt>
      <trkpt lat="45.40039" lon="5.31121">
        <ele>488.97</ele>
        <time>2011-02-13T07:39:19Z</time>
      </trkpt>
      <trkpt lat="45.4005" lon="5.31125">
        <ele>490.41</ele>
        <time>2011-02-13T07:39:24Z</time>
      </trkpt>
      <trkpt lat="45.40059" lon="5.31129">
        <ele>490.89</ele>
        <time>2011-02-13T07:39:29Z</time>
      </trkpt>
      <trkpt lat="45.40069" lon="5.31133">
        <ele>491.85</ele>
        <time>2011-02-13T07:39:34Z</time>
      </trkpt>
      <trkpt lat="45.40078" lon="5.31137">
        <ele>492.81</ele>
        <time>2011-02-13T07:39:39Z</time>
      </trkpt>
      <trkpt lat="45.40087" lon="5.31141">
        <ele>493.77</ele>
        <time>2011-02-13T07:39:44Z</time>
      </trkpt>
      <trkpt lat="45.40096" lon="5.31144">
        <ele>494.74</ele>
        <time>2011-02-13T07:39:49Z</time>
      </trkpt>
      <trkpt lat="45.40107" lon="5.31147">
        <ele>496.18</ele>
        <time>2011-02-13T07:39:55Z</time>
      </trkpt>
      <trkpt lat="45.40116" lon="5.3115">
        <ele>497.14</ele>
        <time>2011-02-13T07:40:00Z</time>
      </trkpt>
      <trkpt lat="45.40126" lon="5.31152">
        <ele>498.58</ele>
        <time>2011-02-13T07:40:06Z</time>
      </trkpt>
      <trkpt lat="45.40137" lon="5.31154">
        <ele>500.02</ele>
        <time>2011-02-13T07:40:12Z</time>
      </trkpt>
      <trkpt lat="45.40147" lon="5.31153">
        <ele>500.98</ele>
        <time>2011-02-13T07:40:17Z</time>
      </trkpt>
      <trkpt lat="45.40157" lon="5.31156">
        <ele>502.43</ele>
        <time>2011-02-13T07:40:23Z</time>
      </trkpt>
      <trkpt lat="45.40164" lon="5.31165">
        <ele>503.87</ele>
        <time>2011-02-13T07:40:29Z</time>
      </trkpt>
      <trkpt lat="45.40168" lon="5.31178">
        <ele>505.31</ele>
        <time>2011-02-13T07:40:35Z</time>
      </trkpt>
      <trkpt lat="45.4017" lon="5.31191">
        <ele>505.31</ele>
        <time>2011-02-13T07:40:40Z</time>
      </trkpt>
      <trkpt lat="45.40172" lon="5.31204">
        <ele>506.27</ele>
        <time>2011-02-13T07:40:45Z</time>
      </trkpt>
      <trkpt lat="45.40175" lon="5.31217">
        <ele>506.75</ele>
        <time>2011-02-13T07:40:50Z</time>
      </trkpt>
      <trkpt lat="45.40178" lon="5.31231">
        <ele>508.19</ele>
        <time>2011-02-13T07:40:55Z</time>
      </trkpt>
      <trkpt lat="45.40181" lon="5.31246">
        <ele>507.71</ele>
        <time>2011-02-13T07:41:00Z</time>
      </trkpt>
      <trkpt lat="45.40184" lon="5.31261">
        <ele>508.67</ele>
        <time>2011-02-13T07:41:05Z</time>
      </trkpt>
      <trkpt lat="45.40187" lon="5.31273">
        <ele>508.67</ele>
        <time>2011-02-13T07:41:09Z</time>
      </trkpt>
      <trkpt lat="45.40191" lon="5.31288">
        <ele>508.67</ele>
        <time>2011-02-13T07:41:13Z</time>
      </trkpt>
      <trkpt lat="45.40194" lon="5.31303">
        <ele>508.19</ele>
        <time>2011-02-13T07:41:17Z</time>
      </trkpt>
      <trkpt lat="45.40197" lon="5.31319">
        <ele>508.67</ele>
        <time>2011-02-13T07:41:21Z</time>
      </trkpt>
      <trkpt lat="45.402" lon="5.31335">
        <ele>508.67</ele>
        <time>2011-02-13T07:41:25Z</time>
      </trkpt>
      <trkpt lat="45.40203" lon="5.31351">
        <ele>509.16</ele>
        <time>2011-02-13T07:41:29Z</time>
      </trkpt>
      <trkpt lat="45.40205" lon="5.31366">
        <ele>508.67</ele>
        <time>2011-02-13T07:41:33Z</time>
      </trkpt>
      <trkpt lat="45.40208" lon="5.31379">
        <ele>509.64</ele>
        <time>2011-02-13T07:41:37Z</time>
      </trkpt>
      <trkpt lat="45.40209" lon="5.31392">
        <ele>509.64</ele>
        <time>2011-02-13T07:41:41Z</time>
      </trkpt>
      <trkpt lat="45.40208" lon="5.31407">
        <ele>510.6</ele>
        <time>2011-02-13T07:41:45Z</time>
      </trkpt>
      <trkpt lat="45.40204" lon="5.31421">
        <ele>511.08</ele>
        <time>2011-02-13T07:41:49Z</time>
      </trkpt>
      <trkpt lat="45.402" lon="5.31434">
        <ele>512.04</ele>
        <time>2011-02-13T07:41:53Z</time>
      </trkpt>
      <trkpt lat="45.40196" lon="5.31446">
        <ele>513</ele>
        <time>2011-02-13T07:41:57Z</time>
      </trkpt>
      <trkpt lat="45.40192" lon="5.31459">
        <ele>513.96</ele>
        <time>2011-02-13T07:42:02Z</time>
      </trkpt>
      <trkpt lat="45.40188" lon="5.31472">
        <ele>515.88</ele>
        <time>2011-02-13T07:42:07Z</time>
      </trkpt>
      <trkpt lat="45.40185" lon="5.31486">
        <ele>517.33</ele>
        <time>2011-02-13T07:42:12Z</time>
      </trkpt>
      <trkpt lat="45.40184" lon="5.315">
        <ele>518.29</ele>
        <time>2011-02-13T07:42:17Z</time>
      </trkpt>
      <trkpt lat="45.40184" lon="5.31515">
        <ele>519.25</ele>
        <time>2011-02-13T07:42:23Z</time>
      </trkpt>
      <trkpt lat="45.40185" lon="5.31529">
        <ele>519.73</ele>
        <time>2011-02-13T07:42:28Z</time>
      </trkpt>
      <trkpt lat="45.40186" lon="5.31543">
        <ele>520.69</ele>
        <time>2011-02-13T07:42:33Z</time>
      </trkpt>
      <trkpt lat="45.4019" lon="5.31558">
        <ele>521.65</ele>
        <time>2011-02-13T07:42:39Z</time>
      </trkpt>
      <trkpt lat="45.40195" lon="5.31572">
        <ele>522.61</ele>
        <time>2011-02-13T07:42:45Z</time>
      </trkpt>
      <trkpt lat="45.402" lon="5.31585">
        <ele>523.58</ele>
        <time>2011-02-13T07:42:51Z</time>
      </trkpt>
      <trkpt lat="45.40203" lon="5.31598">
        <ele>525.5</ele>
        <time>2011-02-13T07:42:57Z</time>
      </trkpt>
      <trkpt lat="45.40207" lon="5.31611">
        <ele>525.98</ele>
        <time>2011-02-13T07:43:02Z</time>
      </trkpt>
      <trkpt lat="45.4021" lon="5.31625">
        <ele>526.94</ele>
        <time>2011-02-13T07:43:07Z</time>
      </trkpt>
      <trkpt lat="45.40213" lon="5.31638">
        <ele>527.42</ele>
        <time>2011-02-13T07:43:12Z</time>
      </trkpt>
      <trkpt lat="45.40218" lon="5.31651">
        <ele>528.86</ele>
        <time>2011-02-13T07:43:17Z</time>
      </trkpt>
      <trkpt lat="45.40224" lon="5.31663">
        <ele>529.34</ele>
        <time>2011-02-13T07:43:22Z</time>
      </trkpt>
      <trkpt lat="45.40231" lon="5.31673">
        <ele>530.3</ele>
        <time>2011-02-13T07:43:27Z</time>
      </trkpt>
      <trkpt lat="45.40238" lon="5.31682">
        <ele>531.27</ele>
        <time>2011-02-13T07:43:32Z</time>
      </trkpt>
      <trkpt lat="45.40247" lon="5.3169">
        <ele>531.75</ele>
        <time>2011-02-13T07:43:38Z</time>
      </trkpt>
      <trkpt lat="45.40257" lon="5.31697">
        <ele>533.19</ele>
        <time>2011-02-13T07:43:44Z</time>
      </trkpt>
      <trkpt lat="45.40265" lon="5.31704">
        <ele>533.19</ele>
        <time>2011-02-13T07:43:49Z</time>
      </trkpt>
      <trkpt lat="45.40274" lon="5.3171">
        <ele>535.11</ele>
        <time>2011-02-13T07:43:54Z</time>
      </trkpt>
      <trkpt lat="45.40282" lon="5.31716">
        <ele>535.11</ele>
        <time>2011-02-13T07:44:00Z</time>
      </trkpt>
      <trkpt lat="45.40291" lon="5.31722">
        <ele>535.11</ele>
        <time>2011-02-13T07:44:05Z</time>
      </trkpt>
      <trkpt lat="45.403" lon="5.31729">
        <ele>535.11</ele>
        <time>2011-02-13T07:44:09Z</time>
      </trkpt>
      <trkpt lat="45.40309" lon="5.31735">
        <ele>535.11</ele>
        <time>2011-02-13T07:44:12Z</time>
      </trkpt>
      <trkpt lat="45.40317" lon="5.31741">
        <ele>534.63</ele>
        <time>2011-02-13T07:44:15Z</time>
      </trkpt>
      <trkpt lat="45.40327" lon="5.31749">
        <ele>534.63</ele>
        <time>2011-02-13T07:44:19Z</time>
      </trkpt>
      <trkpt lat="45.40337" lon="5.31756">
        <ele>534.63</ele>
        <time>2011-02-13T07:44:23Z</time>
      </trkpt>
      <trkpt lat="45.40347" lon="5.31763">
        <ele>536.07</ele>
        <time>2011-02-13T07:44:27Z</time>
      </trkpt>
      <trkpt lat="45.40353" lon="5.31772">
        <ele>535.59</ele>
        <time>2011-02-13T07:44:31Z</time>
      </trkpt>
      <trkpt lat="45.40356" lon="5.31785">
        <ele>536.55</ele>
        <time>2011-02-13T07:44:35Z</time>
      </trkpt>
      <trkpt lat="45.40354" lon="5.318">
        <ele>537.03</ele>
        <time>2011-02-13T07:44:40Z</time>
      </trkpt>
      <trkpt lat="45.40352" lon="5.31814">
        <ele>537.99</ele>
        <time>2011-02-13T07:44:45Z</time>
      </trkpt>
      <trkpt lat="45.40351" lon="5.3183">
        <ele>538.48</ele>
        <time>2011-02-13T07:44:50Z</time>
      </trkpt>
      <trkpt lat="45.40351" lon="5.31844">
        <ele>539.92</ele>
        <time>2011-02-13T07:44:55Z</time>
      </trkpt>
      <trkpt lat="45.40351" lon="5.31859">
        <ele>540.88</ele>
        <time>2011-02-13T07:45:00Z</time>
      </trkpt>
      <trkpt lat="45.40353" lon="5.31874">
        <ele>541.84</ele>
        <time>2011-02-13T07:45:05Z</time>
      </trkpt>
      <trkpt lat="45.40356" lon="5.31887">
        <ele>542.8</ele>
        <time>2011-02-13T07:45:10Z</time>
      </trkpt>
      <trkpt lat="45.40359" lon="5.31901">
        <ele>543.76</ele>
        <time>2011-02-13T07:45:15Z</time>
      </trkpt>
      <trkpt lat="45.40363" lon="5.31913">
        <ele>544.72</ele>
        <time>2011-02-13T07:45:20Z</time>
      </trkpt>
      <trkpt lat="45.40369" lon="5.31924">
        <ele>546.17</ele>
        <time>2011-02-13T07:45:25Z</time>
      </trkpt>
      <trkpt lat="45.40374" lon="5.31939">
        <ele>546.17</ele>
        <time>2011-02-13T07:45:30Z</time>
      </trkpt>
      <trkpt lat="45.40379" lon="5.31951">
        <ele>546.65</ele>
        <time>2011-02-13T07:45:34Z</time>
      </trkpt>
      <trkpt lat="45.40384" lon="5.31963">
        <ele>547.13</ele>
        <time>2011-02-13T07:45:38Z</time>
      </trkpt>
      <trkpt lat="45.4039" lon="5.31977">
        <ele>547.61</ele>
        <time>2011-02-13T07:45:43Z</time>
      </trkpt>
      <trkpt lat="45.40395" lon="5.31991">
        <ele>547.61</ele>
        <time>2011-02-13T07:45:47Z</time>
      </trkpt>
      <trkpt lat="45.40399" lon="5.32006">
        <ele>547.61</ele>
        <time>2011-02-13T07:45:51Z</time>
      </trkpt>
      <trkpt lat="45.40404" lon="5.3202">
        <ele>547.61</ele>
        <time>2011-02-13T07:45:55Z</time>
      </trkpt>
      <trkpt lat="45.40408" lon="5.32036">
        <ele>547.13</ele>
        <time>2011-02-13T07:45:59Z</time>
      </trkpt>
      <trkpt lat="45.40412" lon="5.32053">
        <ele>547.61</ele>
        <time>2011-02-13T07:46:03Z</time>
      </trkpt>
      <trkpt lat="45.40416" lon="5.32065">
        <ele>547.13</ele>
        <time>2011-02-13T07:46:06Z</time>
      </trkpt>
      <trkpt lat="45.40421" lon="5.3208">
        <ele>548.09</ele>
        <time>2011-02-13T07:46:10Z</time>
      </trkpt>
      <trkpt lat="45.40424" lon="5.32096">
        <ele>548.57</ele>
        <time>2011-02-13T07:46:14Z</time>
      </trkpt>
      <trkpt lat="45.40428" lon="5.32111">
        <ele>548.09</ele>
        <time>2011-02-13T07:46:18Z</time>
      </trkpt>
      <trkpt lat="45.40431" lon="5.32124">
        <ele>548.09</ele>
        <time>2011-02-13T07:46:21Z</time>
      </trkpt>
      <trkpt lat="45.40434" lon="5.3214">
        <ele>548.57</ele>
        <time>2011-02-13T07:46:25Z</time>
      </trkpt>
      <trkpt lat="45.40437" lon="5.32152">
        <ele>548.57</ele>
        <time>2011-02-13T07:46:28Z</time>
      </trkpt>
      <trkpt lat="45.4044" lon="5.32168">
        <ele>549.53</ele>
        <time>2011-02-13T07:46:32Z</time>
      </trkpt>
      <trkpt lat="45.40442" lon="5.32182">
        <ele>550.01</ele>
        <time>2011-02-13T07:46:36Z</time>
      </trkpt>
      <trkpt lat="45.40445" lon="5.32197">
        <ele>550.01</ele>
        <time>2011-02-13T07:46:40Z</time>
      </trkpt>
      <trkpt lat="45.40447" lon="5.32212">
        <ele>550.49</ele>
        <time>2011-02-13T07:46:44Z</time>
      </trkpt>
      <trkpt lat="45.40448" lon="5.32226">
        <ele>550.49</ele>
        <time>2011-02-13T07:46:48Z</time>
      </trkpt>
      <trkpt lat="45.40452" lon="5.32241">
        <ele>551.45</ele>
        <time>2011-02-13T07:46:52Z</time>
      </trkpt>
      <trkpt lat="45.40455" lon="5.32255">
        <ele>551.93</ele>
        <time>2011-02-13T07:46:56Z</time>
      </trkpt>
      <trkpt lat="45.40459" lon="5.32269">
        <ele>551.93</ele>
        <time>2011-02-13T07:47:00Z</time>
      </trkpt>
      <trkpt lat="45.40465" lon="5.32284">
        <ele>552.41</ele>
        <time>2011-02-13T07:47:04Z</time>
      </trkpt>
      <trkpt lat="45.40469" lon="5.32297">
        <ele>551.93</ele>
        <time>2011-02-13T07:47:07Z</time>
      </trkpt>
      <trkpt lat="45.40473" lon="5.3231">
        <ele>552.41</ele>
        <time>2011-02-13T07:47:10Z</time>
      </trkpt>
      <trkpt lat="45.40476" lon="5.32324">
        <ele>552.9</ele>
        <time>2011-02-13T07:47:13Z</time>
      </trkpt>
      <trkpt lat="45.40479" lon="5.32339">
        <ele>552.9</ele>
        <time>2011-02-13T07:47:16Z</time>
      </trkpt>
      <trkpt lat="45.40482" lon="5.32354">
        <ele>552.9</ele>
        <time>2011-02-13T07:47:19Z</time>
      </trkpt>
      <trkpt lat="45.40485" lon="5.3237">
        <ele>552.41</ele>
        <time>2011-02-13T07:47:22Z</time>
      </trkpt>
      <trkpt lat="45.40488" lon="5.32384">
        <ele>552.9</ele>
        <time>2011-02-13T07:47:25Z</time>
      </trkpt>
      <trkpt lat="45.4049" lon="5.32399">
        <ele>552.9</ele>
        <time>2011-02-13T07:47:28Z</time>
      </trkpt>
      <trkpt lat="45.40491" lon="5.32414">
        <ele>553.38</ele>
        <time>2011-02-13T07:47:31Z</time>
      </trkpt>
      <trkpt lat="45.40493" lon="5.32429">
        <ele>552.9</ele>
        <time>2011-02-13T07:47:34Z</time>
      </trkpt>
      <trkpt lat="45.40495" lon="5.32444">
        <ele>553.38</ele>
        <time>2011-02-13T07:47:37Z</time>
      </trkpt>
      <trkpt lat="45.40498" lon="5.32457">
        <ele>552.9</ele>
        <time>2011-02-13T07:47:40Z</time>
      </trkpt>
      <trkpt lat="45.40502" lon="5.32469">
        <ele>554.34</ele>
        <time>2011-02-13T07:47:43Z</time>
      </trkpt>
      <trkpt lat="45.40505" lon="5.32482">
        <ele>554.82</ele>
        <time>2011-02-13T07:47:46Z</time>
      </trkpt>
      <trkpt lat="45.40508" lon="5.32495">
        <ele>555.78</ele>
        <time>2011-02-13T07:47:49Z</time>
      </trkpt>
      <trkpt lat="45.4051" lon="5.32507">
        <ele>555.3</ele>
        <time>2011-02-13T07:47:52Z</time>
      </trkpt>
      <trkpt lat="45.40512" lon="5.3252">
        <ele>556.26</ele>
        <time>2011-02-13T07:47:55Z</time>
      </trkpt>
      <trkpt lat="45.40513" lon="5.32534">
        <ele>556.26</ele>
        <time>2011-02-13T07:47:58Z</time>
      </trkpt>
      <trkpt lat="45.40514" lon="5.32548">
        <ele>556.26</ele>
        <time>2011-02-13T07:48:01Z</time>
      </trkpt>
      <trkpt lat="45.40516" lon="5.32561">
        <ele>557.22</ele>
        <time>2011-02-13T07:48:04Z</time>
      </trkpt>
      <trkpt lat="45.40518" lon="5.32573">
        <ele>556.74</ele>
        <time>2011-02-13T07:48:07Z</time>
      </trkpt>
      <trkpt lat="45.4052" lon="5.32589">
        <ele>557.22</ele>
        <time>2011-02-13T07:48:11Z</time>
      </trkpt>
      <trkpt lat="45.40523" lon="5.32605">
        <ele>557.7</ele>
        <time>2011-02-13T07:48:15Z</time>
      </trkpt>
      <trkpt lat="45.40524" lon="5.32618">
        <ele>558.66</ele>
        <time>2011-02-13T07:48:19Z</time>
      </trkpt>
      <trkpt lat="45.40525" lon="5.32631">
        <ele>560.11</ele>
        <time>2011-02-13T07:48:23Z</time>
      </trkpt>
      <trkpt lat="45.40528" lon="5.32643">
        <ele>561.07</ele>
        <time>2011-02-13T07:48:28Z</time>
      </trkpt>
      <trkpt lat="45.40534" lon="5.32656">
        <ele>561.55</ele>
        <time>2011-02-13T07:48:33Z</time>
      </trkpt>
      <trkpt lat="45.40539" lon="5.32667">
        <ele>563.95</ele>
        <time>2011-02-13T07:48:38Z</time>
      </trkpt>
      <trkpt lat="45.40544" lon="5.3268">
        <ele>564.91</ele>
        <time>2011-02-13T07:48:43Z</time>
      </trkpt>
      <trkpt lat="45.40549" lon="5.32693">
        <ele>566.35</ele>
        <time>2011-02-13T07:48:49Z</time>
      </trkpt>
      <trkpt lat="45.40555" lon="5.32704">
        <ele>567.8</ele>
        <time>2011-02-13T07:48:55Z</time>
      </trkpt>
      <trkpt lat="45.4056" lon="5.32716">
        <ele>569.24</ele>
        <time>2011-02-13T07:49:01Z</time>
      </trkpt>
      <trkpt lat="45.40566" lon="5.3273">
        <ele>570.68</ele>
        <time>2011-02-13T07:49:07Z</time>
      </trkpt>
      <trkpt lat="45.40571" lon="5.32742">
        <ele>572.12</ele>
        <time>2011-02-13T07:49:13Z</time>
      </trkpt>
      <trkpt lat="45.40578" lon="5.32757">
        <ele>573.08</ele>
        <time>2011-02-13T07:49:19Z</time>
      </trkpt>
      <trkpt lat="45.40584" lon="5.32768">
        <ele>575.01</ele>
        <time>2011-02-13T07:49:25Z</time>
      </trkpt>
      <trkpt lat="45.4059" lon="5.32781">
        <ele>575.97</ele>
        <time>2011-02-13T07:49:31Z</time>
      </trkpt>
      <trkpt lat="45.40597" lon="5.32792">
        <ele>578.37</ele>
        <time>2011-02-13T07:49:37Z</time>
      </trkpt>
      <trkpt lat="45.40604" lon="5.32801">
        <ele>578.85</ele>
        <time>2011-02-13T07:49:42Z</time>
      </trkpt>
      <trkpt lat="45.40612" lon="5.3281">
        <ele>580.29</ele>
        <time>2011-02-13T07:49:48Z</time>
      </trkpt>
      <trkpt lat="45.4062" lon="5.3282">
        <ele>582.22</ele>
        <time>2011-02-13T07:49:55Z</time>
      </trkpt>
      <trkpt lat="45.40628" lon="5.32829">
        <ele>583.18</ele>
        <time>2011-02-13T07:50:01Z</time>
      </trkpt>
      <trkpt lat="45.40636" lon="5.32837">
        <ele>584.14</ele>
        <time>2011-02-13T07:50:07Z</time>
      </trkpt>
      <trkpt lat="45.40645" lon="5.32843">
        <ele>586.06</ele>
        <time>2011-02-13T07:50:13Z</time>
      </trkpt>
      <trkpt lat="45.40654" lon="5.32843">
        <ele>587.02</ele>
        <time>2011-02-13T07:50:19Z</time>
      </trkpt>
      <trkpt lat="45.40664" lon="5.32837">
        <ele>587.5</ele>
        <time>2011-02-13T07:50:25Z</time>
      </trkpt>
      <trkpt lat="45.4067" lon="5.32826">
        <ele>588.95</ele>
        <time>2011-02-13T07:50:31Z</time>
      </trkpt>
      <trkpt lat="45.40674" lon="5.32813">
        <ele>589.91</ele>
        <time>2011-02-13T07:50:37Z</time>
      </trkpt>
      <trkpt lat="45.40677" lon="5.32798">
        <ele>590.39</ele>
        <time>2011-02-13T07:50:43Z</time>
      </trkpt>
      <trkpt lat="45.4068" lon="5.32784">
        <ele>591.35</ele>
        <time>2011-02-13T07:50:49Z</time>
      </trkpt>
      <trkpt lat="45.40683" lon="5.3277">
        <ele>591.83</ele>
        <time>2011-02-13T07:50:55Z</time>
      </trkpt>
      <trkpt lat="45.40688" lon="5.32758">
        <ele>593.27</ele>
        <time>2011-02-13T07:51:01Z</time>
      </trkpt>
      <trkpt lat="45.40693" lon="5.32746">
        <ele>594.23</ele>
        <time>2011-02-13T07:51:07Z</time>
      </trkpt>
      <trkpt lat="45.40701" lon="5.32736">
        <ele>594.71</ele>
        <time>2011-02-13T07:51:13Z</time>
      </trkpt>
      <trkpt lat="45.4071" lon="5.32727">
        <ele>595.19</ele>
        <time>2011-02-13T07:51:18Z</time>
      </trkpt>
      <trkpt lat="45.40717" lon="5.32719">
        <ele>595.19</ele>
        <time>2011-02-13T07:51:22Z</time>
      </trkpt>
      <trkpt lat="45.40724" lon="5.32709">
        <ele>595.67</ele>
        <time>2011-02-13T07:51:27Z</time>
      </trkpt>
      <trkpt lat="45.40733" lon="5.32699">
        <ele>597.12</ele>
        <time>2011-02-13T07:51:32Z</time>
      </trkpt>
      <trkpt lat="45.40741" lon="5.3269">
        <ele>597.6</ele>
        <time>2011-02-13T07:51:37Z</time>
      </trkpt>
      <trkpt lat="45.4075" lon="5.32681">
        <ele>598.56</ele>
        <time>2011-02-13T07:51:42Z</time>
      </trkpt>
      <trkpt lat="45.4076" lon="5.32674">
        <ele>599.52</ele>
        <time>2011-02-13T07:51:47Z</time>
      </trkpt>
      <trkpt lat="45.40768" lon="5.32668">
        <ele>600</ele>
        <time>2011-02-13T07:51:52Z</time>
      </trkpt>
      <trkpt lat="45.40777" lon="5.32661">
        <ele>600.96</ele>
        <time>2011-02-13T07:51:58Z</time>
      </trkpt>
      <trkpt lat="45.40787" lon="5.32653">
        <ele>601.92</ele>
        <time>2011-02-13T07:52:04Z</time>
      </trkpt>
      <trkpt lat="45.40795" lon="5.32643">
        <ele>602.88</ele>
        <time>2011-02-13T07:52:09Z</time>
      </trkpt>
      <trkpt lat="45.40803" lon="5.32634">
        <ele>603.85</ele>
        <time>2011-02-13T07:52:14Z</time>
      </trkpt>
      <trkpt lat="45.40812" lon="5.32626">
        <ele>604.81</ele>
        <time>2011-02-13T07:52:19Z</time>
      </trkpt>
      <trkpt lat="45.40818" lon="5.32615">
        <ele>606.25</ele>
        <time>2011-02-13T07:52:24Z</time>
      </trkpt>
      <trkpt lat="45.40825" lon="5.32605">
        <ele>606.73</ele>
        <time>2011-02-13T07:52:29Z</time>
      </trkpt>
      <trkpt lat="45.40832" lon="5.32595">
        <ele>607.21</ele>
        <time>2011-02-13T07:52:34Z</time>
      </trkpt>
      <trkpt lat="45.40838" lon="5.32584">
        <ele>608.17</ele>
        <time>2011-02-13T07:52:39Z</time>
      </trkpt>
      <trkpt lat="45.40845" lon="5.32573">
        <ele>609.13</ele>
        <time>2011-02-13T07:52:44Z</time>
      </trkpt>
      <trkpt lat="45.40849" lon="5.32563">
        <ele>609.13</ele>
        <time>2011-02-13T07:52:49Z</time>
      </trkpt>
      <trkpt lat="45.40857" lon="5.32551">
        <ele>609.61</ele>
        <time>2011-02-13T07:52:55Z</time>
      </trkpt>
      <trkpt lat="45.40866" lon="5.3254">
        <ele>611.06</ele>
        <time>2011-02-13T07:53:01Z</time>
      </trkpt>
      <trkpt lat="45.40874" lon="5.32528">
        <ele>612.02</ele>
        <time>2011-02-13T07:53:07Z</time>
      </trkpt>
      <trkpt lat="45.40881" lon="5.32516">
        <ele>613.94</ele>
        <time>2011-02-13T07:53:13Z</time>
      </trkpt>
      <trkpt lat="45.40889" lon="5.32504">
        <ele>615.38</ele>
        <time>2011-02-13T07:53:19Z</time>
      </trkpt>
      <trkpt lat="45.40895" lon="5.32493">
        <ele>615.86</ele>
        <time>2011-02-13T07:53:24Z</time>
      </trkpt>
      <trkpt lat="45.409" lon="5.32478">
        <ele>616.34</ele>
        <time>2011-02-13T07:53:30Z</time>
      </trkpt>
      <trkpt lat="45.40906" lon="5.32465">
        <ele>618.26</ele>
        <time>2011-02-13T07:53:35Z</time>
      </trkpt>
      <trkpt lat="45.40912" lon="5.32454">
        <ele>618.26</ele>
        <time>2011-02-13T07:53:40Z</time>
      </trkpt>
      <trkpt lat="45.40917" lon="5.32441">
        <ele>619.23</ele>
        <time>2011-02-13T07:53:46Z</time>
      </trkpt>
      <trkpt lat="45.40922" lon="5.32428">
        <ele>620.19</ele>
        <time>2011-02-13T07:53:52Z</time>
      </trkpt>
      <trkpt lat="45.40928" lon="5.32414">
        <ele>621.15</ele>
        <time>2011-02-13T07:53:58Z</time>
      </trkpt>
      <trkpt lat="45.40935" lon="5.32402">
        <ele>620.67</ele>
        <time>2011-02-13T07:54:04Z</time>
      </trkpt>
      <trkpt lat="45.40942" lon="5.32391">
        <ele>621.63</ele>
        <time>2011-02-13T07:54:09Z</time>
      </trkpt>
      <trkpt lat="45.4095" lon="5.32381">
        <ele>621.63</ele>
        <time>2011-02-13T07:54:14Z</time>
      </trkpt>
      <trkpt lat="45.40961" lon="5.32376">
        <ele>622.11</ele>
        <time>2011-02-13T07:54:19Z</time>
      </trkpt>
      <trkpt lat="45.4097" lon="5.32371">
        <ele>623.07</ele>
        <time>2011-02-13T07:54:24Z</time>
      </trkpt>
      <trkpt lat="45.40979" lon="5.32365">
        <ele>623.55</ele>
        <time>2011-02-13T07:54:30Z</time>
      </trkpt>
      <trkpt lat="45.40989" lon="5.32362">
        <ele>624.99</ele>
        <time>2011-02-13T07:54:36Z</time>
      </trkpt>
      <trkpt lat="45.40999" lon="5.32358">
        <ele>624.99</ele>
        <time>2011-02-13T07:54:41Z</time>
      </trkpt>
      <trkpt lat="45.41007" lon="5.32351">
        <ele>625.96</ele>
        <time>2011-02-13T07:54:46Z</time>
      </trkpt>
      <trkpt lat="45.41014" lon="5.32341">
        <ele>626.44</ele>
        <time>2011-02-13T07:54:50Z</time>
      </trkpt>
      <trkpt lat="45.41023" lon="5.32332">
        <ele>626.92</ele>
        <time>2011-02-13T07:54:55Z</time>
      </trkpt>
      <trkpt lat="45.4103" lon="5.32322">
        <ele>627.88</ele>
        <time>2011-02-13T07:55:00Z</time>
      </trkpt>
      <trkpt lat="45.41035" lon="5.3231">
        <ele>627.88</ele>
        <time>2011-02-13T07:55:05Z</time>
      </trkpt>
      <trkpt lat="45.41043" lon="5.32303">
        <ele>629.8</ele>
        <time>2011-02-13T07:55:11Z</time>
      </trkpt>
      <trkpt lat="45.41053" lon="5.32304">
        <ele>629.8</ele>
        <time>2011-02-13T07:55:16Z</time>
      </trkpt>
      <trkpt lat="45.41056" lon="5.32292">
        <ele>629.8</ele>
        <time>2011-02-13T07:55:22Z</time>
      </trkpt>
      <trkpt lat="45.41052" lon="5.32273">
        <ele>628.84</ele>
        <time>2011-02-13T07:55:27Z</time>
      </trkpt>
      <trkpt lat="45.4105" lon="5.32252">
        <ele>628.36</ele>
        <time>2011-02-13T07:55:32Z</time>
      </trkpt>
      <trkpt lat="45.41051" lon="5.32238">
        <ele>628.84</ele>
        <time>2011-02-13T07:55:37Z</time>
      </trkpt>
      <trkpt lat="45.41053" lon="5.32225">
        <ele>628.36</ele>
        <time>2011-02-13T07:55:42Z</time>
      </trkpt>
      <trkpt lat="45.41055" lon="5.3221">
        <ele>628.36</ele>
        <time>2011-02-13T07:55:47Z</time>
      </trkpt>
      <trkpt lat="45.41056" lon="5.32193">
        <ele>627.88</ele>
        <time>2011-02-13T07:55:52Z</time>
      </trkpt>
      <trkpt lat="45.41056" lon="5.32179">
        <ele>627.88</ele>
        <time>2011-02-13T07:55:55Z</time>
      </trkpt>
      <trkpt lat="45.41058" lon="5.32163">
        <ele>626.92</ele>
        <time>2011-02-13T07:55:58Z</time>
      </trkpt>
      <trkpt lat="45.4106" lon="5.32148">
        <ele>626.92</ele>
        <time>2011-02-13T07:56:01Z</time>
      </trkpt>
      <trkpt lat="45.41065" lon="5.32132">
        <ele>626.44</ele>
        <time>2011-02-13T07:56:04Z</time>
      </trkpt>
      <trkpt lat="45.41072" lon="5.32116">
        <ele>627.4</ele>
        <time>2011-02-13T07:56:07Z</time>
      </trkpt>
      <trkpt lat="45.41079" lon="5.32101">
        <ele>626.44</ele>
        <time>2011-02-13T07:56:10Z</time>
      </trkpt>
      <trkpt lat="45.41086" lon="5.32084">
        <ele>626.44</ele>
        <time>2011-02-13T07:56:13Z</time>
      </trkpt>
      <trkpt lat="45.41092" lon="5.32068">
        <ele>626.92</ele>
        <time>2011-02-13T07:56:16Z</time>
      </trkpt>
      <trkpt lat="45.41098" lon="5.32055">
        <ele>626.92</ele>
        <time>2011-02-13T07:56:19Z</time>
      </trkpt>
      <trkpt lat="45.41103" lon="5.32044">
        <ele>627.4</ele>
        <time>2011-02-13T07:56:22Z</time>
      </trkpt>
      <trkpt lat="45.41111" lon="5.32034">
        <ele>626.92</ele>
        <time>2011-02-13T07:56:25Z</time>
      </trkpt>
      <trkpt lat="45.41119" lon="5.32024">
        <ele>626.92</ele>
        <time>2011-02-13T07:56:28Z</time>
      </trkpt>
      <trkpt lat="45.41126" lon="5.32012">
        <ele>626.92</ele>
        <time>2011-02-13T07:56:31Z</time>
      </trkpt>
      <trkpt lat="45.41133" lon="5.32002">
        <ele>626.92</ele>
        <time>2011-02-13T07:56:34Z</time>
      </trkpt>
      <trkpt lat="45.4114" lon="5.31991">
        <ele>627.88</ele>
        <time>2011-02-13T07:56:37Z</time>
      </trkpt>
      <trkpt lat="45.41146" lon="5.31978">
        <ele>627.88</ele>
        <time>2011-02-13T07:56:41Z</time>
      </trkpt>
      <trkpt lat="45.4115" lon="5.31964">
        <ele>628.36</ele>
        <time>2011-02-13T07:56:45Z</time>
      </trkpt>
      <trkpt lat="45.41153" lon="5.3195">
        <ele>628.84</ele>
        <time>2011-02-13T07:56:49Z</time>
      </trkpt>
      <trkpt lat="45.41152" lon="5.31937">
        <ele>627.88</ele>
        <time>2011-02-13T07:57:20Z</time>
      </trkpt>
      <trkpt lat="45.41146" lon="5.31949">
        <ele>628.36</ele>
        <time>2011-02-13T07:57:28Z</time>
      </trkpt>
      <trkpt lat="45.41141" lon="5.31961">
        <ele>627.88</ele>
        <time>2011-02-13T07:57:31Z</time>
      </trkpt>
      <trkpt lat="45.41137" lon="5.31976">
        <ele>627.4</ele>
        <time>2011-02-13T07:57:34Z</time>
      </trkpt>
      <trkpt lat="45.41133" lon="5.31991">
        <ele>627.4</ele>
        <time>2011-02-13T07:57:37Z</time>
      </trkpt>
      <trkpt lat="45.41126" lon="5.32007">
        <ele>626.92</ele>
        <time>2011-02-13T07:57:40Z</time>
      </trkpt>
      <trkpt lat="45.41119" lon="5.3202">
        <ele>626.92</ele>
        <time>2011-02-13T07:57:43Z</time>
      </trkpt>
      <trkpt lat="45.41112" lon="5.3203">
        <ele>626.92</ele>
        <time>2011-02-13T07:57:46Z</time>
      </trkpt>
      <trkpt lat="45.41106" lon="5.32038">
        <ele>626.92</ele>
        <time>2011-02-13T07:57:49Z</time>
      </trkpt>
      <trkpt lat="45.41098" lon="5.3205">
        <ele>627.4</ele>
        <time>2011-02-13T07:57:52Z</time>
      </trkpt>
      <trkpt lat="45.41091" lon="5.32066">
        <ele>624.51</ele>
        <time>2011-02-13T07:57:55Z</time>
      </trkpt>
      <trkpt lat="45.41086" lon="5.32078">
        <ele>625.47</ele>
        <time>2011-02-13T07:57:57Z</time>
      </trkpt>
      <trkpt lat="45.41081" lon="5.32089">
        <ele>624.51</ele>
        <time>2011-02-13T07:57:59Z</time>
      </trkpt>
      <trkpt lat="45.41073" lon="5.32103">
        <ele>625.96</ele>
        <time>2011-02-13T07:58:02Z</time>
      </trkpt>
      <trkpt lat="45.41067" lon="5.32117">
        <ele>625.96</ele>
        <time>2011-02-13T07:58:05Z</time>
      </trkpt>
      <trkpt lat="45.41061" lon="5.32131">
        <ele>625.96</ele>
        <time>2011-02-13T07:58:08Z</time>
      </trkpt>
      <trkpt lat="45.41058" lon="5.32146">
        <ele>625.47</ele>
        <time>2011-02-13T07:58:11Z</time>
      </trkpt>
      <trkpt lat="45.41056" lon="5.3216">
        <ele>626.44</ele>
        <time>2011-02-13T07:58:14Z</time>
      </trkpt>
      <trkpt lat="45.41054" lon="5.32174">
        <ele>626.92</ele>
        <time>2011-02-13T07:58:17Z</time>
      </trkpt>
      <trkpt lat="45.41052" lon="5.32188">
        <ele>627.4</ele>
        <time>2011-02-13T07:58:21Z</time>
      </trkpt>
      <trkpt lat="45.41045" lon="5.322">
        <ele>627.88</ele>
        <time>2011-02-13T07:58:25Z</time>
      </trkpt>
      <trkpt lat="45.41036" lon="5.32193">
        <ele>628.36</ele>
        <time>2011-02-13T07:58:31Z</time>
      </trkpt>
      <trkpt lat="45.4103" lon="5.32158">
        <ele>628.36</ele>
        <time>2011-02-13T07:58:37Z</time>
      </trkpt>
      <trkpt lat="45.41026" lon="5.32138">
        <ele>629.32</ele>
        <time>2011-02-13T07:58:41Z</time>
      </trkpt>
      <trkpt lat="45.41023" lon="5.32122">
        <ele>628.84</ele>
        <time>2011-02-13T07:58:45Z</time>
      </trkpt>
      <trkpt lat="45.41021" lon="5.32106">
        <ele>629.32</ele>
        <time>2011-02-13T07:58:49Z</time>
      </trkpt>
      <trkpt lat="45.41017" lon="5.3209">
        <ele>630.28</ele>
        <time>2011-02-13T07:58:53Z</time>
      </trkpt>
      <trkpt lat="45.41016" lon="5.32077">
        <ele>629.8</ele>
        <time>2011-02-13T07:58:57Z</time>
      </trkpt>
      <trkpt lat="45.41013" lon="5.32062">
        <ele>630.76</ele>
        <time>2011-02-13T07:59:02Z</time>
      </trkpt>
      <trkpt lat="45.4101" lon="5.32048">
        <ele>632.2</ele>
        <time>2011-02-13T07:59:07Z</time>
      </trkpt>
      <trkpt lat="45.41009" lon="5.32035">
        <ele>632.68</ele>
        <time>2011-02-13T07:59:12Z</time>
      </trkpt>
      <trkpt lat="45.41009" lon="5.3202">
        <ele>634.13</ele>
        <time>2011-02-13T07:59:18Z</time>
      </trkpt>
      <trkpt lat="45.41005" lon="5.32007">
        <ele>634.61</ele>
        <time>2011-02-13T07:59:24Z</time>
      </trkpt>
      <trkpt lat="45.41001" lon="5.31995">
        <ele>636.05</ele>
        <time>2011-02-13T07:59:30Z</time>
      </trkpt>
      <trkpt lat="45.40995" lon="5.31982">
        <ele>637.01</ele>
        <time>2011-02-13T07:59:38Z</time>
      </trkpt>
      <trkpt lat="45.40988" lon="5.31971">
        <ele>637.49</ele>
        <time>2011-02-13T07:59:43Z</time>
      </trkpt>
      <trkpt lat="45.4098" lon="5.31957">
        <ele>637.97</ele>
        <time>2011-02-13T07:59:48Z</time>
      </trkpt>
      <trkpt lat="45.40974" lon="5.31944">
        <ele>638.45</ele>
        <time>2011-02-13T07:59:53Z</time>
      </trkpt>
      <trkpt lat="45.40968" lon="5.31932">
        <ele>638.45</ele>
        <time>2011-02-13T07:59:58Z</time>
      </trkpt>
      <trkpt lat="45.4096" lon="5.31921">
        <ele>639.41</ele>
        <time>2011-02-13T08:00:03Z</time>
      </trkpt>
      <trkpt lat="45.40953" lon="5.3191">
        <ele>639.41</ele>
        <time>2011-02-13T08:00:08Z</time>
      </trkpt>
      <trkpt lat="45.40947" lon="5.31899">
        <ele>639.41</ele>
        <time>2011-02-13T08:00:13Z</time>
      </trkpt>
      <trkpt lat="45.40938" lon="5.3189">
        <ele>639.89</ele>
        <time>2011-02-13T08:00:18Z</time>
      </trkpt>
      <trkpt lat="45.40931" lon="5.3188">
        <ele>640.86</ele>
        <time>2011-02-13T08:00:23Z</time>
      </trkpt>
      <trkpt lat="45.40922" lon="5.31868">
        <ele>641.34</ele>
        <time>2011-02-13T08:00:28Z</time>
      </trkpt>
      <trkpt lat="45.40915" lon="5.31858">
        <ele>641.82</ele>
        <time>2011-02-13T08:00:33Z</time>
      </trkpt>
      <trkpt lat="45.40908" lon="5.31847">
        <ele>641.82</ele>
        <time>2011-02-13T08:00:38Z</time>
      </trkpt>
      <trkpt lat="45.40901" lon="5.31836">
        <ele>642.78</ele>
        <time>2011-02-13T08:00:43Z</time>
      </trkpt>
      <trkpt lat="45.40895" lon="5.31826">
        <ele>643.26</ele>
        <time>2011-02-13T08:00:47Z</time>
      </trkpt>
      <trkpt lat="45.40889" lon="5.31813">
        <ele>644.22</ele>
        <time>2011-02-13T08:00:52Z</time>
      </trkpt>
      <trkpt lat="45.40883" lon="5.31803">
        <ele>645.18</ele>
        <time>2011-02-13T08:00:57Z</time>
      </trkpt>
      <trkpt lat="45.40879" lon="5.3179">
        <ele>646.14</ele>
        <time>2011-02-13T08:01:03Z</time>
      </trkpt>
      <trkpt lat="45.40886" lon="5.31783">
        <ele>645.66</ele>
        <time>2011-02-13T08:01:25Z</time>
      </trkpt>
      <trkpt lat="45.40895" lon="5.31776">
        <ele>645.66</ele>
        <time>2011-02-13T08:01:30Z</time>
      </trkpt>
      <trkpt lat="45.40904" lon="5.3177">
        <ele>645.18</ele>
        <time>2011-02-13T08:01:35Z</time>
      </trkpt>
      <trkpt lat="45.40914" lon="5.31765">
        <ele>645.66</ele>
        <time>2011-02-13T08:01:40Z</time>
      </trkpt>
      <trkpt lat="45.40924" lon="5.31758">
        <ele>645.66</ele>
        <time>2011-02-13T08:01:45Z</time>
      </trkpt>
      <trkpt lat="45.40933" lon="5.31751">
        <ele>646.14</ele>
        <time>2011-02-13T08:01:49Z</time>
      </trkpt>
      <trkpt lat="45.40942" lon="5.31744">
        <ele>646.62</ele>
        <time>2011-02-13T08:01:53Z</time>
      </trkpt>
      <trkpt lat="45.40951" lon="5.31738">
        <ele>646.14</ele>
        <time>2011-02-13T08:01:57Z</time>
      </trkpt>
      <trkpt lat="45.40961" lon="5.31732">
        <ele>647.59</ele>
        <time>2011-02-13T08:02:01Z</time>
      </trkpt>
      <trkpt lat="45.40973" lon="5.31727">
        <ele>647.59</ele>
        <time>2011-02-13T08:02:05Z</time>
      </trkpt>
      <trkpt lat="45.40982" lon="5.31723">
        <ele>648.07</ele>
        <time>2011-02-13T08:02:08Z</time>
      </trkpt>
      <trkpt lat="45.4099" lon="5.3172">
        <ele>648.07</ele>
        <time>2011-02-13T08:02:11Z</time>
      </trkpt>
      <trkpt lat="45.41002" lon="5.31718">
        <ele>648.55</ele>
        <time>2011-02-13T08:02:15Z</time>
      </trkpt>
      <trkpt lat="45.41011" lon="5.31717">
        <ele>648.07</ele>
        <time>2011-02-13T08:02:18Z</time>
      </trkpt>
      <trkpt lat="45.41021" lon="5.31713">
        <ele>648.55</ele>
        <time>2011-02-13T08:02:21Z</time>
      </trkpt>
      <trkpt lat="45.41027" lon="5.31702">
        <ele>648.07</ele>
        <time>2011-02-13T08:02:24Z</time>
      </trkpt>
      <trkpt lat="45.4103" lon="5.31688">
        <ele>648.07</ele>
        <time>2011-02-13T08:02:27Z</time>
      </trkpt>
      <trkpt lat="45.41033" lon="5.31675">
        <ele>649.03</ele>
        <time>2011-02-13T08:02:30Z</time>
      </trkpt>
      <trkpt lat="45.41035" lon="5.3166">
        <ele>649.51</ele>
        <time>2011-02-13T08:02:33Z</time>
      </trkpt>
      <trkpt lat="45.41038" lon="5.31645">
        <ele>649.99</ele>
        <time>2011-02-13T08:02:36Z</time>
      </trkpt>
      <trkpt lat="45.41041" lon="5.31631">
        <ele>649.99</ele>
        <time>2011-02-13T08:02:39Z</time>
      </trkpt>
      <trkpt lat="45.41044" lon="5.31618">
        <ele>649.99</ele>
        <time>2011-02-13T08:02:42Z</time>
      </trkpt>
      <trkpt lat="45.41049" lon="5.31604">
        <ele>650.47</ele>
        <time>2011-02-13T08:02:45Z</time>
      </trkpt>
      <trkpt lat="45.41055" lon="5.31592">
        <ele>650.47</ele>
        <time>2011-02-13T08:02:48Z</time>
      </trkpt>
      <trkpt lat="45.41064" lon="5.3158">
        <ele>650.47</ele>
        <time>2011-02-13T08:02:51Z</time>
      </trkpt>
      <trkpt lat="45.41072" lon="5.31569">
        <ele>649.99</ele>
        <time>2011-02-13T08:02:54Z</time>
      </trkpt>
      <trkpt lat="45.41081" lon="5.31557">
        <ele>649.51</ele>
        <time>2011-02-13T08:02:57Z</time>
      </trkpt>
      <trkpt lat="45.4109" lon="5.31543">
        <ele>648.55</ele>
        <time>2011-02-13T08:03:00Z</time>
      </trkpt>
      <trkpt lat="45.41096" lon="5.31534">
        <ele>648.07</ele>
        <time>2011-02-13T08:03:02Z</time>
      </trkpt>
      <trkpt lat="45.41103" lon="5.31524">
        <ele>647.1</ele>
        <time>2011-02-13T08:03:04Z</time>
      </trkpt>
      <trkpt lat="45.41112" lon="5.31514">
        <ele>646.14</ele>
        <time>2011-02-13T08:03:06Z</time>
      </trkpt>
      <trkpt lat="45.41122" lon="5.31503">
        <ele>644.7</ele>
        <time>2011-02-13T08:03:08Z</time>
      </trkpt>
      <trkpt lat="45.41131" lon="5.31492">
        <ele>643.26</ele>
        <time>2011-02-13T08:03:10Z</time>
      </trkpt>
      <trkpt lat="45.41142" lon="5.31478">
        <ele>640.86</ele>
        <time>2011-02-13T08:03:12Z</time>
      </trkpt>
      <trkpt lat="45.41156" lon="5.31462">
        <ele>639.41</ele>
        <time>2011-02-13T08:03:14Z</time>
      </trkpt>
      <trkpt lat="45.41169" lon="5.31447">
        <ele>638.93</ele>
        <time>2011-02-13T08:03:16Z</time>
      </trkpt>
      <trkpt lat="45.41181" lon="5.3143">
        <ele>638.45</ele>
        <time>2011-02-13T08:03:18Z</time>
      </trkpt>
      <trkpt lat="45.41187" lon="5.31414">
        <ele>638.45</ele>
        <time>2011-02-13T08:03:20Z</time>
      </trkpt>
      <trkpt lat="45.41192" lon="5.31398">
        <ele>638.93</ele>
        <time>2011-02-13T08:03:22Z</time>
      </trkpt>
      <trkpt lat="45.41198" lon="5.31382">
        <ele>638.93</ele>
        <time>2011-02-13T08:03:24Z</time>
      </trkpt>
      <trkpt lat="45.41205" lon="5.31367">
        <ele>638.93</ele>
        <time>2011-02-13T08:03:26Z</time>
      </trkpt>
      <trkpt lat="45.41211" lon="5.31354">
        <ele>638.45</ele>
        <time>2011-02-13T08:03:28Z</time>
      </trkpt>
      <trkpt lat="45.41217" lon="5.3134">
        <ele>637.01</ele>
        <time>2011-02-13T08:03:30Z</time>
      </trkpt>
      <trkpt lat="45.41225" lon="5.31325">
        <ele>635.57</ele>
        <time>2011-02-13T08:03:32Z</time>
      </trkpt>
      <trkpt lat="45.41235" lon="5.31311">
        <ele>635.09</ele>
        <time>2011-02-13T08:03:34Z</time>
      </trkpt>
      <trkpt lat="45.41246" lon="5.31296">
        <ele>634.13</ele>
        <time>2011-02-13T08:03:36Z</time>
      </trkpt>
      <trkpt lat="45.41259" lon="5.3128">
        <ele>632.68</ele>
        <time>2011-02-13T08:03:38Z</time>
      </trkpt>
      <trkpt lat="45.41275" lon="5.31266">
        <ele>631.24</ele>
        <time>2011-02-13T08:03:40Z</time>
      </trkpt>
      <trkpt lat="45.4129" lon="5.31253">
        <ele>630.76</ele>
        <time>2011-02-13T08:03:42Z</time>
      </trkpt>
      <trkpt lat="45.41304" lon="5.31236">
        <ele>630.28</ele>
        <time>2011-02-13T08:03:44Z</time>
      </trkpt>
      <trkpt lat="45.41313" lon="5.31218">
        <ele>628.36</ele>
        <time>2011-02-13T08:03:46Z</time>
      </trkpt>
      <trkpt lat="45.4132" lon="5.31199">
        <ele>626.92</ele>
        <time>2011-02-13T08:03:48Z</time>
      </trkpt>
      <trkpt lat="45.41326" lon="5.31179">
        <ele>625.96</ele>
        <time>2011-02-13T08:03:50Z</time>
      </trkpt>
      <trkpt lat="45.41331" lon="5.31157">
        <ele>623.55</ele>
        <time>2011-02-13T08:03:52Z</time>
      </trkpt>
      <trkpt lat="45.41332" lon="5.31136">
        <ele>622.59</ele>
        <time>2011-02-13T08:03:54Z</time>
      </trkpt>
      <trkpt lat="45.41334" lon="5.31117">
        <ele>620.67</ele>
        <time>2011-02-13T08:03:56Z</time>
      </trkpt>
      <trkpt lat="45.41338" lon="5.31098">
        <ele>619.23</ele>
        <time>2011-02-13T08:03:58Z</time>
      </trkpt>
      <trkpt lat="45.41342" lon="5.31078">
        <ele>617.3</ele>
        <time>2011-02-13T08:04:00Z</time>
      </trkpt>
      <trkpt lat="45.41348" lon="5.31058">
        <ele>616.34</ele>
        <time>2011-02-13T08:04:02Z</time>
      </trkpt>
      <trkpt lat="45.41353" lon="5.31035">
        <ele>614.9</ele>
        <time>2011-02-13T08:04:04Z</time>
      </trkpt>
      <trkpt lat="45.41355" lon="5.31011">
        <ele>613.46</ele>
        <time>2011-02-13T08:04:06Z</time>
      </trkpt>
      <trkpt lat="45.41356" lon="5.30994">
        <ele>612.02</ele>
        <time>2011-02-13T08:04:08Z</time>
      </trkpt>
      <trkpt lat="45.41358" lon="5.30981">
        <ele>611.54</ele>
        <time>2011-02-13T08:04:10Z</time>
      </trkpt>
      <trkpt lat="45.41367" lon="5.30969">
        <ele>611.06</ele>
        <time>2011-02-13T08:04:13Z</time>
      </trkpt>
      <trkpt lat="45.41377" lon="5.30971">
        <ele>611.06</ele>
        <time>2011-02-13T08:04:16Z</time>
      </trkpt>
      <trkpt lat="45.41384" lon="5.30981">
        <ele>610.09</ele>
        <time>2011-02-13T08:04:57Z</time>
      </trkpt>
      <trkpt lat="45.41395" lon="5.30994">
        <ele>609.61</ele>
        <time>2011-02-13T08:05:01Z</time>
      </trkpt>
      <trkpt lat="45.41405" lon="5.31004">
        <ele>608.65</ele>
        <time>2011-02-13T08:05:03Z</time>
      </trkpt>
      <trkpt lat="45.41414" lon="5.31018">
        <ele>607.69</ele>
        <time>2011-02-13T08:05:05Z</time>
      </trkpt>
      <trkpt lat="45.41425" lon="5.31032">
        <ele>604.81</ele>
        <time>2011-02-13T08:05:07Z</time>
      </trkpt>
      <trkpt lat="45.41439" lon="5.31047">
        <ele>603.36</ele>
        <time>2011-02-13T08:05:09Z</time>
      </trkpt>
      <trkpt lat="45.41447" lon="5.31053">
        <ele>602.4</ele>
        <time>2011-02-13T08:05:10Z</time>
      </trkpt>
      <trkpt lat="45.41463" lon="5.31066">
        <ele>600.96</ele>
        <time>2011-02-13T08:05:12Z</time>
      </trkpt>
      <trkpt lat="45.41477" lon="5.3108">
        <ele>600.48</ele>
        <time>2011-02-13T08:05:14Z</time>
      </trkpt>
      <trkpt lat="45.41491" lon="5.31093">
        <ele>599.52</ele>
        <time>2011-02-13T08:05:16Z</time>
      </trkpt>
      <trkpt lat="45.41505" lon="5.31097">
        <ele>598.56</ele>
        <time>2011-02-13T08:05:18Z</time>
      </trkpt>
      <trkpt lat="45.41521" lon="5.31095">
        <ele>598.08</ele>
        <time>2011-02-13T08:05:20Z</time>
      </trkpt>
      <trkpt lat="45.41538" lon="5.31089">
        <ele>597.6</ele>
        <time>2011-02-13T08:05:22Z</time>
      </trkpt>
      <trkpt lat="45.41553" lon="5.31084">
        <ele>597.6</ele>
        <time>2011-02-13T08:05:24Z</time>
      </trkpt>
      <trkpt lat="45.41566" lon="5.31079">
        <ele>596.64</ele>
        <time>2011-02-13T08:05:26Z</time>
      </trkpt>
      <trkpt lat="45.41577" lon="5.31073">
        <ele>596.64</ele>
        <time>2011-02-13T08:05:28Z</time>
      </trkpt>
      <trkpt lat="45.4159" lon="5.31063">
        <ele>596.64</ele>
        <time>2011-02-13T08:05:30Z</time>
      </trkpt>
      <trkpt lat="45.41604" lon="5.31054">
        <ele>596.64</ele>
        <time>2011-02-13T08:05:32Z</time>
      </trkpt>
      <trkpt lat="45.41616" lon="5.31045">
        <ele>595.67</ele>
        <time>2011-02-13T08:05:34Z</time>
      </trkpt>
      <trkpt lat="45.41629" lon="5.31033">
        <ele>595.19</ele>
        <time>2011-02-13T08:05:36Z</time>
      </trkpt>
      <trkpt lat="45.4164" lon="5.31018">
        <ele>594.23</ele>
        <time>2011-02-13T08:05:38Z</time>
      </trkpt>
      <trkpt lat="45.4165" lon="5.31001">
        <ele>592.31</ele>
        <time>2011-02-13T08:05:40Z</time>
      </trkpt>
      <trkpt lat="45.41662" lon="5.30982">
        <ele>591.35</ele>
        <time>2011-02-13T08:05:42Z</time>
      </trkpt>
      <trkpt lat="45.41668" lon="5.30972">
        <ele>588.95</ele>
        <time>2011-02-13T08:05:43Z</time>
      </trkpt>
      <trkpt lat="45.41675" lon="5.30961">
        <ele>587.02</ele>
        <time>2011-02-13T08:05:44Z</time>
      </trkpt>
      <trkpt lat="45.41681" lon="5.30951">
        <ele>585.58</ele>
        <time>2011-02-13T08:05:45Z</time>
      </trkpt>
      <trkpt lat="45.41693" lon="5.30933">
        <ele>583.18</ele>
        <time>2011-02-13T08:05:47Z</time>
      </trkpt>
      <trkpt lat="45.41704" lon="5.30918">
        <ele>580.77</ele>
        <time>2011-02-13T08:05:49Z</time>
      </trkpt>
      <trkpt lat="45.41712" lon="5.30908">
        <ele>577.41</ele>
        <time>2011-02-13T08:05:51Z</time>
      </trkpt>
      <trkpt lat="45.4172" lon="5.309">
        <ele>575.97</ele>
        <time>2011-02-13T08:05:53Z</time>
      </trkpt>
      <trkpt lat="45.4173" lon="5.30892">
        <ele>573.56</ele>
        <time>2011-02-13T08:05:56Z</time>
      </trkpt>
      <trkpt lat="45.4174" lon="5.30879">
        <ele>570.2</ele>
        <time>2011-02-13T08:06:00Z</time>
      </trkpt>
      <trkpt lat="45.41747" lon="5.3087">
        <ele>568.28</ele>
        <time>2011-02-13T08:06:02Z</time>
      </trkpt>
      <trkpt lat="45.41756" lon="5.30858">
        <ele>565.39</ele>
        <time>2011-02-13T08:06:05Z</time>
      </trkpt>
      <trkpt lat="45.41766" lon="5.30847">
        <ele>560.59</ele>
        <time>2011-02-13T08:06:08Z</time>
      </trkpt>
      <trkpt lat="45.41774" lon="5.30838">
        <ele>556.74</ele>
        <time>2011-02-13T08:06:11Z</time>
      </trkpt>
      <trkpt lat="45.41784" lon="5.3083">
        <ele>551.93</ele>
        <time>2011-02-13T08:06:15Z</time>
      </trkpt>
      <trkpt lat="45.41792" lon="5.30821">
        <ele>549.05</ele>
        <time>2011-02-13T08:06:18Z</time>
      </trkpt>
      <trkpt lat="45.41801" lon="5.30808">
        <ele>545.2</ele>
        <time>2011-02-13T08:06:21Z</time>
      </trkpt>
      <trkpt lat="45.4181" lon="5.30796">
        <ele>541.84</ele>
        <time>2011-02-13T08:06:24Z</time>
      </trkpt>
      <trkpt lat="45.41818" lon="5.30786">
        <ele>537.51</ele>
        <time>2011-02-13T08:06:28Z</time>
      </trkpt>
      <trkpt lat="45.41828" lon="5.30773">
        <ele>533.67</ele>
        <time>2011-02-13T08:06:31Z</time>
      </trkpt>
      <trkpt lat="45.41836" lon="5.30761">
        <ele>529.82</ele>
        <time>2011-02-13T08:06:34Z</time>
      </trkpt>
      <trkpt lat="45.41847" lon="5.30746">
        <ele>526.46</ele>
        <time>2011-02-13T08:06:37Z</time>
      </trkpt>
      <trkpt lat="45.4186" lon="5.3074">
        <ele>525.98</ele>
        <time>2011-02-13T08:06:40Z</time>
      </trkpt>
      <trkpt lat="45.41868" lon="5.30734">
        <ele>525.02</ele>
        <time>2011-02-13T08:08:52Z</time>
      </trkpt>
      <trkpt lat="45.41865" lon="5.3074">
        <ele>523.58</ele>
        <time>2011-02-13T08:11:33Z</time>
      </trkpt>
      <trkpt lat="45.41872" lon="5.30748">
        <ele>521.65</ele>
        <time>2011-02-13T08:11:37Z</time>
      </trkpt>
      <trkpt lat="45.41879" lon="5.30763">
        <ele>518.29</ele>
        <time>2011-02-13T08:11:40Z</time>
      </trkpt>
      <trkpt lat="45.41883" lon="5.30782">
        <ele>514.44</ele>
        <time>2011-02-13T08:11:43Z</time>
      </trkpt>
      <trkpt lat="45.41886" lon="5.30794">
        <ele>511.08</ele>
        <time>2011-02-13T08:11:45Z</time>
      </trkpt>
      <trkpt lat="45.41889" lon="5.3081">
        <ele>508.67</ele>
        <time>2011-02-13T08:11:47Z</time>
      </trkpt>
      <trkpt lat="45.4189" lon="5.30828">
        <ele>505.31</ele>
        <time>2011-02-13T08:11:49Z</time>
      </trkpt>
      <trkpt lat="45.41889" lon="5.30849">
        <ele>502.91</ele>
        <time>2011-02-13T08:11:51Z</time>
      </trkpt>
      <trkpt lat="45.41886" lon="5.30873">
        <ele>500.98</ele>
        <time>2011-02-13T08:11:53Z</time>
      </trkpt>
      <trkpt lat="45.41883" lon="5.309">
        <ele>498.1</ele>
        <time>2011-02-13T08:11:55Z</time>
      </trkpt>
      <trkpt lat="45.41882" lon="5.30914">
        <ele>496.18</ele>
        <time>2011-02-13T08:11:56Z</time>
      </trkpt>
      <trkpt lat="45.4188" lon="5.30927">
        <ele>495.7</ele>
        <time>2011-02-13T08:11:57Z</time>
      </trkpt>
      <trkpt lat="45.41878" lon="5.30941">
        <ele>494.26</ele>
        <time>2011-02-13T08:11:58Z</time>
      </trkpt>
      <trkpt lat="45.41876" lon="5.30955">
        <ele>493.77</ele>
        <time>2011-02-13T08:11:59Z</time>
      </trkpt>
      <trkpt lat="45.41872" lon="5.30979">
        <ele>490.89</ele>
        <time>2011-02-13T08:12:01Z</time>
      </trkpt>
      <trkpt lat="45.41872" lon="5.31003">
        <ele>487.05</ele>
        <time>2011-02-13T08:12:03Z</time>
      </trkpt>
      <trkpt lat="45.41873" lon="5.31026">
        <ele>483.2</ele>
        <time>2011-02-13T08:12:05Z</time>
      </trkpt>
      <trkpt lat="45.41874" lon="5.3105">
        <ele>479.84</ele>
        <time>2011-02-13T08:12:07Z</time>
      </trkpt>
      <trkpt lat="45.41876" lon="5.31072">
        <ele>477.43</ele>
        <time>2011-02-13T08:12:09Z</time>
      </trkpt>
      <trkpt lat="45.41882" lon="5.31092">
        <ele>475.03</ele>
        <time>2011-02-13T08:12:11Z</time>
      </trkpt>
      <trkpt lat="45.41893" lon="5.31107">
        <ele>473.59</ele>
        <time>2011-02-13T08:12:13Z</time>
      </trkpt>
      <trkpt lat="45.41907" lon="5.31118">
        <ele>471.18</ele>
        <time>2011-02-13T08:12:15Z</time>
      </trkpt>
      <trkpt lat="45.41922" lon="5.31127">
        <ele>470.22</ele>
        <time>2011-02-13T08:12:17Z</time>
      </trkpt>
      <trkpt lat="45.41935" lon="5.31135">
        <ele>470.22</ele>
        <time>2011-02-13T08:12:19Z</time>
      </trkpt>
      <trkpt lat="45.41948" lon="5.31141">
        <ele>469.74</ele>
        <time>2011-02-13T08:12:21Z</time>
      </trkpt>
      <trkpt lat="45.41959" lon="5.31147">
        <ele>469.26</ele>
        <time>2011-02-13T08:12:23Z</time>
      </trkpt>
      <trkpt lat="45.41971" lon="5.31153">
        <ele>468.78</ele>
        <time>2011-02-13T08:12:25Z</time>
      </trkpt>
      <trkpt lat="45.41981" lon="5.31159">
        <ele>469.74</ele>
        <time>2011-02-13T08:12:27Z</time>
      </trkpt>
      <trkpt lat="45.41991" lon="5.31164">
        <ele>469.26</ele>
        <time>2011-02-13T08:12:29Z</time>
      </trkpt>
      <trkpt lat="45.42" lon="5.3117">
        <ele>469.26</ele>
        <time>2011-02-13T08:12:31Z</time>
      </trkpt>
      <trkpt lat="45.42009" lon="5.31174">
        <ele>468.78</ele>
        <time>2011-02-13T08:12:33Z</time>
      </trkpt>
      <trkpt lat="45.4202" lon="5.31183">
        <ele>468.78</ele>
        <time>2011-02-13T08:12:36Z</time>
      </trkpt>
      <trkpt lat="45.42029" lon="5.31189">
        <ele>468.78</ele>
        <time>2011-02-13T08:12:39Z</time>
      </trkpt>
      <trkpt lat="45.42037" lon="5.31197">
        <ele>469.26</ele>
        <time>2011-02-13T08:12:43Z</time>
      </trkpt>
      <trkpt lat="45.42045" lon="5.31203">
        <ele>469.74</ele>
        <time>2011-02-13T08:13:01Z</time>
      </trkpt>
      <trkpt lat="45.42054" lon="5.31209">
        <ele>469.74</ele>
        <time>2011-02-13T08:13:04Z</time>
      </trkpt>
      <trkpt lat="45.42066" lon="5.31218">
        <ele>469.74</ele>
        <time>2011-02-13T08:13:07Z</time>
      </trkpt>
      <trkpt lat="45.42075" lon="5.31225">
        <ele>469.74</ele>
        <time>2011-02-13T08:13:09Z</time>
      </trkpt>
      <trkpt lat="45.42078" lon="5.3124">
        <ele>470.22</ele>
        <time>2011-02-13T08:13:12Z</time>
      </trkpt>
      <trkpt lat="45.42075" lon="5.31254">
        <ele>469.74</ele>
        <time>2011-02-13T08:13:14Z</time>
      </trkpt>
      <trkpt lat="45.42071" lon="5.31269">
        <ele>470.22</ele>
        <time>2011-02-13T08:13:16Z</time>
      </trkpt>
      <trkpt lat="45.42067" lon="5.31282">
        <ele>470.7</ele>
        <time>2011-02-13T08:13:18Z</time>
      </trkpt>
      <trkpt lat="45.42063" lon="5.31295">
        <ele>470.7</ele>
        <time>2011-02-13T08:13:20Z</time>
      </trkpt>
      <trkpt lat="45.4206" lon="5.31308">
        <ele>471.18</ele>
        <time>2011-02-13T08:13:22Z</time>
      </trkpt>
      <trkpt lat="45.42054" lon="5.31325">
        <ele>472.14</ele>
        <time>2011-02-13T08:13:25Z</time>
      </trkpt>
      <trkpt lat="45.4205" lon="5.3134">
        <ele>473.11</ele>
        <time>2011-02-13T08:13:28Z</time>
      </trkpt>
      <trkpt lat="45.42046" lon="5.31351">
        <ele>474.07</ele>
        <time>2011-02-13T08:13:31Z</time>
      </trkpt>
      <trkpt lat="45.4204" lon="5.31367">
        <ele>475.03</ele>
        <time>2011-02-13T08:13:35Z</time>
      </trkpt>
      <trkpt lat="45.42034" lon="5.31383">
        <ele>475.51</ele>
        <time>2011-02-13T08:13:38Z</time>
      </trkpt>
      <trkpt lat="45.42028" lon="5.31398">
        <ele>475.03</ele>
        <time>2011-02-13T08:13:41Z</time>
      </trkpt>
      <trkpt lat="45.42024" lon="5.31414">
        <ele>475.51</ele>
        <time>2011-02-13T08:13:44Z</time>
      </trkpt>
      <trkpt lat="45.42018" lon="5.31431">
        <ele>475.99</ele>
        <time>2011-02-13T08:13:47Z</time>
      </trkpt>
      <trkpt lat="45.42014" lon="5.31447">
        <ele>475.99</ele>
        <time>2011-02-13T08:13:50Z</time>
      </trkpt>
      <trkpt lat="45.42009" lon="5.31463">
        <ele>475.99</ele>
        <time>2011-02-13T08:13:53Z</time>
      </trkpt>
      <trkpt lat="45.42004" lon="5.3148">
        <ele>475.99</ele>
        <time>2011-02-13T08:13:56Z</time>
      </trkpt>
      <trkpt lat="45.41999" lon="5.31497">
        <ele>475.99</ele>
        <time>2011-02-13T08:13:59Z</time>
      </trkpt>
      <trkpt lat="45.41988" lon="5.31504">
        <ele>475.51</ele>
        <time>2011-02-13T08:14:02Z</time>
      </trkpt>
      <trkpt lat="45.41979" lon="5.31502">
        <ele>475.51</ele>
        <time>2011-02-13T08:14:04Z</time>
      </trkpt>
      <trkpt lat="45.41969" lon="5.315">
        <ele>474.07</ele>
        <time>2011-02-13T08:14:06Z</time>
      </trkpt>
      <trkpt lat="45.4196" lon="5.31496">
        <ele>473.59</ele>
        <time>2011-02-13T08:14:08Z</time>
      </trkpt>
      <trkpt lat="45.41951" lon="5.3149">
        <ele>473.11</ele>
        <time>2011-02-13T08:14:10Z</time>
      </trkpt>
      <trkpt lat="45.4194" lon="5.31479">
        <ele>472.63</ele>
        <time>2011-02-13T08:14:13Z</time>
      </trkpt>
      <trkpt lat="45.41933" lon="5.3147">
        <ele>472.14</ele>
        <time>2011-02-13T08:14:15Z</time>
      </trkpt>
      <trkpt lat="45.41927" lon="5.3146">
        <ele>471.66</ele>
        <time>2011-02-13T08:14:17Z</time>
      </trkpt>
      <trkpt lat="45.4192" lon="5.3145">
        <ele>471.18</ele>
        <time>2011-02-13T08:14:19Z</time>
      </trkpt>
      <trkpt lat="45.41912" lon="5.31441">
        <ele>471.66</ele>
        <time>2011-02-13T08:14:21Z</time>
      </trkpt>
      <trkpt lat="45.41904" lon="5.31434">
        <ele>470.7</ele>
        <time>2011-02-13T08:14:23Z</time>
      </trkpt>
      <trkpt lat="45.41892" lon="5.31433">
        <ele>471.18</ele>
        <time>2011-02-13T08:14:26Z</time>
      </trkpt>
      <trkpt lat="45.41882" lon="5.31437">
        <ele>471.18</ele>
        <time>2011-02-13T08:14:29Z</time>
      </trkpt>
      <trkpt lat="45.41872" lon="5.31442">
        <ele>470.7</ele>
        <time>2011-02-13T08:14:33Z</time>
      </trkpt>
      <trkpt lat="45.41863" lon="5.31446">
        <ele>472.14</ele>
        <time>2011-02-13T08:14:37Z</time>
      </trkpt>
      <trkpt lat="45.41852" lon="5.3145">
        <ele>473.59</ele>
        <time>2011-02-13T08:14:41Z</time>
      </trkpt>
      <trkpt lat="45.41842" lon="5.31454">
        <ele>474.07</ele>
        <time>2011-02-13T08:14:46Z</time>
      </trkpt>
      <trkpt lat="45.41832" lon="5.31458">
        <ele>475.51</ele>
        <time>2011-02-13T08:14:53Z</time>
      </trkpt>
      <trkpt lat="45.41823" lon="5.3146">
        <ele>478.39</ele>
        <time>2011-02-13T08:14:59Z</time>
      </trkpt>
      <trkpt lat="45.41813" lon="5.31462">
        <ele>480.32</ele>
        <time>2011-02-13T08:15:06Z</time>
      </trkpt>
      <trkpt lat="45.41803" lon="5.31464">
        <ele>482.72</ele>
        <time>2011-02-13T08:15:13Z</time>
      </trkpt>
      <trkpt lat="45.41793" lon="5.31467">
        <ele>484.16</ele>
        <time>2011-02-13T08:15:20Z</time>
      </trkpt>
      <trkpt lat="45.41784" lon="5.31468">
        <ele>486.08</ele>
        <time>2011-02-13T08:15:27Z</time>
      </trkpt>
      <trkpt lat="45.41775" lon="5.31467">
        <ele>487.53</ele>
        <time>2011-02-13T08:15:34Z</time>
      </trkpt>
      <trkpt lat="45.4177" lon="5.31452">
        <ele>487.53</ele>
        <time>2011-02-13T08:15:40Z</time>
      </trkpt>
      <trkpt lat="45.41768" lon="5.31438">
        <ele>488.49</ele>
        <time>2011-02-13T08:15:45Z</time>
      </trkpt>
      <trkpt lat="45.41764" lon="5.31424">
        <ele>488.49</ele>
        <time>2011-02-13T08:15:50Z</time>
      </trkpt>
      <trkpt lat="45.41762" lon="5.3141">
        <ele>488.97</ele>
        <time>2011-02-13T08:15:54Z</time>
      </trkpt>
      <trkpt lat="45.4176" lon="5.31393">
        <ele>488.97</ele>
        <time>2011-02-13T08:15:58Z</time>
      </trkpt>
      <trkpt lat="45.41759" lon="5.31375">
        <ele>488.97</ele>
        <time>2011-02-13T08:16:02Z</time>
      </trkpt>
      <trkpt lat="45.41759" lon="5.31359">
        <ele>488.97</ele>
        <time>2011-02-13T08:16:06Z</time>
      </trkpt>
      <trkpt lat="45.41762" lon="5.31344">
        <ele>489.93</ele>
        <time>2011-02-13T08:16:10Z</time>
      </trkpt>
      <trkpt lat="45.41763" lon="5.3133">
        <ele>489.93</ele>
        <time>2011-02-13T08:16:14Z</time>
      </trkpt>
      <trkpt lat="45.41764" lon="5.31316">
        <ele>489.93</ele>
        <time>2011-02-13T08:16:18Z</time>
      </trkpt>
      <trkpt lat="45.41765" lon="5.31302">
        <ele>491.85</ele>
        <time>2011-02-13T08:16:23Z</time>
      </trkpt>
      <trkpt lat="45.41764" lon="5.31286">
        <ele>493.77</ele>
        <time>2011-02-13T08:16:28Z</time>
      </trkpt>
      <trkpt lat="45.41764" lon="5.31271">
        <ele>494.26</ele>
        <time>2011-02-13T08:16:33Z</time>
      </trkpt>
      <trkpt lat="45.41764" lon="5.31256">
        <ele>495.7</ele>
        <time>2011-02-13T08:16:38Z</time>
      </trkpt>
      <trkpt lat="45.41766" lon="5.31243">
        <ele>497.14</ele>
        <time>2011-02-13T08:16:43Z</time>
      </trkpt>
      <trkpt lat="45.41766" lon="5.31228">
        <ele>499.06</ele>
        <time>2011-02-13T08:16:49Z</time>
      </trkpt>
      <trkpt lat="45.41768" lon="5.31214">
        <ele>500.02</ele>
        <time>2011-02-13T08:16:55Z</time>
      </trkpt>
      <trkpt lat="45.41769" lon="5.31198">
        <ele>501.46</ele>
        <time>2011-02-13T08:17:02Z</time>
      </trkpt>
      <trkpt lat="45.41771" lon="5.31183">
        <ele>502.91</ele>
        <time>2011-02-13T08:17:09Z</time>
      </trkpt>
      <trkpt lat="45.41774" lon="5.31167">
        <ele>503.87</ele>
        <time>2011-02-13T08:17:16Z</time>
      </trkpt>
      <trkpt lat="45.41775" lon="5.31152">
        <ele>504.83</ele>
        <time>2011-02-13T08:17:22Z</time>
      </trkpt>
      <trkpt lat="45.41777" lon="5.31137">
        <ele>505.79</ele>
        <time>2011-02-13T08:17:28Z</time>
      </trkpt>
      <trkpt lat="45.41776" lon="5.31124">
        <ele>506.75</ele>
        <time>2011-02-13T08:17:34Z</time>
      </trkpt>
      <trkpt lat="45.41777" lon="5.31109">
        <ele>508.67</ele>
        <time>2011-02-13T08:17:41Z</time>
      </trkpt>
      <trkpt lat="45.41779" lon="5.31092">
        <ele>510.6</ele>
        <time>2011-02-13T08:17:48Z</time>
      </trkpt>
      <trkpt lat="45.41783" lon="5.31075">
        <ele>511.56</ele>
        <time>2011-02-13T08:17:54Z</time>
      </trkpt>
      <trkpt lat="45.41788" lon="5.31061">
        <ele>512.04</ele>
        <time>2011-02-13T08:18:00Z</time>
      </trkpt>
      <trkpt lat="45.41792" lon="5.31047">
        <ele>513.48</ele>
        <time>2011-02-13T08:18:07Z</time>
      </trkpt>
      <trkpt lat="45.41795" lon="5.3103">
        <ele>513.96</ele>
        <time>2011-02-13T08:18:15Z</time>
      </trkpt>
      <trkpt lat="45.41801" lon="5.31014">
        <ele>515.4</ele>
        <time>2011-02-13T08:18:22Z</time>
      </trkpt>
      <trkpt lat="45.41805" lon="5.31002">
        <ele>515.88</ele>
        <time>2011-02-13T08:18:27Z</time>
      </trkpt>
      <trkpt lat="45.41808" lon="5.30988">
        <ele>516.85</ele>
        <time>2011-02-13T08:18:33Z</time>
      </trkpt>
      <trkpt lat="45.41812" lon="5.30971">
        <ele>517.33</ele>
        <time>2011-02-13T08:18:40Z</time>
      </trkpt>
      <trkpt lat="45.41816" lon="5.30956">
        <ele>518.77</ele>
        <time>2011-02-13T08:18:46Z</time>
      </trkpt>
      <trkpt lat="45.41819" lon="5.30941">
        <ele>519.25</ele>
        <time>2011-02-13T08:18:51Z</time>
      </trkpt>
      <trkpt lat="45.41823" lon="5.30925">
        <ele>519.73</ele>
        <time>2011-02-13T08:18:56Z</time>
      </trkpt>
      <trkpt lat="45.41826" lon="5.30911">
        <ele>519.73</ele>
        <time>2011-02-13T08:19:00Z</time>
      </trkpt>
      <trkpt lat="45.41831" lon="5.30895">
        <ele>520.21</ele>
        <time>2011-02-13T08:19:05Z</time>
      </trkpt>
      <trkpt lat="45.41835" lon="5.3088">
        <ele>519.73</ele>
        <time>2011-02-13T08:19:09Z</time>
      </trkpt>
      <trkpt lat="45.41839" lon="5.30865">
        <ele>520.21</ele>
        <time>2011-02-13T08:19:13Z</time>
      </trkpt>
      <trkpt lat="45.41843" lon="5.30849">
        <ele>520.69</ele>
        <time>2011-02-13T08:19:17Z</time>
      </trkpt>
      <trkpt lat="45.41847" lon="5.30835">
        <ele>521.17</ele>
        <time>2011-02-13T08:19:21Z</time>
      </trkpt>
      <trkpt lat="45.41851" lon="5.3082">
        <ele>521.65</ele>
        <time>2011-02-13T08:19:25Z</time>
      </trkpt>
      <trkpt lat="45.41854" lon="5.30806">
        <ele>522.13</ele>
        <time>2011-02-13T08:19:29Z</time>
      </trkpt>
      <trkpt lat="45.41858" lon="5.30791">
        <ele>523.09</ele>
        <time>2011-02-13T08:19:33Z</time>
      </trkpt>
      <trkpt lat="45.4186" lon="5.30776">
        <ele>523.58</ele>
        <time>2011-02-13T08:19:37Z</time>
      </trkpt>
      <trkpt lat="45.41861" lon="5.30761">
        <ele>524.06</ele>
        <time>2011-02-13T08:19:41Z</time>
      </trkpt>
      <trkpt lat="45.41861" lon="5.30747">
        <ele>524.54</ele>
        <time>2011-02-13T08:19:45Z</time>
      </trkpt>
      <trkpt lat="45.41863" lon="5.30732">
        <ele>525.02</ele>
        <time>2011-02-13T08:19:50Z</time>
      </trkpt>
      <trkpt lat="45.41863" lon="5.30719">
        <ele>524.54</ele>
        <time>2011-02-13T08:19:55Z</time>
      </trkpt>
      <trkpt lat="45.41853" lon="5.30706">
        <ele>523.09</ele>
        <time>2011-02-13T08:19:59Z</time>
      </trkpt>
      <trkpt lat="45.41842" lon="5.30694">
        <ele>520.69</ele>
        <time>2011-02-13T08:20:01Z</time>
      </trkpt>
      <trkpt lat="45.41827" lon="5.30674">
        <ele>519.25</ele>
        <time>2011-02-13T08:20:03Z</time>
      </trkpt>
      <trkpt lat="45.41818" lon="5.30665">
        <ele>517.81</ele>
        <time>2011-02-13T08:20:04Z</time>
      </trkpt>
      <trkpt lat="45.41809" lon="5.30656">
        <ele>517.33</ele>
        <time>2011-02-13T08:20:05Z</time>
      </trkpt>
      <trkpt lat="45.41799" lon="5.30647">
        <ele>515.4</ele>
        <time>2011-02-13T08:20:06Z</time>
      </trkpt>
      <trkpt lat="45.4179" lon="5.30638">
        <ele>513.96</ele>
        <time>2011-02-13T08:20:07Z</time>
      </trkpt>
      <trkpt lat="45.41781" lon="5.30628">
        <ele>512.04</ele>
        <time>2011-02-13T08:20:08Z</time>
      </trkpt>
      <trkpt lat="45.41773" lon="5.30618">
        <ele>513.48</ele>
        <time>2011-02-13T08:20:09Z</time>
      </trkpt>
      <trkpt lat="45.41766" lon="5.30608">
        <ele>512.52</ele>
        <time>2011-02-13T08:20:10Z</time>
      </trkpt>
      <trkpt lat="45.41758" lon="5.30599">
        <ele>513</ele>
        <time>2011-02-13T08:20:11Z</time>
      </trkpt>
      <trkpt lat="45.41748" lon="5.30585">
        <ele>514.44</ele>
        <time>2011-02-13T08:20:13Z</time>
      </trkpt>
      <trkpt lat="45.41742" lon="5.30573">
        <ele>516.37</ele>
        <time>2011-02-13T08:20:16Z</time>
      </trkpt>
      <trkpt lat="45.41738" lon="5.30559">
        <ele>518.29</ele>
        <time>2011-02-13T08:20:21Z</time>
      </trkpt>
      <trkpt lat="45.41734" lon="5.30545">
        <ele>520.21</ele>
        <time>2011-02-13T08:20:27Z</time>
      </trkpt>
      <trkpt lat="45.41729" lon="5.30533">
        <ele>521.65</ele>
        <time>2011-02-13T08:20:34Z</time>
      </trkpt>
      <trkpt lat="45.41722" lon="5.30526">
        <ele>522.61</ele>
        <time>2011-02-13T08:20:44Z</time>
      </trkpt>
      <trkpt lat="45.41715" lon="5.30532">
        <ele>525.02</ele>
        <time>2011-02-13T08:20:53Z</time>
      </trkpt>
      <trkpt lat="45.41705" lon="5.30537">
        <ele>528.38</ele>
        <time>2011-02-13T08:21:02Z</time>
      </trkpt>
      <trkpt lat="45.417" lon="5.30544">
        <ele>533.19</ele>
        <time>2011-02-13T08:21:13Z</time>
      </trkpt>
      <trkpt lat="45.41695" lon="5.3055">
        <ele>536.07</ele>
        <time>2011-02-13T08:21:24Z</time>
      </trkpt>
      <trkpt lat="45.41687" lon="5.30563">
        <ele>538.48</ele>
        <time>2011-02-13T08:21:58Z</time>
      </trkpt>
      <trkpt lat="45.41687" lon="5.30563">
        <ele>542.32</ele>
        <time>2011-02-13T08:22:25Z</time>
      </trkpt>
      <trkpt lat="45.41673" lon="5.30577">
        <ele>544.72</ele>
        <time>2011-02-13T08:22:42Z</time>
      </trkpt>
      <trkpt lat="45.4166" lon="5.30586">
        <ele>547.13</ele>
        <time>2011-02-13T08:22:56Z</time>
      </trkpt>
      <trkpt lat="45.4166" lon="5.30586">
        <ele>549.53</ele>
        <time>2011-02-13T08:23:16Z</time>
      </trkpt>
      <trkpt lat="45.4166" lon="5.30586">
        <ele>552.41</ele>
        <time>2011-02-13T08:23:34Z</time>
      </trkpt>
      <trkpt lat="45.41643" lon="5.30593">
        <ele>555.3</ele>
        <time>2011-02-13T08:23:57Z</time>
      </trkpt>
      <trkpt lat="45.41626" lon="5.30604">
        <ele>557.22</ele>
        <time>2011-02-13T08:24:12Z</time>
      </trkpt>
      <trkpt lat="45.41613" lon="5.30608">
        <ele>560.59</ele>
        <time>2011-02-13T08:24:25Z</time>
      </trkpt>
      <trkpt lat="45.41602" lon="5.30613">
        <ele>562.99</ele>
        <time>2011-02-13T08:24:39Z</time>
      </trkpt>
      <trkpt lat="45.41593" lon="5.30619">
        <ele>565.87</ele>
        <time>2011-02-13T08:25:11Z</time>
      </trkpt>
      <trkpt lat="45.41583" lon="5.30627">
        <ele>568.28</ele>
        <time>2011-02-13T08:25:18Z</time>
      </trkpt>
      <trkpt lat="45.41575" lon="5.30635">
        <ele>570.2</ele>
        <time>2011-02-13T08:25:25Z</time>
      </trkpt>
      <trkpt lat="45.41567" lon="5.30641">
        <ele>573.08</ele>
        <time>2011-02-13T08:25:33Z</time>
      </trkpt>
      <trkpt lat="45.41557" lon="5.30647">
        <ele>575.01</ele>
        <time>2011-02-13T08:25:42Z</time>
      </trkpt>
      <trkpt lat="45.41549" lon="5.30657">
        <ele>576.93</ele>
        <time>2011-02-13T08:25:51Z</time>
      </trkpt>
      <trkpt lat="45.41542" lon="5.30667">
        <ele>578.85</ele>
        <time>2011-02-13T08:26:00Z</time>
      </trkpt>
      <trkpt lat="45.41534" lon="5.30678">
        <ele>580.77</ele>
        <time>2011-02-13T08:26:09Z</time>
      </trkpt>
      <trkpt lat="45.41526" lon="5.30685">
        <ele>582.7</ele>
        <time>2011-02-13T08:26:18Z</time>
      </trkpt>
      <trkpt lat="45.41516" lon="5.30689">
        <ele>584.14</ele>
        <time>2011-02-13T08:26:27Z</time>
      </trkpt>
      <trkpt lat="45.41506" lon="5.30694">
        <ele>586.54</ele>
        <time>2011-02-13T08:26:35Z</time>
      </trkpt>
      <trkpt lat="45.41497" lon="5.30695">
        <ele>588.46</ele>
        <time>2011-02-13T08:26:45Z</time>
      </trkpt>
      <trkpt lat="45.41488" lon="5.30698">
        <ele>589.43</ele>
        <time>2011-02-13T08:26:55Z</time>
      </trkpt>
      <trkpt lat="45.41479" lon="5.30698">
        <ele>590.87</ele>
        <time>2011-02-13T08:27:03Z</time>
      </trkpt>
      <trkpt lat="45.41468" lon="5.30697">
        <ele>592.79</ele>
        <time>2011-02-13T08:27:12Z</time>
      </trkpt>
      <trkpt lat="45.41458" lon="5.30701">
        <ele>594.71</ele>
        <time>2011-02-13T08:27:21Z</time>
      </trkpt>
      <trkpt lat="45.41447" lon="5.30706">
        <ele>596.15</ele>
        <time>2011-02-13T08:27:30Z</time>
      </trkpt>
      <trkpt lat="45.41437" lon="5.30711">
        <ele>598.08</ele>
        <time>2011-02-13T08:27:40Z</time>
      </trkpt>
      <trkpt lat="45.41428" lon="5.3072">
        <ele>600.48</ele>
        <time>2011-02-13T08:27:54Z</time>
      </trkpt>
      <trkpt lat="45.41418" lon="5.30728">
        <ele>600.96</ele>
        <time>2011-02-13T08:28:01Z</time>
      </trkpt>
      <trkpt lat="45.41409" lon="5.30738">
        <ele>601.92</ele>
        <time>2011-02-13T08:28:07Z</time>
      </trkpt>
      <trkpt lat="45.41404" lon="5.3075">
        <ele>602.4</ele>
        <time>2011-02-13T08:28:13Z</time>
      </trkpt>
      <trkpt lat="45.41398" lon="5.30763">
        <ele>603.36</ele>
        <time>2011-02-13T08:28:19Z</time>
      </trkpt>
      <trkpt lat="45.41394" lon="5.30777">
        <ele>602.88</ele>
        <time>2011-02-13T08:28:25Z</time>
      </trkpt>
      <trkpt lat="45.41391" lon="5.30794">
        <ele>603.85</ele>
        <time>2011-02-13T08:28:31Z</time>
      </trkpt>
      <trkpt lat="45.41387" lon="5.30808">
        <ele>604.33</ele>
        <time>2011-02-13T08:28:35Z</time>
      </trkpt>
      <trkpt lat="45.41383" lon="5.30822">
        <ele>604.33</ele>
        <time>2011-02-13T08:28:39Z</time>
      </trkpt>
      <trkpt lat="45.41383" lon="5.30838">
        <ele>604.33</ele>
        <time>2011-02-13T08:28:43Z</time>
      </trkpt>
      <trkpt lat="45.41381" lon="5.30853">
        <ele>604.81</ele>
        <time>2011-02-13T08:28:47Z</time>
      </trkpt>
      <trkpt lat="45.41379" lon="5.30867">
        <ele>604.81</ele>
        <time>2011-02-13T08:28:51Z</time>
      </trkpt>
      <trkpt lat="45.41378" lon="5.30883">
        <ele>605.29</ele>
        <time>2011-02-13T08:28:56Z</time>
      </trkpt>
      <trkpt lat="45.41378" lon="5.30899">
        <ele>605.77</ele>
        <time>2011-02-13T08:29:01Z</time>
      </trkpt>
      <trkpt lat="45.41375" lon="5.30913">
        <ele>605.77</ele>
        <time>2011-02-13T08:29:06Z</time>
      </trkpt>
      <trkpt lat="45.41371" lon="5.30929">
        <ele>606.73</ele>
        <time>2011-02-13T08:29:12Z</time>
      </trkpt>
      <trkpt lat="45.41367" lon="5.30943">
        <ele>607.21</ele>
        <time>2011-02-13T08:29:18Z</time>
      </trkpt>
      <trkpt lat="45.41361" lon="5.30958">
        <ele>608.17</ele>
        <time>2011-02-13T08:29:24Z</time>
      </trkpt>
      <trkpt lat="45.41356" lon="5.3097">
        <ele>608.65</ele>
        <time>2011-02-13T08:29:30Z</time>
      </trkpt>
      <trkpt lat="45.4135" lon="5.30982">
        <ele>608.65</ele>
        <time>2011-02-13T08:29:37Z</time>
      </trkpt>
      <trkpt lat="45.41344" lon="5.30981">
        <ele>608.65</ele>
        <time>2011-02-13T08:35:09Z</time>
      </trkpt>
      <trkpt lat="45.41331" lon="5.30984">
        <ele>608.17</ele>
        <time>2011-02-13T08:35:14Z</time>
      </trkpt>
      <trkpt lat="45.41318" lon="5.30983">
        <ele>608.17</ele>
        <time>2011-02-13T08:35:18Z</time>
      </trkpt>
      <trkpt lat="45.41307" lon="5.30986">
        <ele>607.69</ele>
        <time>2011-02-13T08:35:22Z</time>
      </trkpt>
      <trkpt lat="45.41295" lon="5.30992">
        <ele>605.77</ele>
        <time>2011-02-13T08:35:26Z</time>
      </trkpt>
      <trkpt lat="45.41286" lon="5.31">
        <ele>606.25</ele>
        <time>2011-02-13T08:35:29Z</time>
      </trkpt>
      <trkpt lat="45.41278" lon="5.31009">
        <ele>605.77</ele>
        <time>2011-02-13T08:35:32Z</time>
      </trkpt>
      <trkpt lat="45.4127" lon="5.31019">
        <ele>606.25</ele>
        <time>2011-02-13T08:35:35Z</time>
      </trkpt>
      <trkpt lat="45.41262" lon="5.3103">
        <ele>604.81</ele>
        <time>2011-02-13T08:35:38Z</time>
      </trkpt>
      <trkpt lat="45.41252" lon="5.31041">
        <ele>605.29</ele>
        <time>2011-02-13T08:35:41Z</time>
      </trkpt>
      <trkpt lat="45.41241" lon="5.31051">
        <ele>605.77</ele>
        <time>2011-02-13T08:35:44Z</time>
      </trkpt>
      <trkpt lat="45.4123" lon="5.31063">
        <ele>605.77</ele>
        <time>2011-02-13T08:35:47Z</time>
      </trkpt>
      <trkpt lat="45.4122" lon="5.31076">
        <ele>605.77</ele>
        <time>2011-02-13T08:35:50Z</time>
      </trkpt>
      <trkpt lat="45.41212" lon="5.31091">
        <ele>606.25</ele>
        <time>2011-02-13T08:35:53Z</time>
      </trkpt>
      <trkpt lat="45.41204" lon="5.31107">
        <ele>606.73</ele>
        <time>2011-02-13T08:35:56Z</time>
      </trkpt>
      <trkpt lat="45.41196" lon="5.31117">
        <ele>607.21</ele>
        <time>2011-02-13T08:35:59Z</time>
      </trkpt>
      <trkpt lat="45.41188" lon="5.3113">
        <ele>607.21</ele>
        <time>2011-02-13T08:36:02Z</time>
      </trkpt>
      <trkpt lat="45.41179" lon="5.31145">
        <ele>607.69</ele>
        <time>2011-02-13T08:36:05Z</time>
      </trkpt>
      <trkpt lat="45.41172" lon="5.31157">
        <ele>609.13</ele>
        <time>2011-02-13T08:36:08Z</time>
      </trkpt>
      <trkpt lat="45.41164" lon="5.31168">
        <ele>609.13</ele>
        <time>2011-02-13T08:36:12Z</time>
      </trkpt>
      <trkpt lat="45.41152" lon="5.31169">
        <ele>609.13</ele>
        <time>2011-02-13T08:36:17Z</time>
      </trkpt>
      <trkpt lat="45.41142" lon="5.31157">
        <ele>610.57</ele>
        <time>2011-02-13T08:36:22Z</time>
      </trkpt>
      <trkpt lat="45.4113" lon="5.31147">
        <ele>611.54</ele>
        <time>2011-02-13T08:36:29Z</time>
      </trkpt>
      <trkpt lat="45.41119" lon="5.3114">
        <ele>612.02</ele>
        <time>2011-02-13T08:36:36Z</time>
      </trkpt>
      <trkpt lat="45.41109" lon="5.31131">
        <ele>612.98</ele>
        <time>2011-02-13T08:36:41Z</time>
      </trkpt>
      <trkpt lat="45.411" lon="5.31121">
        <ele>613.46</ele>
        <time>2011-02-13T08:36:47Z</time>
      </trkpt>
      <trkpt lat="45.41091" lon="5.31111">
        <ele>614.9</ele>
        <time>2011-02-13T08:36:54Z</time>
      </trkpt>
      <trkpt lat="45.41082" lon="5.31103">
        <ele>615.86</ele>
        <time>2011-02-13T08:37:00Z</time>
      </trkpt>
      <trkpt lat="45.41069" lon="5.31097">
        <ele>616.34</ele>
        <time>2011-02-13T08:37:07Z</time>
      </trkpt>
      <trkpt lat="45.41056" lon="5.31094">
        <ele>617.78</ele>
        <time>2011-02-13T08:37:14Z</time>
      </trkpt>
      <trkpt lat="45.41043" lon="5.31091">
        <ele>619.23</ele>
        <time>2011-02-13T08:37:20Z</time>
      </trkpt>
      <trkpt lat="45.41031" lon="5.31087">
        <ele>620.67</ele>
        <time>2011-02-13T08:37:26Z</time>
      </trkpt>
      <trkpt lat="45.4102" lon="5.31085">
        <ele>621.63</ele>
        <time>2011-02-13T08:37:32Z</time>
      </trkpt>
      <trkpt lat="45.41008" lon="5.31083">
        <ele>623.07</ele>
        <time>2011-02-13T08:37:38Z</time>
      </trkpt>
      <trkpt lat="45.40997" lon="5.3108">
        <ele>624.51</ele>
        <time>2011-02-13T08:37:44Z</time>
      </trkpt>
      <trkpt lat="45.40986" lon="5.31079">
        <ele>625.96</ele>
        <time>2011-02-13T08:37:50Z</time>
      </trkpt>
      <trkpt lat="45.40975" lon="5.31077">
        <ele>626.44</ele>
        <time>2011-02-13T08:37:56Z</time>
      </trkpt>
      <trkpt lat="45.40963" lon="5.31076">
        <ele>627.4</ele>
        <time>2011-02-13T08:38:02Z</time>
      </trkpt>
      <trkpt lat="45.40951" lon="5.31075">
        <ele>627.4</ele>
        <time>2011-02-13T08:38:08Z</time>
      </trkpt>
      <trkpt lat="45.4094" lon="5.31075">
        <ele>628.36</ele>
        <time>2011-02-13T08:38:13Z</time>
      </trkpt>
      <trkpt lat="45.40929" lon="5.31078">
        <ele>628.36</ele>
        <time>2011-02-13T08:38:18Z</time>
      </trkpt>
      <trkpt lat="45.40918" lon="5.3108">
        <ele>628.36</ele>
        <time>2011-02-13T08:38:23Z</time>
      </trkpt>
      <trkpt lat="45.40908" lon="5.31082">
        <ele>629.32</ele>
        <time>2011-02-13T08:38:28Z</time>
      </trkpt>
      <trkpt lat="45.40896" lon="5.31085">
        <ele>628.84</ele>
        <time>2011-02-13T08:38:32Z</time>
      </trkpt>
      <trkpt lat="45.40885" lon="5.31087">
        <ele>628.84</ele>
        <time>2011-02-13T08:38:35Z</time>
      </trkpt>
      <trkpt lat="45.40873" lon="5.31093">
        <ele>627.88</ele>
        <time>2011-02-13T08:38:38Z</time>
      </trkpt>
      <trkpt lat="45.40864" lon="5.31098">
        <ele>627.4</ele>
        <time>2011-02-13T08:38:40Z</time>
      </trkpt>
      <trkpt lat="45.40855" lon="5.31105">
        <ele>626.44</ele>
        <time>2011-02-13T08:38:42Z</time>
      </trkpt>
      <trkpt lat="45.40844" lon="5.31115">
        <ele>625.47</ele>
        <time>2011-02-13T08:38:44Z</time>
      </trkpt>
      <trkpt lat="45.40836" lon="5.31124">
        <ele>625.47</ele>
        <time>2011-02-13T08:38:46Z</time>
      </trkpt>
      <trkpt lat="45.40824" lon="5.31127">
        <ele>626.44</ele>
        <time>2011-02-13T08:38:49Z</time>
      </trkpt>
      <trkpt lat="45.40815" lon="5.31124">
        <ele>627.4</ele>
        <time>2011-02-13T08:38:52Z</time>
      </trkpt>
      <trkpt lat="45.40805" lon="5.31118">
        <ele>627.88</ele>
        <time>2011-02-13T08:38:56Z</time>
      </trkpt>
      <trkpt lat="45.40797" lon="5.31109">
        <ele>627.88</ele>
        <time>2011-02-13T08:39:00Z</time>
      </trkpt>
      <trkpt lat="45.4079" lon="5.31101">
        <ele>628.84</ele>
        <time>2011-02-13T08:39:04Z</time>
      </trkpt>
      <trkpt lat="45.40783" lon="5.31092">
        <ele>628.36</ele>
        <time>2011-02-13T08:39:08Z</time>
      </trkpt>
      <trkpt lat="45.40776" lon="5.31081">
        <ele>628.36</ele>
        <time>2011-02-13T08:39:12Z</time>
      </trkpt>
      <trkpt lat="45.40771" lon="5.31066">
        <ele>627.4</ele>
        <time>2011-02-13T08:39:16Z</time>
      </trkpt>
      <trkpt lat="45.40768" lon="5.31052">
        <ele>627.88</ele>
        <time>2011-02-13T08:39:19Z</time>
      </trkpt>
      <trkpt lat="45.40766" lon="5.31038">
        <ele>627.4</ele>
        <time>2011-02-13T08:39:22Z</time>
      </trkpt>
      <trkpt lat="45.40764" lon="5.31024">
        <ele>626.92</ele>
        <time>2011-02-13T08:39:25Z</time>
      </trkpt>
      <trkpt lat="45.40763" lon="5.31011">
        <ele>627.4</ele>
        <time>2011-02-13T08:39:28Z</time>
      </trkpt>
      <trkpt lat="45.40762" lon="5.30996">
        <ele>626.92</ele>
        <time>2011-02-13T08:39:32Z</time>
      </trkpt>
      <trkpt lat="45.40762" lon="5.30987">
        <ele>627.88</ele>
        <time>2011-02-13T08:39:41Z</time>
      </trkpt>
      <trkpt lat="45.40763" lon="5.31001">
        <ele>626.92</ele>
        <time>2011-02-13T08:39:48Z</time>
      </trkpt>
      <trkpt lat="45.40773" lon="5.31006">
        <ele>626.92</ele>
        <time>2011-02-13T08:39:55Z</time>
      </trkpt>
      <trkpt lat="45.40789" lon="5.30997">
        <ele>624.03</ele>
        <time>2011-02-13T08:40:01Z</time>
      </trkpt>
      <trkpt lat="45.40803" lon="5.30984">
        <ele>622.11</ele>
        <time>2011-02-13T08:40:06Z</time>
      </trkpt>
      <trkpt lat="45.40813" lon="5.30969">
        <ele>619.23</ele>
        <time>2011-02-13T08:40:10Z</time>
      </trkpt>
      <trkpt lat="45.40822" lon="5.30956">
        <ele>616.34</ele>
        <time>2011-02-13T08:40:14Z</time>
      </trkpt>
      <trkpt lat="45.40827" lon="5.30943">
        <ele>612.5</ele>
        <time>2011-02-13T08:40:19Z</time>
      </trkpt>
      <trkpt lat="45.40831" lon="5.30926">
        <ele>610.09</ele>
        <time>2011-02-13T08:40:24Z</time>
      </trkpt>
      <trkpt lat="45.40833" lon="5.30908">
        <ele>608.17</ele>
        <time>2011-02-13T08:40:27Z</time>
      </trkpt>
      <trkpt lat="45.40834" lon="5.3088">
        <ele>607.69</ele>
        <time>2011-02-13T08:40:32Z</time>
      </trkpt>
      <trkpt lat="45.40835" lon="5.30814">
        <ele>607.21</ele>
        <time>2011-02-13T08:40:35Z</time>
      </trkpt>
      <trkpt lat="45.40834" lon="5.30789">
        <ele>608.17</ele>
        <time>2011-02-13T08:40:38Z</time>
      </trkpt>
      <trkpt lat="45.40834" lon="5.30771">
        <ele>609.13</ele>
        <time>2011-02-13T08:40:42Z</time>
      </trkpt>
      <trkpt lat="45.40834" lon="5.30756">
        <ele>609.13</ele>
        <time>2011-02-13T08:40:46Z</time>
      </trkpt>
      <trkpt lat="45.40838" lon="5.30741">
        <ele>610.57</ele>
        <time>2011-02-13T08:40:51Z</time>
      </trkpt>
      <trkpt lat="45.4084" lon="5.30727">
        <ele>612.98</ele>
        <time>2011-02-13T08:40:57Z</time>
      </trkpt>
      <trkpt lat="45.40842" lon="5.30712">
        <ele>613.94</ele>
        <time>2011-02-13T08:41:04Z</time>
      </trkpt>
      <trkpt lat="45.40842" lon="5.30696">
        <ele>615.86</ele>
        <time>2011-02-13T08:41:11Z</time>
      </trkpt>
      <trkpt lat="45.40839" lon="5.30683">
        <ele>617.3</ele>
        <time>2011-02-13T08:41:18Z</time>
      </trkpt>
      <trkpt lat="45.40833" lon="5.30671">
        <ele>619.71</ele>
        <time>2011-02-13T08:41:26Z</time>
      </trkpt>
      <trkpt lat="45.40827" lon="5.3066">
        <ele>620.67</ele>
        <time>2011-02-13T08:41:33Z</time>
      </trkpt>
      <trkpt lat="45.40821" lon="5.30648">
        <ele>621.15</ele>
        <time>2011-02-13T08:41:40Z</time>
      </trkpt>
      <trkpt lat="45.40817" lon="5.30633">
        <ele>622.11</ele>
        <time>2011-02-13T08:41:47Z</time>
      </trkpt>
      <trkpt lat="45.40817" lon="5.30617">
        <ele>621.63</ele>
        <time>2011-02-13T08:41:52Z</time>
      </trkpt>
      <trkpt lat="45.40819" lon="5.30601">
        <ele>622.11</ele>
        <time>2011-02-13T08:41:56Z</time>
      </trkpt>
      <trkpt lat="45.40819" lon="5.30586">
        <ele>622.11</ele>
        <time>2011-02-13T08:42:00Z</time>
      </trkpt>
      <trkpt lat="45.40817" lon="5.30568">
        <ele>621.63</ele>
        <time>2011-02-13T08:42:04Z</time>
      </trkpt>
      <trkpt lat="45.40816" lon="5.30553">
        <ele>622.11</ele>
        <time>2011-02-13T08:42:07Z</time>
      </trkpt>
      <trkpt lat="45.40817" lon="5.30538">
        <ele>621.63</ele>
        <time>2011-02-13T08:42:10Z</time>
      </trkpt>
      <trkpt lat="45.40817" lon="5.30522">
        <ele>621.63</ele>
        <time>2011-02-13T08:42:13Z</time>
      </trkpt>
      <trkpt lat="45.40817" lon="5.30505">
        <ele>621.15</ele>
        <time>2011-02-13T08:42:16Z</time>
      </trkpt>
      <trkpt lat="45.40817" lon="5.3049">
        <ele>620.67</ele>
        <time>2011-02-13T08:42:19Z</time>
      </trkpt>
      <trkpt lat="45.40818" lon="5.30475">
        <ele>620.19</ele>
        <time>2011-02-13T08:42:22Z</time>
      </trkpt>
      <trkpt lat="45.40818" lon="5.30458">
        <ele>619.71</ele>
        <time>2011-02-13T08:42:25Z</time>
      </trkpt>
      <trkpt lat="45.40818" lon="5.30441">
        <ele>620.19</ele>
        <time>2011-02-13T08:42:28Z</time>
      </trkpt>
      <trkpt lat="45.40817" lon="5.30423">
        <ele>619.71</ele>
        <time>2011-02-13T08:42:31Z</time>
      </trkpt>
      <trkpt lat="45.40816" lon="5.3041">
        <ele>619.23</ele>
        <time>2011-02-13T08:42:33Z</time>
      </trkpt>
      <trkpt lat="45.40816" lon="5.30397">
        <ele>619.23</ele>
        <time>2011-02-13T08:42:35Z</time>
      </trkpt>
      <trkpt lat="45.40815" lon="5.30383">
        <ele>618.75</ele>
        <time>2011-02-13T08:42:37Z</time>
      </trkpt>
      <trkpt lat="45.40815" lon="5.30369">
        <ele>618.26</ele>
        <time>2011-02-13T08:42:39Z</time>
      </trkpt>
      <trkpt lat="45.40813" lon="5.30354">
        <ele>618.75</ele>
        <time>2011-02-13T08:42:41Z</time>
      </trkpt>
      <trkpt lat="45.40812" lon="5.30339">
        <ele>618.26</ele>
        <time>2011-02-13T08:42:43Z</time>
      </trkpt>
      <trkpt lat="45.40811" lon="5.30323">
        <ele>617.3</ele>
        <time>2011-02-13T08:42:45Z</time>
      </trkpt>
      <trkpt lat="45.4081" lon="5.30308">
        <ele>616.34</ele>
        <time>2011-02-13T08:42:47Z</time>
      </trkpt>
      <trkpt lat="45.40809" lon="5.30293">
        <ele>616.34</ele>
        <time>2011-02-13T08:42:49Z</time>
      </trkpt>
      <trkpt lat="45.40808" lon="5.30277">
        <ele>616.82</ele>
        <time>2011-02-13T08:42:51Z</time>
      </trkpt>
      <trkpt lat="45.40807" lon="5.30261">
        <ele>616.34</ele>
        <time>2011-02-13T08:42:53Z</time>
      </trkpt>
      <trkpt lat="45.40805" lon="5.30244">
        <ele>615.86</ele>
        <time>2011-02-13T08:42:55Z</time>
      </trkpt>
      <trkpt lat="45.40805" lon="5.30228">
        <ele>615.86</ele>
        <time>2011-02-13T08:42:57Z</time>
      </trkpt>
      <trkpt lat="45.40804" lon="5.30212">
        <ele>614.9</ele>
        <time>2011-02-13T08:42:59Z</time>
      </trkpt>
      <trkpt lat="45.40803" lon="5.30197">
        <ele>615.38</ele>
        <time>2011-02-13T08:43:01Z</time>
      </trkpt>
      <trkpt lat="45.40802" lon="5.30182">
        <ele>614.9</ele>
        <time>2011-02-13T08:43:03Z</time>
      </trkpt>
      <trkpt lat="45.40801" lon="5.30166">
        <ele>614.9</ele>
        <time>2011-02-13T08:43:05Z</time>
      </trkpt>
      <trkpt lat="45.408" lon="5.30152">
        <ele>614.9</ele>
        <time>2011-02-13T08:43:07Z</time>
      </trkpt>
      <trkpt lat="45.40799" lon="5.30136">
        <ele>614.42</ele>
        <time>2011-02-13T08:43:09Z</time>
      </trkpt>
      <trkpt lat="45.40797" lon="5.3012">
        <ele>613.46</ele>
        <time>2011-02-13T08:43:11Z</time>
      </trkpt>
      <trkpt lat="45.40796" lon="5.30103">
        <ele>613.46</ele>
        <time>2011-02-13T08:43:13Z</time>
      </trkpt>
      <trkpt lat="45.40794" lon="5.30087">
        <ele>613.46</ele>
        <time>2011-02-13T08:43:15Z</time>
      </trkpt>
      <trkpt lat="45.40792" lon="5.30069">
        <ele>612.5</ele>
        <time>2011-02-13T08:43:17Z</time>
      </trkpt>
      <trkpt lat="45.4079" lon="5.30051">
        <ele>611.54</ele>
        <time>2011-02-13T08:43:19Z</time>
      </trkpt>
      <trkpt lat="45.40788" lon="5.30034">
        <ele>611.06</ele>
        <time>2011-02-13T08:43:21Z</time>
      </trkpt>
      <trkpt lat="45.40786" lon="5.30015">
        <ele>610.09</ele>
        <time>2011-02-13T08:43:23Z</time>
      </trkpt>
      <trkpt lat="45.40784" lon="5.29995">
        <ele>609.13</ele>
        <time>2011-02-13T08:43:25Z</time>
      </trkpt>
      <trkpt lat="45.40783" lon="5.29975">
        <ele>608.17</ele>
        <time>2011-02-13T08:43:27Z</time>
      </trkpt>
      <trkpt lat="45.40781" lon="5.29954">
        <ele>608.17</ele>
        <time>2011-02-13T08:43:29Z</time>
      </trkpt>
      <trkpt lat="45.4078" lon="5.29933">
        <ele>607.21</ele>
        <time>2011-02-13T08:43:31Z</time>
      </trkpt>
      <trkpt lat="45.40779" lon="5.29913">
        <ele>606.25</ele>
        <time>2011-02-13T08:43:33Z</time>
      </trkpt>
      <trkpt lat="45.40777" lon="5.29891">
        <ele>605.77</ele>
        <time>2011-02-13T08:43:35Z</time>
      </trkpt>
      <trkpt lat="45.40776" lon="5.29868">
        <ele>604.33</ele>
        <time>2011-02-13T08:43:37Z</time>
      </trkpt>
      <trkpt lat="45.40774" lon="5.29845">
        <ele>604.33</ele>
        <time>2011-02-13T08:43:39Z</time>
      </trkpt>
      <trkpt lat="45.40773" lon="5.29822">
        <ele>602.88</ele>
        <time>2011-02-13T08:43:41Z</time>
      </trkpt>
      <trkpt lat="45.40769" lon="5.29799">
        <ele>601.92</ele>
        <time>2011-02-13T08:43:43Z</time>
      </trkpt>
      <trkpt lat="45.40765" lon="5.29776">
        <ele>601.44</ele>
        <time>2011-02-13T08:43:45Z</time>
      </trkpt>
      <trkpt lat="45.40762" lon="5.29754">
        <ele>599.52</ele>
        <time>2011-02-13T08:43:47Z</time>
      </trkpt>
      <trkpt lat="45.40758" lon="5.29731">
        <ele>599.52</ele>
        <time>2011-02-13T08:43:49Z</time>
      </trkpt>
      <trkpt lat="45.40754" lon="5.29707">
        <ele>599.04</ele>
        <time>2011-02-13T08:43:51Z</time>
      </trkpt>
      <trkpt lat="45.4075" lon="5.29683">
        <ele>598.56</ele>
        <time>2011-02-13T08:43:53Z</time>
      </trkpt>
      <trkpt lat="45.40747" lon="5.29661">
        <ele>598.08</ele>
        <time>2011-02-13T08:43:55Z</time>
      </trkpt>
      <trkpt lat="45.40743" lon="5.29641">
        <ele>597.6</ele>
        <time>2011-02-13T08:43:57Z</time>
      </trkpt>
      <trkpt lat="45.40741" lon="5.29623">
        <ele>598.08</ele>
        <time>2011-02-13T08:43:59Z</time>
      </trkpt>
      <trkpt lat="45.40739" lon="5.29606">
        <ele>597.12</ele>
        <time>2011-02-13T08:44:01Z</time>
      </trkpt>
      <trkpt lat="45.40738" lon="5.29587">
        <ele>597.6</ele>
        <time>2011-02-13T08:44:04Z</time>
      </trkpt>
      <trkpt lat="45.40738" lon="5.29571">
        <ele>598.08</ele>
        <time>2011-02-13T08:44:07Z</time>
      </trkpt>
      <trkpt lat="45.40741" lon="5.29557">
        <ele>598.56</ele>
        <time>2011-02-13T08:44:11Z</time>
      </trkpt>
      <trkpt lat="45.40742" lon="5.29543">
        <ele>597.6</ele>
        <time>2011-02-13T08:44:15Z</time>
      </trkpt>
      <trkpt lat="45.40739" lon="5.29526">
        <ele>598.08</ele>
        <time>2011-02-13T08:44:20Z</time>
      </trkpt>
      <trkpt lat="45.40738" lon="5.29531">
        <ele>597.6</ele>
        <time>2011-02-13T08:44:25Z</time>
      </trkpt>
      <trkpt lat="45.40727" lon="5.29527">
        <ele>597.12</ele>
        <time>2011-02-13T08:44:28Z</time>
      </trkpt>
      <trkpt lat="45.40714" lon="5.29526">
        <ele>596.64</ele>
        <time>2011-02-13T08:44:31Z</time>
      </trkpt>
      <trkpt lat="45.40704" lon="5.29525">
        <ele>596.64</ele>
        <time>2011-02-13T08:44:33Z</time>
      </trkpt>
      <trkpt lat="45.40694" lon="5.29522">
        <ele>596.15</ele>
        <time>2011-02-13T08:44:35Z</time>
      </trkpt>
      <trkpt lat="45.40682" lon="5.29519">
        <ele>594.23</ele>
        <time>2011-02-13T08:44:37Z</time>
      </trkpt>
      <trkpt lat="45.40668" lon="5.29515">
        <ele>593.75</ele>
        <time>2011-02-13T08:44:39Z</time>
      </trkpt>
      <trkpt lat="45.40652" lon="5.2951">
        <ele>590.87</ele>
        <time>2011-02-13T08:44:41Z</time>
      </trkpt>
      <trkpt lat="45.40635" lon="5.29505">
        <ele>589.43</ele>
        <time>2011-02-13T08:44:43Z</time>
      </trkpt>
      <trkpt lat="45.40618" lon="5.29496">
        <ele>588.46</ele>
        <time>2011-02-13T08:44:45Z</time>
      </trkpt>
      <trkpt lat="45.4061" lon="5.29489">
        <ele>587.5</ele>
        <time>2011-02-13T08:44:46Z</time>
      </trkpt>
      <trkpt lat="45.40596" lon="5.29476">
        <ele>585.1</ele>
        <time>2011-02-13T08:44:48Z</time>
      </trkpt>
      <trkpt lat="45.40581" lon="5.29468">
        <ele>582.22</ele>
        <time>2011-02-13T08:44:50Z</time>
      </trkpt>
      <trkpt lat="45.40566" lon="5.29468">
        <ele>579.81</ele>
        <time>2011-02-13T08:44:52Z</time>
      </trkpt>
      <trkpt lat="45.40553" lon="5.29479">
        <ele>577.41</ele>
        <time>2011-02-13T08:44:54Z</time>
      </trkpt>
      <trkpt lat="45.40543" lon="5.29499">
        <ele>575.01</ele>
        <time>2011-02-13T08:44:56Z</time>
      </trkpt>
      <trkpt lat="45.40531" lon="5.29518">
        <ele>571.16</ele>
        <time>2011-02-13T08:44:58Z</time>
      </trkpt>
      <trkpt lat="45.40524" lon="5.29525">
        <ele>568.76</ele>
        <time>2011-02-13T08:44:59Z</time>
      </trkpt>
      <trkpt lat="45.40509" lon="5.2954">
        <ele>565.87</ele>
        <time>2011-02-13T08:45:01Z</time>
      </trkpt>
      <trkpt lat="45.40494" lon="5.29553">
        <ele>562.99</ele>
        <time>2011-02-13T08:45:03Z</time>
      </trkpt>
      <trkpt lat="45.40477" lon="5.29558">
        <ele>560.59</ele>
        <time>2011-02-13T08:45:05Z</time>
      </trkpt>
      <trkpt lat="45.4046" lon="5.29562">
        <ele>558.18</ele>
        <time>2011-02-13T08:45:07Z</time>
      </trkpt>
      <trkpt lat="45.40447" lon="5.29565">
        <ele>555.3</ele>
        <time>2011-02-13T08:45:09Z</time>
      </trkpt>
      <trkpt lat="45.40435" lon="5.29569">
        <ele>553.86</ele>
        <time>2011-02-13T08:45:12Z</time>
      </trkpt>
      <trkpt lat="45.40427" lon="5.29582">
        <ele>553.38</ele>
        <time>2011-02-13T08:45:15Z</time>
      </trkpt>
      <trkpt lat="45.4042" lon="5.29596">
        <ele>553.38</ele>
        <time>2011-02-13T08:45:18Z</time>
      </trkpt>
      <trkpt lat="45.40414" lon="5.29605">
        <ele>552.9</ele>
        <time>2011-02-13T08:45:20Z</time>
      </trkpt>
      <trkpt lat="45.40404" lon="5.29619">
        <ele>552.9</ele>
        <time>2011-02-13T08:45:23Z</time>
      </trkpt>
      <trkpt lat="45.40396" lon="5.29626">
        <ele>552.41</ele>
        <time>2011-02-13T08:45:25Z</time>
      </trkpt>
      <trkpt lat="45.40387" lon="5.29632">
        <ele>552.9</ele>
        <time>2011-02-13T08:45:27Z</time>
      </trkpt>
      <trkpt lat="45.40379" lon="5.29637">
        <ele>552.9</ele>
        <time>2011-02-13T08:45:29Z</time>
      </trkpt>
      <trkpt lat="45.4037" lon="5.29641">
        <ele>552.41</ele>
        <time>2011-02-13T08:45:31Z</time>
      </trkpt>
      <trkpt lat="45.40362" lon="5.29636">
        <ele>552.41</ele>
        <time>2011-02-13T08:45:33Z</time>
      </trkpt>
      <trkpt lat="45.40355" lon="5.29624">
        <ele>550.97</ele>
        <time>2011-02-13T08:45:35Z</time>
      </trkpt>
      <trkpt lat="45.4035" lon="5.2961">
        <ele>551.45</ele>
        <time>2011-02-13T08:45:37Z</time>
      </trkpt>
      <trkpt lat="45.40343" lon="5.29597">
        <ele>550.49</ele>
        <time>2011-02-13T08:45:39Z</time>
      </trkpt>
      <trkpt lat="45.40337" lon="5.29583">
        <ele>550.01</ele>
        <time>2011-02-13T08:45:41Z</time>
      </trkpt>
      <trkpt lat="45.40332" lon="5.29567">
        <ele>549.05</ele>
        <time>2011-02-13T08:45:43Z</time>
      </trkpt>
      <trkpt lat="45.4033" lon="5.29549">
        <ele>549.05</ele>
        <time>2011-02-13T08:45:45Z</time>
      </trkpt>
      <trkpt lat="45.40329" lon="5.29533">
        <ele>548.09</ele>
        <time>2011-02-13T08:45:47Z</time>
      </trkpt>
      <trkpt lat="45.40323" lon="5.2952">
        <ele>547.13</ele>
        <time>2011-02-13T08:45:50Z</time>
      </trkpt>
      <trkpt lat="45.40312" lon="5.29516">
        <ele>547.13</ele>
        <time>2011-02-13T08:45:53Z</time>
      </trkpt>
      <trkpt lat="45.40299" lon="5.29512">
        <ele>547.13</ele>
        <time>2011-02-13T08:45:56Z</time>
      </trkpt>
      <trkpt lat="45.40291" lon="5.29508">
        <ele>547.13</ele>
        <time>2011-02-13T08:45:58Z</time>
      </trkpt>
      <trkpt lat="45.40281" lon="5.29504">
        <ele>546.17</ele>
        <time>2011-02-13T08:46:00Z</time>
      </trkpt>
      <trkpt lat="45.40271" lon="5.295">
        <ele>546.17</ele>
        <time>2011-02-13T08:46:02Z</time>
      </trkpt>
      <trkpt lat="45.4026" lon="5.29496">
        <ele>545.2</ele>
        <time>2011-02-13T08:46:05Z</time>
      </trkpt>
      <trkpt lat="45.40252" lon="5.29489">
        <ele>544.72</ele>
        <time>2011-02-13T08:46:10Z</time>
      </trkpt>
      <trkpt lat="45.40253" lon="5.29473">
        <ele>544.72</ele>
        <time>2011-02-13T08:46:14Z</time>
      </trkpt>
      <trkpt lat="45.40252" lon="5.29456">
        <ele>544.72</ele>
        <time>2011-02-13T08:46:17Z</time>
      </trkpt>
      <trkpt lat="45.40251" lon="5.29437">
        <ele>545.2</ele>
        <time>2011-02-13T08:46:20Z</time>
      </trkpt>
      <trkpt lat="45.40248" lon="5.29419">
        <ele>545.2</ele>
        <time>2011-02-13T08:46:23Z</time>
      </trkpt>
      <trkpt lat="45.40244" lon="5.29406">
        <ele>544.72</ele>
        <time>2011-02-13T08:46:25Z</time>
      </trkpt>
      <trkpt lat="45.40239" lon="5.29393">
        <ele>544.72</ele>
        <time>2011-02-13T08:46:27Z</time>
      </trkpt>
      <trkpt lat="45.40236" lon="5.2938">
        <ele>544.72</ele>
        <time>2011-02-13T08:46:29Z</time>
      </trkpt>
      <trkpt lat="45.40232" lon="5.29367">
        <ele>545.2</ele>
        <time>2011-02-13T08:46:31Z</time>
      </trkpt>
      <trkpt lat="45.40229" lon="5.29353">
        <ele>544.72</ele>
        <time>2011-02-13T08:46:33Z</time>
      </trkpt>
      <trkpt lat="45.40225" lon="5.29339">
        <ele>545.2</ele>
        <time>2011-02-13T08:46:35Z</time>
      </trkpt>
      <trkpt lat="45.40222" lon="5.29326">
        <ele>545.2</ele>
        <time>2011-02-13T08:46:37Z</time>
      </trkpt>
      <trkpt lat="45.40219" lon="5.29313">
        <ele>546.17</ele>
        <time>2011-02-13T08:46:39Z</time>
      </trkpt>
      <trkpt lat="45.40214" lon="5.29296">
        <ele>546.65</ele>
        <time>2011-02-13T08:46:42Z</time>
      </trkpt>
      <trkpt lat="45.40208" lon="5.29281">
        <ele>547.13</ele>
        <time>2011-02-13T08:46:45Z</time>
      </trkpt>
      <trkpt lat="45.40203" lon="5.29268">
        <ele>547.13</ele>
        <time>2011-02-13T08:46:48Z</time>
      </trkpt>
      <trkpt lat="45.40197" lon="5.29258">
        <ele>548.09</ele>
        <time>2011-02-13T08:46:51Z</time>
      </trkpt>
      <trkpt lat="45.40189" lon="5.2925">
        <ele>548.09</ele>
        <time>2011-02-13T08:46:54Z</time>
      </trkpt>
      <trkpt lat="45.4018" lon="5.29246">
        <ele>549.05</ele>
        <time>2011-02-13T08:46:57Z</time>
      </trkpt>
      <trkpt lat="45.40171" lon="5.2925">
        <ele>549.53</ele>
        <time>2011-02-13T08:47:00Z</time>
      </trkpt>
      <trkpt lat="45.40161" lon="5.29254">
        <ele>548.57</ele>
        <time>2011-02-13T08:47:05Z</time>
      </trkpt>
      <trkpt lat="45.40151" lon="5.29255">
        <ele>548.57</ele>
        <time>2011-02-13T08:47:09Z</time>
      </trkpt>
      <trkpt lat="45.40144" lon="5.29258">
        <ele>549.05</ele>
        <time>2011-02-13T08:48:27Z</time>
      </trkpt>
      <trkpt lat="45.4015" lon="5.29263">
        <ele>549.05</ele>
        <time>2011-02-13T08:48:31Z</time>
      </trkpt>
      <trkpt lat="45.40159" lon="5.29257">
        <ele>549.05</ele>
        <time>2011-02-13T08:48:35Z</time>
      </trkpt>
      <trkpt lat="45.4017" lon="5.29259">
        <ele>549.05</ele>
        <time>2011-02-13T08:48:39Z</time>
      </trkpt>
      <trkpt lat="45.40181" lon="5.2926">
        <ele>549.53</ele>
        <time>2011-02-13T08:48:43Z</time>
      </trkpt>
      <trkpt lat="45.40192" lon="5.29261">
        <ele>548.57</ele>
        <time>2011-02-13T08:48:47Z</time>
      </trkpt>
      <trkpt lat="45.40204" lon="5.29272">
        <ele>548.09</ele>
        <time>2011-02-13T08:48:51Z</time>
      </trkpt>
      <trkpt lat="45.40215" lon="5.29298">
        <ele>547.13</ele>
        <time>2011-02-13T08:48:55Z</time>
      </trkpt>
      <trkpt lat="45.40221" lon="5.2932">
        <ele>546.17</ele>
        <time>2011-02-13T08:48:58Z</time>
      </trkpt>
      <trkpt lat="45.40225" lon="5.29335">
        <ele>545.69</ele>
        <time>2011-02-13T08:49:00Z</time>
      </trkpt>
      <trkpt lat="45.40228" lon="5.2935">
        <ele>545.69</ele>
        <time>2011-02-13T08:49:02Z</time>
      </trkpt>
      <trkpt lat="45.40232" lon="5.29365">
        <ele>545.2</ele>
        <time>2011-02-13T08:49:04Z</time>
      </trkpt>
      <trkpt lat="45.40235" lon="5.29379">
        <ele>545.2</ele>
        <time>2011-02-13T08:49:06Z</time>
      </trkpt>
      <trkpt lat="45.40239" lon="5.29392">
        <ele>545.69</ele>
        <time>2011-02-13T08:49:08Z</time>
      </trkpt>
      <trkpt lat="45.40242" lon="5.29406">
        <ele>545.2</ele>
        <time>2011-02-13T08:49:10Z</time>
      </trkpt>
      <trkpt lat="45.40247" lon="5.2942">
        <ele>545.69</ele>
        <time>2011-02-13T08:49:12Z</time>
      </trkpt>
      <trkpt lat="45.4025" lon="5.29433">
        <ele>546.17</ele>
        <time>2011-02-13T08:49:14Z</time>
      </trkpt>
      <trkpt lat="45.40252" lon="5.29451">
        <ele>545.69</ele>
        <time>2011-02-13T08:49:17Z</time>
      </trkpt>
      <trkpt lat="45.40253" lon="5.29469">
        <ele>545.2</ele>
        <time>2011-02-13T08:49:20Z</time>
      </trkpt>
      <trkpt lat="45.40252" lon="5.29485">
        <ele>545.2</ele>
        <time>2011-02-13T08:49:23Z</time>
      </trkpt>
      <trkpt lat="45.40245" lon="5.29494">
        <ele>545.2</ele>
        <time>2011-02-13T08:49:26Z</time>
      </trkpt>
      <trkpt lat="45.40236" lon="5.29496">
        <ele>544.72</ele>
        <time>2011-02-13T08:49:28Z</time>
      </trkpt>
      <trkpt lat="45.40226" lon="5.29497">
        <ele>543.28</ele>
        <time>2011-02-13T08:49:30Z</time>
      </trkpt>
      <trkpt lat="45.40215" lon="5.29499">
        <ele>543.28</ele>
        <time>2011-02-13T08:49:32Z</time>
      </trkpt>
      <trkpt lat="45.40203" lon="5.29502">
        <ele>541.36</ele>
        <time>2011-02-13T08:49:34Z</time>
      </trkpt>
      <trkpt lat="45.40189" lon="5.29503">
        <ele>539.92</ele>
        <time>2011-02-13T08:49:36Z</time>
      </trkpt>
      <trkpt lat="45.40174" lon="5.29499">
        <ele>536.07</ele>
        <time>2011-02-13T08:49:38Z</time>
      </trkpt>
      <trkpt lat="45.40158" lon="5.29492">
        <ele>533.19</ele>
        <time>2011-02-13T08:49:40Z</time>
      </trkpt>
      <trkpt lat="45.40142" lon="5.29483">
        <ele>530.3</ele>
        <time>2011-02-13T08:49:42Z</time>
      </trkpt>
      <trkpt lat="45.40127" lon="5.29476">
        <ele>527.42</ele>
        <time>2011-02-13T08:49:44Z</time>
      </trkpt>
      <trkpt lat="45.40112" lon="5.29467">
        <ele>525.02</ele>
        <time>2011-02-13T08:49:46Z</time>
      </trkpt>
      <trkpt lat="45.40099" lon="5.29457">
        <ele>523.09</ele>
        <time>2011-02-13T08:49:48Z</time>
      </trkpt>
      <trkpt lat="45.40085" lon="5.29447">
        <ele>520.21</ele>
        <time>2011-02-13T08:49:50Z</time>
      </trkpt>
      <trkpt lat="45.4007" lon="5.29442">
        <ele>516.37</ele>
        <time>2011-02-13T08:49:52Z</time>
      </trkpt>
      <trkpt lat="45.40057" lon="5.29439">
        <ele>515.4</ele>
        <time>2011-02-13T08:49:54Z</time>
      </trkpt>
      <trkpt lat="45.40043" lon="5.29435">
        <ele>512.04</ele>
        <time>2011-02-13T08:49:56Z</time>
      </trkpt>
      <trkpt lat="45.40027" lon="5.29422">
        <ele>508.19</ele>
        <time>2011-02-13T08:49:58Z</time>
      </trkpt>
      <trkpt lat="45.40018" lon="5.29414">
        <ele>506.27</ele>
        <time>2011-02-13T08:49:59Z</time>
      </trkpt>
      <trkpt lat="45.40009" lon="5.29405">
        <ele>502.91</ele>
        <time>2011-02-13T08:50:00Z</time>
      </trkpt>
      <trkpt lat="45.39998" lon="5.29396">
        <ele>500.5</ele>
        <time>2011-02-13T08:50:01Z</time>
      </trkpt>
      <trkpt lat="45.39988" lon="5.29389">
        <ele>497.62</ele>
        <time>2011-02-13T08:50:02Z</time>
      </trkpt>
      <trkpt lat="45.39978" lon="5.29383">
        <ele>495.7</ele>
        <time>2011-02-13T08:50:03Z</time>
      </trkpt>
      <trkpt lat="45.39968" lon="5.29378">
        <ele>494.26</ele>
        <time>2011-02-13T08:50:04Z</time>
      </trkpt>
      <trkpt lat="45.39959" lon="5.29372">
        <ele>493.29</ele>
        <time>2011-02-13T08:50:05Z</time>
      </trkpt>
      <trkpt lat="45.39951" lon="5.29366">
        <ele>492.33</ele>
        <time>2011-02-13T08:50:06Z</time>
      </trkpt>
      <trkpt lat="45.39943" lon="5.29359">
        <ele>489.93</ele>
        <time>2011-02-13T08:50:07Z</time>
      </trkpt>
      <trkpt lat="45.39933" lon="5.2934">
        <ele>488.01</ele>
        <time>2011-02-13T08:50:09Z</time>
      </trkpt>
      <trkpt lat="45.39923" lon="5.29321">
        <ele>484.64</ele>
        <time>2011-02-13T08:50:11Z</time>
      </trkpt>
      <trkpt lat="45.39909" lon="5.29306">
        <ele>481.28</ele>
        <time>2011-02-13T08:50:13Z</time>
      </trkpt>
      <trkpt lat="45.39901" lon="5.29299">
        <ele>478.39</ele>
        <time>2011-02-13T08:50:14Z</time>
      </trkpt>
      <trkpt lat="45.39892" lon="5.29292">
        <ele>475.51</ele>
        <time>2011-02-13T08:50:15Z</time>
      </trkpt>
      <trkpt lat="45.39883" lon="5.29282">
        <ele>473.11</ele>
        <time>2011-02-13T08:50:16Z</time>
      </trkpt>
      <trkpt lat="45.39875" lon="5.29272">
        <ele>471.18</ele>
        <time>2011-02-13T08:50:17Z</time>
      </trkpt>
      <trkpt lat="45.39865" lon="5.29262">
        <ele>468.3</ele>
        <time>2011-02-13T08:50:18Z</time>
      </trkpt>
      <trkpt lat="45.39856" lon="5.29254">
        <ele>466.38</ele>
        <time>2011-02-13T08:50:19Z</time>
      </trkpt>
      <trkpt lat="45.39846" lon="5.29247">
        <ele>463.97</ele>
        <time>2011-02-13T08:50:20Z</time>
      </trkpt>
      <trkpt lat="45.39837" lon="5.29239">
        <ele>461.09</ele>
        <time>2011-02-13T08:50:21Z</time>
      </trkpt>
      <trkpt lat="45.39829" lon="5.29232">
        <ele>459.65</ele>
        <time>2011-02-13T08:50:22Z</time>
      </trkpt>
      <trkpt lat="45.39821" lon="5.29224">
        <ele>457.72</ele>
        <time>2011-02-13T08:50:23Z</time>
      </trkpt>
      <trkpt lat="45.39814" lon="5.29216">
        <ele>456.28</ele>
        <time>2011-02-13T08:50:24Z</time>
      </trkpt>
      <trkpt lat="45.39802" lon="5.29199">
        <ele>452.92</ele>
        <time>2011-02-13T08:50:26Z</time>
      </trkpt>
      <trkpt lat="45.39794" lon="5.29184">
        <ele>450.52</ele>
        <time>2011-02-13T08:50:28Z</time>
      </trkpt>
      <trkpt lat="45.3979" lon="5.2917">
        <ele>448.11</ele>
        <time>2011-02-13T08:50:30Z</time>
      </trkpt>
      <trkpt lat="45.39785" lon="5.29158">
        <ele>445.71</ele>
        <time>2011-02-13T08:50:34Z</time>
      </trkpt>
      <trkpt lat="45.39778" lon="5.29163">
        <ele>444.75</ele>
        <time>2011-02-13T08:51:00Z</time>
      </trkpt>
      <trkpt lat="45.39768" lon="5.2917">
        <ele>443.31</ele>
        <time>2011-02-13T08:51:03Z</time>
      </trkpt>
      <trkpt lat="45.39766" lon="5.29184">
        <ele>443.79</ele>
        <time>2011-02-13T08:51:06Z</time>
      </trkpt>
      <trkpt lat="45.39769" lon="5.29201">
        <ele>443.31</ele>
        <time>2011-02-13T08:51:10Z</time>
      </trkpt>
      <trkpt lat="45.3977" lon="5.29217">
        <ele>443.79</ele>
        <time>2011-02-13T08:51:14Z</time>
      </trkpt>
      <trkpt lat="45.3977" lon="5.2923">
        <ele>444.75</ele>
        <time>2011-02-13T08:51:17Z</time>
      </trkpt>
      <trkpt lat="45.39771" lon="5.29245">
        <ele>444.75</ele>
        <time>2011-02-13T08:51:20Z</time>
      </trkpt>
      <trkpt lat="45.39771" lon="5.29259">
        <ele>445.23</ele>
        <time>2011-02-13T08:51:23Z</time>
      </trkpt>
      <trkpt lat="45.39771" lon="5.29276">
        <ele>444.75</ele>
        <time>2011-02-13T08:51:27Z</time>
      </trkpt>
      <trkpt lat="45.39772" lon="5.29289">
        <ele>446.19</ele>
        <time>2011-02-13T08:51:30Z</time>
      </trkpt>
      <trkpt lat="45.39773" lon="5.29304">
        <ele>446.19</ele>
        <time>2011-02-13T08:51:33Z</time>
      </trkpt>
      <trkpt lat="45.39775" lon="5.2932">
        <ele>445.71</ele>
        <time>2011-02-13T08:51:36Z</time>
      </trkpt>
      <trkpt lat="45.39776" lon="5.29337">
        <ele>445.23</ele>
        <time>2011-02-13T08:51:39Z</time>
      </trkpt>
      <trkpt lat="45.39777" lon="5.29355">
        <ele>445.23</ele>
        <time>2011-02-13T08:51:42Z</time>
      </trkpt>
      <trkpt lat="45.39778" lon="5.29368">
        <ele>444.75</ele>
        <time>2011-02-13T08:51:44Z</time>
      </trkpt>
      <trkpt lat="45.39779" lon="5.29382">
        <ele>444.27</ele>
        <time>2011-02-13T08:51:46Z</time>
      </trkpt>
      <trkpt lat="45.3978" lon="5.29395">
        <ele>444.27</ele>
        <time>2011-02-13T08:51:48Z</time>
      </trkpt>
      <trkpt lat="45.3978" lon="5.29408">
        <ele>444.27</ele>
        <time>2011-02-13T08:51:50Z</time>
      </trkpt>
      <trkpt lat="45.39782" lon="5.29421">
        <ele>443.79</ele>
        <time>2011-02-13T08:51:52Z</time>
      </trkpt>
      <trkpt lat="45.39782" lon="5.29435">
        <ele>443.79</ele>
        <time>2011-02-13T08:51:54Z</time>
      </trkpt>
      <trkpt lat="45.39784" lon="5.29449">
        <ele>443.31</ele>
        <time>2011-02-13T08:51:56Z</time>
      </trkpt>
      <trkpt lat="45.39785" lon="5.29463">
        <ele>443.31</ele>
        <time>2011-02-13T08:51:58Z</time>
      </trkpt>
      <trkpt lat="45.39785" lon="5.29478">
        <ele>443.31</ele>
        <time>2011-02-13T08:52:00Z</time>
      </trkpt>
      <trkpt lat="45.39786" lon="5.29493">
        <ele>443.79</ele>
        <time>2011-02-13T08:52:02Z</time>
      </trkpt>
      <trkpt lat="45.39788" lon="5.29507">
        <ele>443.31</ele>
        <time>2011-02-13T08:52:04Z</time>
      </trkpt>
      <trkpt lat="45.3979" lon="5.29521">
        <ele>443.31</ele>
        <time>2011-02-13T08:52:06Z</time>
      </trkpt>
      <trkpt lat="45.39791" lon="5.29534">
        <ele>443.79</ele>
        <time>2011-02-13T08:52:08Z</time>
      </trkpt>
      <trkpt lat="45.39793" lon="5.29547">
        <ele>443.79</ele>
        <time>2011-02-13T08:52:10Z</time>
      </trkpt>
      <trkpt lat="45.39796" lon="5.29566">
        <ele>443.79</ele>
        <time>2011-02-13T08:52:13Z</time>
      </trkpt>
      <trkpt lat="45.39797" lon="5.29584">
        <ele>443.79</ele>
        <time>2011-02-13T08:52:16Z</time>
      </trkpt>
      <trkpt lat="45.39798" lon="5.29602">
        <ele>443.31</ele>
        <time>2011-02-13T08:52:19Z</time>
      </trkpt>
      <trkpt lat="45.39799" lon="5.2962">
        <ele>443.31</ele>
        <time>2011-02-13T08:52:22Z</time>
      </trkpt>
      <trkpt lat="45.39799" lon="5.29633">
        <ele>443.79</ele>
        <time>2011-02-13T08:52:24Z</time>
      </trkpt>
      <trkpt lat="45.39799" lon="5.29646">
        <ele>443.31</ele>
        <time>2011-02-13T08:52:26Z</time>
      </trkpt>
      <trkpt lat="45.39798" lon="5.29659">
        <ele>443.31</ele>
        <time>2011-02-13T08:52:28Z</time>
      </trkpt>
      <trkpt lat="45.39798" lon="5.29673">
        <ele>443.79</ele>
        <time>2011-02-13T08:52:30Z</time>
      </trkpt>
      <trkpt lat="45.39797" lon="5.29686">
        <ele>443.79</ele>
        <time>2011-02-13T08:52:32Z</time>
      </trkpt>
      <trkpt lat="45.39798" lon="5.29704">
        <ele>444.75</ele>
        <time>2011-02-13T08:52:35Z</time>
      </trkpt>
      <trkpt lat="45.39797" lon="5.29721">
        <ele>445.71</ele>
        <time>2011-02-13T08:52:38Z</time>
      </trkpt>
      <trkpt lat="45.39797" lon="5.29735">
        <ele>445.23</ele>
        <time>2011-02-13T08:52:41Z</time>
      </trkpt>
      <trkpt lat="45.398" lon="5.29748">
        <ele>447.15</ele>
        <time>2011-02-13T08:52:44Z</time>
      </trkpt>
      <trkpt lat="45.39806" lon="5.29761">
        <ele>448.11</ele>
        <time>2011-02-13T08:52:47Z</time>
      </trkpt>
      <trkpt lat="45.39808" lon="5.29775">
        <ele>448.59</ele>
        <time>2011-02-13T08:52:51Z</time>
      </trkpt>
      <trkpt lat="45.39809" lon="5.29789">
        <ele>448.59</ele>
        <time>2011-02-13T08:52:54Z</time>
      </trkpt>
      <trkpt lat="45.39809" lon="5.29804">
        <ele>448.11</ele>
        <time>2011-02-13T08:52:57Z</time>
      </trkpt>
      <trkpt lat="45.39809" lon="5.29818">
        <ele>448.59</ele>
        <time>2011-02-13T08:53:00Z</time>
      </trkpt>
      <trkpt lat="45.39809" lon="5.29834">
        <ele>448.59</ele>
        <time>2011-02-13T08:53:03Z</time>
      </trkpt>
      <trkpt lat="45.3981" lon="5.29849">
        <ele>448.59</ele>
        <time>2011-02-13T08:53:06Z</time>
      </trkpt>
      <trkpt lat="45.3981" lon="5.29865">
        <ele>448.59</ele>
        <time>2011-02-13T08:53:09Z</time>
      </trkpt>
      <trkpt lat="45.3981" lon="5.29882">
        <ele>448.11</ele>
        <time>2011-02-13T08:53:12Z</time>
      </trkpt>
      <trkpt lat="45.39811" lon="5.29899">
        <ele>448.11</ele>
        <time>2011-02-13T08:53:15Z</time>
      </trkpt>
      <trkpt lat="45.39813" lon="5.29915">
        <ele>448.59</ele>
        <time>2011-02-13T08:53:18Z</time>
      </trkpt>
      <trkpt lat="45.39819" lon="5.29931">
        <ele>448.59</ele>
        <time>2011-02-13T08:53:21Z</time>
      </trkpt>
      <trkpt lat="45.39827" lon="5.29944">
        <ele>449.07</ele>
        <time>2011-02-13T08:53:24Z</time>
      </trkpt>
      <trkpt lat="45.39834" lon="5.29957">
        <ele>448.59</ele>
        <time>2011-02-13T08:53:27Z</time>
      </trkpt>
      <trkpt lat="45.3984" lon="5.2997">
        <ele>448.59</ele>
        <time>2011-02-13T08:53:30Z</time>
      </trkpt>
      <trkpt lat="45.39848" lon="5.29982">
        <ele>449.07</ele>
        <time>2011-02-13T08:53:33Z</time>
      </trkpt>
      <trkpt lat="45.39858" lon="5.29994">
        <ele>448.59</ele>
        <time>2011-02-13T08:53:36Z</time>
      </trkpt>
      <trkpt lat="45.39865" lon="5.30002">
        <ele>447.63</ele>
        <time>2011-02-13T08:53:38Z</time>
      </trkpt>
      <trkpt lat="45.39873" lon="5.3001">
        <ele>446.67</ele>
        <time>2011-02-13T08:53:40Z</time>
      </trkpt>
      <trkpt lat="45.39882" lon="5.30019">
        <ele>446.19</ele>
        <time>2011-02-13T08:53:42Z</time>
      </trkpt>
      <trkpt lat="45.39893" lon="5.30028">
        <ele>445.23</ele>
        <time>2011-02-13T08:53:44Z</time>
      </trkpt>
      <trkpt lat="45.39904" lon="5.30037">
        <ele>444.27</ele>
        <time>2011-02-13T08:53:46Z</time>
      </trkpt>
      <trkpt lat="45.39916" lon="5.30045">
        <ele>442.82</ele>
        <time>2011-02-13T08:53:48Z</time>
      </trkpt>
      <trkpt lat="45.39927" lon="5.30053">
        <ele>441.86</ele>
        <time>2011-02-13T08:53:50Z</time>
      </trkpt>
      <trkpt lat="45.39939" lon="5.30063">
        <ele>440.42</ele>
        <time>2011-02-13T08:53:52Z</time>
      </trkpt>
      <trkpt lat="45.39947" lon="5.30081">
        <ele>438.98</ele>
        <time>2011-02-13T08:53:54Z</time>
      </trkpt>
      <trkpt lat="45.39951" lon="5.30105">
        <ele>436.58</ele>
        <time>2011-02-13T08:53:56Z</time>
      </trkpt>
      <trkpt lat="45.39951" lon="5.30118">
        <ele>435.61</ele>
        <time>2011-02-13T08:53:57Z</time>
      </trkpt>
      <trkpt lat="45.39951" lon="5.30131">
        <ele>434.65</ele>
        <time>2011-02-13T08:53:58Z</time>
      </trkpt>
      <trkpt lat="45.39951" lon="5.30145">
        <ele>433.21</ele>
        <time>2011-02-13T08:53:59Z</time>
      </trkpt>
      <trkpt lat="45.39951" lon="5.3017">
        <ele>429.85</ele>
        <time>2011-02-13T08:54:01Z</time>
      </trkpt>
      <trkpt lat="45.3995" lon="5.30195">
        <ele>428.89</ele>
        <time>2011-02-13T08:54:03Z</time>
      </trkpt>
      <trkpt lat="45.39953" lon="5.30215">
        <ele>429.85</ele>
        <time>2011-02-13T08:54:05Z</time>
      </trkpt>
      <trkpt lat="45.39955" lon="5.30229">
        <ele>432.25</ele>
        <time>2011-02-13T08:54:08Z</time>
      </trkpt>
      <trkpt lat="45.39958" lon="5.30245">
        <ele>434.17</ele>
        <time>2011-02-13T08:54:12Z</time>
      </trkpt>
      <trkpt lat="45.39959" lon="5.30261">
        <ele>435.61</ele>
        <time>2011-02-13T08:54:17Z</time>
      </trkpt>
      <trkpt lat="45.39954" lon="5.30275">
        <ele>438.02</ele>
        <time>2011-02-13T08:54:23Z</time>
      </trkpt>
      <trkpt lat="45.39949" lon="5.30287">
        <ele>440.9</ele>
        <time>2011-02-13T08:54:31Z</time>
      </trkpt>
      <trkpt lat="45.39947" lon="5.30302">
        <ele>443.31</ele>
        <time>2011-02-13T08:54:39Z</time>
      </trkpt>
      <trkpt lat="45.39951" lon="5.30313">
        <ele>444.75</ele>
        <time>2011-02-13T08:54:47Z</time>
      </trkpt>
      <trkpt lat="45.39957" lon="5.30323">
        <ele>448.59</ele>
        <time>2011-02-13T08:54:57Z</time>
      </trkpt>
      <trkpt lat="45.39965" lon="5.30333">
        <ele>451.48</ele>
        <time>2011-02-13T08:55:06Z</time>
      </trkpt>
      <trkpt lat="45.39973" lon="5.30343">
        <ele>452.92</ele>
        <time>2011-02-13T08:55:14Z</time>
      </trkpt>
      <trkpt lat="45.39981" lon="5.30353">
        <ele>454.84</ele>
        <time>2011-02-13T08:55:23Z</time>
      </trkpt>
      <trkpt lat="45.39988" lon="5.30364">
        <ele>457.24</ele>
        <time>2011-02-13T08:55:32Z</time>
      </trkpt>
      <trkpt lat="45.39994" lon="5.30374">
        <ele>458.69</ele>
        <time>2011-02-13T08:55:40Z</time>
      </trkpt>
      <trkpt lat="45.39997" lon="5.30387">
        <ele>460.61</ele>
        <time>2011-02-13T08:55:49Z</time>
      </trkpt>
      <trkpt lat="45.39999" lon="5.304">
        <ele>462.05</ele>
        <time>2011-02-13T08:55:57Z</time>
      </trkpt>
      <trkpt lat="45.39998" lon="5.30416">
        <ele>463.97</ele>
        <time>2011-02-13T08:56:06Z</time>
      </trkpt>
      <trkpt lat="45.39994" lon="5.30427">
        <ele>465.9</ele>
        <time>2011-02-13T08:56:14Z</time>
      </trkpt>
      <trkpt lat="45.39988" lon="5.30434">
        <ele>467.34</ele>
        <time>2011-02-13T08:56:22Z</time>
      </trkpt>
      <trkpt lat="45.39987" lon="5.30446">
        <ele>469.26</ele>
        <time>2011-02-13T08:56:30Z</time>
      </trkpt>
      <trkpt lat="45.39983" lon="5.3046">
        <ele>470.7</ele>
        <time>2011-02-13T08:56:39Z</time>
      </trkpt>
      <trkpt lat="45.39982" lon="5.30473">
        <ele>470.7</ele>
        <time>2011-02-13T08:56:46Z</time>
      </trkpt>
      <trkpt lat="45.39981" lon="5.30486">
        <ele>471.66</ele>
        <time>2011-02-13T08:56:52Z</time>
      </trkpt>
      <trkpt lat="45.3998" lon="5.305">
        <ele>473.11</ele>
        <time>2011-02-13T08:56:58Z</time>
      </trkpt>
      <trkpt lat="45.39982" lon="5.30513">
        <ele>473.11</ele>
        <time>2011-02-13T08:57:04Z</time>
      </trkpt>
      <trkpt lat="45.39983" lon="5.30527">
        <ele>474.07</ele>
        <time>2011-02-13T08:57:10Z</time>
      </trkpt>
      <trkpt lat="45.39984" lon="5.30541">
        <ele>474.55</ele>
        <time>2011-02-13T08:57:15Z</time>
      </trkpt>
      <trkpt lat="45.39984" lon="5.30557">
        <ele>474.07</ele>
        <time>2011-02-13T08:57:20Z</time>
      </trkpt>
      <trkpt lat="45.39986" lon="5.30572">
        <ele>474.07</ele>
        <time>2011-02-13T08:57:24Z</time>
      </trkpt>
      <trkpt lat="45.39986" lon="5.30587">
        <ele>474.55</ele>
        <time>2011-02-13T08:57:28Z</time>
      </trkpt>
      <trkpt lat="45.39986" lon="5.30603">
        <ele>475.03</ele>
        <time>2011-02-13T08:57:32Z</time>
      </trkpt>
      <trkpt lat="45.39982" lon="5.30618">
        <ele>475.03</ele>
        <time>2011-02-13T08:57:36Z</time>
      </trkpt>
      <trkpt lat="45.39973" lon="5.30626">
        <ele>475.03</ele>
        <time>2011-02-13T08:57:40Z</time>
      </trkpt>
      <trkpt lat="45.39962" lon="5.3063">
        <ele>475.99</ele>
        <time>2011-02-13T08:57:44Z</time>
      </trkpt>
      <trkpt lat="45.39954" lon="5.30638">
        <ele>476.47</ele>
        <time>2011-02-13T08:57:48Z</time>
      </trkpt>
      <trkpt lat="45.39954" lon="5.30652">
        <ele>476.95</ele>
        <time>2011-02-13T08:57:52Z</time>
      </trkpt>
      <trkpt lat="45.39953" lon="5.30666">
        <ele>477.43</ele>
        <time>2011-02-13T08:57:56Z</time>
      </trkpt>
      <trkpt lat="45.39954" lon="5.3068">
        <ele>477.43</ele>
        <time>2011-02-13T08:58:00Z</time>
      </trkpt>
      <trkpt lat="45.39954" lon="5.30694">
        <ele>477.43</ele>
        <time>2011-02-13T08:58:04Z</time>
      </trkpt>
      <trkpt lat="45.39954" lon="5.30707">
        <ele>478.39</ele>
        <time>2011-02-13T08:58:08Z</time>
      </trkpt>
      <trkpt lat="45.39954" lon="5.30722">
        <ele>478.87</ele>
        <time>2011-02-13T08:58:12Z</time>
      </trkpt>
      <trkpt lat="45.39954" lon="5.30737">
        <ele>479.35</ele>
        <time>2011-02-13T08:58:16Z</time>
      </trkpt>
      <trkpt lat="45.39954" lon="5.30752">
        <ele>479.35</ele>
        <time>2011-02-13T08:58:20Z</time>
      </trkpt>
      <trkpt lat="45.39955" lon="5.30767">
        <ele>479.35</ele>
        <time>2011-02-13T08:58:24Z</time>
      </trkpt>
      <trkpt lat="45.39954" lon="5.30782">
        <ele>479.84</ele>
        <time>2011-02-13T08:58:28Z</time>
      </trkpt>
      <trkpt lat="45.39954" lon="5.30799">
        <ele>480.32</ele>
        <time>2011-02-13T08:58:32Z</time>
      </trkpt>
      <trkpt lat="45.39954" lon="5.30813">
        <ele>480.32</ele>
        <time>2011-02-13T08:58:35Z</time>
      </trkpt>
      <trkpt lat="45.39954" lon="5.30827">
        <ele>480.32</ele>
        <time>2011-02-13T08:58:39Z</time>
      </trkpt>
      <trkpt lat="45.39954" lon="5.3084">
        <ele>479.84</ele>
        <time>2011-02-13T08:58:44Z</time>
      </trkpt>
      <trkpt lat="45.39953" lon="5.30854">
        <ele>480.32</ele>
        <time>2011-02-13T08:58:52Z</time>
      </trkpt>
      <trkpt lat="45.39953" lon="5.30868">
        <ele>480.8</ele>
        <time>2011-02-13T08:59:00Z</time>
      </trkpt>
      <trkpt lat="45.39953" lon="5.30883">
        <ele>480.8</ele>
        <time>2011-02-13T08:59:08Z</time>
      </trkpt>
      <trkpt lat="45.39953" lon="5.30897">
        <ele>480.8</ele>
        <time>2011-02-13T08:59:15Z</time>
      </trkpt>
      <trkpt lat="45.39953" lon="5.30912">
        <ele>480.8</ele>
        <time>2011-02-13T08:59:21Z</time>
      </trkpt>
      <trkpt lat="45.39953" lon="5.30925">
        <ele>480.32</ele>
        <time>2011-02-13T08:59:27Z</time>
      </trkpt>
      <trkpt lat="45.39952" lon="5.30938">
        <ele>479.84</ele>
        <time>2011-02-13T08:59:36Z</time>
      </trkpt>
      <trkpt lat="45.39959" lon="5.30945">
        <ele>481.28</ele>
        <time>2011-02-13T08:59:43Z</time>
      </trkpt>
      <trkpt lat="45.3997" lon="5.30947">
        <ele>482.24</ele>
        <time>2011-02-13T08:59:51Z</time>
      </trkpt>
      <trkpt lat="45.3996" lon="5.3096">
        <ele>481.76</ele>
        <time>2011-02-13T09:00:00Z</time>
      </trkpt>
      <trkpt lat="45.39954" lon="5.30975">
        <ele>480.8</ele>
        <time>2011-02-13T09:00:04Z</time>
      </trkpt>
      <trkpt lat="45.39954" lon="5.30989">
        <ele>480.8</ele>
        <time>2011-02-13T09:00:07Z</time>
      </trkpt>
      <trkpt lat="45.39954" lon="5.31005">
        <ele>480.32</ele>
        <time>2011-02-13T09:00:11Z</time>
      </trkpt>
      <trkpt lat="45.39955" lon="5.3102">
        <ele>481.28</ele>
        <time>2011-02-13T09:00:15Z</time>
      </trkpt>
      <trkpt lat="45.39956" lon="5.31037">
        <ele>481.28</ele>
        <time>2011-02-13T09:00:19Z</time>
      </trkpt>
      <trkpt lat="45.39958" lon="5.31051">
        <ele>481.76</ele>
        <time>2011-02-13T09:00:22Z</time>
      </trkpt>
      <trkpt lat="45.39962" lon="5.31064">
        <ele>481.76</ele>
        <time>2011-02-13T09:00:25Z</time>
      </trkpt>
      <trkpt lat="45.39966" lon="5.31075">
        <ele>481.76</ele>
        <time>2011-02-13T09:00:28Z</time>
      </trkpt>
      <trkpt lat="45.39973" lon="5.3109">
        <ele>482.24</ele>
        <time>2011-02-13T09:00:32Z</time>
      </trkpt>
      <trkpt lat="45.39981" lon="5.31099">
        <ele>482.72</ele>
        <time>2011-02-13T09:00:36Z</time>
      </trkpt>
      <trkpt lat="45.39991" lon="5.31104">
        <ele>483.2</ele>
        <time>2011-02-13T09:00:40Z</time>
      </trkpt>
      <trkpt lat="45.40001" lon="5.31108">
        <ele>484.16</ele>
        <time>2011-02-13T09:00:44Z</time>
      </trkpt>
      <trkpt lat="45.40011" lon="5.31111">
        <ele>485.12</ele>
        <time>2011-02-13T09:00:48Z</time>
      </trkpt>
      <trkpt lat="45.4002" lon="5.31116">
        <ele>485.12</ele>
        <time>2011-02-13T09:00:52Z</time>
      </trkpt>
      <trkpt lat="45.40029" lon="5.3112">
        <ele>486.08</ele>
        <time>2011-02-13T09:00:56Z</time>
      </trkpt>
      <trkpt lat="45.40039" lon="5.31122">
        <ele>486.56</ele>
        <time>2011-02-13T09:01:00Z</time>
      </trkpt>
      <trkpt lat="45.40048" lon="5.31126">
        <ele>487.05</ele>
        <time>2011-02-13T09:01:04Z</time>
      </trkpt>
      <trkpt lat="45.40059" lon="5.3113">
        <ele>488.49</ele>
        <time>2011-02-13T09:01:09Z</time>
      </trkpt>
      <trkpt lat="45.40067" lon="5.31133">
        <ele>488.97</ele>
        <time>2011-02-13T09:01:14Z</time>
      </trkpt>
      <trkpt lat="45.40076" lon="5.31139">
        <ele>489.93</ele>
        <time>2011-02-13T09:01:20Z</time>
      </trkpt>
      <trkpt lat="45.40087" lon="5.31141">
        <ele>490.89</ele>
        <time>2011-02-13T09:01:25Z</time>
      </trkpt>
      <trkpt lat="45.40096" lon="5.31143">
        <ele>491.85</ele>
        <time>2011-02-13T09:01:30Z</time>
      </trkpt>
      <trkpt lat="45.40105" lon="5.31147">
        <ele>493.29</ele>
        <time>2011-02-13T09:01:35Z</time>
      </trkpt>
      <trkpt lat="45.40116" lon="5.31149">
        <ele>494.74</ele>
        <time>2011-02-13T09:01:41Z</time>
      </trkpt>
      <trkpt lat="45.40126" lon="5.31151">
        <ele>495.7</ele>
        <time>2011-02-13T09:01:47Z</time>
      </trkpt>
      <trkpt lat="45.40137" lon="5.31154">
        <ele>497.14</ele>
        <time>2011-02-13T09:01:54Z</time>
      </trkpt>
      <trkpt lat="45.40146" lon="5.31154">
        <ele>498.58</ele>
        <time>2011-02-13T09:02:00Z</time>
      </trkpt>
      <trkpt lat="45.40155" lon="5.31156">
        <ele>499.54</ele>
        <time>2011-02-13T09:02:06Z</time>
      </trkpt>
      <trkpt lat="45.40162" lon="5.31163">
        <ele>500.98</ele>
        <time>2011-02-13T09:02:12Z</time>
      </trkpt>
      <trkpt lat="45.40166" lon="5.31176">
        <ele>502.91</ele>
        <time>2011-02-13T09:02:18Z</time>
      </trkpt>
      <trkpt lat="45.40169" lon="5.3119">
        <ele>503.39</ele>
        <time>2011-02-13T09:02:24Z</time>
      </trkpt>
      <trkpt lat="45.40171" lon="5.31202">
        <ele>503.87</ele>
        <time>2011-02-13T09:02:29Z</time>
      </trkpt>
      <trkpt lat="45.40174" lon="5.31216">
        <ele>504.83</ele>
        <time>2011-02-13T09:02:34Z</time>
      </trkpt>
      <trkpt lat="45.40177" lon="5.31231">
        <ele>505.31</ele>
        <time>2011-02-13T09:02:39Z</time>
      </trkpt>
      <trkpt lat="45.4018" lon="5.31247">
        <ele>505.31</ele>
        <time>2011-02-13T09:02:44Z</time>
      </trkpt>
      <trkpt lat="45.40183" lon="5.31259">
        <ele>506.27</ele>
        <time>2011-02-13T09:02:48Z</time>
      </trkpt>
      <trkpt lat="45.40187" lon="5.31272">
        <ele>506.27</ele>
        <time>2011-02-13T09:02:52Z</time>
      </trkpt>
      <trkpt lat="45.4019" lon="5.31288">
        <ele>506.27</ele>
        <time>2011-02-13T09:02:56Z</time>
      </trkpt>
      <trkpt lat="45.40194" lon="5.31301">
        <ele>506.27</ele>
        <time>2011-02-13T09:02:59Z</time>
      </trkpt>
      <trkpt lat="45.40197" lon="5.31314">
        <ele>506.27</ele>
        <time>2011-02-13T09:03:02Z</time>
      </trkpt>
      <trkpt lat="45.40199" lon="5.31328">
        <ele>506.27</ele>
        <time>2011-02-13T09:03:05Z</time>
      </trkpt>
      <trkpt lat="45.402" lon="5.31341">
        <ele>506.27</ele>
        <time>2011-02-13T09:03:08Z</time>
      </trkpt>
      <trkpt lat="45.40203" lon="5.31357">
        <ele>506.27</ele>
        <time>2011-02-13T09:03:12Z</time>
      </trkpt>
      <trkpt lat="45.40205" lon="5.31372">
        <ele>507.23</ele>
        <time>2011-02-13T09:03:16Z</time>
      </trkpt>
      <trkpt lat="45.40208" lon="5.31388">
        <ele>507.71</ele>
        <time>2011-02-13T09:03:20Z</time>
      </trkpt>
      <trkpt lat="45.40208" lon="5.31402">
        <ele>507.71</ele>
        <time>2011-02-13T09:03:24Z</time>
      </trkpt>
      <trkpt lat="45.40206" lon="5.31415">
        <ele>508.19</ele>
        <time>2011-02-13T09:03:28Z</time>
      </trkpt>
      <trkpt lat="45.40202" lon="5.31428">
        <ele>509.16</ele>
        <time>2011-02-13T09:03:33Z</time>
      </trkpt>
      <trkpt lat="45.40197" lon="5.3144">
        <ele>509.64</ele>
        <time>2011-02-13T09:03:40Z</time>
      </trkpt>
      <trkpt lat="45.40193" lon="5.31454">
        <ele>511.08</ele>
        <time>2011-02-13T09:03:48Z</time>
      </trkpt>
      <trkpt lat="45.40189" lon="5.31465">
        <ele>512.52</ele>
        <time>2011-02-13T09:03:57Z</time>
      </trkpt>
      <trkpt lat="45.40186" lon="5.31477">
        <ele>513.96</ele>
        <time>2011-02-13T09:04:06Z</time>
      </trkpt>
      <trkpt lat="45.40186" lon="5.31488">
        <ele>514.44</ele>
        <time>2011-02-13T09:04:25Z</time>
      </trkpt>
      <trkpt lat="45.40185" lon="5.31501">
        <ele>515.88</ele>
        <time>2011-02-13T09:04:32Z</time>
      </trkpt>
      <trkpt lat="45.40185" lon="5.31515">
        <ele>516.37</ele>
        <time>2011-02-13T09:04:39Z</time>
      </trkpt>
      <trkpt lat="45.40186" lon="5.31528">
        <ele>518.29</ele>
        <time>2011-02-13T09:04:46Z</time>
      </trkpt>
      <trkpt lat="45.40187" lon="5.31544">
        <ele>519.25</ele>
        <time>2011-02-13T09:04:53Z</time>
      </trkpt>
      <trkpt lat="45.40189" lon="5.31558">
        <ele>519.73</ele>
        <time>2011-02-13T09:04:59Z</time>
      </trkpt>
      <trkpt lat="45.40194" lon="5.31571">
        <ele>521.65</ele>
        <time>2011-02-13T09:05:06Z</time>
      </trkpt>
      <trkpt lat="45.40197" lon="5.31585">
        <ele>521.65</ele>
        <time>2011-02-13T09:05:12Z</time>
      </trkpt>
      <trkpt lat="45.40201" lon="5.31598">
        <ele>522.61</ele>
        <time>2011-02-13T09:05:18Z</time>
      </trkpt>
      <trkpt lat="45.40204" lon="5.31611">
        <ele>524.06</ele>
        <time>2011-02-13T09:05:24Z</time>
      </trkpt>
      <trkpt lat="45.40206" lon="5.31626">
        <ele>525.02</ele>
        <time>2011-02-13T09:05:30Z</time>
      </trkpt>
      <trkpt lat="45.4021" lon="5.31638">
        <ele>526.46</ele>
        <time>2011-02-13T09:05:36Z</time>
      </trkpt>
      <trkpt lat="45.40215" lon="5.31652">
        <ele>526.94</ele>
        <time>2011-02-13T09:05:42Z</time>
      </trkpt>
      <trkpt lat="45.40221" lon="5.31664">
        <ele>527.42</ele>
        <time>2011-02-13T09:05:48Z</time>
      </trkpt>
      <trkpt lat="45.40228" lon="5.31674">
        <ele>527.9</ele>
        <time>2011-02-13T09:05:53Z</time>
      </trkpt>
      <trkpt lat="45.40236" lon="5.31683">
        <ele>528.38</ele>
        <time>2011-02-13T09:05:59Z</time>
      </trkpt>
      <trkpt lat="45.40245" lon="5.31693">
        <ele>529.82</ele>
        <time>2011-02-13T09:06:05Z</time>
      </trkpt>
      <trkpt lat="45.40254" lon="5.31699">
        <ele>530.79</ele>
        <time>2011-02-13T09:06:11Z</time>
      </trkpt>
      <trkpt lat="45.40263" lon="5.31706">
        <ele>531.75</ele>
        <time>2011-02-13T09:06:17Z</time>
      </trkpt>
      <trkpt lat="45.40273" lon="5.31712">
        <ele>532.71</ele>
        <time>2011-02-13T09:06:23Z</time>
      </trkpt>
      <trkpt lat="45.40281" lon="5.31718">
        <ele>533.67</ele>
        <time>2011-02-13T09:06:28Z</time>
      </trkpt>
      <trkpt lat="45.40289" lon="5.31723">
        <ele>533.67</ele>
        <time>2011-02-13T09:06:33Z</time>
      </trkpt>
      <trkpt lat="45.40298" lon="5.31729">
        <ele>533.19</ele>
        <time>2011-02-13T09:06:37Z</time>
      </trkpt>
      <trkpt lat="45.40306" lon="5.31735">
        <ele>532.71</ele>
        <time>2011-02-13T09:06:40Z</time>
      </trkpt>
      <trkpt lat="45.40315" lon="5.31741">
        <ele>532.71</ele>
        <time>2011-02-13T09:06:43Z</time>
      </trkpt>
      <trkpt lat="45.40323" lon="5.31746">
        <ele>532.71</ele>
        <time>2011-02-13T09:06:46Z</time>
      </trkpt>
      <trkpt lat="45.40332" lon="5.31753">
        <ele>532.71</ele>
        <time>2011-02-13T09:06:50Z</time>
      </trkpt>
      <trkpt lat="45.40342" lon="5.31759">
        <ele>533.67</ele>
        <time>2011-02-13T09:06:54Z</time>
      </trkpt>
      <trkpt lat="45.4035" lon="5.31767">
        <ele>534.15</ele>
        <time>2011-02-13T09:06:58Z</time>
      </trkpt>
      <trkpt lat="45.40354" lon="5.3178">
        <ele>534.63</ele>
        <time>2011-02-13T09:07:02Z</time>
      </trkpt>
      <trkpt lat="45.40354" lon="5.31793">
        <ele>535.59</ele>
        <time>2011-02-13T09:07:06Z</time>
      </trkpt>
      <trkpt lat="45.40352" lon="5.31807">
        <ele>536.07</ele>
        <time>2011-02-13T09:07:10Z</time>
      </trkpt>
      <trkpt lat="45.40351" lon="5.3182">
        <ele>536.07</ele>
        <time>2011-02-13T09:07:14Z</time>
      </trkpt>
      <trkpt lat="45.4035" lon="5.31833">
        <ele>537.51</ele>
        <time>2011-02-13T09:07:18Z</time>
      </trkpt>
      <trkpt lat="45.4035" lon="5.31849">
        <ele>537.99</ele>
        <time>2011-02-13T09:07:23Z</time>
      </trkpt>
      <trkpt lat="45.40352" lon="5.31863">
        <ele>539.44</ele>
        <time>2011-02-13T09:07:28Z</time>
      </trkpt>
      <trkpt lat="45.40354" lon="5.31876">
        <ele>540.4</ele>
        <time>2011-02-13T09:07:33Z</time>
      </trkpt>
      <trkpt lat="45.40356" lon="5.31889">
        <ele>540.88</ele>
        <time>2011-02-13T09:07:38Z</time>
      </trkpt>
      <trkpt lat="45.40359" lon="5.31902">
        <ele>542.32</ele>
        <time>2011-02-13T09:07:43Z</time>
      </trkpt>
      <trkpt lat="45.40364" lon="5.31915">
        <ele>543.28</ele>
        <time>2011-02-13T09:07:49Z</time>
      </trkpt>
      <trkpt lat="45.40369" lon="5.31927">
        <ele>544.24</ele>
        <time>2011-02-13T09:07:55Z</time>
      </trkpt>
      <trkpt lat="45.40375" lon="5.31939">
        <ele>544.72</ele>
        <time>2011-02-13T09:08:00Z</time>
      </trkpt>
      <trkpt lat="45.4038" lon="5.31952">
        <ele>545.2</ele>
        <time>2011-02-13T09:08:05Z</time>
      </trkpt>
      <trkpt lat="45.40385" lon="5.31967">
        <ele>545.69</ele>
        <time>2011-02-13T09:08:10Z</time>
      </trkpt>
      <trkpt lat="45.4039" lon="5.31978">
        <ele>545.69</ele>
        <time>2011-02-13T09:08:14Z</time>
      </trkpt>
      <trkpt lat="45.40395" lon="5.31993">
        <ele>546.17</ele>
        <time>2011-02-13T09:08:18Z</time>
      </trkpt>
      <trkpt lat="45.40399" lon="5.32009">
        <ele>546.17</ele>
        <time>2011-02-13T09:08:22Z</time>
      </trkpt>
      <trkpt lat="45.40403" lon="5.32023">
        <ele>545.69</ele>
        <time>2011-02-13T09:08:25Z</time>
      </trkpt>
      <trkpt lat="45.40407" lon="5.32036">
        <ele>545.69</ele>
        <time>2011-02-13T09:08:28Z</time>
      </trkpt>
      <trkpt lat="45.4041" lon="5.32049">
        <ele>545.69</ele>
        <time>2011-02-13T09:08:31Z</time>
      </trkpt>
      <trkpt lat="45.40415" lon="5.32064">
        <ele>546.17</ele>
        <time>2011-02-13T09:08:35Z</time>
      </trkpt>
      <trkpt lat="45.40419" lon="5.32077">
        <ele>546.17</ele>
        <time>2011-02-13T09:08:38Z</time>
      </trkpt>
      <trkpt lat="45.40423" lon="5.32091">
        <ele>546.17</ele>
        <time>2011-02-13T09:08:41Z</time>
      </trkpt>
      <trkpt lat="45.40427" lon="5.32105">
        <ele>546.17</ele>
        <time>2011-02-13T09:08:44Z</time>
      </trkpt>
      <trkpt lat="45.4043" lon="5.3212">
        <ele>546.65</ele>
        <time>2011-02-13T09:08:47Z</time>
      </trkpt>
      <trkpt lat="45.40432" lon="5.32136">
        <ele>547.13</ele>
        <time>2011-02-13T09:08:50Z</time>
      </trkpt>
      <trkpt lat="45.40434" lon="5.32149">
        <ele>547.13</ele>
        <time>2011-02-13T09:08:53Z</time>
      </trkpt>
      <trkpt lat="45.40437" lon="5.32162">
        <ele>547.13</ele>
        <time>2011-02-13T09:08:56Z</time>
      </trkpt>
      <trkpt lat="45.4044" lon="5.32177">
        <ele>548.09</ele>
        <time>2011-02-13T09:08:59Z</time>
      </trkpt>
      <trkpt lat="45.40443" lon="5.32191">
        <ele>548.57</ele>
        <time>2011-02-13T09:09:02Z</time>
      </trkpt>
      <trkpt lat="45.40445" lon="5.32205">
        <ele>548.57</ele>
        <time>2011-02-13T09:09:05Z</time>
      </trkpt>
      <trkpt lat="45.40448" lon="5.32218">
        <ele>549.05</ele>
        <time>2011-02-13T09:09:08Z</time>
      </trkpt>
      <trkpt lat="45.40451" lon="5.32234">
        <ele>549.53</ele>
        <time>2011-02-13T09:09:12Z</time>
      </trkpt>
      <trkpt lat="45.40453" lon="5.32247">
        <ele>550.01</ele>
        <time>2011-02-13T09:09:15Z</time>
      </trkpt>
      <trkpt lat="45.40456" lon="5.32259">
        <ele>550.49</ele>
        <time>2011-02-13T09:09:18Z</time>
      </trkpt>
      <trkpt lat="45.4046" lon="5.32271">
        <ele>550.49</ele>
        <time>2011-02-13T09:09:21Z</time>
      </trkpt>
      <trkpt lat="45.40465" lon="5.32284">
        <ele>550.49</ele>
        <time>2011-02-13T09:09:24Z</time>
      </trkpt>
      <trkpt lat="45.40469" lon="5.32297">
        <ele>550.49</ele>
        <time>2011-02-13T09:09:27Z</time>
      </trkpt>
      <trkpt lat="45.40474" lon="5.32311">
        <ele>550.97</ele>
        <time>2011-02-13T09:09:30Z</time>
      </trkpt>
      <trkpt lat="45.40477" lon="5.32324">
        <ele>551.45</ele>
        <time>2011-02-13T09:09:33Z</time>
      </trkpt>
      <trkpt lat="45.4048" lon="5.3234">
        <ele>551.45</ele>
        <time>2011-02-13T09:09:36Z</time>
      </trkpt>
      <trkpt lat="45.40483" lon="5.32356">
        <ele>551.45</ele>
        <time>2011-02-13T09:09:39Z</time>
      </trkpt>
      <trkpt lat="45.40485" lon="5.32372">
        <ele>550.97</ele>
        <time>2011-02-13T09:09:42Z</time>
      </trkpt>
      <trkpt lat="45.40488" lon="5.32387">
        <ele>551.45</ele>
        <time>2011-02-13T09:09:45Z</time>
      </trkpt>
      <trkpt lat="45.40491" lon="5.32402">
        <ele>551.45</ele>
        <time>2011-02-13T09:09:48Z</time>
      </trkpt>
      <trkpt lat="45.40492" lon="5.32417">
        <ele>551.45</ele>
        <time>2011-02-13T09:09:51Z</time>
      </trkpt>
      <trkpt lat="45.40494" lon="5.32433">
        <ele>551.45</ele>
        <time>2011-02-13T09:09:54Z</time>
      </trkpt>
      <trkpt lat="45.40496" lon="5.32448">
        <ele>551.93</ele>
        <time>2011-02-13T09:09:57Z</time>
      </trkpt>
      <trkpt lat="45.405" lon="5.32462">
        <ele>552.41</ele>
        <time>2011-02-13T09:10:00Z</time>
      </trkpt>
      <trkpt lat="45.40504" lon="5.32474">
        <ele>553.38</ele>
        <time>2011-02-13T09:10:03Z</time>
      </trkpt>
      <trkpt lat="45.40507" lon="5.32488">
        <ele>553.38</ele>
        <time>2011-02-13T09:10:06Z</time>
      </trkpt>
      <trkpt lat="45.40509" lon="5.32502">
        <ele>554.34</ele>
        <time>2011-02-13T09:10:09Z</time>
      </trkpt>
      <trkpt lat="45.40511" lon="5.32517">
        <ele>553.86</ele>
        <time>2011-02-13T09:10:12Z</time>
      </trkpt>
      <trkpt lat="45.40513" lon="5.32531">
        <ele>554.82</ele>
        <time>2011-02-13T09:10:15Z</time>
      </trkpt>
      <trkpt lat="45.40514" lon="5.32546">
        <ele>555.3</ele>
        <time>2011-02-13T09:10:18Z</time>
      </trkpt>
      <trkpt lat="45.40516" lon="5.32561">
        <ele>555.3</ele>
        <time>2011-02-13T09:10:21Z</time>
      </trkpt>
      <trkpt lat="45.40519" lon="5.32576">
        <ele>556.26</ele>
        <time>2011-02-13T09:10:24Z</time>
      </trkpt>
      <trkpt lat="45.40521" lon="5.32589">
        <ele>556.26</ele>
        <time>2011-02-13T09:10:27Z</time>
      </trkpt>
      <trkpt lat="45.40523" lon="5.32602">
        <ele>556.74</ele>
        <time>2011-02-13T09:10:30Z</time>
      </trkpt>
      <trkpt lat="45.40526" lon="5.32618">
        <ele>557.7</ele>
        <time>2011-02-13T09:10:34Z</time>
      </trkpt>
      <trkpt lat="45.40528" lon="5.32631">
        <ele>558.66</ele>
        <time>2011-02-13T09:10:39Z</time>
      </trkpt>
      <trkpt lat="45.4053" lon="5.32644">
        <ele>560.11</ele>
        <time>2011-02-13T09:10:44Z</time>
      </trkpt>
      <trkpt lat="45.40535" lon="5.32657">
        <ele>561.07</ele>
        <time>2011-02-13T09:10:50Z</time>
      </trkpt>
      <trkpt lat="45.40539" lon="5.32669">
        <ele>562.03</ele>
        <time>2011-02-13T09:10:55Z</time>
      </trkpt>
      <trkpt lat="45.40544" lon="5.32681">
        <ele>563.95</ele>
        <time>2011-02-13T09:11:01Z</time>
      </trkpt>
      <trkpt lat="45.40548" lon="5.32693">
        <ele>565.39</ele>
        <time>2011-02-13T09:11:07Z</time>
      </trkpt>
      <trkpt lat="45.40554" lon="5.32705">
        <ele>567.32</ele>
        <time>2011-02-13T09:11:14Z</time>
      </trkpt>
      <trkpt lat="45.40559" lon="5.32716">
        <ele>567.8</ele>
        <time>2011-02-13T09:11:20Z</time>
      </trkpt>
      <trkpt lat="45.40564" lon="5.32728">
        <ele>568.76</ele>
        <time>2011-02-13T09:11:26Z</time>
      </trkpt>
      <trkpt lat="45.40569" lon="5.3274">
        <ele>569.72</ele>
        <time>2011-02-13T09:11:33Z</time>
      </trkpt>
      <trkpt lat="45.40573" lon="5.32752">
        <ele>572.12</ele>
        <time>2011-02-13T09:11:39Z</time>
      </trkpt>
      <trkpt lat="45.40578" lon="5.32763">
        <ele>573.56</ele>
        <time>2011-02-13T09:11:45Z</time>
      </trkpt>
      <trkpt lat="45.40584" lon="5.32774">
        <ele>574.53</ele>
        <time>2011-02-13T09:11:51Z</time>
      </trkpt>
      <trkpt lat="45.4059" lon="5.32785">
        <ele>576.45</ele>
        <time>2011-02-13T09:11:57Z</time>
      </trkpt>
      <trkpt lat="45.40595" lon="5.32795">
        <ele>576.93</ele>
        <time>2011-02-13T09:12:03Z</time>
      </trkpt>
      <trkpt lat="45.40603" lon="5.32805">
        <ele>577.89</ele>
        <time>2011-02-13T09:12:10Z</time>
      </trkpt>
      <trkpt lat="45.40612" lon="5.32814">
        <ele>579.33</ele>
        <time>2011-02-13T09:12:17Z</time>
      </trkpt>
      <trkpt lat="45.40619" lon="5.32824">
        <ele>580.77</ele>
        <time>2011-02-13T09:12:24Z</time>
      </trkpt>
      <trkpt lat="45.40627" lon="5.32831">
        <ele>582.7</ele>
        <time>2011-02-13T09:12:31Z</time>
      </trkpt>
      <trkpt lat="45.40633" lon="5.32842">
        <ele>583.66</ele>
        <time>2011-02-13T09:12:38Z</time>
      </trkpt>
      <trkpt lat="45.40629" lon="5.32856">
        <ele>584.62</ele>
        <time>2011-02-13T09:12:44Z</time>
      </trkpt>
      <trkpt lat="45.40626" lon="5.3287">
        <ele>585.1</ele>
        <time>2011-02-13T09:12:49Z</time>
      </trkpt>
      <trkpt lat="45.40624" lon="5.32884">
        <ele>585.1</ele>
        <time>2011-02-13T09:12:55Z</time>
      </trkpt>
      <trkpt lat="45.40622" lon="5.329">
        <ele>586.06</ele>
        <time>2011-02-13T09:13:00Z</time>
      </trkpt>
      <trkpt lat="45.40621" lon="5.32914">
        <ele>586.06</ele>
        <time>2011-02-13T09:13:04Z</time>
      </trkpt>
      <trkpt lat="45.4062" lon="5.32928">
        <ele>586.06</ele>
        <time>2011-02-13T09:13:08Z</time>
      </trkpt>
      <trkpt lat="45.40619" lon="5.32942">
        <ele>586.54</ele>
        <time>2011-02-13T09:13:12Z</time>
      </trkpt>
      <trkpt lat="45.40618" lon="5.32957">
        <ele>586.06</ele>
        <time>2011-02-13T09:13:16Z</time>
      </trkpt>
      <trkpt lat="45.40617" lon="5.32972">
        <ele>586.54</ele>
        <time>2011-02-13T09:13:20Z</time>
      </trkpt>
      <trkpt lat="45.40617" lon="5.32986">
        <ele>587.5</ele>
        <time>2011-02-13T09:13:24Z</time>
      </trkpt>
      <trkpt lat="45.40615" lon="5.33">
        <ele>587.5</ele>
        <time>2011-02-13T09:13:28Z</time>
      </trkpt>
      <trkpt lat="45.40613" lon="5.33017">
        <ele>588.46</ele>
        <time>2011-02-13T09:13:32Z</time>
      </trkpt>
      <trkpt lat="45.40611" lon="5.33031">
        <ele>587.5</ele>
        <time>2011-02-13T09:13:35Z</time>
      </trkpt>
      <trkpt lat="45.40609" lon="5.33046">
        <ele>587.98</ele>
        <time>2011-02-13T09:13:38Z</time>
      </trkpt>
      <trkpt lat="45.40607" lon="5.33062">
        <ele>587.98</ele>
        <time>2011-02-13T09:13:41Z</time>
      </trkpt>
      <trkpt lat="45.40606" lon="5.33076">
        <ele>587.98</ele>
        <time>2011-02-13T09:13:44Z</time>
      </trkpt>
      <trkpt lat="45.40604" lon="5.33091">
        <ele>588.46</ele>
        <time>2011-02-13T09:13:47Z</time>
      </trkpt>
      <trkpt lat="45.40603" lon="5.33106">
        <ele>588.46</ele>
        <time>2011-02-13T09:13:50Z</time>
      </trkpt>
      <trkpt lat="45.40601" lon="5.33121">
        <ele>589.43</ele>
        <time>2011-02-13T09:13:53Z</time>
      </trkpt>
      <trkpt lat="45.406" lon="5.33135">
        <ele>589.43</ele>
        <time>2011-02-13T09:13:56Z</time>
      </trkpt>
      <trkpt lat="45.40599" lon="5.33149">
        <ele>589.91</ele>
        <time>2011-02-13T09:13:59Z</time>
      </trkpt>
      <trkpt lat="45.40598" lon="5.33163">
        <ele>590.39</ele>
        <time>2011-02-13T09:14:02Z</time>
      </trkpt>
      <trkpt lat="45.40597" lon="5.33177">
        <ele>590.87</ele>
        <time>2011-02-13T09:14:05Z</time>
      </trkpt>
      <trkpt lat="45.40595" lon="5.33193">
        <ele>591.35</ele>
        <time>2011-02-13T09:14:08Z</time>
      </trkpt>
      <trkpt lat="45.40594" lon="5.33207">
        <ele>591.83</ele>
        <time>2011-02-13T09:14:11Z</time>
      </trkpt>
      <trkpt lat="45.40593" lon="5.3322">
        <ele>593.27</ele>
        <time>2011-02-13T09:14:14Z</time>
      </trkpt>
      <trkpt lat="45.40591" lon="5.33236">
        <ele>593.75</ele>
        <time>2011-02-13T09:14:18Z</time>
      </trkpt>
      <trkpt lat="45.40589" lon="5.33251">
        <ele>593.75</ele>
        <time>2011-02-13T09:14:22Z</time>
      </trkpt>
      <trkpt lat="45.40587" lon="5.33267">
        <ele>594.71</ele>
        <time>2011-02-13T09:14:26Z</time>
      </trkpt>
      <trkpt lat="45.40586" lon="5.33284">
        <ele>594.71</ele>
        <time>2011-02-13T09:14:30Z</time>
      </trkpt>
      <trkpt lat="45.40585" lon="5.33297">
        <ele>594.71</ele>
        <time>2011-02-13T09:14:33Z</time>
      </trkpt>
      <trkpt lat="45.40584" lon="5.33314">
        <ele>595.19</ele>
        <time>2011-02-13T09:14:37Z</time>
      </trkpt>
      <trkpt lat="45.40583" lon="5.3333">
        <ele>596.15</ele>
        <time>2011-02-13T09:14:41Z</time>
      </trkpt>
      <trkpt lat="45.40583" lon="5.33343">
        <ele>595.67</ele>
        <time>2011-02-13T09:14:44Z</time>
      </trkpt>
      <trkpt lat="45.40583" lon="5.3336">
        <ele>595.67</ele>
        <time>2011-02-13T09:14:48Z</time>
      </trkpt>
      <trkpt lat="45.40584" lon="5.33376">
        <ele>596.15</ele>
        <time>2011-02-13T09:14:52Z</time>
      </trkpt>
      <trkpt lat="45.40584" lon="5.33389">
        <ele>596.64</ele>
        <time>2011-02-13T09:14:55Z</time>
      </trkpt>
      <trkpt lat="45.40585" lon="5.33402">
        <ele>596.64</ele>
        <time>2011-02-13T09:14:58Z</time>
      </trkpt>
      <trkpt lat="45.40586" lon="5.33415">
        <ele>598.56</ele>
        <time>2011-02-13T09:15:01Z</time>
      </trkpt>
      <trkpt lat="45.40588" lon="5.33429">
        <ele>598.56</ele>
        <time>2011-02-13T09:15:05Z</time>
      </trkpt>
      <trkpt lat="45.40591" lon="5.33445">
        <ele>600</ele>
        <time>2011-02-13T09:15:10Z</time>
      </trkpt>
      <trkpt lat="45.40595" lon="5.33459">
        <ele>600.48</ele>
        <time>2011-02-13T09:15:15Z</time>
      </trkpt>
      <trkpt lat="45.40598" lon="5.33474">
        <ele>600</ele>
        <time>2011-02-13T09:15:20Z</time>
      </trkpt>
      <trkpt lat="45.40601" lon="5.33489">
        <ele>600.48</ele>
        <time>2011-02-13T09:15:25Z</time>
      </trkpt>
      <trkpt lat="45.40603" lon="5.33502">
        <ele>600</ele>
        <time>2011-02-13T09:15:29Z</time>
      </trkpt>
      <trkpt lat="45.40604" lon="5.33518">
        <ele>600</ele>
        <time>2011-02-13T09:15:34Z</time>
      </trkpt>
      <trkpt lat="45.40606" lon="5.33531">
        <ele>600</ele>
        <time>2011-02-13T09:15:38Z</time>
      </trkpt>
      <trkpt lat="45.40608" lon="5.33546">
        <ele>600</ele>
        <time>2011-02-13T09:15:42Z</time>
      </trkpt>
      <trkpt lat="45.4061" lon="5.33561">
        <ele>600</ele>
        <time>2011-02-13T09:15:46Z</time>
      </trkpt>
      <trkpt lat="45.40612" lon="5.33577">
        <ele>599.52</ele>
        <time>2011-02-13T09:15:50Z</time>
      </trkpt>
      <trkpt lat="45.40616" lon="5.33593">
        <ele>600</ele>
        <time>2011-02-13T09:15:54Z</time>
      </trkpt>
      <trkpt lat="45.40618" lon="5.33607">
        <ele>600</ele>
        <time>2011-02-13T09:15:57Z</time>
      </trkpt>
      <trkpt lat="45.40621" lon="5.33622">
        <ele>599.04</ele>
        <time>2011-02-13T09:16:00Z</time>
      </trkpt>
      <trkpt lat="45.40619" lon="5.33638">
        <ele>596.15</ele>
        <time>2011-02-13T09:16:03Z</time>
      </trkpt>
      <trkpt lat="45.40603" lon="5.33646">
        <ele>593.27</ele>
        <time>2011-02-13T09:16:07Z</time>
      </trkpt>
      <trkpt lat="45.40579" lon="5.33657">
        <ele>589.43</ele>
        <time>2011-02-13T09:16:10Z</time>
      </trkpt>
      <trkpt lat="45.40556" lon="5.33667">
        <ele>587.5</ele>
        <time>2011-02-13T09:16:12Z</time>
      </trkpt>
      <trkpt lat="45.40537" lon="5.33672">
        <ele>586.06</ele>
        <time>2011-02-13T09:16:13Z</time>
      </trkpt>
      <trkpt lat="45.40525" lon="5.33677">
        <ele>585.1</ele>
        <time>2011-02-13T09:16:14Z</time>
      </trkpt>
      <trkpt lat="45.40514" lon="5.33681">
        <ele>583.66</ele>
        <time>2011-02-13T09:16:15Z</time>
      </trkpt>
      <trkpt lat="45.40504" lon="5.33686">
        <ele>581.73</ele>
        <time>2011-02-13T09:16:16Z</time>
      </trkpt>
      <trkpt lat="45.40487" lon="5.33695">
        <ele>577.89</ele>
        <time>2011-02-13T09:16:18Z</time>
      </trkpt>
      <trkpt lat="45.40471" lon="5.33703">
        <ele>575.01</ele>
        <time>2011-02-13T09:16:20Z</time>
      </trkpt>
      <trkpt lat="45.40461" lon="5.33707">
        <ele>572.12</ele>
        <time>2011-02-13T09:16:22Z</time>
      </trkpt>
      <trkpt lat="45.40451" lon="5.33711">
        <ele>570.2</ele>
        <time>2011-02-13T09:16:25Z</time>
      </trkpt>
      <trkpt lat="45.4045" lon="5.33723">
        <ele>569.24</ele>
        <time>2011-02-13T09:16:29Z</time>
      </trkpt>
      <trkpt lat="45.40456" lon="5.33737">
        <ele>569.24</ele>
        <time>2011-02-13T09:16:33Z</time>
      </trkpt>
      <trkpt lat="45.40462" lon="5.33753">
        <ele>569.24</ele>
        <time>2011-02-13T09:16:37Z</time>
      </trkpt>
      <trkpt lat="45.40469" lon="5.33769">
        <ele>568.28</ele>
        <time>2011-02-13T09:16:40Z</time>
      </trkpt>
      <trkpt lat="45.40474" lon="5.33781">
        <ele>567.8</ele>
        <time>2011-02-13T09:16:42Z</time>
      </trkpt>
      <trkpt lat="45.40479" lon="5.33794">
        <ele>566.83</ele>
        <time>2011-02-13T09:16:44Z</time>
      </trkpt>
      <trkpt lat="45.40484" lon="5.33807">
        <ele>566.35</ele>
        <time>2011-02-13T09:16:46Z</time>
      </trkpt>
      <trkpt lat="45.4049" lon="5.3382">
        <ele>565.39</ele>
        <time>2011-02-13T09:16:48Z</time>
      </trkpt>
      <trkpt lat="45.40497" lon="5.33834">
        <ele>564.91</ele>
        <time>2011-02-13T09:16:50Z</time>
      </trkpt>
      <trkpt lat="45.40503" lon="5.33848">
        <ele>564.91</ele>
        <time>2011-02-13T09:16:52Z</time>
      </trkpt>
      <trkpt lat="45.4051" lon="5.33862">
        <ele>563.95</ele>
        <time>2011-02-13T09:16:54Z</time>
      </trkpt>
      <trkpt lat="45.40517" lon="5.33876">
        <ele>563.47</ele>
        <time>2011-02-13T09:16:56Z</time>
      </trkpt>
      <trkpt lat="45.40524" lon="5.33891">
        <ele>563.95</ele>
        <time>2011-02-13T09:16:58Z</time>
      </trkpt>
      <trkpt lat="45.40529" lon="5.33904">
        <ele>564.43</ele>
        <time>2011-02-13T09:17:00Z</time>
      </trkpt>
      <trkpt lat="45.40535" lon="5.33916">
        <ele>564.43</ele>
        <time>2011-02-13T09:17:02Z</time>
      </trkpt>
      <trkpt lat="45.4054" lon="5.33928">
        <ele>564.91</ele>
        <time>2011-02-13T09:17:04Z</time>
      </trkpt>
      <trkpt lat="45.40546" lon="5.33945">
        <ele>565.39</ele>
        <time>2011-02-13T09:17:07Z</time>
      </trkpt>
      <trkpt lat="45.4055" lon="5.33963">
        <ele>566.35</ele>
        <time>2011-02-13T09:17:10Z</time>
      </trkpt>
      <trkpt lat="45.40553" lon="5.3398">
        <ele>566.35</ele>
        <time>2011-02-13T09:17:13Z</time>
      </trkpt>
      <trkpt lat="45.40556" lon="5.33996">
        <ele>566.83</ele>
        <time>2011-02-13T09:17:16Z</time>
      </trkpt>
      <trkpt lat="45.40559" lon="5.34012">
        <ele>566.83</ele>
        <time>2011-02-13T09:17:19Z</time>
      </trkpt>
      <trkpt lat="45.40562" lon="5.34028">
        <ele>566.83</ele>
        <time>2011-02-13T09:17:22Z</time>
      </trkpt>
      <trkpt lat="45.40565" lon="5.34046">
        <ele>566.35</ele>
        <time>2011-02-13T09:17:25Z</time>
      </trkpt>
      <trkpt lat="45.40569" lon="5.34063">
        <ele>566.83</ele>
        <time>2011-02-13T09:17:28Z</time>
      </trkpt>
      <trkpt lat="45.40571" lon="5.34081">
        <ele>566.35</ele>
        <time>2011-02-13T09:17:31Z</time>
      </trkpt>
      <trkpt lat="45.40573" lon="5.34094">
        <ele>565.87</ele>
        <time>2011-02-13T09:17:33Z</time>
      </trkpt>
      <trkpt lat="45.40574" lon="5.34107">
        <ele>565.87</ele>
        <time>2011-02-13T09:17:35Z</time>
      </trkpt>
      <trkpt lat="45.40575" lon="5.3412">
        <ele>565.87</ele>
        <time>2011-02-13T09:17:37Z</time>
      </trkpt>
      <trkpt lat="45.40577" lon="5.34133">
        <ele>566.35</ele>
        <time>2011-02-13T09:17:39Z</time>
      </trkpt>
      <trkpt lat="45.40579" lon="5.34151">
        <ele>566.35</ele>
        <time>2011-02-13T09:17:42Z</time>
      </trkpt>
      <trkpt lat="45.4058" lon="5.3417">
        <ele>565.87</ele>
        <time>2011-02-13T09:17:45Z</time>
      </trkpt>
      <trkpt lat="45.40581" lon="5.34183">
        <ele>565.39</ele>
        <time>2011-02-13T09:17:47Z</time>
      </trkpt>
      <trkpt lat="45.40582" lon="5.34196">
        <ele>565.87</ele>
        <time>2011-02-13T09:17:49Z</time>
      </trkpt>
      <trkpt lat="45.40584" lon="5.34209">
        <ele>565.87</ele>
        <time>2011-02-13T09:17:51Z</time>
      </trkpt>
      <trkpt lat="45.40585" lon="5.34228">
        <ele>565.87</ele>
        <time>2011-02-13T09:17:54Z</time>
      </trkpt>
      <trkpt lat="45.40586" lon="5.34247">
        <ele>565.87</ele>
        <time>2011-02-13T09:17:57Z</time>
      </trkpt>
      <trkpt lat="45.40588" lon="5.34266">
        <ele>565.39</ele>
        <time>2011-02-13T09:18:00Z</time>
      </trkpt>
      <trkpt lat="45.40589" lon="5.34278">
        <ele>565.39</ele>
        <time>2011-02-13T09:18:02Z</time>
      </trkpt>
      <trkpt lat="45.40592" lon="5.34296">
        <ele>565.39</ele>
        <time>2011-02-13T09:18:05Z</time>
      </trkpt>
      <trkpt lat="45.40594" lon="5.34311">
        <ele>564.91</ele>
        <time>2011-02-13T09:18:07Z</time>
      </trkpt>
      <trkpt lat="45.40599" lon="5.34324">
        <ele>563.47</ele>
        <time>2011-02-13T09:18:09Z</time>
      </trkpt>
      <trkpt lat="45.40607" lon="5.34335">
        <ele>563.95</ele>
        <time>2011-02-13T09:18:11Z</time>
      </trkpt>
      <trkpt lat="45.40614" lon="5.34343">
        <ele>563.47</ele>
        <time>2011-02-13T09:18:13Z</time>
      </trkpt>
      <trkpt lat="45.40621" lon="5.34351">
        <ele>562.99</ele>
        <time>2011-02-13T09:18:15Z</time>
      </trkpt>
      <trkpt lat="45.40628" lon="5.3436">
        <ele>562.99</ele>
        <time>2011-02-13T09:18:17Z</time>
      </trkpt>
      <trkpt lat="45.40635" lon="5.34369">
        <ele>562.51</ele>
        <time>2011-02-13T09:18:19Z</time>
      </trkpt>
      <trkpt lat="45.40642" lon="5.34378">
        <ele>562.51</ele>
        <time>2011-02-13T09:18:21Z</time>
      </trkpt>
      <trkpt lat="45.40651" lon="5.34386">
        <ele>562.99</ele>
        <time>2011-02-13T09:18:23Z</time>
      </trkpt>
      <trkpt lat="45.40659" lon="5.34395">
        <ele>562.03</ele>
        <time>2011-02-13T09:18:25Z</time>
      </trkpt>
      <trkpt lat="45.4067" lon="5.34403">
        <ele>560.59</ele>
        <time>2011-02-13T09:18:27Z</time>
      </trkpt>
      <trkpt lat="45.40682" lon="5.34412">
        <ele>558.66</ele>
        <time>2011-02-13T09:18:29Z</time>
      </trkpt>
      <trkpt lat="45.40696" lon="5.34422">
        <ele>557.7</ele>
        <time>2011-02-13T09:18:31Z</time>
      </trkpt>
      <trkpt lat="45.40709" lon="5.34433">
        <ele>556.26</ele>
        <time>2011-02-13T09:18:33Z</time>
      </trkpt>
      <trkpt lat="45.40723" lon="5.34441">
        <ele>554.82</ele>
        <time>2011-02-13T09:18:35Z</time>
      </trkpt>
      <trkpt lat="45.40734" lon="5.3445">
        <ele>553.38</ele>
        <time>2011-02-13T09:18:37Z</time>
      </trkpt>
      <trkpt lat="45.40743" lon="5.3446">
        <ele>552.9</ele>
        <time>2011-02-13T09:18:39Z</time>
      </trkpt>
      <trkpt lat="45.40748" lon="5.34473">
        <ele>554.34</ele>
        <time>2011-02-13T09:18:42Z</time>
      </trkpt>
      <trkpt lat="45.40754" lon="5.34486">
        <ele>554.34</ele>
        <time>2011-02-13T09:18:45Z</time>
      </trkpt>
      <trkpt lat="45.4076" lon="5.34496">
        <ele>554.82</ele>
        <time>2011-02-13T09:18:48Z</time>
      </trkpt>
      <trkpt lat="45.40769" lon="5.34498">
        <ele>555.3</ele>
        <time>2011-02-13T09:18:51Z</time>
      </trkpt>
      <trkpt lat="45.4078" lon="5.34493">
        <ele>556.26</ele>
        <time>2011-02-13T09:18:56Z</time>
      </trkpt>
      <trkpt lat="45.40787" lon="5.34483">
        <ele>556.74</ele>
        <time>2011-02-13T09:19:00Z</time>
      </trkpt>
      <trkpt lat="45.40794" lon="5.34472">
        <ele>557.7</ele>
        <time>2011-02-13T09:19:05Z</time>
      </trkpt>
      <trkpt lat="45.40802" lon="5.34464">
        <ele>559.14</ele>
        <time>2011-02-13T09:19:10Z</time>
      </trkpt>
      <trkpt lat="45.40812" lon="5.34467">
        <ele>560.11</ele>
        <time>2011-02-13T09:19:16Z</time>
      </trkpt>
      <trkpt lat="45.4082" lon="5.34475">
        <ele>562.03</ele>
        <time>2011-02-13T09:19:22Z</time>
      </trkpt>
      <trkpt lat="45.40829" lon="5.34484">
        <ele>563.95</ele>
        <time>2011-02-13T09:19:30Z</time>
      </trkpt>
      <trkpt lat="45.40839" lon="5.34493">
        <ele>564.91</ele>
        <time>2011-02-13T09:19:37Z</time>
      </trkpt>
      <trkpt lat="45.4085" lon="5.34501">
        <ele>565.87</ele>
        <time>2011-02-13T09:19:43Z</time>
      </trkpt>
      <trkpt lat="45.4086" lon="5.3451">
        <ele>567.8</ele>
        <time>2011-02-13T09:19:50Z</time>
      </trkpt>
      <trkpt lat="45.40868" lon="5.34519">
        <ele>569.72</ele>
        <time>2011-02-13T09:19:56Z</time>
      </trkpt>
      <trkpt lat="45.40875" lon="5.34529">
        <ele>570.68</ele>
        <time>2011-02-13T09:20:02Z</time>
      </trkpt>
      <trkpt lat="45.40881" lon="5.34541">
        <ele>572.12</ele>
        <time>2011-02-13T09:20:08Z</time>
      </trkpt>
      <trkpt lat="45.40887" lon="5.34554">
        <ele>573.56</ele>
        <time>2011-02-13T09:20:14Z</time>
      </trkpt>
      <trkpt lat="45.40892" lon="5.34565">
        <ele>574.04</ele>
        <time>2011-02-13T09:20:19Z</time>
      </trkpt>
      <trkpt lat="45.40897" lon="5.34577">
        <ele>575.01</ele>
        <time>2011-02-13T09:20:24Z</time>
      </trkpt>
      <trkpt lat="45.40903" lon="5.34588">
        <ele>575.97</ele>
        <time>2011-02-13T09:20:30Z</time>
      </trkpt>
      <trkpt lat="45.40909" lon="5.34599">
        <ele>576.93</ele>
        <time>2011-02-13T09:20:36Z</time>
      </trkpt>
      <trkpt lat="45.40916" lon="5.34611">
        <ele>576.93</ele>
        <time>2011-02-13T09:20:42Z</time>
      </trkpt>
      <trkpt lat="45.40922" lon="5.34623">
        <ele>576.93</ele>
        <time>2011-02-13T09:20:47Z</time>
      </trkpt>
      <trkpt lat="45.40923" lon="5.34631">
        <ele>577.41</ele>
        <time>2011-02-13T09:23:43Z</time>
      </trkpt>
      <trkpt lat="45.40929" lon="5.34644">
        <ele>577.41</ele>
        <time>2011-02-13T09:23:53Z</time>
      </trkpt>
      <trkpt lat="45.40935" lon="5.34657">
        <ele>577.41</ele>
        <time>2011-02-13T09:23:57Z</time>
      </trkpt>
      <trkpt lat="45.40942" lon="5.3467">
        <ele>577.41</ele>
        <time>2011-02-13T09:24:01Z</time>
      </trkpt>
      <trkpt lat="45.40948" lon="5.34684">
        <ele>577.89</ele>
        <time>2011-02-13T09:24:05Z</time>
      </trkpt>
      <trkpt lat="45.40953" lon="5.34695">
        <ele>577.41</ele>
        <time>2011-02-13T09:24:08Z</time>
      </trkpt>
      <trkpt lat="45.40958" lon="5.34709">
        <ele>577.41</ele>
        <time>2011-02-13T09:24:12Z</time>
      </trkpt>
      <trkpt lat="45.40964" lon="5.34724">
        <ele>577.89</ele>
        <time>2011-02-13T09:24:16Z</time>
      </trkpt>
      <trkpt lat="45.40968" lon="5.34738">
        <ele>578.37</ele>
        <time>2011-02-13T09:24:20Z</time>
      </trkpt>
      <trkpt lat="45.40971" lon="5.34752">
        <ele>577.41</ele>
        <time>2011-02-13T09:24:24Z</time>
      </trkpt>
      <trkpt lat="45.40973" lon="5.34767">
        <ele>578.85</ele>
        <time>2011-02-13T09:24:28Z</time>
      </trkpt>
      <trkpt lat="45.40974" lon="5.3478">
        <ele>579.81</ele>
        <time>2011-02-13T09:24:33Z</time>
      </trkpt>
      <trkpt lat="45.40977" lon="5.34795">
        <ele>581.25</ele>
        <time>2011-02-13T09:24:38Z</time>
      </trkpt>
      <trkpt lat="45.40979" lon="5.34809">
        <ele>582.7</ele>
        <time>2011-02-13T09:24:43Z</time>
      </trkpt>
      <trkpt lat="45.40979" lon="5.34824">
        <ele>583.66</ele>
        <time>2011-02-13T09:24:49Z</time>
      </trkpt>
      <trkpt lat="45.40979" lon="5.34839">
        <ele>585.1</ele>
        <time>2011-02-13T09:24:55Z</time>
      </trkpt>
      <trkpt lat="45.40979" lon="5.34852">
        <ele>586.54</ele>
        <time>2011-02-13T09:25:01Z</time>
      </trkpt>
      <trkpt lat="45.40981" lon="5.34867">
        <ele>587.98</ele>
        <time>2011-02-13T09:25:07Z</time>
      </trkpt>
      <trkpt lat="45.40984" lon="5.34883">
        <ele>589.43</ele>
        <time>2011-02-13T09:25:14Z</time>
      </trkpt>
      <trkpt lat="45.40987" lon="5.34897">
        <ele>590.39</ele>
        <time>2011-02-13T09:25:20Z</time>
      </trkpt>
      <trkpt lat="45.40989" lon="5.34912">
        <ele>591.35</ele>
        <time>2011-02-13T09:25:26Z</time>
      </trkpt>
      <trkpt lat="45.4099" lon="5.34925">
        <ele>592.31</ele>
        <time>2011-02-13T09:25:31Z</time>
      </trkpt>
      <trkpt lat="45.40991" lon="5.34938">
        <ele>593.27</ele>
        <time>2011-02-13T09:25:36Z</time>
      </trkpt>
      <trkpt lat="45.40991" lon="5.34952">
        <ele>594.23</ele>
        <time>2011-02-13T09:25:41Z</time>
      </trkpt>
      <trkpt lat="45.4099" lon="5.34966">
        <ele>594.71</ele>
        <time>2011-02-13T09:25:47Z</time>
      </trkpt>
      <trkpt lat="45.40987" lon="5.34979">
        <ele>595.67</ele>
        <time>2011-02-13T09:25:53Z</time>
      </trkpt>
      <trkpt lat="45.40983" lon="5.34994">
        <ele>595.67</ele>
        <time>2011-02-13T09:25:58Z</time>
      </trkpt>
      <trkpt lat="45.40978" lon="5.35007">
        <ele>596.64</ele>
        <time>2011-02-13T09:26:03Z</time>
      </trkpt>
      <trkpt lat="45.40971" lon="5.35021">
        <ele>597.6</ele>
        <time>2011-02-13T09:26:08Z</time>
      </trkpt>
      <trkpt lat="45.40967" lon="5.35035">
        <ele>598.08</ele>
        <time>2011-02-13T09:26:13Z</time>
      </trkpt>
      <trkpt lat="45.40962" lon="5.35051">
        <ele>599.52</ele>
        <time>2011-02-13T09:26:19Z</time>
      </trkpt>
      <trkpt lat="45.40958" lon="5.35065">
        <ele>600.48</ele>
        <time>2011-02-13T09:26:24Z</time>
      </trkpt>
      <trkpt lat="45.40953" lon="5.35078">
        <ele>600.96</ele>
        <time>2011-02-13T09:26:29Z</time>
      </trkpt>
      <trkpt lat="45.40948" lon="5.35092">
        <ele>601.92</ele>
        <time>2011-02-13T09:26:35Z</time>
      </trkpt>
      <trkpt lat="45.40942" lon="5.35104">
        <ele>602.4</ele>
        <time>2011-02-13T09:26:41Z</time>
      </trkpt>
      <trkpt lat="45.40933" lon="5.35116">
        <ele>604.33</ele>
        <time>2011-02-13T09:26:47Z</time>
      </trkpt>
      <trkpt lat="45.40926" lon="5.35129">
        <ele>604.33</ele>
        <time>2011-02-13T09:26:53Z</time>
      </trkpt>
      <trkpt lat="45.40921" lon="5.3514">
        <ele>605.29</ele>
        <time>2011-02-13T09:26:59Z</time>
      </trkpt>
      <trkpt lat="45.40916" lon="5.35154">
        <ele>607.21</ele>
        <time>2011-02-13T09:27:05Z</time>
      </trkpt>
      <trkpt lat="45.40912" lon="5.35166">
        <ele>608.17</ele>
        <time>2011-02-13T09:27:10Z</time>
      </trkpt>
      <trkpt lat="45.40911" lon="5.35181">
        <ele>610.09</ele>
        <time>2011-02-13T09:27:15Z</time>
      </trkpt>
      <trkpt lat="45.40911" lon="5.35196">
        <ele>610.09</ele>
        <time>2011-02-13T09:27:21Z</time>
      </trkpt>
      <trkpt lat="45.40909" lon="5.35209">
        <ele>610.57</ele>
        <time>2011-02-13T09:27:26Z</time>
      </trkpt>
      <trkpt lat="45.40907" lon="5.35223">
        <ele>611.06</ele>
        <time>2011-02-13T09:27:31Z</time>
      </trkpt>
      <trkpt lat="45.40905" lon="5.3524">
        <ele>611.06</ele>
        <time>2011-02-13T09:27:36Z</time>
      </trkpt>
      <trkpt lat="45.40902" lon="5.35256">
        <ele>612.5</ele>
        <time>2011-02-13T09:27:41Z</time>
      </trkpt>
      <trkpt lat="45.409" lon="5.35271">
        <ele>612.98</ele>
        <time>2011-02-13T09:27:45Z</time>
      </trkpt>
      <trkpt lat="45.40899" lon="5.35289">
        <ele>613.46</ele>
        <time>2011-02-13T09:27:50Z</time>
      </trkpt>
      <trkpt lat="45.40895" lon="5.35302">
        <ele>614.42</ele>
        <time>2011-02-13T09:27:54Z</time>
      </trkpt>
      <trkpt lat="45.40892" lon="5.35317">
        <ele>615.38</ele>
        <time>2011-02-13T09:27:59Z</time>
      </trkpt>
      <trkpt lat="45.40893" lon="5.35333">
        <ele>616.82</ele>
        <time>2011-02-13T09:28:04Z</time>
      </trkpt>
      <trkpt lat="45.40894" lon="5.35352">
        <ele>617.78</ele>
        <time>2011-02-13T09:28:10Z</time>
      </trkpt>
      <trkpt lat="45.40893" lon="5.35366">
        <ele>618.26</ele>
        <time>2011-02-13T09:28:15Z</time>
      </trkpt>
      <trkpt lat="45.40892" lon="5.35385">
        <ele>618.75</ele>
        <time>2011-02-13T09:28:22Z</time>
      </trkpt>
      <trkpt lat="45.40896" lon="5.35403">
        <ele>619.71</ele>
        <time>2011-02-13T09:28:27Z</time>
      </trkpt>
      <trkpt lat="45.40898" lon="5.35421">
        <ele>620.67</ele>
        <time>2011-02-13T09:28:32Z</time>
      </trkpt>
      <trkpt lat="45.409" lon="5.35438">
        <ele>621.63</ele>
        <time>2011-02-13T09:28:38Z</time>
      </trkpt>
      <trkpt lat="45.40904" lon="5.35453">
        <ele>622.11</ele>
        <time>2011-02-13T09:28:43Z</time>
      </trkpt>
      <trkpt lat="45.4091" lon="5.35465">
        <ele>622.11</ele>
        <time>2011-02-13T09:28:48Z</time>
      </trkpt>
      <trkpt lat="45.40919" lon="5.35473">
        <ele>622.11</ele>
        <time>2011-02-13T09:29:01Z</time>
      </trkpt>
      <trkpt lat="45.40931" lon="5.3548">
        <ele>624.03</ele>
        <time>2011-02-13T09:29:08Z</time>
      </trkpt>
      <trkpt lat="45.40942" lon="5.35488">
        <ele>625.47</ele>
        <time>2011-02-13T09:29:14Z</time>
      </trkpt>
      <trkpt lat="45.40951" lon="5.35498">
        <ele>625.96</ele>
        <time>2011-02-13T09:29:20Z</time>
      </trkpt>
      <trkpt lat="45.40961" lon="5.35506">
        <ele>627.4</ele>
        <time>2011-02-13T09:29:27Z</time>
      </trkpt>
      <trkpt lat="45.40969" lon="5.35513">
        <ele>628.84</ele>
        <time>2011-02-13T09:29:34Z</time>
      </trkpt>
      <trkpt lat="45.40977" lon="5.35525">
        <ele>631.24</ele>
        <time>2011-02-13T09:29:40Z</time>
      </trkpt>
      <trkpt lat="45.4098" lon="5.35538">
        <ele>632.2</ele>
        <time>2011-02-13T09:29:46Z</time>
      </trkpt>
      <trkpt lat="45.40983" lon="5.35553">
        <ele>633.17</ele>
        <time>2011-02-13T09:29:53Z</time>
      </trkpt>
      <trkpt lat="45.40984" lon="5.35567">
        <ele>634.13</ele>
        <time>2011-02-13T09:30:00Z</time>
      </trkpt>
      <trkpt lat="45.40983" lon="5.35582">
        <ele>635.09</ele>
        <time>2011-02-13T09:30:07Z</time>
      </trkpt>
      <trkpt lat="45.40986" lon="5.35598">
        <ele>634.13</ele>
        <time>2011-02-13T09:30:14Z</time>
      </trkpt>
      <trkpt lat="45.40988" lon="5.35611">
        <ele>633.65</ele>
        <time>2011-02-13T09:30:18Z</time>
      </trkpt>
      <trkpt lat="45.4099" lon="5.35625">
        <ele>632.68</ele>
        <time>2011-02-13T09:30:21Z</time>
      </trkpt>
      <trkpt lat="45.40993" lon="5.35642">
        <ele>631.24</ele>
        <time>2011-02-13T09:30:24Z</time>
      </trkpt>
      <trkpt lat="45.40997" lon="5.35665">
        <ele>629.32</ele>
        <time>2011-02-13T09:30:27Z</time>
      </trkpt>
      <trkpt lat="45.41002" lon="5.35684">
        <ele>628.36</ele>
        <time>2011-02-13T09:30:29Z</time>
      </trkpt>
      <trkpt lat="45.41008" lon="5.35702">
        <ele>626.92</ele>
        <time>2011-02-13T09:30:31Z</time>
      </trkpt>
      <trkpt lat="45.41008" lon="5.35722">
        <ele>625.47</ele>
        <time>2011-02-13T09:30:33Z</time>
      </trkpt>
      <trkpt lat="45.41006" lon="5.35743">
        <ele>624.03</ele>
        <time>2011-02-13T09:30:35Z</time>
      </trkpt>
      <trkpt lat="45.41001" lon="5.35764">
        <ele>623.55</ele>
        <time>2011-02-13T09:30:37Z</time>
      </trkpt>
      <trkpt lat="45.40996" lon="5.3578">
        <ele>622.59</ele>
        <time>2011-02-13T09:30:39Z</time>
      </trkpt>
      <trkpt lat="45.40989" lon="5.35793">
        <ele>624.03</ele>
        <time>2011-02-13T09:30:41Z</time>
      </trkpt>
      <trkpt lat="45.40979" lon="5.35805">
        <ele>624.51</ele>
        <time>2011-02-13T09:30:44Z</time>
      </trkpt>
      <trkpt lat="45.4097" lon="5.35815">
        <ele>624.99</ele>
        <time>2011-02-13T09:30:47Z</time>
      </trkpt>
      <trkpt lat="45.40963" lon="5.35825">
        <ele>625.96</ele>
        <time>2011-02-13T09:30:50Z</time>
      </trkpt>
      <trkpt lat="45.40956" lon="5.35836">
        <ele>626.44</ele>
        <time>2011-02-13T09:30:54Z</time>
      </trkpt>
      <trkpt lat="45.40948" lon="5.35847">
        <ele>627.4</ele>
        <time>2011-02-13T09:30:58Z</time>
      </trkpt>
      <trkpt lat="45.40939" lon="5.35859">
        <ele>627.4</ele>
        <time>2011-02-13T09:31:02Z</time>
      </trkpt>
      <trkpt lat="45.40934" lon="5.35872">
        <ele>626.92</ele>
        <time>2011-02-13T09:31:06Z</time>
      </trkpt>
      <trkpt lat="45.40928" lon="5.35887">
        <ele>627.88</ele>
        <time>2011-02-13T09:31:10Z</time>
      </trkpt>
      <trkpt lat="45.40922" lon="5.35901">
        <ele>627.4</ele>
        <time>2011-02-13T09:31:14Z</time>
      </trkpt>
      <trkpt lat="45.40913" lon="5.35916">
        <ele>626.92</ele>
        <time>2011-02-13T09:31:18Z</time>
      </trkpt>
      <trkpt lat="45.40905" lon="5.35932">
        <ele>623.07</ele>
        <time>2011-02-13T09:31:21Z</time>
      </trkpt>
      <trkpt lat="45.40895" lon="5.35947">
        <ele>625.96</ele>
        <time>2011-02-13T09:31:24Z</time>
      </trkpt>
      <trkpt lat="45.40887" lon="5.3596">
        <ele>625.96</ele>
        <time>2011-02-13T09:31:27Z</time>
      </trkpt>
      <trkpt lat="45.40887" lon="5.35975">
        <ele>625.96</ele>
        <time>2011-02-13T09:31:31Z</time>
      </trkpt>
      <trkpt lat="45.40888" lon="5.35992">
        <ele>625.96</ele>
        <time>2011-02-13T09:31:38Z</time>
      </trkpt>
      <trkpt lat="45.40891" lon="5.36007">
        <ele>625.96</ele>
        <time>2011-02-13T09:31:43Z</time>
      </trkpt>
      <trkpt lat="45.40897" lon="5.36021">
        <ele>625.96</ele>
        <time>2011-02-13T09:31:48Z</time>
      </trkpt>
      <trkpt lat="45.40898" lon="5.36036">
        <ele>627.4</ele>
        <time>2011-02-13T09:31:57Z</time>
      </trkpt>
      <trkpt lat="45.40899" lon="5.36051">
        <ele>629.32</ele>
        <time>2011-02-13T09:32:01Z</time>
      </trkpt>
      <trkpt lat="45.40901" lon="5.36067">
        <ele>630.28</ele>
        <time>2011-02-13T09:32:06Z</time>
      </trkpt>
      <trkpt lat="45.40902" lon="5.36083">
        <ele>630.28</ele>
        <time>2011-02-13T09:32:11Z</time>
      </trkpt>
      <trkpt lat="45.40903" lon="5.36102">
        <ele>631.24</ele>
        <time>2011-02-13T09:32:16Z</time>
      </trkpt>
      <trkpt lat="45.409" lon="5.36118">
        <ele>630.76</ele>
        <time>2011-02-13T09:32:20Z</time>
      </trkpt>
      <trkpt lat="45.40894" lon="5.36134">
        <ele>631.72</ele>
        <time>2011-02-13T09:32:24Z</time>
      </trkpt>
      <trkpt lat="45.40888" lon="5.36147">
        <ele>632.68</ele>
        <time>2011-02-13T09:32:28Z</time>
      </trkpt>
      <trkpt lat="45.40879" lon="5.3616">
        <ele>633.65</ele>
        <time>2011-02-13T09:32:32Z</time>
      </trkpt>
      <trkpt lat="45.4087" lon="5.36172">
        <ele>633.65</ele>
        <time>2011-02-13T09:32:36Z</time>
      </trkpt>
      <trkpt lat="45.40861" lon="5.36182">
        <ele>634.61</ele>
        <time>2011-02-13T09:32:40Z</time>
      </trkpt>
      <trkpt lat="45.40852" lon="5.36193">
        <ele>634.61</ele>
        <time>2011-02-13T09:32:45Z</time>
      </trkpt>
      <trkpt lat="45.40839" lon="5.36202">
        <ele>634.61</ele>
        <time>2011-02-13T09:32:51Z</time>
      </trkpt>
      <trkpt lat="45.40828" lon="5.3621">
        <ele>636.05</ele>
        <time>2011-02-13T09:32:55Z</time>
      </trkpt>
      <trkpt lat="45.4082" lon="5.3622">
        <ele>635.57</ele>
        <time>2011-02-13T09:33:00Z</time>
      </trkpt>
      <trkpt lat="45.40815" lon="5.36239">
        <ele>635.09</ele>
        <time>2011-02-13T09:33:04Z</time>
      </trkpt>
      <trkpt lat="45.40807" lon="5.36256">
        <ele>635.57</ele>
        <time>2011-02-13T09:33:08Z</time>
      </trkpt>
      <trkpt lat="45.40797" lon="5.36271">
        <ele>635.57</ele>
        <time>2011-02-13T09:33:12Z</time>
      </trkpt>
      <trkpt lat="45.40788" lon="5.36287">
        <ele>635.57</ele>
        <time>2011-02-13T09:33:17Z</time>
      </trkpt>
      <trkpt lat="45.40776" lon="5.36302">
        <ele>636.05</ele>
        <time>2011-02-13T09:33:22Z</time>
      </trkpt>
      <trkpt lat="45.40765" lon="5.36316">
        <ele>636.05</ele>
        <time>2011-02-13T09:33:26Z</time>
      </trkpt>
      <trkpt lat="45.40755" lon="5.3633">
        <ele>636.05</ele>
        <time>2011-02-13T09:33:30Z</time>
      </trkpt>
      <trkpt lat="45.40746" lon="5.36343">
        <ele>635.57</ele>
        <time>2011-02-13T09:33:34Z</time>
      </trkpt>
      <trkpt lat="45.40737" lon="5.3636">
        <ele>635.09</ele>
        <time>2011-02-13T09:33:37Z</time>
      </trkpt>
      <trkpt lat="45.4073" lon="5.36372">
        <ele>635.09</ele>
        <time>2011-02-13T09:33:39Z</time>
      </trkpt>
      <trkpt lat="45.40722" lon="5.36384">
        <ele>634.13</ele>
        <time>2011-02-13T09:33:41Z</time>
      </trkpt>
      <trkpt lat="45.40713" lon="5.36397">
        <ele>633.17</ele>
        <time>2011-02-13T09:33:43Z</time>
      </trkpt>
      <trkpt lat="45.40704" lon="5.36409">
        <ele>633.17</ele>
        <time>2011-02-13T09:33:45Z</time>
      </trkpt>
      <trkpt lat="45.40695" lon="5.36423">
        <ele>632.68</ele>
        <time>2011-02-13T09:33:47Z</time>
      </trkpt>
      <trkpt lat="45.40688" lon="5.36441">
        <ele>631.24</ele>
        <time>2011-02-13T09:33:49Z</time>
      </trkpt>
      <trkpt lat="45.4068" lon="5.36458">
        <ele>629.32</ele>
        <time>2011-02-13T09:33:51Z</time>
      </trkpt>
      <trkpt lat="45.40672" lon="5.36476">
        <ele>628.84</ele>
        <time>2011-02-13T09:33:53Z</time>
      </trkpt>
      <trkpt lat="45.40663" lon="5.3649">
        <ele>627.88</ele>
        <time>2011-02-13T09:33:55Z</time>
      </trkpt>
      <trkpt lat="45.40652" lon="5.36503">
        <ele>625.96</ele>
        <time>2011-02-13T09:33:57Z</time>
      </trkpt>
      <trkpt lat="45.4064" lon="5.36512">
        <ele>625.47</ele>
        <time>2011-02-13T09:33:59Z</time>
      </trkpt>
      <trkpt lat="45.40626" lon="5.36516">
        <ele>626.44</ele>
        <time>2011-02-13T09:34:01Z</time>
      </trkpt>
      <trkpt lat="45.40615" lon="5.36521">
        <ele>626.44</ele>
        <time>2011-02-13T09:34:03Z</time>
      </trkpt>
      <trkpt lat="45.40604" lon="5.36525">
        <ele>626.92</ele>
        <time>2011-02-13T09:34:05Z</time>
      </trkpt>
      <trkpt lat="45.40595" lon="5.36531">
        <ele>626.44</ele>
        <time>2011-02-13T09:34:07Z</time>
      </trkpt>
      <trkpt lat="45.40586" lon="5.36536">
        <ele>626.92</ele>
        <time>2011-02-13T09:34:09Z</time>
      </trkpt>
      <trkpt lat="45.40573" lon="5.36542">
        <ele>625.47</ele>
        <time>2011-02-13T09:34:12Z</time>
      </trkpt>
      <trkpt lat="45.4056" lon="5.36547">
        <ele>624.99</ele>
        <time>2011-02-13T09:34:15Z</time>
      </trkpt>
      <trkpt lat="45.40551" lon="5.36551">
        <ele>624.99</ele>
        <time>2011-02-13T09:34:17Z</time>
      </trkpt>
      <trkpt lat="45.40542" lon="5.36554">
        <ele>623.55</ele>
        <time>2011-02-13T09:34:19Z</time>
      </trkpt>
      <trkpt lat="45.40532" lon="5.36557">
        <ele>623.07</ele>
        <time>2011-02-13T09:34:21Z</time>
      </trkpt>
      <trkpt lat="45.40522" lon="5.36562">
        <ele>621.63</ele>
        <time>2011-02-13T09:34:23Z</time>
      </trkpt>
      <trkpt lat="45.40509" lon="5.3657">
        <ele>618.75</ele>
        <time>2011-02-13T09:34:25Z</time>
      </trkpt>
      <trkpt lat="45.40498" lon="5.36577">
        <ele>617.3</ele>
        <time>2011-02-13T09:34:27Z</time>
      </trkpt>
      <trkpt lat="45.40489" lon="5.36582">
        <ele>615.86</ele>
        <time>2011-02-13T09:34:29Z</time>
      </trkpt>
      <trkpt lat="45.40486" lon="5.36593">
        <ele>614.42</ele>
        <time>2011-02-13T09:34:33Z</time>
      </trkpt>
      <trkpt lat="45.40492" lon="5.36604">
        <ele>613.46</ele>
        <time>2011-02-13T09:35:57Z</time>
      </trkpt>
      <trkpt lat="45.40499" lon="5.36619">
        <ele>613.46</ele>
        <time>2011-02-13T09:36:00Z</time>
      </trkpt>
      <trkpt lat="45.40504" lon="5.36631">
        <ele>612.98</ele>
        <time>2011-02-13T09:36:02Z</time>
      </trkpt>
      <trkpt lat="45.40509" lon="5.36644">
        <ele>612.5</ele>
        <time>2011-02-13T09:36:04Z</time>
      </trkpt>
      <trkpt lat="45.40513" lon="5.36659">
        <ele>611.54</ele>
        <time>2011-02-13T09:36:06Z</time>
      </trkpt>
      <trkpt lat="45.40518" lon="5.36674">
        <ele>610.57</ele>
        <time>2011-02-13T09:36:08Z</time>
      </trkpt>
      <trkpt lat="45.40522" lon="5.36689">
        <ele>610.09</ele>
        <time>2011-02-13T09:36:10Z</time>
      </trkpt>
      <trkpt lat="45.4053" lon="5.36697">
        <ele>608.65</ele>
        <time>2011-02-13T09:36:13Z</time>
      </trkpt>
      <trkpt lat="45.4054" lon="5.36696">
        <ele>608.65</ele>
        <time>2011-02-13T09:36:16Z</time>
      </trkpt>
      <trkpt lat="45.40553" lon="5.36695">
        <ele>607.21</ele>
        <time>2011-02-13T09:36:19Z</time>
      </trkpt>
      <trkpt lat="45.40564" lon="5.36695">
        <ele>608.65</ele>
        <time>2011-02-13T09:36:21Z</time>
      </trkpt>
      <trkpt lat="45.40573" lon="5.36698">
        <ele>608.65</ele>
        <time>2011-02-13T09:36:23Z</time>
      </trkpt>
      <trkpt lat="45.40582" lon="5.36704">
        <ele>608.17</ele>
        <time>2011-02-13T09:36:25Z</time>
      </trkpt>
      <trkpt lat="45.40591" lon="5.36707">
        <ele>607.69</ele>
        <time>2011-02-13T09:36:27Z</time>
      </trkpt>
      <trkpt lat="45.40602" lon="5.36707">
        <ele>607.21</ele>
        <time>2011-02-13T09:36:30Z</time>
      </trkpt>
      <trkpt lat="45.40615" lon="5.36705">
        <ele>605.77</ele>
        <time>2011-02-13T09:36:34Z</time>
      </trkpt>
      <trkpt lat="45.40627" lon="5.367">
        <ele>604.81</ele>
        <time>2011-02-13T09:36:37Z</time>
      </trkpt>
      <trkpt lat="45.40642" lon="5.36695">
        <ele>605.29</ele>
        <time>2011-02-13T09:36:40Z</time>
      </trkpt>
      <trkpt lat="45.40657" lon="5.3669">
        <ele>603.85</ele>
        <time>2011-02-13T09:36:43Z</time>
      </trkpt>
      <trkpt lat="45.40666" lon="5.36678">
        <ele>602.88</ele>
        <time>2011-02-13T09:36:45Z</time>
      </trkpt>
      <trkpt lat="45.40676" lon="5.36665">
        <ele>602.4</ele>
        <time>2011-02-13T09:36:47Z</time>
      </trkpt>
      <trkpt lat="45.40686" lon="5.36653">
        <ele>601.92</ele>
        <time>2011-02-13T09:36:49Z</time>
      </trkpt>
      <trkpt lat="45.40696" lon="5.36641">
        <ele>602.4</ele>
        <time>2011-02-13T09:36:51Z</time>
      </trkpt>
      <trkpt lat="45.40705" lon="5.36629">
        <ele>602.4</ele>
        <time>2011-02-13T09:36:53Z</time>
      </trkpt>
      <trkpt lat="45.40714" lon="5.36617">
        <ele>602.4</ele>
        <time>2011-02-13T09:36:55Z</time>
      </trkpt>
      <trkpt lat="45.40722" lon="5.36606">
        <ele>602.88</ele>
        <time>2011-02-13T09:36:57Z</time>
      </trkpt>
      <trkpt lat="45.40733" lon="5.36594">
        <ele>602.88</ele>
        <time>2011-02-13T09:37:00Z</time>
      </trkpt>
      <trkpt lat="45.40744" lon="5.36583">
        <ele>603.85</ele>
        <time>2011-02-13T09:37:03Z</time>
      </trkpt>
      <trkpt lat="45.40756" lon="5.36574">
        <ele>603.36</ele>
        <time>2011-02-13T09:37:06Z</time>
      </trkpt>
      <trkpt lat="45.40766" lon="5.36566">
        <ele>604.33</ele>
        <time>2011-02-13T09:37:09Z</time>
      </trkpt>
      <trkpt lat="45.40778" lon="5.36557">
        <ele>604.33</ele>
        <time>2011-02-13T09:37:12Z</time>
      </trkpt>
      <trkpt lat="45.40788" lon="5.36547">
        <ele>604.81</ele>
        <time>2011-02-13T09:37:15Z</time>
      </trkpt>
      <trkpt lat="45.408" lon="5.36534">
        <ele>605.29</ele>
        <time>2011-02-13T09:37:18Z</time>
      </trkpt>
      <trkpt lat="45.40807" lon="5.3652">
        <ele>605.29</ele>
        <time>2011-02-13T09:37:21Z</time>
      </trkpt>
      <trkpt lat="45.40815" lon="5.36505">
        <ele>606.25</ele>
        <time>2011-02-13T09:37:24Z</time>
      </trkpt>
      <trkpt lat="45.40823" lon="5.36493">
        <ele>606.73</ele>
        <time>2011-02-13T09:37:27Z</time>
      </trkpt>
      <trkpt lat="45.4083" lon="5.36481">
        <ele>606.25</ele>
        <time>2011-02-13T09:37:30Z</time>
      </trkpt>
      <trkpt lat="45.40836" lon="5.36467">
        <ele>606.73</ele>
        <time>2011-02-13T09:37:33Z</time>
      </trkpt>
      <trkpt lat="45.40843" lon="5.36453">
        <ele>606.73</ele>
        <time>2011-02-13T09:37:36Z</time>
      </trkpt>
      <trkpt lat="45.4085" lon="5.36442">
        <ele>607.21</ele>
        <time>2011-02-13T09:37:39Z</time>
      </trkpt>
      <trkpt lat="45.40859" lon="5.36432">
        <ele>606.25</ele>
        <time>2011-02-13T09:37:42Z</time>
      </trkpt>
      <trkpt lat="45.4087" lon="5.36426">
        <ele>605.77</ele>
        <time>2011-02-13T09:37:45Z</time>
      </trkpt>
      <trkpt lat="45.40883" lon="5.36419">
        <ele>605.77</ele>
        <time>2011-02-13T09:37:48Z</time>
      </trkpt>
      <trkpt lat="45.40891" lon="5.36411">
        <ele>603.85</ele>
        <time>2011-02-13T09:37:52Z</time>
      </trkpt>
      <trkpt lat="45.409" lon="5.36402">
        <ele>602.88</ele>
        <time>2011-02-13T09:38:03Z</time>
      </trkpt>
      <trkpt lat="45.40913" lon="5.36393">
        <ele>601.44</ele>
        <time>2011-02-13T09:38:07Z</time>
      </trkpt>
      <trkpt lat="45.40931" lon="5.36382">
        <ele>599.04</ele>
        <time>2011-02-13T09:38:11Z</time>
      </trkpt>
      <trkpt lat="45.40942" lon="5.36375">
        <ele>597.12</ele>
        <time>2011-02-13T09:38:13Z</time>
      </trkpt>
      <trkpt lat="45.40954" lon="5.36366">
        <ele>595.19</ele>
        <time>2011-02-13T09:38:16Z</time>
      </trkpt>
      <trkpt lat="45.40968" lon="5.36354">
        <ele>593.27</ele>
        <time>2011-02-13T09:38:18Z</time>
      </trkpt>
      <trkpt lat="45.40983" lon="5.36342">
        <ele>591.83</ele>
        <time>2011-02-13T09:38:21Z</time>
      </trkpt>
      <trkpt lat="45.41006" lon="5.36328">
        <ele>590.87</ele>
        <time>2011-02-13T09:38:23Z</time>
      </trkpt>
      <trkpt lat="45.4102" lon="5.36313">
        <ele>590.39</ele>
        <time>2011-02-13T09:38:24Z</time>
      </trkpt>
      <trkpt lat="45.41034" lon="5.3629">
        <ele>588.95</ele>
        <time>2011-02-13T09:38:26Z</time>
      </trkpt>
      <trkpt lat="45.41046" lon="5.36265">
        <ele>588.46</ele>
        <time>2011-02-13T09:38:28Z</time>
      </trkpt>
      <trkpt lat="45.41057" lon="5.36243">
        <ele>587.02</ele>
        <time>2011-02-13T09:38:30Z</time>
      </trkpt>
      <trkpt lat="45.4107" lon="5.36226">
        <ele>586.06</ele>
        <time>2011-02-13T09:38:32Z</time>
      </trkpt>
      <trkpt lat="45.41083" lon="5.36209">
        <ele>585.58</ele>
        <time>2011-02-13T09:38:34Z</time>
      </trkpt>
      <trkpt lat="45.41094" lon="5.36191">
        <ele>584.62</ele>
        <time>2011-02-13T09:38:36Z</time>
      </trkpt>
      <trkpt lat="45.411" lon="5.3618">
        <ele>583.18</ele>
        <time>2011-02-13T09:38:37Z</time>
      </trkpt>
      <trkpt lat="45.41106" lon="5.36165">
        <ele>580.77</ele>
        <time>2011-02-13T09:38:39Z</time>
      </trkpt>
      <trkpt lat="45.41113" lon="5.36147">
        <ele>578.85</ele>
        <time>2011-02-13T09:38:41Z</time>
      </trkpt>
      <trkpt lat="45.41122" lon="5.3613">
        <ele>577.89</ele>
        <time>2011-02-13T09:38:43Z</time>
      </trkpt>
      <trkpt lat="45.41134" lon="5.36109">
        <ele>576.93</ele>
        <time>2011-02-13T09:38:45Z</time>
      </trkpt>
      <trkpt lat="45.41151" lon="5.36093">
        <ele>575.97</ele>
        <time>2011-02-13T09:38:47Z</time>
      </trkpt>
      <trkpt lat="45.41166" lon="5.36082">
        <ele>575.97</ele>
        <time>2011-02-13T09:38:49Z</time>
      </trkpt>
      <trkpt lat="45.41183" lon="5.36074">
        <ele>573.56</ele>
        <time>2011-02-13T09:38:51Z</time>
      </trkpt>
      <trkpt lat="45.412" lon="5.36065">
        <ele>571.64</ele>
        <time>2011-02-13T09:38:53Z</time>
      </trkpt>
      <trkpt lat="45.41216" lon="5.36054">
        <ele>569.24</ele>
        <time>2011-02-13T09:38:55Z</time>
      </trkpt>
      <trkpt lat="45.41225" lon="5.36038">
        <ele>568.28</ele>
        <time>2011-02-13T09:38:57Z</time>
      </trkpt>
      <trkpt lat="45.41231" lon="5.36021">
        <ele>566.35</ele>
        <time>2011-02-13T09:38:59Z</time>
      </trkpt>
      <trkpt lat="45.41234" lon="5.36003">
        <ele>564.43</ele>
        <time>2011-02-13T09:39:01Z</time>
      </trkpt>
      <trkpt lat="45.41232" lon="5.35988">
        <ele>562.03</ele>
        <time>2011-02-13T09:39:03Z</time>
      </trkpt>
      <trkpt lat="45.41228" lon="5.35972">
        <ele>559.62</ele>
        <time>2011-02-13T09:39:05Z</time>
      </trkpt>
      <trkpt lat="45.41222" lon="5.35952">
        <ele>557.22</ele>
        <time>2011-02-13T09:39:07Z</time>
      </trkpt>
      <trkpt lat="45.41219" lon="5.35932">
        <ele>554.82</ele>
        <time>2011-02-13T09:39:09Z</time>
      </trkpt>
      <trkpt lat="45.41223" lon="5.35911">
        <ele>552.9</ele>
        <time>2011-02-13T09:39:11Z</time>
      </trkpt>
      <trkpt lat="45.41231" lon="5.359">
        <ele>552.41</ele>
        <time>2011-02-13T09:39:13Z</time>
      </trkpt>
      <trkpt lat="45.41243" lon="5.35901">
        <ele>550.97</ele>
        <time>2011-02-13T09:39:19Z</time>
      </trkpt>
      <trkpt lat="45.41254" lon="5.35904">
        <ele>549.53</ele>
        <time>2011-02-13T09:39:25Z</time>
      </trkpt>
      <trkpt lat="45.41267" lon="5.359">
        <ele>551.45</ele>
        <time>2011-02-13T09:39:29Z</time>
      </trkpt>
      <trkpt lat="45.41282" lon="5.35891">
        <ele>552.9</ele>
        <time>2011-02-13T09:39:35Z</time>
      </trkpt>
      <trkpt lat="45.41291" lon="5.35882">
        <ele>553.38</ele>
        <time>2011-02-13T09:39:40Z</time>
      </trkpt>
      <trkpt lat="45.41302" lon="5.35871">
        <ele>554.34</ele>
        <time>2011-02-13T09:39:45Z</time>
      </trkpt>
      <trkpt lat="45.41311" lon="5.35862">
        <ele>555.3</ele>
        <time>2011-02-13T09:39:49Z</time>
      </trkpt>
      <trkpt lat="45.41322" lon="5.3585">
        <ele>553.38</ele>
        <time>2011-02-13T09:39:54Z</time>
      </trkpt>
      <trkpt lat="45.41331" lon="5.35842">
        <ele>553.86</ele>
        <time>2011-02-13T09:39:57Z</time>
      </trkpt>
      <trkpt lat="45.41339" lon="5.35832">
        <ele>553.38</ele>
        <time>2011-02-13T09:40:00Z</time>
      </trkpt>
      <trkpt lat="45.4135" lon="5.35822">
        <ele>551.93</ele>
        <time>2011-02-13T09:40:03Z</time>
      </trkpt>
      <trkpt lat="45.4136" lon="5.35814">
        <ele>551.93</ele>
        <time>2011-02-13T09:40:05Z</time>
      </trkpt>
      <trkpt lat="45.41373" lon="5.35809">
        <ele>549.53</ele>
        <time>2011-02-13T09:40:07Z</time>
      </trkpt>
      <trkpt lat="45.41388" lon="5.35806">
        <ele>547.61</ele>
        <time>2011-02-13T09:40:09Z</time>
      </trkpt>
      <trkpt lat="45.41402" lon="5.35804">
        <ele>546.17</ele>
        <time>2011-02-13T09:40:11Z</time>
      </trkpt>
      <trkpt lat="45.41416" lon="5.35797">
        <ele>546.17</ele>
        <time>2011-02-13T09:40:13Z</time>
      </trkpt>
      <trkpt lat="45.41426" lon="5.35791">
        <ele>545.2</ele>
        <time>2011-02-13T09:40:15Z</time>
      </trkpt>
      <trkpt lat="45.41438" lon="5.35783">
        <ele>544.24</ele>
        <time>2011-02-13T09:40:17Z</time>
      </trkpt>
      <trkpt lat="45.41449" lon="5.35771">
        <ele>544.24</ele>
        <time>2011-02-13T09:40:19Z</time>
      </trkpt>
      <trkpt lat="45.41459" lon="5.35757">
        <ele>544.24</ele>
        <time>2011-02-13T09:40:21Z</time>
      </trkpt>
      <trkpt lat="45.4147" lon="5.35743">
        <ele>542.8</ele>
        <time>2011-02-13T09:40:23Z</time>
      </trkpt>
      <trkpt lat="45.41482" lon="5.35726">
        <ele>542.32</ele>
        <time>2011-02-13T09:40:25Z</time>
      </trkpt>
      <trkpt lat="45.41496" lon="5.35707">
        <ele>541.36</ele>
        <time>2011-02-13T09:40:27Z</time>
      </trkpt>
      <trkpt lat="45.41507" lon="5.35686">
        <ele>541.36</ele>
        <time>2011-02-13T09:40:29Z</time>
      </trkpt>
      <trkpt lat="45.41515" lon="5.35667">
        <ele>540.88</ele>
        <time>2011-02-13T09:40:31Z</time>
      </trkpt>
      <trkpt lat="45.41523" lon="5.35646">
        <ele>539.92</ele>
        <time>2011-02-13T09:40:33Z</time>
      </trkpt>
      <trkpt lat="45.41532" lon="5.35627">
        <ele>538.96</ele>
        <time>2011-02-13T09:40:35Z</time>
      </trkpt>
      <trkpt lat="45.41541" lon="5.35608">
        <ele>537.99</ele>
        <time>2011-02-13T09:40:37Z</time>
      </trkpt>
      <trkpt lat="45.4155" lon="5.35591">
        <ele>538.48</ele>
        <time>2011-02-13T09:40:39Z</time>
      </trkpt>
      <trkpt lat="45.41559" lon="5.35573">
        <ele>538.48</ele>
        <time>2011-02-13T09:40:41Z</time>
      </trkpt>
      <trkpt lat="45.41566" lon="5.35558">
        <ele>539.44</ele>
        <time>2011-02-13T09:40:43Z</time>
      </trkpt>
      <trkpt lat="45.41573" lon="5.35542">
        <ele>537.99</ele>
        <time>2011-02-13T09:40:45Z</time>
      </trkpt>
      <trkpt lat="45.41579" lon="5.35523">
        <ele>537.03</ele>
        <time>2011-02-13T09:40:47Z</time>
      </trkpt>
      <trkpt lat="45.41587" lon="5.35505">
        <ele>535.59</ele>
        <time>2011-02-13T09:40:49Z</time>
      </trkpt>
      <trkpt lat="45.41595" lon="5.35489">
        <ele>533.67</ele>
        <time>2011-02-13T09:40:51Z</time>
      </trkpt>
      <trkpt lat="45.41605" lon="5.3549">
        <ele>531.27</ele>
        <time>2011-02-13T09:40:55Z</time>
      </trkpt>
      <trkpt lat="45.41611" lon="5.35507">
        <ele>530.3</ele>
        <time>2011-02-13T09:40:57Z</time>
      </trkpt>
      <trkpt lat="45.41616" lon="5.35523">
        <ele>528.86</ele>
        <time>2011-02-13T09:40:59Z</time>
      </trkpt>
      <trkpt lat="45.41621" lon="5.3554">
        <ele>525.5</ele>
        <time>2011-02-13T09:41:01Z</time>
      </trkpt>
      <trkpt lat="45.41626" lon="5.3556">
        <ele>522.13</ele>
        <time>2011-02-13T09:41:03Z</time>
      </trkpt>
      <trkpt lat="45.41638" lon="5.35574">
        <ele>520.21</ele>
        <time>2011-02-13T09:41:05Z</time>
      </trkpt>
      <trkpt lat="45.41651" lon="5.35584">
        <ele>518.77</ele>
        <time>2011-02-13T09:41:07Z</time>
      </trkpt>
      <trkpt lat="45.4166" lon="5.35595">
        <ele>518.77</ele>
        <time>2011-02-13T09:41:10Z</time>
      </trkpt>
      <trkpt lat="45.41655" lon="5.35604">
        <ele>518.77</ele>
        <time>2011-02-13T09:41:14Z</time>
      </trkpt>
      <trkpt lat="45.41656" lon="5.35613">
        <ele>518.77</ele>
        <time>2011-02-13T09:41:20Z</time>
      </trkpt>
      <trkpt lat="45.41657" lon="5.35602">
        <ele>518.77</ele>
        <time>2011-02-13T09:41:27Z</time>
      </trkpt>
      <trkpt lat="45.41656" lon="5.35613">
        <ele>518.77</ele>
        <time>2011-02-13T09:41:36Z</time>
      </trkpt>
      <trkpt lat="45.41655" lon="5.35613">
        <ele>518.77</ele>
        <time>2011-02-13T09:41:44Z</time>
      </trkpt>
      <trkpt lat="45.41659" lon="5.35605">
        <ele>519.25</ele>
        <time>2011-02-13T09:41:55Z</time>
      </trkpt>
      <trkpt lat="45.41658" lon="5.35604">
        <ele>519.25</ele>
        <time>2011-02-13T09:42:05Z</time>
      </trkpt>
      <trkpt lat="45.41654" lon="5.35618">
        <ele>518.77</ele>
        <time>2011-02-13T09:42:26Z</time>
      </trkpt>
      <trkpt lat="45.4165" lon="5.35634">
        <ele>519.25</ele>
        <time>2011-02-13T09:42:30Z</time>
      </trkpt>
      <trkpt lat="45.41647" lon="5.35646">
        <ele>519.25</ele>
        <time>2011-02-13T09:42:34Z</time>
      </trkpt>
      <trkpt lat="45.41643" lon="5.35659">
        <ele>519.73</ele>
        <time>2011-02-13T09:42:38Z</time>
      </trkpt>
      <trkpt lat="45.41638" lon="5.35671">
        <ele>520.21</ele>
        <time>2011-02-13T09:42:42Z</time>
      </trkpt>
      <trkpt lat="45.41633" lon="5.35681">
        <ele>520.69</ele>
        <time>2011-02-13T09:42:46Z</time>
      </trkpt>
      <trkpt lat="45.41625" lon="5.35693">
        <ele>521.65</ele>
        <time>2011-02-13T09:42:50Z</time>
      </trkpt>
      <trkpt lat="45.41617" lon="5.35705">
        <ele>521.65</ele>
        <time>2011-02-13T09:42:54Z</time>
      </trkpt>
      <trkpt lat="45.41608" lon="5.35716">
        <ele>521.65</ele>
        <time>2011-02-13T09:42:58Z</time>
      </trkpt>
      <trkpt lat="45.416" lon="5.35729">
        <ele>522.13</ele>
        <time>2011-02-13T09:43:02Z</time>
      </trkpt>
      <trkpt lat="45.41593" lon="5.35741">
        <ele>522.61</ele>
        <time>2011-02-13T09:43:06Z</time>
      </trkpt>
      <trkpt lat="45.41586" lon="5.35754">
        <ele>522.61</ele>
        <time>2011-02-13T09:43:10Z</time>
      </trkpt>
      <trkpt lat="45.41581" lon="5.35765">
        <ele>523.09</ele>
        <time>2011-02-13T09:43:13Z</time>
      </trkpt>
      <trkpt lat="45.41575" lon="5.35776">
        <ele>522.61</ele>
        <time>2011-02-13T09:43:16Z</time>
      </trkpt>
      <trkpt lat="45.41569" lon="5.35787">
        <ele>523.09</ele>
        <time>2011-02-13T09:43:19Z</time>
      </trkpt>
      <trkpt lat="45.41564" lon="5.35798">
        <ele>523.09</ele>
        <time>2011-02-13T09:43:22Z</time>
      </trkpt>
      <trkpt lat="45.4156" lon="5.3581">
        <ele>524.54</ele>
        <time>2011-02-13T09:43:25Z</time>
      </trkpt>
      <trkpt lat="45.41556" lon="5.35823">
        <ele>524.06</ele>
        <time>2011-02-13T09:43:28Z</time>
      </trkpt>
      <trkpt lat="45.41552" lon="5.35836">
        <ele>524.06</ele>
        <time>2011-02-13T09:43:31Z</time>
      </trkpt>
      <trkpt lat="45.41548" lon="5.35849">
        <ele>524.06</ele>
        <time>2011-02-13T09:43:34Z</time>
      </trkpt>
      <trkpt lat="45.41545" lon="5.35862">
        <ele>525.02</ele>
        <time>2011-02-13T09:43:37Z</time>
      </trkpt>
      <trkpt lat="45.41541" lon="5.35874">
        <ele>525.5</ele>
        <time>2011-02-13T09:43:40Z</time>
      </trkpt>
      <trkpt lat="45.41536" lon="5.35886">
        <ele>525.98</ele>
        <time>2011-02-13T09:43:43Z</time>
      </trkpt>
      <trkpt lat="45.41531" lon="5.35897">
        <ele>526.46</ele>
        <time>2011-02-13T09:43:46Z</time>
      </trkpt>
      <trkpt lat="45.41526" lon="5.35908">
        <ele>526.94</ele>
        <time>2011-02-13T09:43:49Z</time>
      </trkpt>
      <trkpt lat="45.41519" lon="5.35917">
        <ele>526.94</ele>
        <time>2011-02-13T09:43:52Z</time>
      </trkpt>
      <trkpt lat="45.41508" lon="5.3592">
        <ele>527.9</ele>
        <time>2011-02-13T09:43:56Z</time>
      </trkpt>
      <trkpt lat="45.41497" lon="5.3592">
        <ele>527.9</ele>
        <time>2011-02-13T09:44:00Z</time>
      </trkpt>
      <trkpt lat="45.41487" lon="5.35919">
        <ele>528.86</ele>
        <time>2011-02-13T09:44:03Z</time>
      </trkpt>
      <trkpt lat="45.41477" lon="5.35919">
        <ele>529.34</ele>
        <time>2011-02-13T09:44:06Z</time>
      </trkpt>
      <trkpt lat="45.41467" lon="5.3592">
        <ele>529.34</ele>
        <time>2011-02-13T09:44:09Z</time>
      </trkpt>
      <trkpt lat="45.41457" lon="5.35923">
        <ele>528.86</ele>
        <time>2011-02-13T09:44:12Z</time>
      </trkpt>
      <trkpt lat="45.41448" lon="5.35927">
        <ele>529.34</ele>
        <time>2011-02-13T09:44:15Z</time>
      </trkpt>
      <trkpt lat="45.41438" lon="5.35932">
        <ele>529.82</ele>
        <time>2011-02-13T09:44:18Z</time>
      </trkpt>
      <trkpt lat="45.41429" lon="5.35939">
        <ele>530.3</ele>
        <time>2011-02-13T09:44:21Z</time>
      </trkpt>
      <trkpt lat="45.41421" lon="5.35947">
        <ele>530.3</ele>
        <time>2011-02-13T09:44:24Z</time>
      </trkpt>
      <trkpt lat="45.41413" lon="5.35955">
        <ele>530.3</ele>
        <time>2011-02-13T09:44:27Z</time>
      </trkpt>
      <trkpt lat="45.41406" lon="5.35964">
        <ele>530.3</ele>
        <time>2011-02-13T09:44:30Z</time>
      </trkpt>
      <trkpt lat="45.41399" lon="5.35975">
        <ele>531.27</ele>
        <time>2011-02-13T09:44:33Z</time>
      </trkpt>
      <trkpt lat="45.41393" lon="5.35985">
        <ele>531.75</ele>
        <time>2011-02-13T09:44:36Z</time>
      </trkpt>
      <trkpt lat="45.41386" lon="5.35996">
        <ele>532.23</ele>
        <time>2011-02-13T09:44:39Z</time>
      </trkpt>
      <trkpt lat="45.41381" lon="5.36007">
        <ele>532.71</ele>
        <time>2011-02-13T09:44:42Z</time>
      </trkpt>
      <trkpt lat="45.41376" lon="5.36019">
        <ele>533.67</ele>
        <time>2011-02-13T09:44:45Z</time>
      </trkpt>
      <trkpt lat="45.41371" lon="5.36034">
        <ele>534.63</ele>
        <time>2011-02-13T09:44:49Z</time>
      </trkpt>
      <trkpt lat="45.41365" lon="5.36048">
        <ele>535.11</ele>
        <time>2011-02-13T09:44:53Z</time>
      </trkpt>
      <trkpt lat="45.4136" lon="5.36061">
        <ele>535.11</ele>
        <time>2011-02-13T09:44:57Z</time>
      </trkpt>
      <trkpt lat="45.41355" lon="5.36074">
        <ele>536.07</ele>
        <time>2011-02-13T09:45:01Z</time>
      </trkpt>
      <trkpt lat="45.41349" lon="5.36086">
        <ele>536.07</ele>
        <time>2011-02-13T09:45:05Z</time>
      </trkpt>
      <trkpt lat="45.41342" lon="5.36097">
        <ele>537.03</ele>
        <time>2011-02-13T09:45:09Z</time>
      </trkpt>
      <trkpt lat="45.41337" lon="5.36109">
        <ele>537.51</ele>
        <time>2011-02-13T09:45:13Z</time>
      </trkpt>
      <trkpt lat="45.41333" lon="5.36121">
        <ele>538.48</ele>
        <time>2011-02-13T09:45:17Z</time>
      </trkpt>
      <trkpt lat="45.41328" lon="5.36133">
        <ele>538.96</ele>
        <time>2011-02-13T09:45:21Z</time>
      </trkpt>
      <trkpt lat="45.41324" lon="5.36145">
        <ele>539.44</ele>
        <time>2011-02-13T09:45:25Z</time>
      </trkpt>
      <trkpt lat="45.41317" lon="5.36158">
        <ele>539.92</ele>
        <time>2011-02-13T09:45:29Z</time>
      </trkpt>
      <trkpt lat="45.41313" lon="5.3617">
        <ele>540.4</ele>
        <time>2011-02-13T09:45:33Z</time>
      </trkpt>
      <trkpt lat="45.41308" lon="5.36182">
        <ele>540.88</ele>
        <time>2011-02-13T09:45:37Z</time>
      </trkpt>
      <trkpt lat="45.41304" lon="5.36193">
        <ele>541.36</ele>
        <time>2011-02-13T09:45:41Z</time>
      </trkpt>
      <trkpt lat="45.413" lon="5.36206">
        <ele>541.36</ele>
        <time>2011-02-13T09:45:45Z</time>
      </trkpt>
      <trkpt lat="45.41295" lon="5.36221">
        <ele>543.28</ele>
        <time>2011-02-13T09:45:49Z</time>
      </trkpt>
      <trkpt lat="45.4129" lon="5.36236">
        <ele>543.28</ele>
        <time>2011-02-13T09:45:53Z</time>
      </trkpt>
      <trkpt lat="45.41286" lon="5.36251">
        <ele>543.76</ele>
        <time>2011-02-13T09:45:57Z</time>
      </trkpt>
      <trkpt lat="45.41281" lon="5.36266">
        <ele>544.72</ele>
        <time>2011-02-13T09:46:01Z</time>
      </trkpt>
      <trkpt lat="45.41278" lon="5.3628">
        <ele>544.72</ele>
        <time>2011-02-13T09:46:05Z</time>
      </trkpt>
      <trkpt lat="45.41274" lon="5.36292">
        <ele>545.2</ele>
        <time>2011-02-13T09:46:09Z</time>
      </trkpt>
      <trkpt lat="45.41269" lon="5.36307">
        <ele>546.17</ele>
        <time>2011-02-13T09:46:13Z</time>
      </trkpt>
      <trkpt lat="45.41266" lon="5.3632">
        <ele>546.17</ele>
        <time>2011-02-13T09:46:17Z</time>
      </trkpt>
      <trkpt lat="45.41262" lon="5.36333">
        <ele>547.13</ele>
        <time>2011-02-13T09:46:21Z</time>
      </trkpt>
      <trkpt lat="45.41256" lon="5.36344">
        <ele>547.13</ele>
        <time>2011-02-13T09:46:25Z</time>
      </trkpt>
      <trkpt lat="45.41251" lon="5.36356">
        <ele>547.61</ele>
        <time>2011-02-13T09:46:29Z</time>
      </trkpt>
      <trkpt lat="45.41245" lon="5.3637">
        <ele>548.57</ele>
        <time>2011-02-13T09:46:33Z</time>
      </trkpt>
      <trkpt lat="45.41238" lon="5.36381">
        <ele>549.05</ele>
        <time>2011-02-13T09:46:37Z</time>
      </trkpt>
      <trkpt lat="45.4123" lon="5.36393">
        <ele>549.53</ele>
        <time>2011-02-13T09:46:41Z</time>
      </trkpt>
      <trkpt lat="45.4122" lon="5.36405">
        <ele>550.49</ele>
        <time>2011-02-13T09:46:45Z</time>
      </trkpt>
      <trkpt lat="45.41213" lon="5.36416">
        <ele>550.49</ele>
        <time>2011-02-13T09:46:49Z</time>
      </trkpt>
      <trkpt lat="45.41206" lon="5.36427">
        <ele>551.45</ele>
        <time>2011-02-13T09:46:53Z</time>
      </trkpt>
      <trkpt lat="45.412" lon="5.36438">
        <ele>551.93</ele>
        <time>2011-02-13T09:46:57Z</time>
      </trkpt>
      <trkpt lat="45.41196" lon="5.36451">
        <ele>552.41</ele>
        <time>2011-02-13T09:47:01Z</time>
      </trkpt>
      <trkpt lat="45.41193" lon="5.36465">
        <ele>553.38</ele>
        <time>2011-02-13T09:47:05Z</time>
      </trkpt>
      <trkpt lat="45.41192" lon="5.3648">
        <ele>553.86</ele>
        <time>2011-02-13T09:47:09Z</time>
      </trkpt>
      <trkpt lat="45.4119" lon="5.36494">
        <ele>554.34</ele>
        <time>2011-02-13T09:47:13Z</time>
      </trkpt>
      <trkpt lat="45.4119" lon="5.36506">
        <ele>554.34</ele>
        <time>2011-02-13T09:47:17Z</time>
      </trkpt>
      <trkpt lat="45.41189" lon="5.3652">
        <ele>554.82</ele>
        <time>2011-02-13T09:47:21Z</time>
      </trkpt>
      <trkpt lat="45.41188" lon="5.36535">
        <ele>555.78</ele>
        <time>2011-02-13T09:47:25Z</time>
      </trkpt>
      <trkpt lat="45.41187" lon="5.3655">
        <ele>556.26</ele>
        <time>2011-02-13T09:47:29Z</time>
      </trkpt>
      <trkpt lat="45.41185" lon="5.36567">
        <ele>556.74</ele>
        <time>2011-02-13T09:47:33Z</time>
      </trkpt>
      <trkpt lat="45.41183" lon="5.36582">
        <ele>557.22</ele>
        <time>2011-02-13T09:47:37Z</time>
      </trkpt>
      <trkpt lat="45.41182" lon="5.36595">
        <ele>557.7</ele>
        <time>2011-02-13T09:47:41Z</time>
      </trkpt>
      <trkpt lat="45.41181" lon="5.36609">
        <ele>559.14</ele>
        <time>2011-02-13T09:47:45Z</time>
      </trkpt>
      <trkpt lat="45.4118" lon="5.36625">
        <ele>559.14</ele>
        <time>2011-02-13T09:47:49Z</time>
      </trkpt>
      <trkpt lat="45.41177" lon="5.36637">
        <ele>559.14</ele>
        <time>2011-02-13T09:47:53Z</time>
      </trkpt>
      <trkpt lat="45.41174" lon="5.36652">
        <ele>560.59</ele>
        <time>2011-02-13T09:47:57Z</time>
      </trkpt>
      <trkpt lat="45.41171" lon="5.36666">
        <ele>560.59</ele>
        <time>2011-02-13T09:48:01Z</time>
      </trkpt>
      <trkpt lat="45.41167" lon="5.3668">
        <ele>561.55</ele>
        <time>2011-02-13T09:48:06Z</time>
      </trkpt>
      <trkpt lat="45.41164" lon="5.36698">
        <ele>562.51</ele>
        <time>2011-02-13T09:48:11Z</time>
      </trkpt>
      <trkpt lat="45.41156" lon="5.36717">
        <ele>563.47</ele>
        <time>2011-02-13T09:48:16Z</time>
      </trkpt>
      <trkpt lat="45.41146" lon="5.36738">
        <ele>564.43</ele>
        <time>2011-02-13T09:48:21Z</time>
      </trkpt>
      <trkpt lat="45.41138" lon="5.36755">
        <ele>564.91</ele>
        <time>2011-02-13T09:48:25Z</time>
      </trkpt>
      <trkpt lat="45.41132" lon="5.36773">
        <ele>566.35</ele>
        <time>2011-02-13T09:48:29Z</time>
      </trkpt>
      <trkpt lat="45.41128" lon="5.36787">
        <ele>566.83</ele>
        <time>2011-02-13T09:48:33Z</time>
      </trkpt>
      <trkpt lat="45.41127" lon="5.36803">
        <ele>567.32</ele>
        <time>2011-02-13T09:48:37Z</time>
      </trkpt>
      <trkpt lat="45.41128" lon="5.36819">
        <ele>567.32</ele>
        <time>2011-02-13T09:48:41Z</time>
      </trkpt>
      <trkpt lat="45.41129" lon="5.36834">
        <ele>568.28</ele>
        <time>2011-02-13T09:48:45Z</time>
      </trkpt>
      <trkpt lat="45.41129" lon="5.36849">
        <ele>568.76</ele>
        <time>2011-02-13T09:48:49Z</time>
      </trkpt>
      <trkpt lat="45.41128" lon="5.36863">
        <ele>569.24</ele>
        <time>2011-02-13T09:48:53Z</time>
      </trkpt>
      <trkpt lat="45.41127" lon="5.36878">
        <ele>570.2</ele>
        <time>2011-02-13T09:48:57Z</time>
      </trkpt>
      <trkpt lat="45.41125" lon="5.36894">
        <ele>570.68</ele>
        <time>2011-02-13T09:49:02Z</time>
      </trkpt>
      <trkpt lat="45.41123" lon="5.36907">
        <ele>571.16</ele>
        <time>2011-02-13T09:49:06Z</time>
      </trkpt>
      <trkpt lat="45.4112" lon="5.36922">
        <ele>572.12</ele>
        <time>2011-02-13T09:49:10Z</time>
      </trkpt>
      <trkpt lat="45.41117" lon="5.36937">
        <ele>573.08</ele>
        <time>2011-02-13T09:49:14Z</time>
      </trkpt>
      <trkpt lat="45.41114" lon="5.36952">
        <ele>573.08</ele>
        <time>2011-02-13T09:49:18Z</time>
      </trkpt>
      <trkpt lat="45.41111" lon="5.36966">
        <ele>574.04</ele>
        <time>2011-02-13T09:49:22Z</time>
      </trkpt>
      <trkpt lat="45.4111" lon="5.36982">
        <ele>575.01</ele>
        <time>2011-02-13T09:49:26Z</time>
      </trkpt>
      <trkpt lat="45.41112" lon="5.36999">
        <ele>575.49</ele>
        <time>2011-02-13T09:49:31Z</time>
      </trkpt>
      <trkpt lat="45.41115" lon="5.37017">
        <ele>576.45</ele>
        <time>2011-02-13T09:49:37Z</time>
      </trkpt>
      <trkpt lat="45.41114" lon="5.37038">
        <ele>576.93</ele>
        <time>2011-02-13T09:49:42Z</time>
      </trkpt>
      <trkpt lat="45.41108" lon="5.37058">
        <ele>578.37</ele>
        <time>2011-02-13T09:49:48Z</time>
      </trkpt>
      <trkpt lat="45.41093" lon="5.37063">
        <ele>579.33</ele>
        <time>2011-02-13T09:49:54Z</time>
      </trkpt>
      <trkpt lat="45.41079" lon="5.37066">
        <ele>580.29</ele>
        <time>2011-02-13T09:49:59Z</time>
      </trkpt>
      <trkpt lat="45.41068" lon="5.37072">
        <ele>581.25</ele>
        <time>2011-02-13T09:50:04Z</time>
      </trkpt>
      <trkpt lat="45.4106" lon="5.37081">
        <ele>581.73</ele>
        <time>2011-02-13T09:50:09Z</time>
      </trkpt>
      <trkpt lat="45.41054" lon="5.37093">
        <ele>582.22</ele>
        <time>2011-02-13T09:50:14Z</time>
      </trkpt>
      <trkpt lat="45.4105" lon="5.37108">
        <ele>582.22</ele>
        <time>2011-02-13T09:50:18Z</time>
      </trkpt>
      <trkpt lat="45.41046" lon="5.37124">
        <ele>583.18</ele>
        <time>2011-02-13T09:50:22Z</time>
      </trkpt>
      <trkpt lat="45.41042" lon="5.37138">
        <ele>583.66</ele>
        <time>2011-02-13T09:50:26Z</time>
      </trkpt>
      <trkpt lat="45.41038" lon="5.37153">
        <ele>584.14</ele>
        <time>2011-02-13T09:50:30Z</time>
      </trkpt>
      <trkpt lat="45.41034" lon="5.3717">
        <ele>584.62</ele>
        <time>2011-02-13T09:50:34Z</time>
      </trkpt>
      <trkpt lat="45.4103" lon="5.37187">
        <ele>584.62</ele>
        <time>2011-02-13T09:50:38Z</time>
      </trkpt>
      <trkpt lat="45.41029" lon="5.37205">
        <ele>585.58</ele>
        <time>2011-02-13T09:50:42Z</time>
      </trkpt>
      <trkpt lat="45.41027" lon="5.37219">
        <ele>585.58</ele>
        <time>2011-02-13T09:50:45Z</time>
      </trkpt>
      <trkpt lat="45.41026" lon="5.37234">
        <ele>585.1</ele>
        <time>2011-02-13T09:50:48Z</time>
      </trkpt>
      <trkpt lat="45.41024" lon="5.37251">
        <ele>586.06</ele>
        <time>2011-02-13T09:50:51Z</time>
      </trkpt>
      <trkpt lat="45.41022" lon="5.37267">
        <ele>586.06</ele>
        <time>2011-02-13T09:50:54Z</time>
      </trkpt>
      <trkpt lat="45.4102" lon="5.37285">
        <ele>587.02</ele>
        <time>2011-02-13T09:50:57Z</time>
      </trkpt>
      <trkpt lat="45.41017" lon="5.37298">
        <ele>587.5</ele>
        <time>2011-02-13T09:51:00Z</time>
      </trkpt>
      <trkpt lat="45.41017" lon="5.37318">
        <ele>588.46</ele>
        <time>2011-02-13T09:51:04Z</time>
      </trkpt>
      <trkpt lat="45.41014" lon="5.37333">
        <ele>588.46</ele>
        <time>2011-02-13T09:51:07Z</time>
      </trkpt>
      <trkpt lat="45.41013" lon="5.37348">
        <ele>588.95</ele>
        <time>2011-02-13T09:51:10Z</time>
      </trkpt>
      <trkpt lat="45.41011" lon="5.37362">
        <ele>589.43</ele>
        <time>2011-02-13T09:51:13Z</time>
      </trkpt>
      <trkpt lat="45.41009" lon="5.37378">
        <ele>589.91</ele>
        <time>2011-02-13T09:51:17Z</time>
      </trkpt>
      <trkpt lat="45.41006" lon="5.37391">
        <ele>589.91</ele>
        <time>2011-02-13T09:51:20Z</time>
      </trkpt>
      <trkpt lat="45.41001" lon="5.37405">
        <ele>589.91</ele>
        <time>2011-02-13T09:51:23Z</time>
      </trkpt>
      <trkpt lat="45.40994" lon="5.37418">
        <ele>589.91</ele>
        <time>2011-02-13T09:51:27Z</time>
      </trkpt>
      <trkpt lat="45.40989" lon="5.37425">
        <ele>589.91</ele>
        <time>2011-02-13T09:53:10Z</time>
      </trkpt>
      <trkpt lat="45.40985" lon="5.37437">
        <ele>589.91</ele>
        <time>2011-02-13T09:53:52Z</time>
      </trkpt>
      <trkpt lat="45.40979" lon="5.37447">
        <ele>588.95</ele>
        <time>2011-02-13T09:53:56Z</time>
      </trkpt>
      <trkpt lat="45.40971" lon="5.3746">
        <ele>588.46</ele>
        <time>2011-02-13T09:54:00Z</time>
      </trkpt>
      <trkpt lat="45.40962" lon="5.37473">
        <ele>587.02</ele>
        <time>2011-02-13T09:54:03Z</time>
      </trkpt>
      <trkpt lat="45.40955" lon="5.37483">
        <ele>586.06</ele>
        <time>2011-02-13T09:54:05Z</time>
      </trkpt>
      <trkpt lat="45.40946" lon="5.37494">
        <ele>584.14</ele>
        <time>2011-02-13T09:54:07Z</time>
      </trkpt>
      <trkpt lat="45.40936" lon="5.37505">
        <ele>582.7</ele>
        <time>2011-02-13T09:54:09Z</time>
      </trkpt>
      <trkpt lat="45.40922" lon="5.37515">
        <ele>581.25</ele>
        <time>2011-02-13T09:54:11Z</time>
      </trkpt>
      <trkpt lat="45.40904" lon="5.37524">
        <ele>580.29</ele>
        <time>2011-02-13T09:54:13Z</time>
      </trkpt>
      <trkpt lat="45.40886" lon="5.37534">
        <ele>578.37</ele>
        <time>2011-02-13T09:54:15Z</time>
      </trkpt>
      <trkpt lat="45.40877" lon="5.37538">
        <ele>576.93</ele>
        <time>2011-02-13T09:54:16Z</time>
      </trkpt>
      <trkpt lat="45.40867" lon="5.37543">
        <ele>576.45</ele>
        <time>2011-02-13T09:54:17Z</time>
      </trkpt>
      <trkpt lat="45.40858" lon="5.37548">
        <ele>575.01</ele>
        <time>2011-02-13T09:54:18Z</time>
      </trkpt>
      <trkpt lat="45.40842" lon="5.37557">
        <ele>573.56</ele>
        <time>2011-02-13T09:54:20Z</time>
      </trkpt>
      <trkpt lat="45.40828" lon="5.3757">
        <ele>571.64</ele>
        <time>2011-02-13T09:54:22Z</time>
      </trkpt>
      <trkpt lat="45.40815" lon="5.37589">
        <ele>568.76</ele>
        <time>2011-02-13T09:54:24Z</time>
      </trkpt>
      <trkpt lat="45.40807" lon="5.37597">
        <ele>567.8</ele>
        <time>2011-02-13T09:54:25Z</time>
      </trkpt>
      <trkpt lat="45.40798" lon="5.37605">
        <ele>567.32</ele>
        <time>2011-02-13T09:54:26Z</time>
      </trkpt>
      <trkpt lat="45.40789" lon="5.37611">
        <ele>566.35</ele>
        <time>2011-02-13T09:54:27Z</time>
      </trkpt>
      <trkpt lat="45.40773" lon="5.3762">
        <ele>564.43</ele>
        <time>2011-02-13T09:54:29Z</time>
      </trkpt>
      <trkpt lat="45.40756" lon="5.37627">
        <ele>562.99</ele>
        <time>2011-02-13T09:54:31Z</time>
      </trkpt>
      <trkpt lat="45.40739" lon="5.37636">
        <ele>561.07</ele>
        <time>2011-02-13T09:54:33Z</time>
      </trkpt>
      <trkpt lat="45.40723" lon="5.37646">
        <ele>559.14</ele>
        <time>2011-02-13T09:54:35Z</time>
      </trkpt>
      <trkpt lat="45.40708" lon="5.37661">
        <ele>556.74</ele>
        <time>2011-02-13T09:54:37Z</time>
      </trkpt>
      <trkpt lat="45.407" lon="5.37669">
        <ele>555.78</ele>
        <time>2011-02-13T09:54:38Z</time>
      </trkpt>
      <trkpt lat="45.4069" lon="5.37676">
        <ele>554.82</ele>
        <time>2011-02-13T09:54:39Z</time>
      </trkpt>
      <trkpt lat="45.40679" lon="5.37681">
        <ele>553.38</ele>
        <time>2011-02-13T09:54:40Z</time>
      </trkpt>
      <trkpt lat="45.40669" lon="5.37687">
        <ele>552.9</ele>
        <time>2011-02-13T09:54:41Z</time>
      </trkpt>
      <trkpt lat="45.40659" lon="5.37692">
        <ele>551.45</ele>
        <time>2011-02-13T09:54:42Z</time>
      </trkpt>
      <trkpt lat="45.40649" lon="5.37696">
        <ele>550.01</ele>
        <time>2011-02-13T09:54:43Z</time>
      </trkpt>
      <trkpt lat="45.40639" lon="5.377">
        <ele>549.53</ele>
        <time>2011-02-13T09:54:44Z</time>
      </trkpt>
      <trkpt lat="45.4063" lon="5.37705">
        <ele>548.57</ele>
        <time>2011-02-13T09:54:45Z</time>
      </trkpt>
      <trkpt lat="45.40614" lon="5.37716">
        <ele>545.69</ele>
        <time>2011-02-13T09:54:47Z</time>
      </trkpt>
      <trkpt lat="45.40599" lon="5.37725">
        <ele>543.76</ele>
        <time>2011-02-13T09:54:49Z</time>
      </trkpt>
      <trkpt lat="45.40585" lon="5.37732">
        <ele>541.84</ele>
        <time>2011-02-13T09:54:51Z</time>
      </trkpt>
      <trkpt lat="45.40572" lon="5.37738">
        <ele>540.4</ele>
        <time>2011-02-13T09:54:53Z</time>
      </trkpt>
      <trkpt lat="45.40561" lon="5.37743">
        <ele>539.44</ele>
        <time>2011-02-13T09:54:55Z</time>
      </trkpt>
      <trkpt lat="45.40548" lon="5.37753">
        <ele>537.51</ele>
        <time>2011-02-13T09:54:57Z</time>
      </trkpt>
      <trkpt lat="45.40534" lon="5.37762">
        <ele>536.55</ele>
        <time>2011-02-13T09:54:59Z</time>
      </trkpt>
      <trkpt lat="45.40517" lon="5.37771">
        <ele>535.11</ele>
        <time>2011-02-13T09:55:01Z</time>
      </trkpt>
      <trkpt lat="45.405" lon="5.37779">
        <ele>534.15</ele>
        <time>2011-02-13T09:55:03Z</time>
      </trkpt>
      <trkpt lat="45.40482" lon="5.37787">
        <ele>532.71</ele>
        <time>2011-02-13T09:55:05Z</time>
      </trkpt>
      <trkpt lat="45.40474" lon="5.37791">
        <ele>531.27</ele>
        <time>2011-02-13T09:55:06Z</time>
      </trkpt>
      <trkpt lat="45.40465" lon="5.37795">
        <ele>531.27</ele>
        <time>2011-02-13T09:55:07Z</time>
      </trkpt>
      <trkpt lat="45.40456" lon="5.37799">
        <ele>530.3</ele>
        <time>2011-02-13T09:55:08Z</time>
      </trkpt>
      <trkpt lat="45.40446" lon="5.37802">
        <ele>528.86</ele>
        <time>2011-02-13T09:55:09Z</time>
      </trkpt>
      <trkpt lat="45.40435" lon="5.37806">
        <ele>527.9</ele>
        <time>2011-02-13T09:55:10Z</time>
      </trkpt>
      <trkpt lat="45.40425" lon="5.3781">
        <ele>525.98</ele>
        <time>2011-02-13T09:55:11Z</time>
      </trkpt>
      <trkpt lat="45.40414" lon="5.37813">
        <ele>525.5</ele>
        <time>2011-02-13T09:55:12Z</time>
      </trkpt>
      <trkpt lat="45.40402" lon="5.37817">
        <ele>524.54</ele>
        <time>2011-02-13T09:55:13Z</time>
      </trkpt>
      <trkpt lat="45.40391" lon="5.37821">
        <ele>524.06</ele>
        <time>2011-02-13T09:55:14Z</time>
      </trkpt>
      <trkpt lat="45.4038" lon="5.37826">
        <ele>520.69</ele>
        <time>2011-02-13T09:55:15Z</time>
      </trkpt>
      <trkpt lat="45.40369" lon="5.37829">
        <ele>517.81</ele>
        <time>2011-02-13T09:55:16Z</time>
      </trkpt>
      <trkpt lat="45.40358" lon="5.37831">
        <ele>519.73</ele>
        <time>2011-02-13T09:55:17Z</time>
      </trkpt>
      <trkpt lat="45.40345" lon="5.37827">
        <ele>518.29</ele>
        <time>2011-02-13T09:55:18Z</time>
      </trkpt>
      <trkpt lat="45.40334" lon="5.37828">
        <ele>517.81</ele>
        <time>2011-02-13T09:55:19Z</time>
      </trkpt>
      <trkpt lat="45.40322" lon="5.37827">
        <ele>517.33</ele>
        <time>2011-02-13T09:55:20Z</time>
      </trkpt>
      <trkpt lat="45.40309" lon="5.37824">
        <ele>515.88</ele>
        <time>2011-02-13T09:55:21Z</time>
      </trkpt>
      <trkpt lat="45.40297" lon="5.37822">
        <ele>515.88</ele>
        <time>2011-02-13T09:55:22Z</time>
      </trkpt>
      <trkpt lat="45.40284" lon="5.37821">
        <ele>514.44</ele>
        <time>2011-02-13T09:55:23Z</time>
      </trkpt>
      <trkpt lat="45.40271" lon="5.37816">
        <ele>512.04</ele>
        <time>2011-02-13T09:55:24Z</time>
      </trkpt>
      <trkpt lat="45.40258" lon="5.37812">
        <ele>511.08</ele>
        <time>2011-02-13T09:55:25Z</time>
      </trkpt>
      <trkpt lat="45.40245" lon="5.37808">
        <ele>510.12</ele>
        <time>2011-02-13T09:55:26Z</time>
      </trkpt>
      <trkpt lat="45.40232" lon="5.37805">
        <ele>509.64</ele>
        <time>2011-02-13T09:55:27Z</time>
      </trkpt>
      <trkpt lat="45.40219" lon="5.37803">
        <ele>507.23</ele>
        <time>2011-02-13T09:55:28Z</time>
      </trkpt>
      <trkpt lat="45.40206" lon="5.37801">
        <ele>507.23</ele>
        <time>2011-02-13T09:55:29Z</time>
      </trkpt>
      <trkpt lat="45.40195" lon="5.37799">
        <ele>504.83</ele>
        <time>2011-02-13T09:55:30Z</time>
      </trkpt>
      <trkpt lat="45.40183" lon="5.37797">
        <ele>503.39</ele>
        <time>2011-02-13T09:55:31Z</time>
      </trkpt>
      <trkpt lat="45.40171" lon="5.37794">
        <ele>502.43</ele>
        <time>2011-02-13T09:55:32Z</time>
      </trkpt>
      <trkpt lat="45.4016" lon="5.37792">
        <ele>501.46</ele>
        <time>2011-02-13T09:55:33Z</time>
      </trkpt>
      <trkpt lat="45.40148" lon="5.37789">
        <ele>500.02</ele>
        <time>2011-02-13T09:55:34Z</time>
      </trkpt>
      <trkpt lat="45.40137" lon="5.37787">
        <ele>500.02</ele>
        <time>2011-02-13T09:55:35Z</time>
      </trkpt>
      <trkpt lat="45.40127" lon="5.37785">
        <ele>498.58</ele>
        <time>2011-02-13T09:55:36Z</time>
      </trkpt>
      <trkpt lat="45.40118" lon="5.37784">
        <ele>497.14</ele>
        <time>2011-02-13T09:55:37Z</time>
      </trkpt>
      <trkpt lat="45.40108" lon="5.37783">
        <ele>496.66</ele>
        <time>2011-02-13T09:55:38Z</time>
      </trkpt>
      <trkpt lat="45.40099" lon="5.37781">
        <ele>495.7</ele>
        <time>2011-02-13T09:55:39Z</time>
      </trkpt>
      <trkpt lat="45.40083" lon="5.37779">
        <ele>493.77</ele>
        <time>2011-02-13T09:55:41Z</time>
      </trkpt>
      <trkpt lat="45.40068" lon="5.37775">
        <ele>492.81</ele>
        <time>2011-02-13T09:55:43Z</time>
      </trkpt>
      <trkpt lat="45.40056" lon="5.37767">
        <ele>491.37</ele>
        <time>2011-02-13T09:55:45Z</time>
      </trkpt>
      <trkpt lat="45.40042" lon="5.37766">
        <ele>490.41</ele>
        <time>2011-02-13T09:55:47Z</time>
      </trkpt>
      <trkpt lat="45.40032" lon="5.37773">
        <ele>490.41</ele>
        <time>2011-02-13T09:55:49Z</time>
      </trkpt>
      <trkpt lat="45.40027" lon="5.37787">
        <ele>490.89</ele>
        <time>2011-02-13T09:55:51Z</time>
      </trkpt>
      <trkpt lat="45.40024" lon="5.37802">
        <ele>490.41</ele>
        <time>2011-02-13T09:55:53Z</time>
      </trkpt>
      <trkpt lat="45.40022" lon="5.37816">
        <ele>490.89</ele>
        <time>2011-02-13T09:55:55Z</time>
      </trkpt>
      <trkpt lat="45.4002" lon="5.3783">
        <ele>490.89</ele>
        <time>2011-02-13T09:55:57Z</time>
      </trkpt>
      <trkpt lat="45.40018" lon="5.37848">
        <ele>490.89</ele>
        <time>2011-02-13T09:56:00Z</time>
      </trkpt>
      <trkpt lat="45.40022" lon="5.37865">
        <ele>491.37</ele>
        <time>2011-02-13T09:56:03Z</time>
      </trkpt>
      <trkpt lat="45.40025" lon="5.37878">
        <ele>492.33</ele>
        <time>2011-02-13T09:56:06Z</time>
      </trkpt>
      <trkpt lat="45.40028" lon="5.37894">
        <ele>493.77</ele>
        <time>2011-02-13T09:56:10Z</time>
      </trkpt>
      <trkpt lat="45.40028" lon="5.37908">
        <ele>494.74</ele>
        <time>2011-02-13T09:56:14Z</time>
      </trkpt>
      <trkpt lat="45.40017" lon="5.37911">
        <ele>494.74</ele>
        <time>2011-02-13T09:56:18Z</time>
      </trkpt>
      <trkpt lat="45.40004" lon="5.37912">
        <ele>493.29</ele>
        <time>2011-02-13T09:56:21Z</time>
      </trkpt>
      <trkpt lat="45.39994" lon="5.37913">
        <ele>492.33</ele>
        <time>2011-02-13T09:56:23Z</time>
      </trkpt>
      <trkpt lat="45.39981" lon="5.37914">
        <ele>490.89</ele>
        <time>2011-02-13T09:56:25Z</time>
      </trkpt>
      <trkpt lat="45.39971" lon="5.37913">
        <ele>489.45</ele>
        <time>2011-02-13T09:56:27Z</time>
      </trkpt>
      <trkpt lat="45.3996" lon="5.3791">
        <ele>488.97</ele>
        <time>2011-02-13T09:56:29Z</time>
      </trkpt>
      <trkpt lat="45.39956" lon="5.37904">
        <ele>488.01</ele>
        <time>2011-02-13T09:57:06Z</time>
      </trkpt>
      <trkpt lat="45.39953" lon="5.37891">
        <ele>487.05</ele>
        <time>2011-02-13T09:57:39Z</time>
      </trkpt>
      <trkpt lat="45.39951" lon="5.37878">
        <ele>487.05</ele>
        <time>2011-02-13T09:57:46Z</time>
      </trkpt>
      <trkpt lat="45.39951" lon="5.37866">
        <ele>485.6</ele>
        <time>2011-02-13T09:58:02Z</time>
      </trkpt>
      <trkpt lat="45.39944" lon="5.37864">
        <ele>484.16</ele>
        <time>2011-02-13T09:58:09Z</time>
      </trkpt>
      <trkpt lat="45.39942" lon="5.37876">
        <ele>484.64</ele>
        <time>2011-02-13T09:58:15Z</time>
      </trkpt>
      <trkpt lat="45.39939" lon="5.37887">
        <ele>484.16</ele>
        <time>2011-02-13T09:58:21Z</time>
      </trkpt>
      <trkpt lat="45.3994" lon="5.37888">
        <ele>484.16</ele>
        <time>2011-02-13T10:01:19Z</time>
      </trkpt>
      <trkpt lat="45.39938" lon="5.37905">
        <ele>483.68</ele>
        <time>2011-02-13T10:01:24Z</time>
      </trkpt>
      <trkpt lat="45.39935" lon="5.37919">
        <ele>484.16</ele>
        <time>2011-02-13T10:01:27Z</time>
      </trkpt>
      <trkpt lat="45.39933" lon="5.37932">
        <ele>483.2</ele>
        <time>2011-02-13T10:01:30Z</time>
      </trkpt>
      <trkpt lat="45.3993" lon="5.37946">
        <ele>483.68</ele>
        <time>2011-02-13T10:01:33Z</time>
      </trkpt>
      <trkpt lat="45.39927" lon="5.37961">
        <ele>483.2</ele>
        <time>2011-02-13T10:01:36Z</time>
      </trkpt>
      <trkpt lat="45.39925" lon="5.37977">
        <ele>483.2</ele>
        <time>2011-02-13T10:01:39Z</time>
      </trkpt>
      <trkpt lat="45.39923" lon="5.37992">
        <ele>482.72</ele>
        <time>2011-02-13T10:01:42Z</time>
      </trkpt>
      <trkpt lat="45.3992" lon="5.38009">
        <ele>480.32</ele>
        <time>2011-02-13T10:01:45Z</time>
      </trkpt>
      <trkpt lat="45.39918" lon="5.38025">
        <ele>479.84</ele>
        <time>2011-02-13T10:01:48Z</time>
      </trkpt>
      <trkpt lat="45.39916" lon="5.38041">
        <ele>479.35</ele>
        <time>2011-02-13T10:01:51Z</time>
      </trkpt>
      <trkpt lat="45.39916" lon="5.38058">
        <ele>481.28</ele>
        <time>2011-02-13T10:01:54Z</time>
      </trkpt>
      <trkpt lat="45.39914" lon="5.38076">
        <ele>480.8</ele>
        <time>2011-02-13T10:01:57Z</time>
      </trkpt>
      <trkpt lat="45.39914" lon="5.38095">
        <ele>480.32</ele>
        <time>2011-02-13T10:02:00Z</time>
      </trkpt>
      <trkpt lat="45.39913" lon="5.38114">
        <ele>479.84</ele>
        <time>2011-02-13T10:02:03Z</time>
      </trkpt>
      <trkpt lat="45.39912" lon="5.38129">
        <ele>479.84</ele>
        <time>2011-02-13T10:02:05Z</time>
      </trkpt>
      <trkpt lat="45.39912" lon="5.38144">
        <ele>478.87</ele>
        <time>2011-02-13T10:02:07Z</time>
      </trkpt>
      <trkpt lat="45.39912" lon="5.38159">
        <ele>478.87</ele>
        <time>2011-02-13T10:02:09Z</time>
      </trkpt>
      <trkpt lat="45.39912" lon="5.38173">
        <ele>479.35</ele>
        <time>2011-02-13T10:02:11Z</time>
      </trkpt>
      <trkpt lat="45.39911" lon="5.38188">
        <ele>478.39</ele>
        <time>2011-02-13T10:02:13Z</time>
      </trkpt>
      <trkpt lat="45.3991" lon="5.38203">
        <ele>477.91</ele>
        <time>2011-02-13T10:02:15Z</time>
      </trkpt>
      <trkpt lat="45.3991" lon="5.38218">
        <ele>478.39</ele>
        <time>2011-02-13T10:02:17Z</time>
      </trkpt>
      <trkpt lat="45.39909" lon="5.38231">
        <ele>478.39</ele>
        <time>2011-02-13T10:02:19Z</time>
      </trkpt>
      <trkpt lat="45.39909" lon="5.38244">
        <ele>477.43</ele>
        <time>2011-02-13T10:02:21Z</time>
      </trkpt>
      <trkpt lat="45.39908" lon="5.38258">
        <ele>477.43</ele>
        <time>2011-02-13T10:02:23Z</time>
      </trkpt>
      <trkpt lat="45.39907" lon="5.38272">
        <ele>477.91</ele>
        <time>2011-02-13T10:02:25Z</time>
      </trkpt>
      <trkpt lat="45.39907" lon="5.38287">
        <ele>476.95</ele>
        <time>2011-02-13T10:02:27Z</time>
      </trkpt>
      <trkpt lat="45.39907" lon="5.38303">
        <ele>476.95</ele>
        <time>2011-02-13T10:02:29Z</time>
      </trkpt>
      <trkpt lat="45.39908" lon="5.38319">
        <ele>476.47</ele>
        <time>2011-02-13T10:02:31Z</time>
      </trkpt>
      <trkpt lat="45.39908" lon="5.38335">
        <ele>475.99</ele>
        <time>2011-02-13T10:02:33Z</time>
      </trkpt>
      <trkpt lat="45.39907" lon="5.38352">
        <ele>475.99</ele>
        <time>2011-02-13T10:02:35Z</time>
      </trkpt>
      <trkpt lat="45.39907" lon="5.38368">
        <ele>475.99</ele>
        <time>2011-02-13T10:02:37Z</time>
      </trkpt>
      <trkpt lat="45.39906" lon="5.38384">
        <ele>475.51</ele>
        <time>2011-02-13T10:02:39Z</time>
      </trkpt>
      <trkpt lat="45.39906" lon="5.384">
        <ele>475.03</ele>
        <time>2011-02-13T10:02:41Z</time>
      </trkpt>
      <trkpt lat="45.39906" lon="5.38416">
        <ele>474.55</ele>
        <time>2011-02-13T10:02:43Z</time>
      </trkpt>
      <trkpt lat="45.39905" lon="5.38432">
        <ele>474.55</ele>
        <time>2011-02-13T10:02:45Z</time>
      </trkpt>
      <trkpt lat="45.39904" lon="5.38447">
        <ele>474.07</ele>
        <time>2011-02-13T10:02:47Z</time>
      </trkpt>
      <trkpt lat="45.39904" lon="5.38464">
        <ele>474.07</ele>
        <time>2011-02-13T10:02:49Z</time>
      </trkpt>
      <trkpt lat="45.39903" lon="5.38481">
        <ele>474.07</ele>
        <time>2011-02-13T10:02:51Z</time>
      </trkpt>
      <trkpt lat="45.39902" lon="5.38497">
        <ele>473.59</ele>
        <time>2011-02-13T10:02:53Z</time>
      </trkpt>
      <trkpt lat="45.39899" lon="5.38514">
        <ele>473.11</ele>
        <time>2011-02-13T10:02:55Z</time>
      </trkpt>
      <trkpt lat="45.39896" lon="5.38531">
        <ele>473.59</ele>
        <time>2011-02-13T10:02:57Z</time>
      </trkpt>
      <trkpt lat="45.39893" lon="5.38547">
        <ele>473.59</ele>
        <time>2011-02-13T10:02:59Z</time>
      </trkpt>
      <trkpt lat="45.39891" lon="5.38562">
        <ele>473.59</ele>
        <time>2011-02-13T10:03:01Z</time>
      </trkpt>
      <trkpt lat="45.3989" lon="5.38578">
        <ele>473.11</ele>
        <time>2011-02-13T10:03:03Z</time>
      </trkpt>
      <trkpt lat="45.3989" lon="5.38593">
        <ele>473.59</ele>
        <time>2011-02-13T10:03:05Z</time>
      </trkpt>
      <trkpt lat="45.39889" lon="5.38609">
        <ele>473.59</ele>
        <time>2011-02-13T10:03:07Z</time>
      </trkpt>
      <trkpt lat="45.39888" lon="5.38622">
        <ele>473.59</ele>
        <time>2011-02-13T10:03:09Z</time>
      </trkpt>
      <trkpt lat="45.39887" lon="5.38641">
        <ele>474.55</ele>
        <time>2011-02-13T10:03:12Z</time>
      </trkpt>
      <trkpt lat="45.39885" lon="5.38658">
        <ele>475.99</ele>
        <time>2011-02-13T10:03:15Z</time>
      </trkpt>
      <trkpt lat="45.39884" lon="5.38674">
        <ele>475.99</ele>
        <time>2011-02-13T10:03:18Z</time>
      </trkpt>
      <trkpt lat="45.39882" lon="5.3869">
        <ele>476.47</ele>
        <time>2011-02-13T10:03:21Z</time>
      </trkpt>
      <trkpt lat="45.39881" lon="5.38705">
        <ele>476.95</ele>
        <time>2011-02-13T10:03:24Z</time>
      </trkpt>
      <trkpt lat="45.39881" lon="5.3872">
        <ele>477.43</ele>
        <time>2011-02-13T10:03:27Z</time>
      </trkpt>
      <trkpt lat="45.3988" lon="5.38736">
        <ele>477.91</ele>
        <time>2011-02-13T10:03:30Z</time>
      </trkpt>
      <trkpt lat="45.3988" lon="5.38752">
        <ele>479.35</ele>
        <time>2011-02-13T10:03:33Z</time>
      </trkpt>
      <trkpt lat="45.39877" lon="5.38768">
        <ele>478.39</ele>
        <time>2011-02-13T10:03:36Z</time>
      </trkpt>
      <trkpt lat="45.39873" lon="5.38784">
        <ele>478.39</ele>
        <time>2011-02-13T10:03:39Z</time>
      </trkpt>
      <trkpt lat="45.39867" lon="5.38799">
        <ele>478.39</ele>
        <time>2011-02-13T10:03:42Z</time>
      </trkpt>
      <trkpt lat="45.39862" lon="5.38816">
        <ele>478.39</ele>
        <time>2011-02-13T10:03:45Z</time>
      </trkpt>
      <trkpt lat="45.3986" lon="5.38831">
        <ele>477.43</ele>
        <time>2011-02-13T10:03:47Z</time>
      </trkpt>
      <trkpt lat="45.39859" lon="5.38845">
        <ele>477.43</ele>
        <time>2011-02-13T10:03:49Z</time>
      </trkpt>
      <trkpt lat="45.39858" lon="5.3886">
        <ele>476.95</ele>
        <time>2011-02-13T10:03:51Z</time>
      </trkpt>
      <trkpt lat="45.39858" lon="5.38875">
        <ele>476.95</ele>
        <time>2011-02-13T10:03:53Z</time>
      </trkpt>
      <trkpt lat="45.39859" lon="5.38891">
        <ele>475.99</ele>
        <time>2011-02-13T10:03:55Z</time>
      </trkpt>
      <trkpt lat="45.39861" lon="5.38906">
        <ele>476.47</ele>
        <time>2011-02-13T10:03:57Z</time>
      </trkpt>
      <trkpt lat="45.39861" lon="5.38921">
        <ele>475.51</ele>
        <time>2011-02-13T10:03:59Z</time>
      </trkpt>
      <trkpt lat="45.39862" lon="5.38936">
        <ele>475.99</ele>
        <time>2011-02-13T10:04:01Z</time>
      </trkpt>
      <trkpt lat="45.3986" lon="5.38949">
        <ele>475.51</ele>
        <time>2011-02-13T10:04:03Z</time>
      </trkpt>
      <trkpt lat="45.39856" lon="5.38963">
        <ele>475.51</ele>
        <time>2011-02-13T10:04:05Z</time>
      </trkpt>
      <trkpt lat="45.39848" lon="5.38975">
        <ele>475.03</ele>
        <time>2011-02-13T10:04:07Z</time>
      </trkpt>
      <trkpt lat="45.39839" lon="5.38984">
        <ele>473.59</ele>
        <time>2011-02-13T10:04:09Z</time>
      </trkpt>
      <trkpt lat="45.39837" lon="5.39002">
        <ele>473.11</ele>
        <time>2011-02-13T10:04:12Z</time>
      </trkpt>
      <trkpt lat="45.39838" lon="5.39016">
        <ele>473.11</ele>
        <time>2011-02-13T10:04:14Z</time>
      </trkpt>
      <trkpt lat="45.3984" lon="5.39029">
        <ele>472.14</ele>
        <time>2011-02-13T10:04:16Z</time>
      </trkpt>
      <trkpt lat="45.39841" lon="5.39043">
        <ele>471.66</ele>
        <time>2011-02-13T10:04:18Z</time>
      </trkpt>
      <trkpt lat="45.39843" lon="5.39058">
        <ele>471.18</ele>
        <time>2011-02-13T10:04:20Z</time>
      </trkpt>
      <trkpt lat="45.39844" lon="5.39075">
        <ele>471.18</ele>
        <time>2011-02-13T10:04:22Z</time>
      </trkpt>
      <trkpt lat="45.39847" lon="5.39092">
        <ele>470.22</ele>
        <time>2011-02-13T10:04:24Z</time>
      </trkpt>
      <trkpt lat="45.3985" lon="5.3911">
        <ele>469.26</ele>
        <time>2011-02-13T10:04:26Z</time>
      </trkpt>
      <trkpt lat="45.39854" lon="5.39128">
        <ele>468.78</ele>
        <time>2011-02-13T10:04:28Z</time>
      </trkpt>
      <trkpt lat="45.39859" lon="5.39147">
        <ele>468.3</ele>
        <time>2011-02-13T10:04:30Z</time>
      </trkpt>
      <trkpt lat="45.39864" lon="5.39164">
        <ele>467.34</ele>
        <time>2011-02-13T10:04:32Z</time>
      </trkpt>
      <trkpt lat="45.39861" lon="5.39179">
        <ele>467.34</ele>
        <time>2011-02-13T10:04:34Z</time>
      </trkpt>
      <trkpt lat="45.39852" lon="5.39189">
        <ele>465.9</ele>
        <time>2011-02-13T10:04:36Z</time>
      </trkpt>
      <trkpt lat="45.39841" lon="5.39201">
        <ele>465.42</ele>
        <time>2011-02-13T10:04:38Z</time>
      </trkpt>
      <trkpt lat="45.39833" lon="5.39214">
        <ele>463.97</ele>
        <time>2011-02-13T10:04:40Z</time>
      </trkpt>
      <trkpt lat="45.39823" lon="5.39224">
        <ele>463.01</ele>
        <time>2011-02-13T10:04:42Z</time>
      </trkpt>
      <trkpt lat="45.39812" lon="5.39229">
        <ele>462.53</ele>
        <time>2011-02-13T10:04:44Z</time>
      </trkpt>
      <trkpt lat="45.39801" lon="5.3923">
        <ele>462.53</ele>
        <time>2011-02-13T10:04:46Z</time>
      </trkpt>
      <trkpt lat="45.39791" lon="5.39231">
        <ele>461.57</ele>
        <time>2011-02-13T10:04:48Z</time>
      </trkpt>
      <trkpt lat="45.3978" lon="5.39231">
        <ele>461.57</ele>
        <time>2011-02-13T10:04:50Z</time>
      </trkpt>
      <trkpt lat="45.39767" lon="5.39232">
        <ele>461.09</ele>
        <time>2011-02-13T10:04:52Z</time>
      </trkpt>
      <trkpt lat="45.39753" lon="5.39234">
        <ele>460.13</ele>
        <time>2011-02-13T10:04:54Z</time>
      </trkpt>
      <trkpt lat="45.3974" lon="5.39236">
        <ele>460.13</ele>
        <time>2011-02-13T10:04:56Z</time>
      </trkpt>
      <trkpt lat="45.39726" lon="5.39238">
        <ele>459.65</ele>
        <time>2011-02-13T10:04:58Z</time>
      </trkpt>
      <trkpt lat="45.39714" lon="5.3924">
        <ele>459.65</ele>
        <time>2011-02-13T10:05:00Z</time>
      </trkpt>
      <trkpt lat="45.39701" lon="5.39243">
        <ele>459.17</ele>
        <time>2011-02-13T10:05:02Z</time>
      </trkpt>
      <trkpt lat="45.3969" lon="5.39246">
        <ele>458.69</ele>
        <time>2011-02-13T10:05:04Z</time>
      </trkpt>
      <trkpt lat="45.39679" lon="5.39248">
        <ele>459.17</ele>
        <time>2011-02-13T10:05:06Z</time>
      </trkpt>
      <trkpt lat="45.39667" lon="5.39252">
        <ele>459.17</ele>
        <time>2011-02-13T10:05:09Z</time>
      </trkpt>
      <trkpt lat="45.39662" lon="5.39263">
        <ele>459.65</ele>
        <time>2011-02-13T10:05:12Z</time>
      </trkpt>
      <trkpt lat="45.39657" lon="5.39279">
        <ele>459.65</ele>
        <time>2011-02-13T10:05:15Z</time>
      </trkpt>
      <trkpt lat="45.39654" lon="5.39295">
        <ele>459.65</ele>
        <time>2011-02-13T10:05:18Z</time>
      </trkpt>
      <trkpt lat="45.3965" lon="5.39314">
        <ele>459.17</ele>
        <time>2011-02-13T10:05:21Z</time>
      </trkpt>
      <trkpt lat="45.39649" lon="5.39328">
        <ele>459.65</ele>
        <time>2011-02-13T10:05:23Z</time>
      </trkpt>
      <trkpt lat="45.39648" lon="5.39341">
        <ele>459.65</ele>
        <time>2011-02-13T10:05:25Z</time>
      </trkpt>
      <trkpt lat="45.39647" lon="5.39355">
        <ele>459.65</ele>
        <time>2011-02-13T10:05:27Z</time>
      </trkpt>
      <trkpt lat="45.39647" lon="5.39368">
        <ele>459.65</ele>
        <time>2011-02-13T10:05:29Z</time>
      </trkpt>
      <trkpt lat="45.39648" lon="5.39382">
        <ele>459.65</ele>
        <time>2011-02-13T10:05:31Z</time>
      </trkpt>
      <trkpt lat="45.39648" lon="5.39395">
        <ele>460.61</ele>
        <time>2011-02-13T10:05:33Z</time>
      </trkpt>
      <trkpt lat="45.39648" lon="5.39409">
        <ele>460.61</ele>
        <time>2011-02-13T10:05:35Z</time>
      </trkpt>
      <trkpt lat="45.39648" lon="5.39423">
        <ele>460.61</ele>
        <time>2011-02-13T10:05:37Z</time>
      </trkpt>
      <trkpt lat="45.39648" lon="5.39437">
        <ele>460.61</ele>
        <time>2011-02-13T10:05:39Z</time>
      </trkpt>
      <trkpt lat="45.39648" lon="5.39452">
        <ele>460.61</ele>
        <time>2011-02-13T10:05:41Z</time>
      </trkpt>
      <trkpt lat="45.39649" lon="5.39467">
        <ele>460.61</ele>
        <time>2011-02-13T10:05:43Z</time>
      </trkpt>
      <trkpt lat="45.39649" lon="5.39481">
        <ele>461.09</ele>
        <time>2011-02-13T10:05:45Z</time>
      </trkpt>
      <trkpt lat="45.3965" lon="5.39496">
        <ele>461.09</ele>
        <time>2011-02-13T10:05:47Z</time>
      </trkpt>
      <trkpt lat="45.3965" lon="5.39511">
        <ele>461.09</ele>
        <time>2011-02-13T10:05:49Z</time>
      </trkpt>
      <trkpt lat="45.3965" lon="5.39525">
        <ele>461.09</ele>
        <time>2011-02-13T10:05:51Z</time>
      </trkpt>
      <trkpt lat="45.3965" lon="5.3954">
        <ele>461.57</ele>
        <time>2011-02-13T10:05:53Z</time>
      </trkpt>
      <trkpt lat="45.39651" lon="5.39554">
        <ele>462.05</ele>
        <time>2011-02-13T10:05:55Z</time>
      </trkpt>
      <trkpt lat="45.39651" lon="5.39567">
        <ele>461.57</ele>
        <time>2011-02-13T10:05:57Z</time>
      </trkpt>
      <trkpt lat="45.39652" lon="5.39582">
        <ele>461.57</ele>
        <time>2011-02-13T10:05:59Z</time>
      </trkpt>
      <trkpt lat="45.39653" lon="5.39597">
        <ele>462.05</ele>
        <time>2011-02-13T10:06:01Z</time>
      </trkpt>
      <trkpt lat="45.39653" lon="5.39613">
        <ele>462.05</ele>
        <time>2011-02-13T10:06:03Z</time>
      </trkpt>
      <trkpt lat="45.39653" lon="5.39629">
        <ele>462.05</ele>
        <time>2011-02-13T10:06:05Z</time>
      </trkpt>
      <trkpt lat="45.39653" lon="5.39644">
        <ele>462.05</ele>
        <time>2011-02-13T10:06:07Z</time>
      </trkpt>
      <trkpt lat="45.39654" lon="5.39659">
        <ele>461.57</ele>
        <time>2011-02-13T10:06:09Z</time>
      </trkpt>
      <trkpt lat="45.39656" lon="5.39673">
        <ele>461.57</ele>
        <time>2011-02-13T10:06:11Z</time>
      </trkpt>
      <trkpt lat="45.39656" lon="5.39687">
        <ele>461.57</ele>
        <time>2011-02-13T10:06:13Z</time>
      </trkpt>
      <trkpt lat="45.39657" lon="5.39702">
        <ele>461.57</ele>
        <time>2011-02-13T10:06:15Z</time>
      </trkpt>
      <trkpt lat="45.39659" lon="5.39717">
        <ele>462.05</ele>
        <time>2011-02-13T10:06:17Z</time>
      </trkpt>
      <trkpt lat="45.39661" lon="5.39731">
        <ele>460.61</ele>
        <time>2011-02-13T10:06:19Z</time>
      </trkpt>
      <trkpt lat="45.39662" lon="5.39746">
        <ele>461.57</ele>
        <time>2011-02-13T10:06:21Z</time>
      </trkpt>
      <trkpt lat="45.39664" lon="5.3976">
        <ele>462.05</ele>
        <time>2011-02-13T10:06:23Z</time>
      </trkpt>
      <trkpt lat="45.39665" lon="5.39774">
        <ele>461.09</ele>
        <time>2011-02-13T10:06:25Z</time>
      </trkpt>
      <trkpt lat="45.39665" lon="5.39788">
        <ele>462.05</ele>
        <time>2011-02-13T10:06:27Z</time>
      </trkpt>
      <trkpt lat="45.39665" lon="5.39801">
        <ele>461.57</ele>
        <time>2011-02-13T10:06:29Z</time>
      </trkpt>
      <trkpt lat="45.39664" lon="5.39814">
        <ele>461.09</ele>
        <time>2011-02-13T10:06:31Z</time>
      </trkpt>
      <trkpt lat="45.39661" lon="5.39828">
        <ele>460.61</ele>
        <time>2011-02-13T10:06:34Z</time>
      </trkpt>
      <trkpt lat="45.39656" lon="5.39839">
        <ele>459.65</ele>
        <time>2011-02-13T10:06:51Z</time>
      </trkpt>
      <trkpt lat="45.39657" lon="5.39858">
        <ele>458.69</ele>
        <time>2011-02-13T10:06:54Z</time>
      </trkpt>
      <trkpt lat="45.39657" lon="5.39874">
        <ele>458.69</ele>
        <time>2011-02-13T10:06:56Z</time>
      </trkpt>
      <trkpt lat="45.39655" lon="5.3989">
        <ele>458.21</ele>
        <time>2011-02-13T10:06:58Z</time>
      </trkpt>
      <trkpt lat="45.39649" lon="5.39905">
        <ele>457.24</ele>
        <time>2011-02-13T10:07:00Z</time>
      </trkpt>
      <trkpt lat="45.39638" lon="5.39914">
        <ele>456.28</ele>
        <time>2011-02-13T10:07:02Z</time>
      </trkpt>
      <trkpt lat="45.39624" lon="5.39915">
        <ele>455.32</ele>
        <time>2011-02-13T10:07:04Z</time>
      </trkpt>
      <trkpt lat="45.39609" lon="5.39915">
        <ele>454.84</ele>
        <time>2011-02-13T10:07:06Z</time>
      </trkpt>
      <trkpt lat="45.39594" lon="5.39917">
        <ele>453.88</ele>
        <time>2011-02-13T10:07:08Z</time>
      </trkpt>
      <trkpt lat="45.3958" lon="5.3992">
        <ele>453.4</ele>
        <time>2011-02-13T10:07:10Z</time>
      </trkpt>
      <trkpt lat="45.39566" lon="5.39923">
        <ele>454.36</ele>
        <time>2011-02-13T10:07:12Z</time>
      </trkpt>
      <trkpt lat="45.39553" lon="5.39925">
        <ele>453.88</ele>
        <time>2011-02-13T10:07:14Z</time>
      </trkpt>
      <trkpt lat="45.3954" lon="5.39929">
        <ele>453.88</ele>
        <time>2011-02-13T10:07:16Z</time>
      </trkpt>
      <trkpt lat="45.39527" lon="5.39932">
        <ele>453.4</ele>
        <time>2011-02-13T10:07:18Z</time>
      </trkpt>
      <trkpt lat="45.39515" lon="5.39934">
        <ele>453.4</ele>
        <time>2011-02-13T10:07:20Z</time>
      </trkpt>
      <trkpt lat="45.39503" lon="5.39937">
        <ele>453.4</ele>
        <time>2011-02-13T10:07:22Z</time>
      </trkpt>
      <trkpt lat="45.39491" lon="5.39938">
        <ele>452.92</ele>
        <time>2011-02-13T10:07:24Z</time>
      </trkpt>
      <trkpt lat="45.39479" lon="5.3994">
        <ele>452.92</ele>
        <time>2011-02-13T10:07:26Z</time>
      </trkpt>
      <trkpt lat="45.39467" lon="5.39942">
        <ele>453.4</ele>
        <time>2011-02-13T10:07:28Z</time>
      </trkpt>
      <trkpt lat="45.39455" lon="5.39943">
        <ele>452.92</ele>
        <time>2011-02-13T10:07:30Z</time>
      </trkpt>
      <trkpt lat="45.39442" lon="5.39942">
        <ele>452.44</ele>
        <time>2011-02-13T10:07:32Z</time>
      </trkpt>
      <trkpt lat="45.39429" lon="5.39941">
        <ele>452.44</ele>
        <time>2011-02-13T10:07:34Z</time>
      </trkpt>
      <trkpt lat="45.39415" lon="5.3994">
        <ele>452.44</ele>
        <time>2011-02-13T10:07:36Z</time>
      </trkpt>
      <trkpt lat="45.39402" lon="5.39938">
        <ele>452.44</ele>
        <time>2011-02-13T10:07:38Z</time>
      </trkpt>
      <trkpt lat="45.3939" lon="5.39936">
        <ele>452.44</ele>
        <time>2011-02-13T10:07:40Z</time>
      </trkpt>
      <trkpt lat="45.39378" lon="5.39936">
        <ele>452.92</ele>
        <time>2011-02-13T10:07:42Z</time>
      </trkpt>
      <trkpt lat="45.39367" lon="5.39936">
        <ele>452.44</ele>
        <time>2011-02-13T10:07:44Z</time>
      </trkpt>
      <trkpt lat="45.39357" lon="5.39938">
        <ele>452.92</ele>
        <time>2011-02-13T10:07:46Z</time>
      </trkpt>
      <trkpt lat="45.39348" lon="5.39944">
        <ele>452.92</ele>
        <time>2011-02-13T10:07:48Z</time>
      </trkpt>
      <trkpt lat="45.39339" lon="5.3995">
        <ele>452.44</ele>
        <time>2011-02-13T10:07:50Z</time>
      </trkpt>
      <trkpt lat="45.39331" lon="5.39958">
        <ele>453.4</ele>
        <time>2011-02-13T10:07:52Z</time>
      </trkpt>
      <trkpt lat="45.39323" lon="5.39967">
        <ele>452.92</ele>
        <time>2011-02-13T10:07:54Z</time>
      </trkpt>
      <trkpt lat="45.39315" lon="5.39974">
        <ele>453.4</ele>
        <time>2011-02-13T10:07:56Z</time>
      </trkpt>
      <trkpt lat="45.39305" lon="5.39985">
        <ele>453.88</ele>
        <time>2011-02-13T10:07:59Z</time>
      </trkpt>
      <trkpt lat="45.39294" lon="5.39996">
        <ele>455.32</ele>
        <time>2011-02-13T10:08:02Z</time>
      </trkpt>
      <trkpt lat="45.39283" lon="5.40006">
        <ele>456.28</ele>
        <time>2011-02-13T10:08:05Z</time>
      </trkpt>
      <trkpt lat="45.39277" lon="5.40014">
        <ele>457.72</ele>
        <time>2011-02-13T10:08:07Z</time>
      </trkpt>
      <trkpt lat="45.39267" lon="5.40025">
        <ele>458.69</ele>
        <time>2011-02-13T10:08:10Z</time>
      </trkpt>
      <trkpt lat="45.39259" lon="5.40035">
        <ele>459.17</ele>
        <time>2011-02-13T10:08:13Z</time>
      </trkpt>
      <trkpt lat="45.39252" lon="5.40043">
        <ele>459.65</ele>
        <time>2011-02-13T10:08:16Z</time>
      </trkpt>
      <trkpt lat="45.39243" lon="5.40055">
        <ele>461.09</ele>
        <time>2011-02-13T10:08:20Z</time>
      </trkpt>
      <trkpt lat="45.39235" lon="5.40065">
        <ele>460.61</ele>
        <time>2011-02-13T10:08:23Z</time>
      </trkpt>
      <trkpt lat="45.39227" lon="5.40075">
        <ele>461.57</ele>
        <time>2011-02-13T10:08:26Z</time>
      </trkpt>
      <trkpt lat="45.39218" lon="5.40086">
        <ele>461.09</ele>
        <time>2011-02-13T10:08:29Z</time>
      </trkpt>
      <trkpt lat="45.39212" lon="5.40098">
        <ele>461.57</ele>
        <time>2011-02-13T10:08:32Z</time>
      </trkpt>
      <trkpt lat="45.39218" lon="5.40109">
        <ele>461.09</ele>
        <time>2011-02-13T10:08:35Z</time>
      </trkpt>
      <trkpt lat="45.39225" lon="5.40119">
        <ele>462.05</ele>
        <time>2011-02-13T10:08:38Z</time>
      </trkpt>
      <trkpt lat="45.39234" lon="5.40131">
        <ele>461.57</ele>
        <time>2011-02-13T10:08:41Z</time>
      </trkpt>
      <trkpt lat="45.39243" lon="5.40144">
        <ele>462.05</ele>
        <time>2011-02-13T10:08:44Z</time>
      </trkpt>
      <trkpt lat="45.39251" lon="5.40155">
        <ele>462.05</ele>
        <time>2011-02-13T10:08:47Z</time>
      </trkpt>
      <trkpt lat="45.39261" lon="5.40166">
        <ele>462.53</ele>
        <time>2011-02-13T10:08:50Z</time>
      </trkpt>
      <trkpt lat="45.39271" lon="5.40177">
        <ele>462.05</ele>
        <time>2011-02-13T10:08:53Z</time>
      </trkpt>
      <trkpt lat="45.39278" lon="5.40191">
        <ele>462.53</ele>
        <time>2011-02-13T10:08:56Z</time>
      </trkpt>
      <trkpt lat="45.39286" lon="5.40205">
        <ele>462.53</ele>
        <time>2011-02-13T10:08:59Z</time>
      </trkpt>
      <trkpt lat="45.39293" lon="5.40218">
        <ele>463.01</ele>
        <time>2011-02-13T10:09:02Z</time>
      </trkpt>
      <trkpt lat="45.393" lon="5.40231">
        <ele>462.53</ele>
        <time>2011-02-13T10:09:05Z</time>
      </trkpt>
      <trkpt lat="45.39307" lon="5.40244">
        <ele>462.53</ele>
        <time>2011-02-13T10:09:08Z</time>
      </trkpt>
      <trkpt lat="45.39314" lon="5.40257">
        <ele>463.49</ele>
        <time>2011-02-13T10:09:11Z</time>
      </trkpt>
      <trkpt lat="45.39323" lon="5.4027">
        <ele>463.01</ele>
        <time>2011-02-13T10:09:14Z</time>
      </trkpt>
      <trkpt lat="45.39331" lon="5.40284">
        <ele>463.49</ele>
        <time>2011-02-13T10:09:17Z</time>
      </trkpt>
      <trkpt lat="45.3934" lon="5.40298">
        <ele>463.49</ele>
        <time>2011-02-13T10:09:20Z</time>
      </trkpt>
      <trkpt lat="45.39347" lon="5.40312">
        <ele>463.49</ele>
        <time>2011-02-13T10:09:23Z</time>
      </trkpt>
      <trkpt lat="45.39353" lon="5.40326">
        <ele>463.97</ele>
        <time>2011-02-13T10:09:26Z</time>
      </trkpt>
      <trkpt lat="45.39359" lon="5.40341">
        <ele>464.45</ele>
        <time>2011-02-13T10:09:29Z</time>
      </trkpt>
      <trkpt lat="45.39365" lon="5.40355">
        <ele>463.97</ele>
        <time>2011-02-13T10:09:32Z</time>
      </trkpt>
      <trkpt lat="45.39373" lon="5.40368">
        <ele>463.97</ele>
        <time>2011-02-13T10:09:35Z</time>
      </trkpt>
      <trkpt lat="45.39381" lon="5.40381">
        <ele>464.45</ele>
        <time>2011-02-13T10:09:38Z</time>
      </trkpt>
      <trkpt lat="45.39388" lon="5.40395">
        <ele>464.45</ele>
        <time>2011-02-13T10:09:41Z</time>
      </trkpt>
      <trkpt lat="45.39396" lon="5.40407">
        <ele>464.45</ele>
        <time>2011-02-13T10:09:44Z</time>
      </trkpt>
      <trkpt lat="45.39403" lon="5.4042">
        <ele>464.45</ele>
        <time>2011-02-13T10:09:47Z</time>
      </trkpt>
      <trkpt lat="45.3941" lon="5.40433">
        <ele>464.45</ele>
        <time>2011-02-13T10:09:50Z</time>
      </trkpt>
      <trkpt lat="45.39418" lon="5.40446">
        <ele>464.93</ele>
        <time>2011-02-13T10:09:53Z</time>
      </trkpt>
      <trkpt lat="45.39425" lon="5.40458">
        <ele>464.93</ele>
        <time>2011-02-13T10:09:56Z</time>
      </trkpt>
      <trkpt lat="45.39433" lon="5.4047">
        <ele>464.93</ele>
        <time>2011-02-13T10:09:59Z</time>
      </trkpt>
      <trkpt lat="45.39441" lon="5.40482">
        <ele>465.42</ele>
        <time>2011-02-13T10:10:02Z</time>
      </trkpt>
      <trkpt lat="45.39449" lon="5.40494">
        <ele>465.42</ele>
        <time>2011-02-13T10:10:05Z</time>
      </trkpt>
      <trkpt lat="45.39457" lon="5.40507">
        <ele>465.42</ele>
        <time>2011-02-13T10:10:08Z</time>
      </trkpt>
      <trkpt lat="45.39464" lon="5.4052">
        <ele>465.42</ele>
        <time>2011-02-13T10:10:11Z</time>
      </trkpt>
      <trkpt lat="45.39471" lon="5.40532">
        <ele>465.42</ele>
        <time>2011-02-13T10:10:14Z</time>
      </trkpt>
      <trkpt lat="45.39472" lon="5.40545">
        <ele>465.9</ele>
        <time>2011-02-13T10:10:17Z</time>
      </trkpt>
      <trkpt lat="45.39464" lon="5.40555">
        <ele>466.38</ele>
        <time>2011-02-13T10:10:21Z</time>
      </trkpt>
      <trkpt lat="45.39451" lon="5.4056">
        <ele>466.86</ele>
        <time>2011-02-13T10:10:24Z</time>
      </trkpt>
      <trkpt lat="45.39436" lon="5.40564">
        <ele>465.9</ele>
        <time>2011-02-13T10:10:27Z</time>
      </trkpt>
      <trkpt lat="45.39422" lon="5.40571">
        <ele>466.38</ele>
        <time>2011-02-13T10:10:30Z</time>
      </trkpt>
      <trkpt lat="45.39408" lon="5.40579">
        <ele>465.9</ele>
        <time>2011-02-13T10:10:33Z</time>
      </trkpt>
      <trkpt lat="45.39396" lon="5.40585">
        <ele>466.38</ele>
        <time>2011-02-13T10:10:36Z</time>
      </trkpt>
      <trkpt lat="45.39383" lon="5.40592">
        <ele>466.38</ele>
        <time>2011-02-13T10:10:39Z</time>
      </trkpt>
      <trkpt lat="45.39374" lon="5.40598">
        <ele>465.42</ele>
        <time>2011-02-13T10:10:41Z</time>
      </trkpt>
      <trkpt lat="45.39365" lon="5.40604">
        <ele>466.38</ele>
        <time>2011-02-13T10:10:43Z</time>
      </trkpt>
      <trkpt lat="45.39355" lon="5.40609">
        <ele>466.86</ele>
        <time>2011-02-13T10:10:45Z</time>
      </trkpt>
      <trkpt lat="45.39346" lon="5.40614">
        <ele>466.38</ele>
        <time>2011-02-13T10:10:47Z</time>
      </trkpt>
      <trkpt lat="45.39336" lon="5.40619">
        <ele>466.86</ele>
        <time>2011-02-13T10:10:49Z</time>
      </trkpt>
      <trkpt lat="45.39327" lon="5.40624">
        <ele>466.38</ele>
        <time>2011-02-13T10:10:51Z</time>
      </trkpt>
      <trkpt lat="45.39318" lon="5.40628">
        <ele>466.38</ele>
        <time>2011-02-13T10:10:53Z</time>
      </trkpt>
      <trkpt lat="45.39309" lon="5.40633">
        <ele>466.86</ele>
        <time>2011-02-13T10:10:55Z</time>
      </trkpt>
      <trkpt lat="45.39299" lon="5.40637">
        <ele>466.38</ele>
        <time>2011-02-13T10:10:57Z</time>
      </trkpt>
      <trkpt lat="45.39289" lon="5.40642">
        <ele>466.38</ele>
        <time>2011-02-13T10:10:59Z</time>
      </trkpt>
      <trkpt lat="45.3928" lon="5.40646">
        <ele>466.38</ele>
        <time>2011-02-13T10:11:01Z</time>
      </trkpt>
      <trkpt lat="45.39269" lon="5.40649">
        <ele>465.9</ele>
        <time>2011-02-13T10:11:03Z</time>
      </trkpt>
      <trkpt lat="45.3926" lon="5.40652">
        <ele>465.9</ele>
        <time>2011-02-13T10:11:05Z</time>
      </trkpt>
      <trkpt lat="45.3925" lon="5.40655">
        <ele>466.38</ele>
        <time>2011-02-13T10:11:07Z</time>
      </trkpt>
      <trkpt lat="45.3924" lon="5.40658">
        <ele>466.86</ele>
        <time>2011-02-13T10:11:09Z</time>
      </trkpt>
      <trkpt lat="45.39231" lon="5.40661">
        <ele>466.86</ele>
        <time>2011-02-13T10:11:11Z</time>
      </trkpt>
      <trkpt lat="45.39222" lon="5.40664">
        <ele>466.38</ele>
        <time>2011-02-13T10:11:13Z</time>
      </trkpt>
      <trkpt lat="45.39212" lon="5.40669">
        <ele>467.34</ele>
        <time>2011-02-13T10:11:15Z</time>
      </trkpt>
      <trkpt lat="45.39202" lon="5.40674">
        <ele>466.86</ele>
        <time>2011-02-13T10:11:17Z</time>
      </trkpt>
      <trkpt lat="45.39193" lon="5.40678">
        <ele>467.82</ele>
        <time>2011-02-13T10:11:19Z</time>
      </trkpt>
      <trkpt lat="45.39182" lon="5.40683">
        <ele>468.3</ele>
        <time>2011-02-13T10:11:21Z</time>
      </trkpt>
      <trkpt lat="45.39171" lon="5.40686">
        <ele>468.3</ele>
        <time>2011-02-13T10:11:23Z</time>
      </trkpt>
      <trkpt lat="45.39161" lon="5.40688">
        <ele>468.3</ele>
        <time>2011-02-13T10:11:25Z</time>
      </trkpt>
      <trkpt lat="45.39151" lon="5.40691">
        <ele>468.3</ele>
        <time>2011-02-13T10:11:27Z</time>
      </trkpt>
      <trkpt lat="45.39141" lon="5.40695">
        <ele>468.78</ele>
        <time>2011-02-13T10:11:29Z</time>
      </trkpt>
      <trkpt lat="45.39132" lon="5.40701">
        <ele>468.78</ele>
        <time>2011-02-13T10:11:31Z</time>
      </trkpt>
      <trkpt lat="45.39128" lon="5.40713">
        <ele>468.78</ele>
        <time>2011-02-13T10:11:33Z</time>
      </trkpt>
      <trkpt lat="45.3913" lon="5.40727">
        <ele>468.78</ele>
        <time>2011-02-13T10:11:35Z</time>
      </trkpt>
      <trkpt lat="45.39133" lon="5.40746">
        <ele>469.26</ele>
        <time>2011-02-13T10:11:38Z</time>
      </trkpt>
      <trkpt lat="45.39135" lon="5.40759">
        <ele>469.26</ele>
        <time>2011-02-13T10:11:40Z</time>
      </trkpt>
      <trkpt lat="45.39136" lon="5.40772">
        <ele>469.26</ele>
        <time>2011-02-13T10:11:42Z</time>
      </trkpt>
      <trkpt lat="45.39137" lon="5.40786">
        <ele>470.22</ele>
        <time>2011-02-13T10:11:44Z</time>
      </trkpt>
      <trkpt lat="45.39139" lon="5.408">
        <ele>470.22</ele>
        <time>2011-02-13T10:11:46Z</time>
      </trkpt>
      <trkpt lat="45.39142" lon="5.40813">
        <ele>470.22</ele>
        <time>2011-02-13T10:11:48Z</time>
      </trkpt>
      <trkpt lat="45.39143" lon="5.40827">
        <ele>470.22</ele>
        <time>2011-02-13T10:11:50Z</time>
      </trkpt>
      <trkpt lat="45.39145" lon="5.40841">
        <ele>470.22</ele>
        <time>2011-02-13T10:11:52Z</time>
      </trkpt>
      <trkpt lat="45.39146" lon="5.40855">
        <ele>470.22</ele>
        <time>2011-02-13T10:11:54Z</time>
      </trkpt>
      <trkpt lat="45.39147" lon="5.40868">
        <ele>469.74</ele>
        <time>2011-02-13T10:11:56Z</time>
      </trkpt>
      <trkpt lat="45.39148" lon="5.40881">
        <ele>469.74</ele>
        <time>2011-02-13T10:11:58Z</time>
      </trkpt>
      <trkpt lat="45.39149" lon="5.40895">
        <ele>470.22</ele>
        <time>2011-02-13T10:12:00Z</time>
      </trkpt>
      <trkpt lat="45.39151" lon="5.40909">
        <ele>470.7</ele>
        <time>2011-02-13T10:12:02Z</time>
      </trkpt>
      <trkpt lat="45.39152" lon="5.40923">
        <ele>470.7</ele>
        <time>2011-02-13T10:12:04Z</time>
      </trkpt>
      <trkpt lat="45.39153" lon="5.40938">
        <ele>470.22</ele>
        <time>2011-02-13T10:12:06Z</time>
      </trkpt>
      <trkpt lat="45.39154" lon="5.40952">
        <ele>470.22</ele>
        <time>2011-02-13T10:12:08Z</time>
      </trkpt>
      <trkpt lat="45.39156" lon="5.40967">
        <ele>470.7</ele>
        <time>2011-02-13T10:12:10Z</time>
      </trkpt>
      <trkpt lat="45.39157" lon="5.40981">
        <ele>470.7</ele>
        <time>2011-02-13T10:12:12Z</time>
      </trkpt>
      <trkpt lat="45.39158" lon="5.40995">
        <ele>470.7</ele>
        <time>2011-02-13T10:12:14Z</time>
      </trkpt>
      <trkpt lat="45.39159" lon="5.41009">
        <ele>470.22</ele>
        <time>2011-02-13T10:12:16Z</time>
      </trkpt>
      <trkpt lat="45.3916" lon="5.41023">
        <ele>470.7</ele>
        <time>2011-02-13T10:12:18Z</time>
      </trkpt>
      <trkpt lat="45.39161" lon="5.41037">
        <ele>470.7</ele>
        <time>2011-02-13T10:12:20Z</time>
      </trkpt>
      <trkpt lat="45.39162" lon="5.41051">
        <ele>471.18</ele>
        <time>2011-02-13T10:12:22Z</time>
      </trkpt>
      <trkpt lat="45.39164" lon="5.41064">
        <ele>471.18</ele>
        <time>2011-02-13T10:12:24Z</time>
      </trkpt>
      <trkpt lat="45.39165" lon="5.41077">
        <ele>471.18</ele>
        <time>2011-02-13T10:12:26Z</time>
      </trkpt>
      <trkpt lat="45.39165" lon="5.4109">
        <ele>471.66</ele>
        <time>2011-02-13T10:12:28Z</time>
      </trkpt>
      <trkpt lat="45.39167" lon="5.41103">
        <ele>470.7</ele>
        <time>2011-02-13T10:12:30Z</time>
      </trkpt>
      <trkpt lat="45.39168" lon="5.41121">
        <ele>471.66</ele>
        <time>2011-02-13T10:12:33Z</time>
      </trkpt>
      <trkpt lat="45.39171" lon="5.41139">
        <ele>471.66</ele>
        <time>2011-02-13T10:12:36Z</time>
      </trkpt>
      <trkpt lat="45.39172" lon="5.41153">
        <ele>471.66</ele>
        <time>2011-02-13T10:12:38Z</time>
      </trkpt>
      <trkpt lat="45.39174" lon="5.41168">
        <ele>471.66</ele>
        <time>2011-02-13T10:12:40Z</time>
      </trkpt>
      <trkpt lat="45.39174" lon="5.41182">
        <ele>471.66</ele>
        <time>2011-02-13T10:12:42Z</time>
      </trkpt>
      <trkpt lat="45.39175" lon="5.41196">
        <ele>471.66</ele>
        <time>2011-02-13T10:12:44Z</time>
      </trkpt>
      <trkpt lat="45.39176" lon="5.4121">
        <ele>472.14</ele>
        <time>2011-02-13T10:12:46Z</time>
      </trkpt>
      <trkpt lat="45.39177" lon="5.41223">
        <ele>471.66</ele>
        <time>2011-02-13T10:12:48Z</time>
      </trkpt>
      <trkpt lat="45.39178" lon="5.41236">
        <ele>471.66</ele>
        <time>2011-02-13T10:12:50Z</time>
      </trkpt>
      <trkpt lat="45.39179" lon="5.41249">
        <ele>472.14</ele>
        <time>2011-02-13T10:12:52Z</time>
      </trkpt>
      <trkpt lat="45.3918" lon="5.41268">
        <ele>472.63</ele>
        <time>2011-02-13T10:12:55Z</time>
      </trkpt>
      <trkpt lat="45.3918" lon="5.41282">
        <ele>472.14</ele>
        <time>2011-02-13T10:12:57Z</time>
      </trkpt>
      <trkpt lat="45.39181" lon="5.41296">
        <ele>472.63</ele>
        <time>2011-02-13T10:12:59Z</time>
      </trkpt>
      <trkpt lat="45.39182" lon="5.41311">
        <ele>472.14</ele>
        <time>2011-02-13T10:13:01Z</time>
      </trkpt>
      <trkpt lat="45.39182" lon="5.41326">
        <ele>472.63</ele>
        <time>2011-02-13T10:13:03Z</time>
      </trkpt>
      <trkpt lat="45.39183" lon="5.41342">
        <ele>472.63</ele>
        <time>2011-02-13T10:13:05Z</time>
      </trkpt>
      <trkpt lat="45.39183" lon="5.41357">
        <ele>472.14</ele>
        <time>2011-02-13T10:13:07Z</time>
      </trkpt>
      <trkpt lat="45.39183" lon="5.41372">
        <ele>472.63</ele>
        <time>2011-02-13T10:13:09Z</time>
      </trkpt>
      <trkpt lat="45.39184" lon="5.41388">
        <ele>472.63</ele>
        <time>2011-02-13T10:13:11Z</time>
      </trkpt>
      <trkpt lat="45.39184" lon="5.41404">
        <ele>472.14</ele>
        <time>2011-02-13T10:13:13Z</time>
      </trkpt>
      <trkpt lat="45.39185" lon="5.4142">
        <ele>472.14</ele>
        <time>2011-02-13T10:13:15Z</time>
      </trkpt>
      <trkpt lat="45.39187" lon="5.41436">
        <ele>472.14</ele>
        <time>2011-02-13T10:13:17Z</time>
      </trkpt>
      <trkpt lat="45.39188" lon="5.41452">
        <ele>472.63</ele>
        <time>2011-02-13T10:13:19Z</time>
      </trkpt>
      <trkpt lat="45.3919" lon="5.41467">
        <ele>473.11</ele>
        <time>2011-02-13T10:13:21Z</time>
      </trkpt>
      <trkpt lat="45.39191" lon="5.41481">
        <ele>473.11</ele>
        <time>2011-02-13T10:13:23Z</time>
      </trkpt>
      <trkpt lat="45.39193" lon="5.41496">
        <ele>473.11</ele>
        <time>2011-02-13T10:13:25Z</time>
      </trkpt>
      <trkpt lat="45.39196" lon="5.4151">
        <ele>473.11</ele>
        <time>2011-02-13T10:13:27Z</time>
      </trkpt>
      <trkpt lat="45.39198" lon="5.41524">
        <ele>473.11</ele>
        <time>2011-02-13T10:13:29Z</time>
      </trkpt>
      <trkpt lat="45.392" lon="5.41539">
        <ele>473.11</ele>
        <time>2011-02-13T10:13:31Z</time>
      </trkpt>
      <trkpt lat="45.39202" lon="5.41553">
        <ele>473.11</ele>
        <time>2011-02-13T10:13:33Z</time>
      </trkpt>
      <trkpt lat="45.39205" lon="5.41567">
        <ele>473.59</ele>
        <time>2011-02-13T10:13:35Z</time>
      </trkpt>
      <trkpt lat="45.39208" lon="5.41582">
        <ele>473.59</ele>
        <time>2011-02-13T10:13:37Z</time>
      </trkpt>
      <trkpt lat="45.39211" lon="5.41595">
        <ele>473.59</ele>
        <time>2011-02-13T10:13:39Z</time>
      </trkpt>
      <trkpt lat="45.39212" lon="5.41609">
        <ele>473.59</ele>
        <time>2011-02-13T10:13:41Z</time>
      </trkpt>
      <trkpt lat="45.39214" lon="5.41622">
        <ele>473.11</ele>
        <time>2011-02-13T10:13:43Z</time>
      </trkpt>
      <trkpt lat="45.39217" lon="5.41635">
        <ele>473.59</ele>
        <time>2011-02-13T10:13:45Z</time>
      </trkpt>
      <trkpt lat="45.39219" lon="5.41648">
        <ele>473.59</ele>
        <time>2011-02-13T10:13:47Z</time>
      </trkpt>
      <trkpt lat="45.39221" lon="5.41661">
        <ele>473.59</ele>
        <time>2011-02-13T10:13:49Z</time>
      </trkpt>
      <trkpt lat="45.39223" lon="5.41679">
        <ele>473.59</ele>
        <time>2011-02-13T10:13:52Z</time>
      </trkpt>
      <trkpt lat="45.39218" lon="5.41688">
        <ele>473.59</ele>
        <time>2011-02-13T10:13:55Z</time>
      </trkpt>
      <trkpt lat="45.39209" lon="5.41681">
        <ele>473.59</ele>
        <time>2011-02-13T10:13:58Z</time>
      </trkpt>
      <trkpt lat="45.39196" lon="5.4167">
        <ele>473.11</ele>
        <time>2011-02-13T10:14:01Z</time>
      </trkpt>
      <trkpt lat="45.39188" lon="5.41663">
        <ele>473.59</ele>
        <time>2011-02-13T10:14:03Z</time>
      </trkpt>
      <trkpt lat="45.39179" lon="5.41655">
        <ele>473.11</ele>
        <time>2011-02-13T10:14:05Z</time>
      </trkpt>
      <trkpt lat="45.39171" lon="5.41647">
        <ele>473.11</ele>
        <time>2011-02-13T10:14:07Z</time>
      </trkpt>
      <trkpt lat="45.39162" lon="5.41639">
        <ele>472.63</ele>
        <time>2011-02-13T10:14:09Z</time>
      </trkpt>
      <trkpt lat="45.39153" lon="5.41631">
        <ele>472.63</ele>
        <time>2011-02-13T10:14:11Z</time>
      </trkpt>
      <trkpt lat="45.39144" lon="5.41623">
        <ele>473.11</ele>
        <time>2011-02-13T10:14:13Z</time>
      </trkpt>
      <trkpt lat="45.39135" lon="5.41615">
        <ele>473.11</ele>
        <time>2011-02-13T10:14:15Z</time>
      </trkpt>
      <trkpt lat="45.39125" lon="5.41607">
        <ele>473.11</ele>
        <time>2011-02-13T10:14:17Z</time>
      </trkpt>
      <trkpt lat="45.39114" lon="5.41599">
        <ele>472.63</ele>
        <time>2011-02-13T10:14:19Z</time>
      </trkpt>
      <trkpt lat="45.39104" lon="5.41589">
        <ele>472.14</ele>
        <time>2011-02-13T10:14:21Z</time>
      </trkpt>
      <trkpt lat="45.39093" lon="5.4158">
        <ele>472.63</ele>
        <time>2011-02-13T10:14:23Z</time>
      </trkpt>
      <trkpt lat="45.39081" lon="5.41572">
        <ele>472.63</ele>
        <time>2011-02-13T10:14:25Z</time>
      </trkpt>
      <trkpt lat="45.3907" lon="5.41564">
        <ele>472.14</ele>
        <time>2011-02-13T10:14:27Z</time>
      </trkpt>
      <trkpt lat="45.39058" lon="5.41557">
        <ele>471.66</ele>
        <time>2011-02-13T10:14:29Z</time>
      </trkpt>
      <trkpt lat="45.39047" lon="5.4155">
        <ele>471.66</ele>
        <time>2011-02-13T10:14:31Z</time>
      </trkpt>
      <trkpt lat="45.39035" lon="5.41546">
        <ele>471.66</ele>
        <time>2011-02-13T10:14:33Z</time>
      </trkpt>
      <trkpt lat="45.39023" lon="5.41543">
        <ele>471.66</ele>
        <time>2011-02-13T10:14:35Z</time>
      </trkpt>
      <trkpt lat="45.39011" lon="5.41539">
        <ele>471.18</ele>
        <time>2011-02-13T10:14:37Z</time>
      </trkpt>
      <trkpt lat="45.38999" lon="5.41536">
        <ele>471.18</ele>
        <time>2011-02-13T10:14:39Z</time>
      </trkpt>
      <trkpt lat="45.38987" lon="5.41534">
        <ele>471.18</ele>
        <time>2011-02-13T10:14:41Z</time>
      </trkpt>
      <trkpt lat="45.38975" lon="5.41532">
        <ele>471.66</ele>
        <time>2011-02-13T10:14:43Z</time>
      </trkpt>
      <trkpt lat="45.38963" lon="5.41528">
        <ele>470.7</ele>
        <time>2011-02-13T10:14:45Z</time>
      </trkpt>
      <trkpt lat="45.38951" lon="5.41524">
        <ele>470.7</ele>
        <time>2011-02-13T10:14:47Z</time>
      </trkpt>
      <trkpt lat="45.38939" lon="5.4152">
        <ele>470.7</ele>
        <time>2011-02-13T10:14:49Z</time>
      </trkpt>
      <trkpt lat="45.38927" lon="5.41514">
        <ele>470.7</ele>
        <time>2011-02-13T10:14:51Z</time>
      </trkpt>
      <trkpt lat="45.38916" lon="5.41508">
        <ele>471.18</ele>
        <time>2011-02-13T10:14:53Z</time>
      </trkpt>
      <trkpt lat="45.38904" lon="5.41502">
        <ele>470.7</ele>
        <time>2011-02-13T10:14:55Z</time>
      </trkpt>
      <trkpt lat="45.38893" lon="5.41496">
        <ele>470.22</ele>
        <time>2011-02-13T10:14:57Z</time>
      </trkpt>
      <trkpt lat="45.38881" lon="5.41491">
        <ele>469.74</ele>
        <time>2011-02-13T10:14:59Z</time>
      </trkpt>
      <trkpt lat="45.3887" lon="5.41487">
        <ele>470.22</ele>
        <time>2011-02-13T10:15:01Z</time>
      </trkpt>
      <trkpt lat="45.38859" lon="5.41483">
        <ele>469.26</ele>
        <time>2011-02-13T10:15:03Z</time>
      </trkpt>
      <trkpt lat="45.38848" lon="5.4148">
        <ele>469.74</ele>
        <time>2011-02-13T10:15:05Z</time>
      </trkpt>
      <trkpt lat="45.38836" lon="5.41478">
        <ele>469.26</ele>
        <time>2011-02-13T10:15:07Z</time>
      </trkpt>
      <trkpt lat="45.38825" lon="5.41476">
        <ele>469.26</ele>
        <time>2011-02-13T10:15:09Z</time>
      </trkpt>
      <trkpt lat="45.38813" lon="5.41475">
        <ele>468.78</ele>
        <time>2011-02-13T10:15:11Z</time>
      </trkpt>
      <trkpt lat="45.38802" lon="5.41474">
        <ele>469.26</ele>
        <time>2011-02-13T10:15:13Z</time>
      </trkpt>
      <trkpt lat="45.38791" lon="5.41474">
        <ele>468.78</ele>
        <time>2011-02-13T10:15:15Z</time>
      </trkpt>
      <trkpt lat="45.38781" lon="5.41476">
        <ele>468.3</ele>
        <time>2011-02-13T10:15:17Z</time>
      </trkpt>
      <trkpt lat="45.38775" lon="5.41487">
        <ele>468.3</ele>
        <time>2011-02-13T10:15:19Z</time>
      </trkpt>
      <trkpt lat="45.38775" lon="5.41502">
        <ele>468.3</ele>
        <time>2011-02-13T10:15:21Z</time>
      </trkpt>
      <trkpt lat="45.38778" lon="5.41516">
        <ele>467.82</ele>
        <time>2011-02-13T10:15:23Z</time>
      </trkpt>
      <trkpt lat="45.3878" lon="5.41528">
        <ele>467.82</ele>
        <time>2011-02-13T10:15:25Z</time>
      </trkpt>
      <trkpt lat="45.38784" lon="5.41545">
        <ele>468.3</ele>
        <time>2011-02-13T10:15:28Z</time>
      </trkpt>
      <trkpt lat="45.38779" lon="5.41556">
        <ele>467.82</ele>
        <time>2011-02-13T10:15:31Z</time>
      </trkpt>
      <trkpt lat="45.38772" lon="5.41553">
        <ele>468.78</ele>
        <time>2011-02-13T10:15:39Z</time>
      </trkpt>
    </trkseg>
  </trk>
</gpx>